<?xml version="1.0" encoding="UTF-8" standalone="no" ?>
<gpx xmlns="http://www.topografix.com/GPX/1/1" xmlns:xsi="http://www.w3.org/2001/XMLSchema-instance" xsi:schemaLocation="http://www.topografix.com/GPX/1/1 http://www.topografix.com/GPX/1/1/gpx.xsd" version="1.1" creator="VisuGPX - https://www.visugpx.com">
  <metadata>
    <name>VOIE d'ARLES GR653 : Etape ANGLES à BOISSEZON</name>
    <desc><![CDATA[1er Juin 2023 : Etape n°10  du Chemin de Compostelle dit Voie d'Arles ou VIA TOLOSONA.
Au départ de ANGLES , inutile de faire le détour stupide du GR653 , nous traçons direct jusqu'au hameau des SIRES.
Parcours tranquille pendant les 12 premiers kms , avec très peu de dénivellé , autour de 700 M d'altitude.
Puis à partir du Rialet , descente progressive sur Boissezon qui n'est qu'à 285 M d'altitude.
Le gite municipal se trouve juste dans la rue ou passe le GR.
Etape ne laissant aucun souvenir impérissable , tranquillité et solitude comme sur la plupart des étapes de cette voie de Compostelle.. 
Notre récit complet avec photos : [url]http://www.chabant.fr[/url] ]]></desc>
  </metadata>
  <trk>
    <name><![CDATA[Anglès Course à pied]]></name>
    <extensions>
      <line xmlns="http://www.topografix.com/GPX/gpx_style/0/2">
        <color>0000FF</color>
        <width>4</width>
      </line>
    </extensions>
    <trkseg>
      <trkpt lat="43.5636" lon="2.55839">
        <ele>732.79998779297</ele>
        <time>2023-06-01T06:10:45.000Z</time>
      </trkpt>
      <trkpt lat="43.56359" lon="2.55834">
        <ele>731.59997558594</ele>
        <time>2023-06-01T06:10:51.000Z</time>
      </trkpt>
      <trkpt lat="43.56358" lon="2.55832">
        <ele>731.59997558594</ele>
        <time>2023-06-01T06:10:53.000Z</time>
      </trkpt>
      <trkpt lat="43.56357" lon="2.55828">
        <ele>731</ele>
        <time>2023-06-01T06:11:00.000Z</time>
      </trkpt>
      <trkpt lat="43.56355" lon="2.55819">
        <ele>730.79998779297</ele>
        <time>2023-06-01T06:11:06.000Z</time>
      </trkpt>
      <trkpt lat="43.56354" lon="2.55817">
        <ele>730.59997558594</ele>
        <time>2023-06-01T06:11:07.000Z</time>
      </trkpt>
      <trkpt lat="43.56354" lon="2.55814">
        <ele>730.59997558594</ele>
        <time>2023-06-01T06:11:08.000Z</time>
      </trkpt>
      <trkpt lat="43.56353" lon="2.5581">
        <ele>730.40002441406</ele>
        <time>2023-06-01T06:11:11.000Z</time>
      </trkpt>
      <trkpt lat="43.56346" lon="2.55804">
        <ele>729.79998779297</ele>
        <time>2023-06-01T06:11:17.000Z</time>
      </trkpt>
      <trkpt lat="43.56345" lon="2.55803">
        <ele>729.40002441406</ele>
        <time>2023-06-01T06:11:18.000Z</time>
      </trkpt>
      <trkpt lat="43.5634" lon="2.55803">
        <ele>728.40002441406</ele>
        <time>2023-06-01T06:11:23.000Z</time>
      </trkpt>
      <trkpt lat="43.56336" lon="2.55802">
        <ele>727.59997558594</ele>
        <time>2023-06-01T06:11:27.000Z</time>
      </trkpt>
      <trkpt lat="43.56334" lon="2.558">
        <ele>727.40002441406</ele>
        <time>2023-06-01T06:11:29.000Z</time>
      </trkpt>
      <trkpt lat="43.5633" lon="2.558">
        <ele>726.40002441406</ele>
        <time>2023-06-01T06:11:34.000Z</time>
      </trkpt>
      <trkpt lat="43.56328" lon="2.558">
        <ele>726.20001220703</ele>
        <time>2023-06-01T06:11:35.000Z</time>
      </trkpt>
      <trkpt lat="43.56323" lon="2.558">
        <ele>725.59997558594</ele>
        <time>2023-06-01T06:11:40.000Z</time>
      </trkpt>
      <trkpt lat="43.56322" lon="2.55797">
        <ele>725.20001220703</ele>
        <time>2023-06-01T06:11:42.000Z</time>
      </trkpt>
      <trkpt lat="43.56318" lon="2.55792">
        <ele>724.40002441406</ele>
        <time>2023-06-01T06:11:47.000Z</time>
      </trkpt>
      <trkpt lat="43.56317" lon="2.55792">
        <ele>724.20001220703</ele>
        <time>2023-06-01T06:11:48.000Z</time>
      </trkpt>
      <trkpt lat="43.56311" lon="2.55789">
        <ele>723.40002441406</ele>
        <time>2023-06-01T06:11:54.000Z</time>
      </trkpt>
      <trkpt lat="43.56309" lon="2.55788">
        <ele>723.20001220703</ele>
        <time>2023-06-01T06:11:56.000Z</time>
      </trkpt>
      <trkpt lat="43.56304" lon="2.55782">
        <ele>722.20001220703</ele>
        <time>2023-06-01T06:12:02.000Z</time>
      </trkpt>
      <trkpt lat="43.563" lon="2.55769">
        <ele>721</ele>
        <time>2023-06-01T06:12:11.000Z</time>
      </trkpt>
      <trkpt lat="43.56301" lon="2.55754">
        <ele>720.40002441406</ele>
        <time>2023-06-01T06:12:20.000Z</time>
      </trkpt>
      <trkpt lat="43.56303" lon="2.55741">
        <ele>720.20001220703</ele>
        <time>2023-06-01T06:12:27.000Z</time>
      </trkpt>
      <trkpt lat="43.56303" lon="2.5574">
        <ele>720</ele>
        <time>2023-06-01T06:12:28.000Z</time>
      </trkpt>
      <trkpt lat="43.56305" lon="2.55725">
        <ele>719.59997558594</ele>
        <time>2023-06-01T06:12:36.000Z</time>
      </trkpt>
      <trkpt lat="43.56307" lon="2.55716">
        <ele>719.40002441406</ele>
        <time>2023-06-01T06:12:42.000Z</time>
      </trkpt>
      <trkpt lat="43.5631" lon="2.55704">
        <ele>719</ele>
        <time>2023-06-01T06:12:50.000Z</time>
      </trkpt>
      <trkpt lat="43.56311" lon="2.55698">
        <ele>719</ele>
        <time>2023-06-01T06:12:54.000Z</time>
      </trkpt>
      <trkpt lat="43.56312" lon="2.55694">
        <ele>719</ele>
        <time>2023-06-01T06:12:57.000Z</time>
      </trkpt>
      <trkpt lat="43.56314" lon="2.5568">
        <ele>718.59997558594</ele>
        <time>2023-06-01T06:13:06.000Z</time>
      </trkpt>
      <trkpt lat="43.56316" lon="2.55669">
        <ele>718.40002441406</ele>
        <time>2023-06-01T06:13:14.000Z</time>
      </trkpt>
      <trkpt lat="43.56316" lon="2.55656">
        <ele>718.40002441406</ele>
        <time>2023-06-01T06:13:23.000Z</time>
      </trkpt>
      <trkpt lat="43.56315" lon="2.5564">
        <ele>718.20001220703</ele>
        <time>2023-06-01T06:13:32.000Z</time>
      </trkpt>
      <trkpt lat="43.56315" lon="2.55633">
        <ele>718</ele>
        <time>2023-06-01T06:13:36.000Z</time>
      </trkpt>
      <trkpt lat="43.56315" lon="2.55624">
        <ele>718</ele>
        <time>2023-06-01T06:13:41.000Z</time>
      </trkpt>
      <trkpt lat="43.56314" lon="2.55607">
        <ele>717.79998779297</ele>
        <time>2023-06-01T06:13:52.000Z</time>
      </trkpt>
      <trkpt lat="43.56314" lon="2.55595">
        <ele>717.79998779297</ele>
        <time>2023-06-01T06:14:00.000Z</time>
      </trkpt>
      <trkpt lat="43.56313" lon="2.55589">
        <ele>717.79998779297</ele>
        <time>2023-06-01T06:14:04.000Z</time>
      </trkpt>
      <trkpt lat="43.56313" lon="2.55586">
        <ele>717.79998779297</ele>
        <time>2023-06-01T06:14:06.000Z</time>
      </trkpt>
      <trkpt lat="43.56312" lon="2.55579">
        <ele>717.79998779297</ele>
        <time>2023-06-01T06:14:10.000Z</time>
      </trkpt>
      <trkpt lat="43.56313" lon="2.55576">
        <ele>717.59997558594</ele>
        <time>2023-06-01T06:14:12.000Z</time>
      </trkpt>
      <trkpt lat="43.56313" lon="2.55574">
        <ele>717.40002441406</ele>
        <time>2023-06-01T06:14:13.000Z</time>
      </trkpt>
      <trkpt lat="43.56312" lon="2.55567">
        <ele>717.20001220703</ele>
        <time>2023-06-01T06:14:18.000Z</time>
      </trkpt>
      <trkpt lat="43.56311" lon="2.55566">
        <ele>717.20001220703</ele>
        <time>2023-06-01T06:14:19.000Z</time>
      </trkpt>
      <trkpt lat="43.56308" lon="2.55559">
        <ele>717.40002441406</ele>
        <time>2023-06-01T06:14:24.000Z</time>
      </trkpt>
      <trkpt lat="43.56307" lon="2.55557">
        <ele>717.59997558594</ele>
        <time>2023-06-01T06:14:26.000Z</time>
      </trkpt>
      <trkpt lat="43.56305" lon="2.55553">
        <ele>717.40002441406</ele>
        <time>2023-06-01T06:14:30.000Z</time>
      </trkpt>
      <trkpt lat="43.56301" lon="2.55545">
        <ele>717</ele>
        <time>2023-06-01T06:14:36.000Z</time>
      </trkpt>
      <trkpt lat="43.56299" lon="2.55543">
        <ele>716.79998779297</ele>
        <time>2023-06-01T06:14:38.000Z</time>
      </trkpt>
      <trkpt lat="43.56296" lon="2.55536">
        <ele>716.40002441406</ele>
        <time>2023-06-01T06:14:43.000Z</time>
      </trkpt>
      <trkpt lat="43.56293" lon="2.55528">
        <ele>715.79998779297</ele>
        <time>2023-06-01T06:14:48.000Z</time>
      </trkpt>
      <trkpt lat="43.56292" lon="2.55522">
        <ele>715.40002441406</ele>
        <time>2023-06-01T06:14:52.000Z</time>
      </trkpt>
      <trkpt lat="43.56292" lon="2.55521">
        <ele>715.40002441406</ele>
        <time>2023-06-01T06:14:53.000Z</time>
      </trkpt>
      <trkpt lat="43.56292" lon="2.55515">
        <ele>714.79998779297</ele>
        <time>2023-06-01T06:14:57.000Z</time>
      </trkpt>
      <trkpt lat="43.56291" lon="2.55514">
        <ele>714.59997558594</ele>
        <time>2023-06-01T06:14:58.000Z</time>
      </trkpt>
      <trkpt lat="43.56287" lon="2.55506">
        <ele>714.20001220703</ele>
        <time>2023-06-01T06:15:03.000Z</time>
      </trkpt>
      <trkpt lat="43.56286" lon="2.55503">
        <ele>713.79998779297</ele>
        <time>2023-06-01T06:15:06.000Z</time>
      </trkpt>
      <trkpt lat="43.56283" lon="2.55495">
        <ele>713.20001220703</ele>
        <time>2023-06-01T06:15:12.000Z</time>
      </trkpt>
      <trkpt lat="43.5628" lon="2.55488">
        <ele>712.79998779297</ele>
        <time>2023-06-01T06:15:16.000Z</time>
      </trkpt>
      <trkpt lat="43.56278" lon="2.55484">
        <ele>712.20001220703</ele>
        <time>2023-06-01T06:15:19.000Z</time>
      </trkpt>
      <trkpt lat="43.56275" lon="2.55476">
        <ele>711.79998779297</ele>
        <time>2023-06-01T06:15:24.000Z</time>
      </trkpt>
      <trkpt lat="43.56272" lon="2.55471">
        <ele>711.20001220703</ele>
        <time>2023-06-01T06:15:28.000Z</time>
      </trkpt>
      <trkpt lat="43.5627" lon="2.55464">
        <ele>710.59997558594</ele>
        <time>2023-06-01T06:15:33.000Z</time>
      </trkpt>
      <trkpt lat="43.56267" lon="2.55459">
        <ele>709.79998779297</ele>
        <time>2023-06-01T06:15:37.000Z</time>
      </trkpt>
      <trkpt lat="43.56266" lon="2.55456">
        <ele>709.59997558594</ele>
        <time>2023-06-01T06:15:39.000Z</time>
      </trkpt>
      <trkpt lat="43.5626" lon="2.55444">
        <ele>708.79998779297</ele>
        <time>2023-06-01T06:15:47.000Z</time>
      </trkpt>
      <trkpt lat="43.56258" lon="2.55439">
        <ele>708.40002441406</ele>
        <time>2023-06-01T06:15:51.000Z</time>
      </trkpt>
      <trkpt lat="43.56256" lon="2.55434">
        <ele>708</ele>
        <time>2023-06-01T06:15:54.000Z</time>
      </trkpt>
      <trkpt lat="43.56253" lon="2.55429">
        <ele>707.40002441406</ele>
        <time>2023-06-01T06:15:58.000Z</time>
      </trkpt>
      <trkpt lat="43.5625" lon="2.55424">
        <ele>707</ele>
        <time>2023-06-01T06:16:02.000Z</time>
      </trkpt>
      <trkpt lat="43.56246" lon="2.55415">
        <ele>706.59997558594</ele>
        <time>2023-06-01T06:16:10.000Z</time>
      </trkpt>
      <trkpt lat="43.56244" lon="2.55413">
        <ele>706.40002441406</ele>
        <time>2023-06-01T06:16:12.000Z</time>
      </trkpt>
      <trkpt lat="43.56244" lon="2.55412">
        <ele>706.40002441406</ele>
        <time>2023-06-01T06:16:13.000Z</time>
      </trkpt>
      <trkpt lat="43.56242" lon="2.55407">
        <ele>706.20001220703</ele>
        <time>2023-06-01T06:16:17.000Z</time>
      </trkpt>
      <trkpt lat="43.56241" lon="2.55406">
        <ele>706.20001220703</ele>
        <time>2023-06-01T06:16:18.000Z</time>
      </trkpt>
      <trkpt lat="43.56239" lon="2.55401">
        <ele>706.20001220703</ele>
        <time>2023-06-01T06:16:23.000Z</time>
      </trkpt>
      <trkpt lat="43.56239" lon="2.55394">
        <ele>706.20001220703</ele>
        <time>2023-06-01T06:16:28.000Z</time>
      </trkpt>
      <trkpt lat="43.5624" lon="2.55387">
        <ele>706.40002441406</ele>
        <time>2023-06-01T06:16:33.000Z</time>
      </trkpt>
      <trkpt lat="43.5624" lon="2.55384">
        <ele>706.59997558594</ele>
        <time>2023-06-01T06:16:35.000Z</time>
      </trkpt>
      <trkpt lat="43.56241" lon="2.55376">
        <ele>707.20001220703</ele>
        <time>2023-06-01T06:16:42.000Z</time>
      </trkpt>
      <trkpt lat="43.56241" lon="2.55376">
        <ele>707.40002441406</ele>
        <time>2023-06-01T06:16:43.000Z</time>
      </trkpt>
      <trkpt lat="43.56242" lon="2.55371">
        <ele>708</ele>
        <time>2023-06-01T06:16:48.000Z</time>
      </trkpt>
      <trkpt lat="43.56242" lon="2.55368">
        <ele>708.40002441406</ele>
        <time>2023-06-01T06:16:51.000Z</time>
      </trkpt>
      <trkpt lat="43.56242" lon="2.55364">
        <ele>708.79998779297</ele>
        <time>2023-06-01T06:16:55.000Z</time>
      </trkpt>
      <trkpt lat="43.56241" lon="2.55356">
        <ele>709.40002441406</ele>
        <time>2023-06-01T06:17:02.000Z</time>
      </trkpt>
      <trkpt lat="43.56239" lon="2.55346">
        <ele>710</ele>
        <time>2023-06-01T06:17:08.000Z</time>
      </trkpt>
      <trkpt lat="43.56239" lon="2.55342">
        <ele>710.20001220703</ele>
        <time>2023-06-01T06:17:11.000Z</time>
      </trkpt>
      <trkpt lat="43.56239" lon="2.55338">
        <ele>710.40002441406</ele>
        <time>2023-06-01T06:17:13.000Z</time>
      </trkpt>
      <trkpt lat="43.56239" lon="2.55336">
        <ele>710.40002441406</ele>
        <time>2023-06-01T06:17:15.000Z</time>
      </trkpt>
      <trkpt lat="43.56238" lon="2.5533">
        <ele>710.59997558594</ele>
        <time>2023-06-01T06:17:18.000Z</time>
      </trkpt>
      <trkpt lat="43.56238" lon="2.55327">
        <ele>710.79998779297</ele>
        <time>2023-06-01T06:17:20.000Z</time>
      </trkpt>
      <trkpt lat="43.56238" lon="2.5532">
        <ele>711.20001220703</ele>
        <time>2023-06-01T06:17:25.000Z</time>
      </trkpt>
      <trkpt lat="43.56238" lon="2.55319">
        <ele>711.20001220703</ele>
        <time>2023-06-01T06:17:26.000Z</time>
      </trkpt>
      <trkpt lat="43.56238" lon="2.55315">
        <ele>711.59997558594</ele>
        <time>2023-06-01T06:17:29.000Z</time>
      </trkpt>
      <trkpt lat="43.56238" lon="2.55312">
        <ele>711.59997558594</ele>
        <time>2023-06-01T06:17:31.000Z</time>
      </trkpt>
      <trkpt lat="43.56238" lon="2.55311">
        <ele>711.59997558594</ele>
        <time>2023-06-01T06:17:32.000Z</time>
      </trkpt>
      <trkpt lat="43.56238" lon="2.55305">
        <ele>711.59997558594</ele>
        <time>2023-06-01T06:17:37.000Z</time>
      </trkpt>
      <trkpt lat="43.56238" lon="2.55302">
        <ele>711.59997558594</ele>
        <time>2023-06-01T06:17:39.000Z</time>
      </trkpt>
      <trkpt lat="43.56238" lon="2.553">
        <ele>711.59997558594</ele>
        <time>2023-06-01T06:17:42.000Z</time>
      </trkpt>
      <trkpt lat="43.56238" lon="2.55298">
        <ele>711.59997558594</ele>
        <time>2023-06-01T06:17:46.000Z</time>
      </trkpt>
      <trkpt lat="43.56238" lon="2.55292">
        <ele>711.59997558594</ele>
        <time>2023-06-01T06:17:47.000Z</time>
      </trkpt>
      <trkpt lat="43.56236" lon="2.55284">
        <ele>711.40002441406</ele>
        <time>2023-06-01T06:17:52.000Z</time>
      </trkpt>
      <trkpt lat="43.56236" lon="2.55282">
        <ele>711.40002441406</ele>
        <time>2023-06-01T06:17:53.000Z</time>
      </trkpt>
      <trkpt lat="43.56234" lon="2.55277">
        <ele>711</ele>
        <time>2023-06-01T06:17:58.000Z</time>
      </trkpt>
      <trkpt lat="43.56231" lon="2.5527">
        <ele>711.20001220703</ele>
        <time>2023-06-01T06:18:09.000Z</time>
      </trkpt>
      <trkpt lat="43.5623" lon="2.55263">
        <ele>711.20001220703</ele>
        <time>2023-06-01T06:18:14.000Z</time>
      </trkpt>
      <trkpt lat="43.56229" lon="2.5526">
        <ele>710.79998779297</ele>
        <time>2023-06-01T06:18:17.000Z</time>
      </trkpt>
      <trkpt lat="43.56227" lon="2.55256">
        <ele>710.79998779297</ele>
        <time>2023-06-01T06:18:20.000Z</time>
      </trkpt>
      <trkpt lat="43.56227" lon="2.55253">
        <ele>711</ele>
        <time>2023-06-01T06:18:22.000Z</time>
      </trkpt>
      <trkpt lat="43.56227" lon="2.55252">
        <ele>711</ele>
        <time>2023-06-01T06:18:24.000Z</time>
      </trkpt>
      <trkpt lat="43.56227" lon="2.5525">
        <ele>711</ele>
        <time>2023-06-01T06:18:26.000Z</time>
      </trkpt>
      <trkpt lat="43.56226" lon="2.55245">
        <ele>711</ele>
        <time>2023-06-01T06:18:29.000Z</time>
      </trkpt>
      <trkpt lat="43.56225" lon="2.5524">
        <ele>710.79998779297</ele>
        <time>2023-06-01T06:18:33.000Z</time>
      </trkpt>
      <trkpt lat="43.56225" lon="2.5524">
        <ele>711</ele>
        <time>2023-06-01T06:18:34.000Z</time>
      </trkpt>
      <trkpt lat="43.56223" lon="2.55236">
        <ele>710.79998779297</ele>
        <time>2023-06-01T06:18:36.000Z</time>
      </trkpt>
      <trkpt lat="43.56221" lon="2.55231">
        <ele>711</ele>
        <time>2023-06-01T06:18:39.000Z</time>
      </trkpt>
      <trkpt lat="43.56221" lon="2.5523">
        <ele>711</ele>
        <time>2023-06-01T06:18:40.000Z</time>
      </trkpt>
      <trkpt lat="43.56219" lon="2.55218">
        <ele>711</ele>
        <time>2023-06-01T06:18:46.000Z</time>
      </trkpt>
      <trkpt lat="43.56216" lon="2.55207">
        <ele>711</ele>
        <time>2023-06-01T06:18:51.000Z</time>
      </trkpt>
      <trkpt lat="43.56215" lon="2.55205">
        <ele>711.20001220703</ele>
        <time>2023-06-01T06:18:52.000Z</time>
      </trkpt>
      <trkpt lat="43.56212" lon="2.55195">
        <ele>711.40002441406</ele>
        <time>2023-06-01T06:18:57.000Z</time>
      </trkpt>
      <trkpt lat="43.56212" lon="2.55193">
        <ele>711.40002441406</ele>
        <time>2023-06-01T06:18:58.000Z</time>
      </trkpt>
      <trkpt lat="43.56207" lon="2.55182">
        <ele>711.79998779297</ele>
        <time>2023-06-01T06:19:05.000Z</time>
      </trkpt>
      <trkpt lat="43.56202" lon="2.55171">
        <ele>712.59997558594</ele>
        <time>2023-06-01T06:19:12.000Z</time>
      </trkpt>
      <trkpt lat="43.56197" lon="2.55159">
        <ele>713.20001220703</ele>
        <time>2023-06-01T06:19:20.000Z</time>
      </trkpt>
      <trkpt lat="43.56194" lon="2.55151">
        <ele>713.59997558594</ele>
        <time>2023-06-01T06:19:27.000Z</time>
      </trkpt>
      <trkpt lat="43.56191" lon="2.55144">
        <ele>714</ele>
        <time>2023-06-01T06:19:33.000Z</time>
      </trkpt>
      <trkpt lat="43.5619" lon="2.55138">
        <ele>714.20001220703</ele>
        <time>2023-06-01T06:19:37.000Z</time>
      </trkpt>
      <trkpt lat="43.56189" lon="2.55136">
        <ele>714.40002441406</ele>
        <time>2023-06-01T06:19:39.000Z</time>
      </trkpt>
      <trkpt lat="43.56188" lon="2.5513">
        <ele>714.59997558594</ele>
        <time>2023-06-01T06:19:44.000Z</time>
      </trkpt>
      <trkpt lat="43.56187" lon="2.55128">
        <ele>714.79998779297</ele>
        <time>2023-06-01T06:19:46.000Z</time>
      </trkpt>
      <trkpt lat="43.56185" lon="2.55122">
        <ele>715.20001220703</ele>
        <time>2023-06-01T06:19:52.000Z</time>
      </trkpt>
      <trkpt lat="43.56186" lon="2.5512">
        <ele>715.20001220703</ele>
        <time>2023-06-01T06:19:53.000Z</time>
      </trkpt>
      <trkpt lat="43.56184" lon="2.55117">
        <ele>715.40002441406</ele>
        <time>2023-06-01T06:19:56.000Z</time>
      </trkpt>
      <trkpt lat="43.56183" lon="2.55115">
        <ele>715.59997558594</ele>
        <time>2023-06-01T06:19:58.000Z</time>
      </trkpt>
      <trkpt lat="43.56182" lon="2.55112">
        <ele>715.79998779297</ele>
        <time>2023-06-01T06:20:01.000Z</time>
      </trkpt>
      <trkpt lat="43.5618" lon="2.55109">
        <ele>716</ele>
        <time>2023-06-01T06:20:03.000Z</time>
      </trkpt>
      <trkpt lat="43.56179" lon="2.55106">
        <ele>716</ele>
        <time>2023-06-01T06:20:05.000Z</time>
      </trkpt>
      <trkpt lat="43.56175" lon="2.55098">
        <ele>716.20001220703</ele>
        <time>2023-06-01T06:20:11.000Z</time>
      </trkpt>
      <trkpt lat="43.56173" lon="2.55093">
        <ele>716.59997558594</ele>
        <time>2023-06-01T06:20:17.000Z</time>
      </trkpt>
      <trkpt lat="43.56171" lon="2.55089">
        <ele>716.79998779297</ele>
        <time>2023-06-01T06:20:19.000Z</time>
      </trkpt>
      <trkpt lat="43.5617" lon="2.55082">
        <ele>716.79998779297</ele>
        <time>2023-06-01T06:20:24.000Z</time>
      </trkpt>
      <trkpt lat="43.56169" lon="2.55076">
        <ele>717.20001220703</ele>
        <time>2023-06-01T06:20:29.000Z</time>
      </trkpt>
      <trkpt lat="43.56166" lon="2.55069">
        <ele>717.79998779297</ele>
        <time>2023-06-01T06:20:34.000Z</time>
      </trkpt>
      <trkpt lat="43.56166" lon="2.55069">
        <ele>717.79998779297</ele>
        <time>2023-06-01T06:20:35.000Z</time>
      </trkpt>
      <trkpt lat="43.56164" lon="2.55067">
        <ele>717.79998779297</ele>
        <time>2023-06-01T06:20:36.000Z</time>
      </trkpt>
      <trkpt lat="43.56165" lon="2.55066">
        <ele>718</ele>
        <time>2023-06-01T06:20:37.000Z</time>
      </trkpt>
      <trkpt lat="43.56163" lon="2.55061">
        <ele>718.20001220703</ele>
        <time>2023-06-01T06:20:40.000Z</time>
      </trkpt>
      <trkpt lat="43.56162" lon="2.5506">
        <ele>718.20001220703</ele>
        <time>2023-06-01T06:20:41.000Z</time>
      </trkpt>
      <trkpt lat="43.56162" lon="2.55056">
        <ele>718.59997558594</ele>
        <time>2023-06-01T06:20:47.000Z</time>
      </trkpt>
      <trkpt lat="43.56159" lon="2.55053">
        <ele>718.59997558594</ele>
        <time>2023-06-01T06:20:48.000Z</time>
      </trkpt>
      <trkpt lat="43.5616" lon="2.55053">
        <ele>718.79998779297</ele>
        <time>2023-06-01T06:20:49.000Z</time>
      </trkpt>
      <trkpt lat="43.56159" lon="2.5505">
        <ele>718.79998779297</ele>
        <time>2023-06-01T06:20:50.000Z</time>
      </trkpt>
      <trkpt lat="43.56158" lon="2.55048">
        <ele>719</ele>
        <time>2023-06-01T06:20:52.000Z</time>
      </trkpt>
      <trkpt lat="43.56157" lon="2.5504">
        <ele>719.40002441406</ele>
        <time>2023-06-01T06:20:59.000Z</time>
      </trkpt>
      <trkpt lat="43.56154" lon="2.55035">
        <ele>719.59997558594</ele>
        <time>2023-06-01T06:21:04.000Z</time>
      </trkpt>
      <trkpt lat="43.56154" lon="2.55033">
        <ele>719.59997558594</ele>
        <time>2023-06-01T06:21:06.000Z</time>
      </trkpt>
      <trkpt lat="43.56153" lon="2.55031">
        <ele>719.79998779297</ele>
        <time>2023-06-01T06:21:08.000Z</time>
      </trkpt>
      <trkpt lat="43.56153" lon="2.5503">
        <ele>719.79998779297</ele>
        <time>2023-06-01T06:21:09.000Z</time>
      </trkpt>
      <trkpt lat="43.56152" lon="2.55027">
        <ele>720</ele>
        <time>2023-06-01T06:21:12.000Z</time>
      </trkpt>
      <trkpt lat="43.56152" lon="2.55025">
        <ele>720.20001220703</ele>
        <time>2023-06-01T06:21:13.000Z</time>
      </trkpt>
      <trkpt lat="43.56151" lon="2.55023">
        <ele>720.20001220703</ele>
        <time>2023-06-01T06:21:15.000Z</time>
      </trkpt>
      <trkpt lat="43.56149" lon="2.5502">
        <ele>720.59997558594</ele>
        <time>2023-06-01T06:21:19.000Z</time>
      </trkpt>
      <trkpt lat="43.56148" lon="2.55017">
        <ele>720.79998779297</ele>
        <time>2023-06-01T06:21:20.000Z</time>
      </trkpt>
      <trkpt lat="43.56148" lon="2.55015">
        <ele>720.79998779297</ele>
        <time>2023-06-01T06:21:21.000Z</time>
      </trkpt>
      <trkpt lat="43.56146" lon="2.55012">
        <ele>721.20001220703</ele>
        <time>2023-06-01T06:21:24.000Z</time>
      </trkpt>
      <trkpt lat="43.56146" lon="2.55011">
        <ele>721.40002441406</ele>
        <time>2023-06-01T06:21:25.000Z</time>
      </trkpt>
      <trkpt lat="43.56145" lon="2.55008">
        <ele>721.79998779297</ele>
        <time>2023-06-01T06:21:30.000Z</time>
      </trkpt>
      <trkpt lat="43.56144" lon="2.55007">
        <ele>722</ele>
        <time>2023-06-01T06:21:31.000Z</time>
      </trkpt>
      <trkpt lat="43.56143" lon="2.55005">
        <ele>722.40002441406</ele>
        <time>2023-06-01T06:21:37.000Z</time>
      </trkpt>
      <trkpt lat="43.5614" lon="2.55002">
        <ele>722.79998779297</ele>
        <time>2023-06-01T06:21:43.000Z</time>
      </trkpt>
      <trkpt lat="43.5614" lon="2.55">
        <ele>723</ele>
        <time>2023-06-01T06:21:45.000Z</time>
      </trkpt>
      <trkpt lat="43.56143" lon="2.54996">
        <ele>723.79998779297</ele>
        <time>2023-06-01T06:21:51.000Z</time>
      </trkpt>
      <trkpt lat="43.5614" lon="2.54996">
        <ele>724.20001220703</ele>
        <time>2023-06-01T06:21:54.000Z</time>
      </trkpt>
      <trkpt lat="43.56138" lon="2.54995">
        <ele>724.59997558594</ele>
        <time>2023-06-01T06:21:58.000Z</time>
      </trkpt>
      <trkpt lat="43.56135" lon="2.54989">
        <ele>725.20001220703</ele>
        <time>2023-06-01T06:22:03.000Z</time>
      </trkpt>
      <trkpt lat="43.56135" lon="2.54989">
        <ele>725.40002441406</ele>
        <time>2023-06-01T06:22:04.000Z</time>
      </trkpt>
      <trkpt lat="43.56135" lon="2.54983">
        <ele>726.20001220703</ele>
        <time>2023-06-01T06:22:10.000Z</time>
      </trkpt>
      <trkpt lat="43.56135" lon="2.54981">
        <ele>726.40002441406</ele>
        <time>2023-06-01T06:22:12.000Z</time>
      </trkpt>
      <trkpt lat="43.56137" lon="2.54976">
        <ele>726.79998779297</ele>
        <time>2023-06-01T06:22:17.000Z</time>
      </trkpt>
      <trkpt lat="43.56138" lon="2.54974">
        <ele>727.20001220703</ele>
        <time>2023-06-01T06:22:19.000Z</time>
      </trkpt>
      <trkpt lat="43.56138" lon="2.54972">
        <ele>727.40002441406</ele>
        <time>2023-06-01T06:22:21.000Z</time>
      </trkpt>
      <trkpt lat="43.56138" lon="2.54971">
        <ele>727.59997558594</ele>
        <time>2023-06-01T06:22:24.000Z</time>
      </trkpt>
      <trkpt lat="43.56138" lon="2.54973">
        <ele>728</ele>
        <time>2023-06-01T06:22:32.000Z</time>
      </trkpt>
      <trkpt lat="43.56139" lon="2.54964">
        <ele>728</ele>
        <time>2023-06-01T06:22:41.000Z</time>
      </trkpt>
      <trkpt lat="43.56141" lon="2.54958">
        <ele>728.20001220703</ele>
        <time>2023-06-01T06:22:48.000Z</time>
      </trkpt>
      <trkpt lat="43.56142" lon="2.54956">
        <ele>728.40002441406</ele>
        <time>2023-06-01T06:22:52.000Z</time>
      </trkpt>
      <trkpt lat="43.56143" lon="2.54953">
        <ele>728.59997558594</ele>
        <time>2023-06-01T06:22:56.000Z</time>
      </trkpt>
      <trkpt lat="43.56145" lon="2.5495">
        <ele>729.20001220703</ele>
        <time>2023-06-01T06:23:03.000Z</time>
      </trkpt>
      <trkpt lat="43.56146" lon="2.54949">
        <ele>729.40002441406</ele>
        <time>2023-06-01T06:23:05.000Z</time>
      </trkpt>
      <trkpt lat="43.56147" lon="2.54947">
        <ele>729.59997558594</ele>
        <time>2023-06-01T06:23:10.000Z</time>
      </trkpt>
      <trkpt lat="43.56147" lon="2.54941">
        <ele>729.79998779297</ele>
        <time>2023-06-01T06:23:16.000Z</time>
      </trkpt>
      <trkpt lat="43.56148" lon="2.54938">
        <ele>730.59997558594</ele>
        <time>2023-06-01T06:23:21.000Z</time>
      </trkpt>
      <trkpt lat="43.56148" lon="2.54937">
        <ele>730.59997558594</ele>
        <time>2023-06-01T06:23:23.000Z</time>
      </trkpt>
      <trkpt lat="43.56149" lon="2.54931">
        <ele>730.79998779297</ele>
        <time>2023-06-01T06:23:30.000Z</time>
      </trkpt>
      <trkpt lat="43.56149" lon="2.54925">
        <ele>731.40002441406</ele>
        <time>2023-06-01T06:23:38.000Z</time>
      </trkpt>
      <trkpt lat="43.5615" lon="2.54922">
        <ele>731.59997558594</ele>
        <time>2023-06-01T06:23:40.000Z</time>
      </trkpt>
      <trkpt lat="43.5615" lon="2.54919">
        <ele>732</ele>
        <time>2023-06-01T06:23:46.000Z</time>
      </trkpt>
      <trkpt lat="43.56149" lon="2.54913">
        <ele>732.59997558594</ele>
        <time>2023-06-01T06:23:52.000Z</time>
      </trkpt>
      <trkpt lat="43.56148" lon="2.54912">
        <ele>732.59997558594</ele>
        <time>2023-06-01T06:23:53.000Z</time>
      </trkpt>
      <trkpt lat="43.56145" lon="2.54909">
        <ele>733.20001220703</ele>
        <time>2023-06-01T06:23:59.000Z</time>
      </trkpt>
      <trkpt lat="43.56143" lon="2.54909">
        <ele>733.59997558594</ele>
        <time>2023-06-01T06:24:03.000Z</time>
      </trkpt>
      <trkpt lat="43.56143" lon="2.5491">
        <ele>733.59997558594</ele>
        <time>2023-06-01T06:24:05.000Z</time>
      </trkpt>
      <trkpt lat="43.5614" lon="2.54911">
        <ele>734.59997558594</ele>
        <time>2023-06-01T06:24:12.000Z</time>
      </trkpt>
      <trkpt lat="43.5614" lon="2.54911">
        <ele>734.59997558594</ele>
        <time>2023-06-01T06:24:13.000Z</time>
      </trkpt>
      <trkpt lat="43.56137" lon="2.5491">
        <ele>735.20001220703</ele>
        <time>2023-06-01T06:24:17.000Z</time>
      </trkpt>
      <trkpt lat="43.56137" lon="2.54906">
        <ele>735.20001220703</ele>
        <time>2023-06-01T06:24:24.000Z</time>
      </trkpt>
      <trkpt lat="43.56137" lon="2.54902">
        <ele>735.59997558594</ele>
        <time>2023-06-01T06:24:29.000Z</time>
      </trkpt>
      <trkpt lat="43.56137" lon="2.54901">
        <ele>735.59997558594</ele>
        <time>2023-06-01T06:24:30.000Z</time>
      </trkpt>
      <trkpt lat="43.56138" lon="2.54896">
        <ele>736.20001220703</ele>
        <time>2023-06-01T06:24:37.000Z</time>
      </trkpt>
      <trkpt lat="43.56139" lon="2.5489">
        <ele>736.40002441406</ele>
        <time>2023-06-01T06:24:44.000Z</time>
      </trkpt>
      <trkpt lat="43.56139" lon="2.54882">
        <ele>736.79998779297</ele>
        <time>2023-06-01T06:24:51.000Z</time>
      </trkpt>
      <trkpt lat="43.5614" lon="2.54875">
        <ele>737</ele>
        <time>2023-06-01T06:24:58.000Z</time>
      </trkpt>
      <trkpt lat="43.56141" lon="2.54866">
        <ele>737.40002441406</ele>
        <time>2023-06-01T06:25:05.000Z</time>
      </trkpt>
      <trkpt lat="43.5614" lon="2.54865">
        <ele>737.40002441406</ele>
        <time>2023-06-01T06:25:07.000Z</time>
      </trkpt>
      <trkpt lat="43.5614" lon="2.54862">
        <ele>737.59997558594</ele>
        <time>2023-06-01T06:25:10.000Z</time>
      </trkpt>
      <trkpt lat="43.5614" lon="2.54856">
        <ele>737.59997558594</ele>
        <time>2023-06-01T06:25:15.000Z</time>
      </trkpt>
      <trkpt lat="43.5614" lon="2.54854">
        <ele>737.79998779297</ele>
        <time>2023-06-01T06:25:17.000Z</time>
      </trkpt>
      <trkpt lat="43.56141" lon="2.5485">
        <ele>737.79998779297</ele>
        <time>2023-06-01T06:25:22.000Z</time>
      </trkpt>
      <trkpt lat="43.56141" lon="2.54845">
        <ele>738.20001220703</ele>
        <time>2023-06-01T06:25:27.000Z</time>
      </trkpt>
      <trkpt lat="43.5614" lon="2.5484">
        <ele>738.40002441406</ele>
        <time>2023-06-01T06:25:32.000Z</time>
      </trkpt>
      <trkpt lat="43.56141" lon="2.54834">
        <ele>738.79998779297</ele>
        <time>2023-06-01T06:25:38.000Z</time>
      </trkpt>
      <trkpt lat="43.56141" lon="2.54832">
        <ele>738.79998779297</ele>
        <time>2023-06-01T06:25:39.000Z</time>
      </trkpt>
      <trkpt lat="43.56142" lon="2.54827">
        <ele>739</ele>
        <time>2023-06-01T06:25:44.000Z</time>
      </trkpt>
      <trkpt lat="43.56143" lon="2.54821">
        <ele>739.40002441406</ele>
        <time>2023-06-01T06:25:49.000Z</time>
      </trkpt>
      <trkpt lat="43.56143" lon="2.54819">
        <ele>739.40002441406</ele>
        <time>2023-06-01T06:25:51.000Z</time>
      </trkpt>
      <trkpt lat="43.56144" lon="2.54815">
        <ele>739.79998779297</ele>
        <time>2023-06-01T06:25:55.000Z</time>
      </trkpt>
      <trkpt lat="43.56144" lon="2.54813">
        <ele>739.79998779297</ele>
        <time>2023-06-01T06:25:56.000Z</time>
      </trkpt>
      <trkpt lat="43.56145" lon="2.54806">
        <ele>740.40002441406</ele>
        <time>2023-06-01T06:26:02.000Z</time>
      </trkpt>
      <trkpt lat="43.56146" lon="2.54805">
        <ele>740.59997558594</ele>
        <time>2023-06-01T06:26:03.000Z</time>
      </trkpt>
      <trkpt lat="43.56147" lon="2.54798">
        <ele>740.79998779297</ele>
        <time>2023-06-01T06:26:08.000Z</time>
      </trkpt>
      <trkpt lat="43.56147" lon="2.54796">
        <ele>741</ele>
        <time>2023-06-01T06:26:10.000Z</time>
      </trkpt>
      <trkpt lat="43.56148" lon="2.54787">
        <ele>741.40002441406</ele>
        <time>2023-06-01T06:26:16.000Z</time>
      </trkpt>
      <trkpt lat="43.56149" lon="2.54782">
        <ele>741.59997558594</ele>
        <time>2023-06-01T06:26:19.000Z</time>
      </trkpt>
      <trkpt lat="43.5615" lon="2.54776">
        <ele>741.79998779297</ele>
        <time>2023-06-01T06:26:23.000Z</time>
      </trkpt>
      <trkpt lat="43.5615" lon="2.54776">
        <ele>742</ele>
        <time>2023-06-01T06:26:24.000Z</time>
      </trkpt>
      <trkpt lat="43.56151" lon="2.54773">
        <ele>742</ele>
        <time>2023-06-01T06:26:26.000Z</time>
      </trkpt>
      <trkpt lat="43.56151" lon="2.5477">
        <ele>742.20001220703</ele>
        <time>2023-06-01T06:26:28.000Z</time>
      </trkpt>
      <trkpt lat="43.56152" lon="2.54763">
        <ele>742.59997558594</ele>
        <time>2023-06-01T06:26:34.000Z</time>
      </trkpt>
      <trkpt lat="43.56152" lon="2.54762">
        <ele>742.59997558594</ele>
        <time>2023-06-01T06:26:35.000Z</time>
      </trkpt>
      <trkpt lat="43.56152" lon="2.54759">
        <ele>742.79998779297</ele>
        <time>2023-06-01T06:26:37.000Z</time>
      </trkpt>
      <trkpt lat="43.56153" lon="2.54759">
        <ele>743</ele>
        <time>2023-06-01T06:26:39.000Z</time>
      </trkpt>
      <trkpt lat="43.56153" lon="2.54757">
        <ele>743.40002441406</ele>
        <time>2023-06-01T06:26:42.000Z</time>
      </trkpt>
      <trkpt lat="43.56154" lon="2.54744">
        <ele>743.79998779297</ele>
        <time>2023-06-01T06:26:49.000Z</time>
      </trkpt>
      <trkpt lat="43.56154" lon="2.54741">
        <ele>744</ele>
        <time>2023-06-01T06:26:51.000Z</time>
      </trkpt>
      <trkpt lat="43.56153" lon="2.5474">
        <ele>744.20001220703</ele>
        <time>2023-06-01T06:26:52.000Z</time>
      </trkpt>
      <trkpt lat="43.56153" lon="2.54736">
        <ele>744.40002441406</ele>
        <time>2023-06-01T06:26:55.000Z</time>
      </trkpt>
      <trkpt lat="43.56153" lon="2.54735">
        <ele>744.40002441406</ele>
        <time>2023-06-01T06:26:56.000Z</time>
      </trkpt>
      <trkpt lat="43.56154" lon="2.54733">
        <ele>744.40002441406</ele>
        <time>2023-06-01T06:26:57.000Z</time>
      </trkpt>
      <trkpt lat="43.56153" lon="2.54727">
        <ele>744.79998779297</ele>
        <time>2023-06-01T06:27:01.000Z</time>
      </trkpt>
      <trkpt lat="43.56154" lon="2.54727">
        <ele>744.79998779297</ele>
        <time>2023-06-01T06:27:02.000Z</time>
      </trkpt>
      <trkpt lat="43.56154" lon="2.5472">
        <ele>745</ele>
        <time>2023-06-01T06:27:05.000Z</time>
      </trkpt>
      <trkpt lat="43.56154" lon="2.54718">
        <ele>745.20001220703</ele>
        <time>2023-06-01T06:27:06.000Z</time>
      </trkpt>
      <trkpt lat="43.56154" lon="2.54717">
        <ele>745.20001220703</ele>
        <time>2023-06-01T06:27:07.000Z</time>
      </trkpt>
      <trkpt lat="43.56154" lon="2.54711">
        <ele>745.40002441406</ele>
        <time>2023-06-01T06:27:12.000Z</time>
      </trkpt>
      <trkpt lat="43.56154" lon="2.54708">
        <ele>745.40002441406</ele>
        <time>2023-06-01T06:27:14.000Z</time>
      </trkpt>
      <trkpt lat="43.56155" lon="2.54701">
        <ele>745.40002441406</ele>
        <time>2023-06-01T06:27:19.000Z</time>
      </trkpt>
      <trkpt lat="43.56154" lon="2.54695">
        <ele>745.59997558594</ele>
        <time>2023-06-01T06:27:24.000Z</time>
      </trkpt>
      <trkpt lat="43.56154" lon="2.54693">
        <ele>745.59997558594</ele>
        <time>2023-06-01T06:27:25.000Z</time>
      </trkpt>
      <trkpt lat="43.56155" lon="2.54687">
        <ele>746</ele>
        <time>2023-06-01T06:27:30.000Z</time>
      </trkpt>
      <trkpt lat="43.56156" lon="2.54685">
        <ele>746</ele>
        <time>2023-06-01T06:27:31.000Z</time>
      </trkpt>
      <trkpt lat="43.56156" lon="2.54678">
        <ele>746</ele>
        <time>2023-06-01T06:27:36.000Z</time>
      </trkpt>
      <trkpt lat="43.56157" lon="2.54677">
        <ele>746.20001220703</ele>
        <time>2023-06-01T06:27:37.000Z</time>
      </trkpt>
      <trkpt lat="43.56157" lon="2.54676">
        <ele>746.20001220703</ele>
        <time>2023-06-01T06:27:38.000Z</time>
      </trkpt>
      <trkpt lat="43.56158" lon="2.5467">
        <ele>746.40002441406</ele>
        <time>2023-06-01T06:27:42.000Z</time>
      </trkpt>
      <trkpt lat="43.56158" lon="2.54667">
        <ele>746.40002441406</ele>
        <time>2023-06-01T06:27:44.000Z</time>
      </trkpt>
      <trkpt lat="43.56159" lon="2.5466">
        <ele>747</ele>
        <time>2023-06-01T06:27:51.000Z</time>
      </trkpt>
      <trkpt lat="43.5616" lon="2.54659">
        <ele>747</ele>
        <time>2023-06-01T06:27:52.000Z</time>
      </trkpt>
      <trkpt lat="43.5616" lon="2.54658">
        <ele>747.20001220703</ele>
        <time>2023-06-01T06:27:53.000Z</time>
      </trkpt>
      <trkpt lat="43.5616" lon="2.54653">
        <ele>747.59997558594</ele>
        <time>2023-06-01T06:27:58.000Z</time>
      </trkpt>
      <trkpt lat="43.56161" lon="2.54646">
        <ele>748</ele>
        <time>2023-06-01T06:28:04.000Z</time>
      </trkpt>
      <trkpt lat="43.56161" lon="2.54646">
        <ele>748</ele>
        <time>2023-06-01T06:28:05.000Z</time>
      </trkpt>
      <trkpt lat="43.56162" lon="2.5464">
        <ele>748.20001220703</ele>
        <time>2023-06-01T06:28:10.000Z</time>
      </trkpt>
      <trkpt lat="43.56162" lon="2.54637">
        <ele>748.40002441406</ele>
        <time>2023-06-01T06:28:13.000Z</time>
      </trkpt>
      <trkpt lat="43.56164" lon="2.54628">
        <ele>748.79998779297</ele>
        <time>2023-06-01T06:28:21.000Z</time>
      </trkpt>
      <trkpt lat="43.56165" lon="2.54621">
        <ele>749.20001220703</ele>
        <time>2023-06-01T06:28:27.000Z</time>
      </trkpt>
      <trkpt lat="43.56165" lon="2.54619">
        <ele>749.40002441406</ele>
        <time>2023-06-01T06:28:28.000Z</time>
      </trkpt>
      <trkpt lat="43.56165" lon="2.54617">
        <ele>749.40002441406</ele>
        <time>2023-06-01T06:28:30.000Z</time>
      </trkpt>
      <trkpt lat="43.56167" lon="2.54607">
        <ele>749.59997558594</ele>
        <time>2023-06-01T06:28:37.000Z</time>
      </trkpt>
      <trkpt lat="43.56168" lon="2.54601">
        <ele>749.79998779297</ele>
        <time>2023-06-01T06:28:42.000Z</time>
      </trkpt>
      <trkpt lat="43.56168" lon="2.54598">
        <ele>750</ele>
        <time>2023-06-01T06:28:44.000Z</time>
      </trkpt>
      <trkpt lat="43.56169" lon="2.54593">
        <ele>749.79998779297</ele>
        <time>2023-06-01T06:28:48.000Z</time>
      </trkpt>
      <trkpt lat="43.56169" lon="2.54588">
        <ele>749.40002441406</ele>
        <time>2023-06-01T06:28:51.000Z</time>
      </trkpt>
      <trkpt lat="43.56169" lon="2.54587">
        <ele>749.59997558594</ele>
        <time>2023-06-01T06:28:52.000Z</time>
      </trkpt>
      <trkpt lat="43.56169" lon="2.54576">
        <ele>749.79998779297</ele>
        <time>2023-06-01T06:28:59.000Z</time>
      </trkpt>
      <trkpt lat="43.56169" lon="2.54576">
        <ele>749.79998779297</ele>
        <time>2023-06-01T06:29:00.000Z</time>
      </trkpt>
      <trkpt lat="43.56169" lon="2.54571">
        <ele>750.20001220703</ele>
        <time>2023-06-01T06:29:04.000Z</time>
      </trkpt>
      <trkpt lat="43.5617" lon="2.54562">
        <ele>750</ele>
        <time>2023-06-01T06:29:12.000Z</time>
      </trkpt>
      <trkpt lat="43.5617" lon="2.54559">
        <ele>750.20001220703</ele>
        <time>2023-06-01T06:29:15.000Z</time>
      </trkpt>
      <trkpt lat="43.56171" lon="2.54556">
        <ele>750.20001220703</ele>
        <time>2023-06-01T06:29:17.000Z</time>
      </trkpt>
      <trkpt lat="43.56171" lon="2.54554">
        <ele>750.20001220703</ele>
        <time>2023-06-01T06:29:19.000Z</time>
      </trkpt>
      <trkpt lat="43.56172" lon="2.54544">
        <ele>750</ele>
        <time>2023-06-01T06:29:26.000Z</time>
      </trkpt>
      <trkpt lat="43.56172" lon="2.54537">
        <ele>750</ele>
        <time>2023-06-01T06:29:31.000Z</time>
      </trkpt>
      <trkpt lat="43.56172" lon="2.5453">
        <ele>750</ele>
        <time>2023-06-01T06:29:38.000Z</time>
      </trkpt>
      <trkpt lat="43.56172" lon="2.54526">
        <ele>750.40002441406</ele>
        <time>2023-06-01T06:29:44.000Z</time>
      </trkpt>
      <trkpt lat="43.56172" lon="2.54525">
        <ele>750.40002441406</ele>
        <time>2023-06-01T06:29:45.000Z</time>
      </trkpt>
      <trkpt lat="43.56171" lon="2.54513">
        <ele>749.59997558594</ele>
        <time>2023-06-01T06:29:52.000Z</time>
      </trkpt>
      <trkpt lat="43.5617" lon="2.54506">
        <ele>749.40002441406</ele>
        <time>2023-06-01T06:29:57.000Z</time>
      </trkpt>
      <trkpt lat="43.5617" lon="2.545">
        <ele>749.20001220703</ele>
        <time>2023-06-01T06:30:01.000Z</time>
      </trkpt>
      <trkpt lat="43.56171" lon="2.54489">
        <ele>749.40002441406</ele>
        <time>2023-06-01T06:30:10.000Z</time>
      </trkpt>
      <trkpt lat="43.56172" lon="2.54482">
        <ele>749.20001220703</ele>
        <time>2023-06-01T06:30:16.000Z</time>
      </trkpt>
      <trkpt lat="43.56172" lon="2.54474">
        <ele>748.79998779297</ele>
        <time>2023-06-01T06:30:23.000Z</time>
      </trkpt>
      <trkpt lat="43.56172" lon="2.54471">
        <ele>749</ele>
        <time>2023-06-01T06:30:32.000Z</time>
      </trkpt>
      <trkpt lat="43.56171" lon="2.5447">
        <ele>749</ele>
        <time>2023-06-01T06:30:41.000Z</time>
      </trkpt>
      <trkpt lat="43.56168" lon="2.54461">
        <ele>748.79998779297</ele>
        <time>2023-06-01T06:30:50.000Z</time>
      </trkpt>
      <trkpt lat="43.5617" lon="2.54451">
        <ele>748.40002441406</ele>
        <time>2023-06-01T06:30:59.000Z</time>
      </trkpt>
      <trkpt lat="43.56171" lon="2.5445">
        <ele>748.40002441406</ele>
        <time>2023-06-01T06:31:00.000Z</time>
      </trkpt>
      <trkpt lat="43.56173" lon="2.54437">
        <ele>747.59997558594</ele>
        <time>2023-06-01T06:31:09.000Z</time>
      </trkpt>
      <trkpt lat="43.56175" lon="2.54429">
        <ele>747.40002441406</ele>
        <time>2023-06-01T06:31:18.000Z</time>
      </trkpt>
      <trkpt lat="43.56176" lon="2.54424">
        <ele>747.59997558594</ele>
        <time>2023-06-01T06:31:24.000Z</time>
      </trkpt>
      <trkpt lat="43.56178" lon="2.54417">
        <ele>747.40002441406</ele>
        <time>2023-06-01T06:31:30.000Z</time>
      </trkpt>
      <trkpt lat="43.56179" lon="2.54415">
        <ele>747.20001220703</ele>
        <time>2023-06-01T06:31:31.000Z</time>
      </trkpt>
      <trkpt lat="43.56181" lon="2.54406">
        <ele>746.59997558594</ele>
        <time>2023-06-01T06:31:38.000Z</time>
      </trkpt>
      <trkpt lat="43.56185" lon="2.54398">
        <ele>746.40002441406</ele>
        <time>2023-06-01T06:31:45.000Z</time>
      </trkpt>
      <trkpt lat="43.56186" lon="2.54393">
        <ele>746.20001220703</ele>
        <time>2023-06-01T06:31:49.000Z</time>
      </trkpt>
      <trkpt lat="43.56188" lon="2.54387">
        <ele>746</ele>
        <time>2023-06-01T06:31:53.000Z</time>
      </trkpt>
      <trkpt lat="43.56191" lon="2.54373">
        <ele>745.40002441406</ele>
        <time>2023-06-01T06:32:02.000Z</time>
      </trkpt>
      <trkpt lat="43.56192" lon="2.54368">
        <ele>745.20001220703</ele>
        <time>2023-06-01T06:32:05.000Z</time>
      </trkpt>
      <trkpt lat="43.56195" lon="2.54357">
        <ele>744.59997558594</ele>
        <time>2023-06-01T06:32:12.000Z</time>
      </trkpt>
      <trkpt lat="43.56198" lon="2.54345">
        <ele>744.20001220703</ele>
        <time>2023-06-01T06:32:21.000Z</time>
      </trkpt>
      <trkpt lat="43.56199" lon="2.54343">
        <ele>744.20001220703</ele>
        <time>2023-06-01T06:32:22.000Z</time>
      </trkpt>
      <trkpt lat="43.56203" lon="2.54332">
        <ele>743.79998779297</ele>
        <time>2023-06-01T06:32:30.000Z</time>
      </trkpt>
      <trkpt lat="43.56206" lon="2.54324">
        <ele>743.40002441406</ele>
        <time>2023-06-01T06:32:37.000Z</time>
      </trkpt>
      <trkpt lat="43.56212" lon="2.54314">
        <ele>743.40002441406</ele>
        <time>2023-06-01T06:32:45.000Z</time>
      </trkpt>
      <trkpt lat="43.56214" lon="2.54304">
        <ele>743.40002441406</ele>
        <time>2023-06-01T06:32:52.000Z</time>
      </trkpt>
      <trkpt lat="43.5622" lon="2.54296">
        <ele>743.40002441406</ele>
        <time>2023-06-01T06:32:59.000Z</time>
      </trkpt>
      <trkpt lat="43.56225" lon="2.54288">
        <ele>743.40002441406</ele>
        <time>2023-06-01T06:33:05.000Z</time>
      </trkpt>
      <trkpt lat="43.56227" lon="2.54285">
        <ele>743.40002441406</ele>
        <time>2023-06-01T06:33:07.000Z</time>
      </trkpt>
      <trkpt lat="43.5623" lon="2.5428">
        <ele>743.20001220703</ele>
        <time>2023-06-01T06:33:11.000Z</time>
      </trkpt>
      <trkpt lat="43.56232" lon="2.54276">
        <ele>743</ele>
        <time>2023-06-01T06:33:14.000Z</time>
      </trkpt>
      <trkpt lat="43.56234" lon="2.54274">
        <ele>743.20001220703</ele>
        <time>2023-06-01T06:33:16.000Z</time>
      </trkpt>
      <trkpt lat="43.56236" lon="2.54271">
        <ele>743.20001220703</ele>
        <time>2023-06-01T06:33:18.000Z</time>
      </trkpt>
      <trkpt lat="43.5624" lon="2.54267">
        <ele>743</ele>
        <time>2023-06-01T06:33:22.000Z</time>
      </trkpt>
      <trkpt lat="43.56243" lon="2.54261">
        <ele>742.79998779297</ele>
        <time>2023-06-01T06:33:26.000Z</time>
      </trkpt>
      <trkpt lat="43.56245" lon="2.54259">
        <ele>742.59997558594</ele>
        <time>2023-06-01T06:33:28.000Z</time>
      </trkpt>
      <trkpt lat="43.56247" lon="2.54258">
        <ele>742.59997558594</ele>
        <time>2023-06-01T06:33:29.000Z</time>
      </trkpt>
      <trkpt lat="43.56252" lon="2.54255">
        <ele>742.59997558594</ele>
        <time>2023-06-01T06:33:35.000Z</time>
      </trkpt>
      <trkpt lat="43.56255" lon="2.54252">
        <ele>742.40002441406</ele>
        <time>2023-06-01T06:33:38.000Z</time>
      </trkpt>
      <trkpt lat="43.56257" lon="2.54251">
        <ele>742.40002441406</ele>
        <time>2023-06-01T06:33:40.000Z</time>
      </trkpt>
      <trkpt lat="43.56257" lon="2.5425">
        <ele>742.40002441406</ele>
        <time>2023-06-01T06:33:41.000Z</time>
      </trkpt>
      <trkpt lat="43.56261" lon="2.54248">
        <ele>742.40002441406</ele>
        <time>2023-06-01T06:33:44.000Z</time>
      </trkpt>
      <trkpt lat="43.56264" lon="2.54242">
        <ele>742.20001220703</ele>
        <time>2023-06-01T06:33:49.000Z</time>
      </trkpt>
      <trkpt lat="43.56265" lon="2.54239">
        <ele>742.20001220703</ele>
        <time>2023-06-01T06:33:51.000Z</time>
      </trkpt>
      <trkpt lat="43.56269" lon="2.54235">
        <ele>742</ele>
        <time>2023-06-01T06:33:55.000Z</time>
      </trkpt>
      <trkpt lat="43.56274" lon="2.54229">
        <ele>742</ele>
        <time>2023-06-01T06:34:00.000Z</time>
      </trkpt>
      <trkpt lat="43.56275" lon="2.54225">
        <ele>741.79998779297</ele>
        <time>2023-06-01T06:34:03.000Z</time>
      </trkpt>
      <trkpt lat="43.56277" lon="2.54222">
        <ele>741.59997558594</ele>
        <time>2023-06-01T06:34:06.000Z</time>
      </trkpt>
      <trkpt lat="43.5628" lon="2.54217">
        <ele>741.59997558594</ele>
        <time>2023-06-01T06:34:10.000Z</time>
      </trkpt>
      <trkpt lat="43.56282" lon="2.54215">
        <ele>741.59997558594</ele>
        <time>2023-06-01T06:34:12.000Z</time>
      </trkpt>
      <trkpt lat="43.56286" lon="2.54207">
        <ele>741.40002441406</ele>
        <time>2023-06-01T06:34:18.000Z</time>
      </trkpt>
      <trkpt lat="43.56287" lon="2.54205">
        <ele>741.40002441406</ele>
        <time>2023-06-01T06:34:19.000Z</time>
      </trkpt>
      <trkpt lat="43.56291" lon="2.54199">
        <ele>741.20001220703</ele>
        <time>2023-06-01T06:34:24.000Z</time>
      </trkpt>
      <trkpt lat="43.56293" lon="2.54192">
        <ele>740.79998779297</ele>
        <time>2023-06-01T06:34:28.000Z</time>
      </trkpt>
      <trkpt lat="43.56295" lon="2.54187">
        <ele>740.59997558594</ele>
        <time>2023-06-01T06:34:31.000Z</time>
      </trkpt>
      <trkpt lat="43.56296" lon="2.54182">
        <ele>740.40002441406</ele>
        <time>2023-06-01T06:34:34.000Z</time>
      </trkpt>
      <trkpt lat="43.56295" lon="2.54172">
        <ele>740.59997558594</ele>
        <time>2023-06-01T06:34:40.000Z</time>
      </trkpt>
      <trkpt lat="43.56295" lon="2.54165">
        <ele>740.59997558594</ele>
        <time>2023-06-01T06:34:44.000Z</time>
      </trkpt>
      <trkpt lat="43.56299" lon="2.54158">
        <ele>740.20001220703</ele>
        <time>2023-06-01T06:34:49.000Z</time>
      </trkpt>
      <trkpt lat="43.56301" lon="2.54148">
        <ele>740.20001220703</ele>
        <time>2023-06-01T06:34:55.000Z</time>
      </trkpt>
      <trkpt lat="43.56301" lon="2.54146">
        <ele>740.20001220703</ele>
        <time>2023-06-01T06:34:56.000Z</time>
      </trkpt>
      <trkpt lat="43.56302" lon="2.54144">
        <ele>740.20001220703</ele>
        <time>2023-06-01T06:34:58.000Z</time>
      </trkpt>
      <trkpt lat="43.56305" lon="2.54141">
        <ele>740.40002441406</ele>
        <time>2023-06-01T06:35:01.000Z</time>
      </trkpt>
      <trkpt lat="43.56305" lon="2.54139">
        <ele>740.20001220703</ele>
        <time>2023-06-01T06:35:02.000Z</time>
      </trkpt>
      <trkpt lat="43.56308" lon="2.54132">
        <ele>740.20001220703</ele>
        <time>2023-06-01T06:35:06.000Z</time>
      </trkpt>
      <trkpt lat="43.56308" lon="2.54126">
        <ele>740.20001220703</ele>
        <time>2023-06-01T06:35:10.000Z</time>
      </trkpt>
      <trkpt lat="43.56309" lon="2.54124">
        <ele>740.20001220703</ele>
        <time>2023-06-01T06:35:12.000Z</time>
      </trkpt>
      <trkpt lat="43.56309" lon="2.54122">
        <ele>740</ele>
        <time>2023-06-01T06:35:13.000Z</time>
      </trkpt>
      <trkpt lat="43.5631" lon="2.54115">
        <ele>739.59997558594</ele>
        <time>2023-06-01T06:35:17.000Z</time>
      </trkpt>
      <trkpt lat="43.56312" lon="2.54107">
        <ele>739.59997558594</ele>
        <time>2023-06-01T06:35:22.000Z</time>
      </trkpt>
      <trkpt lat="43.56313" lon="2.54105">
        <ele>739.59997558594</ele>
        <time>2023-06-01T06:35:23.000Z</time>
      </trkpt>
      <trkpt lat="43.56316" lon="2.54099">
        <ele>739.59997558594</ele>
        <time>2023-06-01T06:35:27.000Z</time>
      </trkpt>
      <trkpt lat="43.56316" lon="2.54098">
        <ele>739.40002441406</ele>
        <time>2023-06-01T06:35:28.000Z</time>
      </trkpt>
      <trkpt lat="43.56319" lon="2.54089">
        <ele>739.40002441406</ele>
        <time>2023-06-01T06:35:34.000Z</time>
      </trkpt>
      <trkpt lat="43.56319" lon="2.54086">
        <ele>739.20001220703</ele>
        <time>2023-06-01T06:35:36.000Z</time>
      </trkpt>
      <trkpt lat="43.56319" lon="2.54081">
        <ele>739.20001220703</ele>
        <time>2023-06-01T06:35:40.000Z</time>
      </trkpt>
      <trkpt lat="43.5632" lon="2.5408">
        <ele>739.20001220703</ele>
        <time>2023-06-01T06:35:41.000Z</time>
      </trkpt>
      <trkpt lat="43.56323" lon="2.54071">
        <ele>739</ele>
        <time>2023-06-01T06:35:47.000Z</time>
      </trkpt>
      <trkpt lat="43.56324" lon="2.54068">
        <ele>739.20001220703</ele>
        <time>2023-06-01T06:35:49.000Z</time>
      </trkpt>
      <trkpt lat="43.56325" lon="2.54064">
        <ele>739</ele>
        <time>2023-06-01T06:35:51.000Z</time>
      </trkpt>
      <trkpt lat="43.56325" lon="2.54063">
        <ele>739</ele>
        <time>2023-06-01T06:35:52.000Z</time>
      </trkpt>
      <trkpt lat="43.56327" lon="2.5406">
        <ele>738.79998779297</ele>
        <time>2023-06-01T06:35:54.000Z</time>
      </trkpt>
      <trkpt lat="43.56329" lon="2.54053">
        <ele>739</ele>
        <time>2023-06-01T06:35:59.000Z</time>
      </trkpt>
      <trkpt lat="43.56329" lon="2.54047">
        <ele>738.59997558594</ele>
        <time>2023-06-01T06:36:03.000Z</time>
      </trkpt>
      <trkpt lat="43.5633" lon="2.54046">
        <ele>738.59997558594</ele>
        <time>2023-06-01T06:36:04.000Z</time>
      </trkpt>
      <trkpt lat="43.5633" lon="2.54044">
        <ele>738.59997558594</ele>
        <time>2023-06-01T06:36:05.000Z</time>
      </trkpt>
      <trkpt lat="43.5633" lon="2.54036">
        <ele>738.20001220703</ele>
        <time>2023-06-01T06:36:11.000Z</time>
      </trkpt>
      <trkpt lat="43.5633" lon="2.54033">
        <ele>738</ele>
        <time>2023-06-01T06:36:13.000Z</time>
      </trkpt>
      <trkpt lat="43.5633" lon="2.54029">
        <ele>737.59997558594</ele>
        <time>2023-06-01T06:36:18.000Z</time>
      </trkpt>
      <trkpt lat="43.5633" lon="2.54027">
        <ele>737.40002441406</ele>
        <time>2023-06-01T06:36:19.000Z</time>
      </trkpt>
      <trkpt lat="43.56333" lon="2.54021">
        <ele>737.20001220703</ele>
        <time>2023-06-01T06:36:23.000Z</time>
      </trkpt>
      <trkpt lat="43.56332" lon="2.54019">
        <ele>737</ele>
        <time>2023-06-01T06:36:24.000Z</time>
      </trkpt>
      <trkpt lat="43.56332" lon="2.54016">
        <ele>736.79998779297</ele>
        <time>2023-06-01T06:36:26.000Z</time>
      </trkpt>
      <trkpt lat="43.56332" lon="2.5401">
        <ele>736.59997558594</ele>
        <time>2023-06-01T06:36:30.000Z</time>
      </trkpt>
      <trkpt lat="43.56331" lon="2.54005">
        <ele>736.40002441406</ele>
        <time>2023-06-01T06:36:33.000Z</time>
      </trkpt>
      <trkpt lat="43.5633" lon="2.54003">
        <ele>736.20001220703</ele>
        <time>2023-06-01T06:36:35.000Z</time>
      </trkpt>
      <trkpt lat="43.56329" lon="2.54">
        <ele>735.79998779297</ele>
        <time>2023-06-01T06:36:38.000Z</time>
      </trkpt>
      <trkpt lat="43.56329" lon="2.53997">
        <ele>735.79998779297</ele>
        <time>2023-06-01T06:36:39.000Z</time>
      </trkpt>
      <trkpt lat="43.56328" lon="2.53996">
        <ele>735.79998779297</ele>
        <time>2023-06-01T06:36:40.000Z</time>
      </trkpt>
      <trkpt lat="43.56328" lon="2.53994">
        <ele>735.59997558594</ele>
        <time>2023-06-01T06:36:41.000Z</time>
      </trkpt>
      <trkpt lat="43.56327" lon="2.53988">
        <ele>735.20001220703</ele>
        <time>2023-06-01T06:36:46.000Z</time>
      </trkpt>
      <trkpt lat="43.56327" lon="2.53987">
        <ele>735.20001220703</ele>
        <time>2023-06-01T06:36:47.000Z</time>
      </trkpt>
      <trkpt lat="43.56324" lon="2.53981">
        <ele>734.79998779297</ele>
        <time>2023-06-01T06:36:51.000Z</time>
      </trkpt>
      <trkpt lat="43.56322" lon="2.53978">
        <ele>734.59997558594</ele>
        <time>2023-06-01T06:36:53.000Z</time>
      </trkpt>
      <trkpt lat="43.56321" lon="2.53976">
        <ele>734.59997558594</ele>
        <time>2023-06-01T06:36:54.000Z</time>
      </trkpt>
      <trkpt lat="43.5632" lon="2.53973">
        <ele>734.40002441406</ele>
        <time>2023-06-01T06:36:56.000Z</time>
      </trkpt>
      <trkpt lat="43.5632" lon="2.53968">
        <ele>734.20001220703</ele>
        <time>2023-06-01T06:36:58.000Z</time>
      </trkpt>
      <trkpt lat="43.56319" lon="2.53962">
        <ele>734</ele>
        <time>2023-06-01T06:37:01.000Z</time>
      </trkpt>
      <trkpt lat="43.56318" lon="2.53958">
        <ele>733.79998779297</ele>
        <time>2023-06-01T06:37:03.000Z</time>
      </trkpt>
      <trkpt lat="43.56317" lon="2.53957">
        <ele>733.79998779297</ele>
        <time>2023-06-01T06:37:04.000Z</time>
      </trkpt>
      <trkpt lat="43.56317" lon="2.53955">
        <ele>733.59997558594</ele>
        <time>2023-06-01T06:37:05.000Z</time>
      </trkpt>
      <trkpt lat="43.56315" lon="2.53945">
        <ele>733.20001220703</ele>
        <time>2023-06-01T06:37:11.000Z</time>
      </trkpt>
      <trkpt lat="43.56315" lon="2.53939">
        <ele>732.59997558594</ele>
        <time>2023-06-01T06:37:15.000Z</time>
      </trkpt>
      <trkpt lat="43.56315" lon="2.53938">
        <ele>732.59997558594</ele>
        <time>2023-06-01T06:37:16.000Z</time>
      </trkpt>
      <trkpt lat="43.56315" lon="2.5393">
        <ele>732.20001220703</ele>
        <time>2023-06-01T06:37:21.000Z</time>
      </trkpt>
      <trkpt lat="43.56315" lon="2.53917">
        <ele>731.59997558594</ele>
        <time>2023-06-01T06:37:29.000Z</time>
      </trkpt>
      <trkpt lat="43.56315" lon="2.5391">
        <ele>731.40002441406</ele>
        <time>2023-06-01T06:37:32.000Z</time>
      </trkpt>
      <trkpt lat="43.56314" lon="2.53901">
        <ele>731.20001220703</ele>
        <time>2023-06-01T06:37:36.000Z</time>
      </trkpt>
      <trkpt lat="43.56314" lon="2.53897">
        <ele>731.20001220703</ele>
        <time>2023-06-01T06:37:38.000Z</time>
      </trkpt>
      <trkpt lat="43.56314" lon="2.53891">
        <ele>731.20001220703</ele>
        <time>2023-06-01T06:37:41.000Z</time>
      </trkpt>
      <trkpt lat="43.56314" lon="2.53888">
        <ele>731</ele>
        <time>2023-06-01T06:37:43.000Z</time>
      </trkpt>
      <trkpt lat="43.56314" lon="2.53881">
        <ele>731</ele>
        <time>2023-06-01T06:37:46.000Z</time>
      </trkpt>
      <trkpt lat="43.56314" lon="2.53872">
        <ele>730.79998779297</ele>
        <time>2023-06-01T06:37:51.000Z</time>
      </trkpt>
      <trkpt lat="43.56314" lon="2.53871">
        <ele>730.79998779297</ele>
        <time>2023-06-01T06:37:52.000Z</time>
      </trkpt>
      <trkpt lat="43.56315" lon="2.53867">
        <ele>730.59997558594</ele>
        <time>2023-06-01T06:37:55.000Z</time>
      </trkpt>
      <trkpt lat="43.56315" lon="2.53865">
        <ele>730.59997558594</ele>
        <time>2023-06-01T06:37:56.000Z</time>
      </trkpt>
      <trkpt lat="43.56315" lon="2.5386">
        <ele>730.59997558594</ele>
        <time>2023-06-01T06:37:59.000Z</time>
      </trkpt>
      <trkpt lat="43.56316" lon="2.53851">
        <ele>730.40002441406</ele>
        <time>2023-06-01T06:38:05.000Z</time>
      </trkpt>
      <trkpt lat="43.56316" lon="2.53838">
        <ele>730.20001220703</ele>
        <time>2023-06-01T06:38:13.000Z</time>
      </trkpt>
      <trkpt lat="43.56316" lon="2.53836">
        <ele>730.20001220703</ele>
        <time>2023-06-01T06:38:15.000Z</time>
      </trkpt>
      <trkpt lat="43.56317" lon="2.5383">
        <ele>730.20001220703</ele>
        <time>2023-06-01T06:38:19.000Z</time>
      </trkpt>
      <trkpt lat="43.56317" lon="2.53828">
        <ele>730.20001220703</ele>
        <time>2023-06-01T06:38:20.000Z</time>
      </trkpt>
      <trkpt lat="43.56315" lon="2.53813">
        <ele>730.20001220703</ele>
        <time>2023-06-01T06:38:28.000Z</time>
      </trkpt>
      <trkpt lat="43.56314" lon="2.53801">
        <ele>730</ele>
        <time>2023-06-01T06:38:35.000Z</time>
      </trkpt>
      <trkpt lat="43.56314" lon="2.53793">
        <ele>729.79998779297</ele>
        <time>2023-06-01T06:38:41.000Z</time>
      </trkpt>
      <trkpt lat="43.56314" lon="2.5379">
        <ele>729.79998779297</ele>
        <time>2023-06-01T06:38:43.000Z</time>
      </trkpt>
      <trkpt lat="43.56314" lon="2.53784">
        <ele>729.79998779297</ele>
        <time>2023-06-01T06:38:47.000Z</time>
      </trkpt>
      <trkpt lat="43.56314" lon="2.53776">
        <ele>729.59997558594</ele>
        <time>2023-06-01T06:38:53.000Z</time>
      </trkpt>
      <trkpt lat="43.56314" lon="2.53774">
        <ele>729.59997558594</ele>
        <time>2023-06-01T06:38:55.000Z</time>
      </trkpt>
      <trkpt lat="43.56313" lon="2.53771">
        <ele>729.40002441406</ele>
        <time>2023-06-01T06:38:58.000Z</time>
      </trkpt>
      <trkpt lat="43.56313" lon="2.53768">
        <ele>729.40002441406</ele>
        <time>2023-06-01T06:39:00.000Z</time>
      </trkpt>
      <trkpt lat="43.56312" lon="2.53762">
        <ele>729.40002441406</ele>
        <time>2023-06-01T06:39:05.000Z</time>
      </trkpt>
      <trkpt lat="43.56311" lon="2.53752">
        <ele>729.20001220703</ele>
        <time>2023-06-01T06:39:12.000Z</time>
      </trkpt>
      <trkpt lat="43.56312" lon="2.53751">
        <ele>729.20001220703</ele>
        <time>2023-06-01T06:39:13.000Z</time>
      </trkpt>
      <trkpt lat="43.5631" lon="2.53742">
        <ele>729.20001220703</ele>
        <time>2023-06-01T06:39:19.000Z</time>
      </trkpt>
      <trkpt lat="43.56308" lon="2.53733">
        <ele>729.20001220703</ele>
        <time>2023-06-01T06:39:24.000Z</time>
      </trkpt>
      <trkpt lat="43.56307" lon="2.53732">
        <ele>729.20001220703</ele>
        <time>2023-06-01T06:39:25.000Z</time>
      </trkpt>
      <trkpt lat="43.56303" lon="2.53723">
        <ele>729.20001220703</ele>
        <time>2023-06-01T06:39:32.000Z</time>
      </trkpt>
      <trkpt lat="43.56302" lon="2.53721">
        <ele>729.20001220703</ele>
        <time>2023-06-01T06:39:33.000Z</time>
      </trkpt>
      <trkpt lat="43.56299" lon="2.53716">
        <ele>729.20001220703</ele>
        <time>2023-06-01T06:39:38.000Z</time>
      </trkpt>
      <trkpt lat="43.56298" lon="2.53713">
        <ele>729.20001220703</ele>
        <time>2023-06-01T06:39:40.000Z</time>
      </trkpt>
      <trkpt lat="43.56298" lon="2.53711">
        <ele>729.20001220703</ele>
        <time>2023-06-01T06:39:42.000Z</time>
      </trkpt>
      <trkpt lat="43.56296" lon="2.53709">
        <ele>729</ele>
        <time>2023-06-01T06:39:44.000Z</time>
      </trkpt>
      <trkpt lat="43.56295" lon="2.537">
        <ele>729</ele>
        <time>2023-06-01T06:39:49.000Z</time>
      </trkpt>
      <trkpt lat="43.56293" lon="2.53696">
        <ele>729</ele>
        <time>2023-06-01T06:39:52.000Z</time>
      </trkpt>
      <trkpt lat="43.56292" lon="2.53692">
        <ele>729</ele>
        <time>2023-06-01T06:39:55.000Z</time>
      </trkpt>
      <trkpt lat="43.5629" lon="2.53687">
        <ele>729</ele>
        <time>2023-06-01T06:40:00.000Z</time>
      </trkpt>
      <trkpt lat="43.56291" lon="2.53683">
        <ele>729.20001220703</ele>
        <time>2023-06-01T06:40:05.000Z</time>
      </trkpt>
      <trkpt lat="43.56287" lon="2.53678">
        <ele>729.20001220703</ele>
        <time>2023-06-01T06:40:10.000Z</time>
      </trkpt>
      <trkpt lat="43.56283" lon="2.53675">
        <ele>729.59997558594</ele>
        <time>2023-06-01T06:40:15.000Z</time>
      </trkpt>
      <trkpt lat="43.56276" lon="2.53667">
        <ele>729.79998779297</ele>
        <time>2023-06-01T06:40:22.000Z</time>
      </trkpt>
      <trkpt lat="43.56269" lon="2.53663">
        <ele>730.20001220703</ele>
        <time>2023-06-01T06:40:28.000Z</time>
      </trkpt>
      <trkpt lat="43.56269" lon="2.53663">
        <ele>730.20001220703</ele>
        <time>2023-06-01T06:40:29.000Z</time>
      </trkpt>
      <trkpt lat="43.56262" lon="2.53659">
        <ele>730.20001220703</ele>
        <time>2023-06-01T06:40:33.000Z</time>
      </trkpt>
      <trkpt lat="43.56261" lon="2.53658">
        <ele>730.20001220703</ele>
        <time>2023-06-01T06:40:34.000Z</time>
      </trkpt>
      <trkpt lat="43.56258" lon="2.53654">
        <ele>730.59997558594</ele>
        <time>2023-06-01T06:40:38.000Z</time>
      </trkpt>
      <trkpt lat="43.56257" lon="2.53653">
        <ele>730.59997558594</ele>
        <time>2023-06-01T06:40:39.000Z</time>
      </trkpt>
      <trkpt lat="43.56253" lon="2.53649">
        <ele>731</ele>
        <time>2023-06-01T06:40:44.000Z</time>
      </trkpt>
      <trkpt lat="43.56248" lon="2.53646">
        <ele>731.40002441406</ele>
        <time>2023-06-01T06:40:49.000Z</time>
      </trkpt>
      <trkpt lat="43.56246" lon="2.53644">
        <ele>731.59997558594</ele>
        <time>2023-06-01T06:40:52.000Z</time>
      </trkpt>
      <trkpt lat="43.56245" lon="2.53644">
        <ele>731.59997558594</ele>
        <time>2023-06-01T06:40:53.000Z</time>
      </trkpt>
      <trkpt lat="43.56244" lon="2.53643">
        <ele>731.59997558594</ele>
        <time>2023-06-01T06:40:54.000Z</time>
      </trkpt>
      <trkpt lat="43.56241" lon="2.53643">
        <ele>732</ele>
        <time>2023-06-01T06:40:56.000Z</time>
      </trkpt>
      <trkpt lat="43.56235" lon="2.53638">
        <ele>732.40002441406</ele>
        <time>2023-06-01T06:41:02.000Z</time>
      </trkpt>
      <trkpt lat="43.56235" lon="2.53637">
        <ele>732.59997558594</ele>
        <time>2023-06-01T06:41:03.000Z</time>
      </trkpt>
      <trkpt lat="43.56233" lon="2.53635">
        <ele>732.79998779297</ele>
        <time>2023-06-01T06:41:05.000Z</time>
      </trkpt>
      <trkpt lat="43.56231" lon="2.53633">
        <ele>733</ele>
        <time>2023-06-01T06:41:09.000Z</time>
      </trkpt>
      <trkpt lat="43.56225" lon="2.53622">
        <ele>733.79998779297</ele>
        <time>2023-06-01T06:41:19.000Z</time>
      </trkpt>
      <trkpt lat="43.56224" lon="2.53616">
        <ele>733.79998779297</ele>
        <time>2023-06-01T06:41:23.000Z</time>
      </trkpt>
      <trkpt lat="43.56225" lon="2.53614">
        <ele>733.79998779297</ele>
        <time>2023-06-01T06:41:24.000Z</time>
      </trkpt>
      <trkpt lat="43.56223" lon="2.53606">
        <ele>734.20001220703</ele>
        <time>2023-06-01T06:41:29.000Z</time>
      </trkpt>
      <trkpt lat="43.56224" lon="2.536">
        <ele>734.59997558594</ele>
        <time>2023-06-01T06:41:34.000Z</time>
      </trkpt>
      <trkpt lat="43.56225" lon="2.53597">
        <ele>734.79998779297</ele>
        <time>2023-06-01T06:41:36.000Z</time>
      </trkpt>
      <trkpt lat="43.56225" lon="2.53595">
        <ele>734.79998779297</ele>
        <time>2023-06-01T06:41:37.000Z</time>
      </trkpt>
      <trkpt lat="43.56227" lon="2.5359">
        <ele>735.20001220703</ele>
        <time>2023-06-01T06:41:41.000Z</time>
      </trkpt>
      <trkpt lat="43.56227" lon="2.53589">
        <ele>735.40002441406</ele>
        <time>2023-06-01T06:41:42.000Z</time>
      </trkpt>
      <trkpt lat="43.56228" lon="2.53586">
        <ele>735.59997558594</ele>
        <time>2023-06-01T06:41:44.000Z</time>
      </trkpt>
      <trkpt lat="43.56229" lon="2.53583">
        <ele>735.79998779297</ele>
        <time>2023-06-01T06:41:47.000Z</time>
      </trkpt>
      <trkpt lat="43.56232" lon="2.53578">
        <ele>736.40002441406</ele>
        <time>2023-06-01T06:41:52.000Z</time>
      </trkpt>
      <trkpt lat="43.56234" lon="2.53575">
        <ele>736.59997558594</ele>
        <time>2023-06-01T06:41:55.000Z</time>
      </trkpt>
      <trkpt lat="43.56238" lon="2.5357">
        <ele>737</ele>
        <time>2023-06-01T06:42:00.000Z</time>
      </trkpt>
      <trkpt lat="43.5624" lon="2.53568">
        <ele>737.20001220703</ele>
        <time>2023-06-01T06:42:03.000Z</time>
      </trkpt>
      <trkpt lat="43.56245" lon="2.53564">
        <ele>738</ele>
        <time>2023-06-01T06:42:09.000Z</time>
      </trkpt>
      <trkpt lat="43.56246" lon="2.53563">
        <ele>738.20001220703</ele>
        <time>2023-06-01T06:42:10.000Z</time>
      </trkpt>
      <trkpt lat="43.56251" lon="2.53556">
        <ele>738.59997558594</ele>
        <time>2023-06-01T06:42:17.000Z</time>
      </trkpt>
      <trkpt lat="43.56251" lon="2.53555">
        <ele>738.79998779297</ele>
        <time>2023-06-01T06:42:18.000Z</time>
      </trkpt>
      <trkpt lat="43.56254" lon="2.53553">
        <ele>739</ele>
        <time>2023-06-01T06:42:21.000Z</time>
      </trkpt>
      <trkpt lat="43.56257" lon="2.53546">
        <ele>739.59997558594</ele>
        <time>2023-06-01T06:42:27.000Z</time>
      </trkpt>
      <trkpt lat="43.5626" lon="2.53539">
        <ele>740</ele>
        <time>2023-06-01T06:42:33.000Z</time>
      </trkpt>
      <trkpt lat="43.56261" lon="2.53537">
        <ele>740</ele>
        <time>2023-06-01T06:42:35.000Z</time>
      </trkpt>
      <trkpt lat="43.56266" lon="2.53524">
        <ele>740.40002441406</ele>
        <time>2023-06-01T06:42:45.000Z</time>
      </trkpt>
      <trkpt lat="43.56268" lon="2.53518">
        <ele>740.59997558594</ele>
        <time>2023-06-01T06:42:51.000Z</time>
      </trkpt>
      <trkpt lat="43.5627" lon="2.53515">
        <ele>741</ele>
        <time>2023-06-01T06:42:54.000Z</time>
      </trkpt>
      <trkpt lat="43.56272" lon="2.53512">
        <ele>741</ele>
        <time>2023-06-01T06:42:57.000Z</time>
      </trkpt>
      <trkpt lat="43.56274" lon="2.53506">
        <ele>741.40002441406</ele>
        <time>2023-06-01T06:43:02.000Z</time>
      </trkpt>
      <trkpt lat="43.5628" lon="2.53496">
        <ele>741.79998779297</ele>
        <time>2023-06-01T06:43:11.000Z</time>
      </trkpt>
      <trkpt lat="43.56282" lon="2.53493">
        <ele>742.20001220703</ele>
        <time>2023-06-01T06:43:14.000Z</time>
      </trkpt>
      <trkpt lat="43.56282" lon="2.53492">
        <ele>742.20001220703</ele>
        <time>2023-06-01T06:43:15.000Z</time>
      </trkpt>
      <trkpt lat="43.56283" lon="2.53492">
        <ele>742.40002441406</ele>
        <time>2023-06-01T06:43:16.000Z</time>
      </trkpt>
      <trkpt lat="43.56284" lon="2.5349">
        <ele>742.40002441406</ele>
        <time>2023-06-01T06:43:17.000Z</time>
      </trkpt>
      <trkpt lat="43.56286" lon="2.53485">
        <ele>743</ele>
        <time>2023-06-01T06:43:23.000Z</time>
      </trkpt>
      <trkpt lat="43.56287" lon="2.53483">
        <ele>743.20001220703</ele>
        <time>2023-06-01T06:43:26.000Z</time>
      </trkpt>
      <trkpt lat="43.5629" lon="2.53478">
        <ele>743</ele>
        <time>2023-06-01T06:43:30.000Z</time>
      </trkpt>
      <trkpt lat="43.56294" lon="2.53467">
        <ele>743</ele>
        <time>2023-06-01T06:43:38.000Z</time>
      </trkpt>
      <trkpt lat="43.56298" lon="2.53459">
        <ele>743.20001220703</ele>
        <time>2023-06-01T06:43:44.000Z</time>
      </trkpt>
      <trkpt lat="43.56298" lon="2.53458">
        <ele>743.20001220703</ele>
        <time>2023-06-01T06:43:45.000Z</time>
      </trkpt>
      <trkpt lat="43.56302" lon="2.53448">
        <ele>743.40002441406</ele>
        <time>2023-06-01T06:43:52.000Z</time>
      </trkpt>
      <trkpt lat="43.56307" lon="2.53438">
        <ele>743.59997558594</ele>
        <time>2023-06-01T06:44:00.000Z</time>
      </trkpt>
      <trkpt lat="43.56311" lon="2.53433">
        <ele>743.79998779297</ele>
        <time>2023-06-01T06:44:05.000Z</time>
      </trkpt>
      <trkpt lat="43.56312" lon="2.5343">
        <ele>743.79998779297</ele>
        <time>2023-06-01T06:44:07.000Z</time>
      </trkpt>
      <trkpt lat="43.56318" lon="2.53421">
        <ele>743.79998779297</ele>
        <time>2023-06-01T06:44:15.000Z</time>
      </trkpt>
      <trkpt lat="43.5632" lon="2.53415">
        <ele>743.59997558594</ele>
        <time>2023-06-01T06:44:20.000Z</time>
      </trkpt>
      <trkpt lat="43.5632" lon="2.53416">
        <ele>743.40002441406</ele>
        <time>2023-06-01T06:44:21.000Z</time>
      </trkpt>
      <trkpt lat="43.5632" lon="2.53415">
        <ele>743.40002441406</ele>
        <time>2023-06-01T06:44:27.000Z</time>
      </trkpt>
      <trkpt lat="43.5632" lon="2.53415">
        <ele>743.59997558594</ele>
        <time>2023-06-01T06:44:37.000Z</time>
      </trkpt>
      <trkpt lat="43.56323" lon="2.53405">
        <ele>743.59997558594</ele>
        <time>2023-06-01T06:44:43.000Z</time>
      </trkpt>
      <trkpt lat="43.56328" lon="2.53395">
        <ele>743.79998779297</ele>
        <time>2023-06-01T06:44:51.000Z</time>
      </trkpt>
      <trkpt lat="43.56337" lon="2.53382">
        <ele>744</ele>
        <time>2023-06-01T06:45:01.000Z</time>
      </trkpt>
      <trkpt lat="43.56338" lon="2.53377">
        <ele>744.20001220703</ele>
        <time>2023-06-01T06:45:04.000Z</time>
      </trkpt>
      <trkpt lat="43.5634" lon="2.53373">
        <ele>744.20001220703</ele>
        <time>2023-06-01T06:45:07.000Z</time>
      </trkpt>
      <trkpt lat="43.56341" lon="2.53368">
        <ele>744.20001220703</ele>
        <time>2023-06-01T06:45:10.000Z</time>
      </trkpt>
      <trkpt lat="43.56345" lon="2.53358">
        <ele>744.79998779297</ele>
        <time>2023-06-01T06:45:17.000Z</time>
      </trkpt>
      <trkpt lat="43.56346" lon="2.53357">
        <ele>744.79998779297</ele>
        <time>2023-06-01T06:45:18.000Z</time>
      </trkpt>
      <trkpt lat="43.56348" lon="2.53352">
        <ele>745</ele>
        <time>2023-06-01T06:45:22.000Z</time>
      </trkpt>
      <trkpt lat="43.56348" lon="2.5335">
        <ele>745</ele>
        <time>2023-06-01T06:45:23.000Z</time>
      </trkpt>
      <trkpt lat="43.5635" lon="2.53342">
        <ele>745.20001220703</ele>
        <time>2023-06-01T06:45:29.000Z</time>
      </trkpt>
      <trkpt lat="43.5635" lon="2.5334">
        <ele>745.20001220703</ele>
        <time>2023-06-01T06:45:30.000Z</time>
      </trkpt>
      <trkpt lat="43.56353" lon="2.53327">
        <ele>745</ele>
        <time>2023-06-01T06:45:38.000Z</time>
      </trkpt>
      <trkpt lat="43.56354" lon="2.53313">
        <ele>744.79998779297</ele>
        <time>2023-06-01T06:45:47.000Z</time>
      </trkpt>
      <trkpt lat="43.56356" lon="2.53295">
        <ele>744.20001220703</ele>
        <time>2023-06-01T06:45:57.000Z</time>
      </trkpt>
      <trkpt lat="43.56356" lon="2.5329">
        <ele>744.20001220703</ele>
        <time>2023-06-01T06:46:00.000Z</time>
      </trkpt>
      <trkpt lat="43.56355" lon="2.5328">
        <ele>743.79998779297</ele>
        <time>2023-06-01T06:46:06.000Z</time>
      </trkpt>
      <trkpt lat="43.56356" lon="2.53266">
        <ele>743.40002441406</ele>
        <time>2023-06-01T06:46:15.000Z</time>
      </trkpt>
      <trkpt lat="43.56357" lon="2.53265">
        <ele>743.40002441406</ele>
        <time>2023-06-01T06:46:17.000Z</time>
      </trkpt>
      <trkpt lat="43.56357" lon="2.53265">
        <ele>743.40002441406</ele>
        <time>2023-06-01T06:46:21.000Z</time>
      </trkpt>
      <trkpt lat="43.5636" lon="2.53261">
        <ele>743.40002441406</ele>
        <time>2023-06-01T06:46:30.000Z</time>
      </trkpt>
      <trkpt lat="43.56364" lon="2.53254">
        <ele>743.79998779297</ele>
        <time>2023-06-01T06:46:38.000Z</time>
      </trkpt>
      <trkpt lat="43.56365" lon="2.53253">
        <ele>744</ele>
        <time>2023-06-01T06:46:39.000Z</time>
      </trkpt>
      <trkpt lat="43.56367" lon="2.53248">
        <ele>744.59997558594</ele>
        <time>2023-06-01T06:46:45.000Z</time>
      </trkpt>
      <trkpt lat="43.56368" lon="2.53244">
        <ele>745.20001220703</ele>
        <time>2023-06-01T06:46:50.000Z</time>
      </trkpt>
      <trkpt lat="43.56369" lon="2.5324">
        <ele>745.40002441406</ele>
        <time>2023-06-01T06:46:53.000Z</time>
      </trkpt>
      <trkpt lat="43.56373" lon="2.5323">
        <ele>745.59997558594</ele>
        <time>2023-06-01T06:47:01.000Z</time>
      </trkpt>
      <trkpt lat="43.56376" lon="2.53228">
        <ele>745.59997558594</ele>
        <time>2023-06-01T06:47:04.000Z</time>
      </trkpt>
      <trkpt lat="43.56379" lon="2.53227">
        <ele>746.20001220703</ele>
        <time>2023-06-01T06:47:09.000Z</time>
      </trkpt>
      <trkpt lat="43.5638" lon="2.53226">
        <ele>746.20001220703</ele>
        <time>2023-06-01T06:47:10.000Z</time>
      </trkpt>
      <trkpt lat="43.56383" lon="2.53226">
        <ele>746.79998779297</ele>
        <time>2023-06-01T06:47:16.000Z</time>
      </trkpt>
      <trkpt lat="43.56386" lon="2.53226">
        <ele>747.20001220703</ele>
        <time>2023-06-01T06:47:20.000Z</time>
      </trkpt>
      <trkpt lat="43.56386" lon="2.53226">
        <ele>747.40002441406</ele>
        <time>2023-06-01T06:47:22.000Z</time>
      </trkpt>
      <trkpt lat="43.56389" lon="2.53226">
        <ele>748</ele>
        <time>2023-06-01T06:47:29.000Z</time>
      </trkpt>
      <trkpt lat="43.56391" lon="2.53226">
        <ele>748.40002441406</ele>
        <time>2023-06-01T06:47:32.000Z</time>
      </trkpt>
      <trkpt lat="43.56393" lon="2.53224">
        <ele>748.59997558594</ele>
        <time>2023-06-01T06:47:37.000Z</time>
      </trkpt>
      <trkpt lat="43.56398" lon="2.53224">
        <ele>749</ele>
        <time>2023-06-01T06:47:44.000Z</time>
      </trkpt>
      <trkpt lat="43.56402" lon="2.53224">
        <ele>749.40002441406</ele>
        <time>2023-06-01T06:47:50.000Z</time>
      </trkpt>
      <trkpt lat="43.56408" lon="2.53223">
        <ele>750</ele>
        <time>2023-06-01T06:47:58.000Z</time>
      </trkpt>
      <trkpt lat="43.5641" lon="2.53221">
        <ele>750.40002441406</ele>
        <time>2023-06-01T06:48:02.000Z</time>
      </trkpt>
      <trkpt lat="43.56413" lon="2.53219">
        <ele>750.79998779297</ele>
        <time>2023-06-01T06:48:07.000Z</time>
      </trkpt>
      <trkpt lat="43.56417" lon="2.53218">
        <ele>751.40002441406</ele>
        <time>2023-06-01T06:48:12.000Z</time>
      </trkpt>
      <trkpt lat="43.56419" lon="2.53216">
        <ele>751.79998779297</ele>
        <time>2023-06-01T06:48:16.000Z</time>
      </trkpt>
      <trkpt lat="43.56425" lon="2.53214">
        <ele>752.40002441406</ele>
        <time>2023-06-01T06:48:23.000Z</time>
      </trkpt>
      <trkpt lat="43.56425" lon="2.53214">
        <ele>752.59997558594</ele>
        <time>2023-06-01T06:48:24.000Z</time>
      </trkpt>
      <trkpt lat="43.56431" lon="2.5321">
        <ele>753.20001220703</ele>
        <time>2023-06-01T06:48:34.000Z</time>
      </trkpt>
      <trkpt lat="43.56433" lon="2.53209">
        <ele>753.59997558594</ele>
        <time>2023-06-01T06:48:37.000Z</time>
      </trkpt>
      <trkpt lat="43.56437" lon="2.53208">
        <ele>754</ele>
        <time>2023-06-01T06:48:42.000Z</time>
      </trkpt>
      <trkpt lat="43.5644" lon="2.53207">
        <ele>754.59997558594</ele>
        <time>2023-06-01T06:48:47.000Z</time>
      </trkpt>
      <trkpt lat="43.56443" lon="2.53206">
        <ele>754.79998779297</ele>
        <time>2023-06-01T06:48:51.000Z</time>
      </trkpt>
      <trkpt lat="43.56448" lon="2.53204">
        <ele>755.40002441406</ele>
        <time>2023-06-01T06:48:58.000Z</time>
      </trkpt>
      <trkpt lat="43.56451" lon="2.53203">
        <ele>755.59997558594</ele>
        <time>2023-06-01T06:49:02.000Z</time>
      </trkpt>
      <trkpt lat="43.56454" lon="2.53203">
        <ele>756</ele>
        <time>2023-06-01T06:49:06.000Z</time>
      </trkpt>
      <trkpt lat="43.56461" lon="2.53201">
        <ele>756.79998779297</ele>
        <time>2023-06-01T06:49:15.000Z</time>
      </trkpt>
      <trkpt lat="43.56469" lon="2.53198">
        <ele>757.40002441406</ele>
        <time>2023-06-01T06:49:24.000Z</time>
      </trkpt>
      <trkpt lat="43.56474" lon="2.53195">
        <ele>757.79998779297</ele>
        <time>2023-06-01T06:49:31.000Z</time>
      </trkpt>
      <trkpt lat="43.56476" lon="2.53194">
        <ele>758</ele>
        <time>2023-06-01T06:49:34.000Z</time>
      </trkpt>
      <trkpt lat="43.56484" lon="2.53191">
        <ele>758.59997558594</ele>
        <time>2023-06-01T06:49:43.000Z</time>
      </trkpt>
      <trkpt lat="43.56489" lon="2.53189">
        <ele>759</ele>
        <time>2023-06-01T06:49:49.000Z</time>
      </trkpt>
      <trkpt lat="43.56491" lon="2.53189">
        <ele>759.20001220703</ele>
        <time>2023-06-01T06:49:51.000Z</time>
      </trkpt>
      <trkpt lat="43.56497" lon="2.53187">
        <ele>759.40002441406</ele>
        <time>2023-06-01T06:49:58.000Z</time>
      </trkpt>
      <trkpt lat="43.56502" lon="2.53186">
        <ele>760</ele>
        <time>2023-06-01T06:50:03.000Z</time>
      </trkpt>
      <trkpt lat="43.56504" lon="2.53186">
        <ele>760.20001220703</ele>
        <time>2023-06-01T06:50:05.000Z</time>
      </trkpt>
      <trkpt lat="43.56514" lon="2.53185">
        <ele>760.59997558594</ele>
        <time>2023-06-01T06:50:15.000Z</time>
      </trkpt>
      <trkpt lat="43.56522" lon="2.53185">
        <ele>761</ele>
        <time>2023-06-01T06:50:24.000Z</time>
      </trkpt>
      <trkpt lat="43.56527" lon="2.53184">
        <ele>761</ele>
        <time>2023-06-01T06:50:30.000Z</time>
      </trkpt>
      <trkpt lat="43.56529" lon="2.53184">
        <ele>761</ele>
        <time>2023-06-01T06:50:32.000Z</time>
      </trkpt>
      <trkpt lat="43.56538" lon="2.53182">
        <ele>761</ele>
        <time>2023-06-01T06:50:42.000Z</time>
      </trkpt>
      <trkpt lat="43.56545" lon="2.53179">
        <ele>760.40002441406</ele>
        <time>2023-06-01T06:50:50.000Z</time>
      </trkpt>
      <trkpt lat="43.56547" lon="2.53177">
        <ele>760.79998779297</ele>
        <time>2023-06-01T06:50:54.000Z</time>
      </trkpt>
      <trkpt lat="43.56546" lon="2.53174">
        <ele>761</ele>
        <time>2023-06-01T06:50:57.000Z</time>
      </trkpt>
      <trkpt lat="43.56547" lon="2.53173">
        <ele>760.59997558594</ele>
        <time>2023-06-01T06:51:02.000Z</time>
      </trkpt>
      <trkpt lat="43.56547" lon="2.53171">
        <ele>760.59997558594</ele>
        <time>2023-06-01T06:51:11.000Z</time>
      </trkpt>
      <trkpt lat="43.56547" lon="2.53172">
        <ele>760.59997558594</ele>
        <time>2023-06-01T06:51:22.000Z</time>
      </trkpt>
      <trkpt lat="43.56548" lon="2.53171">
        <ele>761</ele>
        <time>2023-06-01T06:51:28.000Z</time>
      </trkpt>
      <trkpt lat="43.56549" lon="2.53171">
        <ele>760.20001220703</ele>
        <time>2023-06-01T06:51:39.000Z</time>
      </trkpt>
      <trkpt lat="43.56551" lon="2.53173">
        <ele>760.59997558594</ele>
        <time>2023-06-01T06:51:47.000Z</time>
      </trkpt>
      <trkpt lat="43.56557" lon="2.53174">
        <ele>760.59997558594</ele>
        <time>2023-06-01T06:51:53.000Z</time>
      </trkpt>
      <trkpt lat="43.56564" lon="2.53173">
        <ele>760.59997558594</ele>
        <time>2023-06-01T06:51:59.000Z</time>
      </trkpt>
      <trkpt lat="43.56565" lon="2.53173">
        <ele>760.79998779297</ele>
        <time>2023-06-01T06:52:00.000Z</time>
      </trkpt>
      <trkpt lat="43.56571" lon="2.53172">
        <ele>761</ele>
        <time>2023-06-01T06:52:06.000Z</time>
      </trkpt>
      <trkpt lat="43.56581" lon="2.53171">
        <ele>761.40002441406</ele>
        <time>2023-06-01T06:52:14.000Z</time>
      </trkpt>
      <trkpt lat="43.56581" lon="2.53171">
        <ele>761.59997558594</ele>
        <time>2023-06-01T06:52:15.000Z</time>
      </trkpt>
      <trkpt lat="43.56584" lon="2.53169">
        <ele>762</ele>
        <time>2023-06-01T06:52:19.000Z</time>
      </trkpt>
      <trkpt lat="43.56586" lon="2.53169">
        <ele>762.20001220703</ele>
        <time>2023-06-01T06:52:22.000Z</time>
      </trkpt>
      <trkpt lat="43.56588" lon="2.53167">
        <ele>762.20001220703</ele>
        <time>2023-06-01T06:52:25.000Z</time>
      </trkpt>
      <trkpt lat="43.56594" lon="2.53165">
        <ele>762.59997558594</ele>
        <time>2023-06-01T06:52:31.000Z</time>
      </trkpt>
      <trkpt lat="43.56594" lon="2.53164">
        <ele>762.79998779297</ele>
        <time>2023-06-01T06:52:32.000Z</time>
      </trkpt>
      <trkpt lat="43.56596" lon="2.53162">
        <ele>763</ele>
        <time>2023-06-01T06:52:35.000Z</time>
      </trkpt>
      <trkpt lat="43.56596" lon="2.53161">
        <ele>763.20001220703</ele>
        <time>2023-06-01T06:52:37.000Z</time>
      </trkpt>
      <trkpt lat="43.566" lon="2.5316">
        <ele>763.59997558594</ele>
        <time>2023-06-01T06:52:42.000Z</time>
      </trkpt>
      <trkpt lat="43.56603" lon="2.53158">
        <ele>764</ele>
        <time>2023-06-01T06:52:47.000Z</time>
      </trkpt>
      <trkpt lat="43.56607" lon="2.53157">
        <ele>764.40002441406</ele>
        <time>2023-06-01T06:52:50.000Z</time>
      </trkpt>
      <trkpt lat="43.5661" lon="2.53157">
        <ele>764.40002441406</ele>
        <time>2023-06-01T06:52:52.000Z</time>
      </trkpt>
      <trkpt lat="43.56615" lon="2.53154">
        <ele>764.79998779297</ele>
        <time>2023-06-01T06:52:57.000Z</time>
      </trkpt>
      <trkpt lat="43.56618" lon="2.53153">
        <ele>764.79998779297</ele>
        <time>2023-06-01T06:52:59.000Z</time>
      </trkpt>
      <trkpt lat="43.56619" lon="2.53152">
        <ele>764.79998779297</ele>
        <time>2023-06-01T06:53:00.000Z</time>
      </trkpt>
      <trkpt lat="43.56622" lon="2.5315">
        <ele>765</ele>
        <time>2023-06-01T06:53:03.000Z</time>
      </trkpt>
      <trkpt lat="43.56623" lon="2.53149">
        <ele>765</ele>
        <time>2023-06-01T06:53:04.000Z</time>
      </trkpt>
      <trkpt lat="43.56625" lon="2.53148">
        <ele>765.20001220703</ele>
        <time>2023-06-01T06:53:06.000Z</time>
      </trkpt>
      <trkpt lat="43.56628" lon="2.53147">
        <ele>765.20001220703</ele>
        <time>2023-06-01T06:53:09.000Z</time>
      </trkpt>
      <trkpt lat="43.56632" lon="2.53144">
        <ele>765.40002441406</ele>
        <time>2023-06-01T06:53:14.000Z</time>
      </trkpt>
      <trkpt lat="43.56632" lon="2.53143">
        <ele>765.40002441406</ele>
        <time>2023-06-01T06:53:15.000Z</time>
      </trkpt>
      <trkpt lat="43.56634" lon="2.53142">
        <ele>765.40002441406</ele>
        <time>2023-06-01T06:53:17.000Z</time>
      </trkpt>
      <trkpt lat="43.56636" lon="2.53141">
        <ele>765.40002441406</ele>
        <time>2023-06-01T06:53:19.000Z</time>
      </trkpt>
      <trkpt lat="43.56637" lon="2.5314">
        <ele>765.40002441406</ele>
        <time>2023-06-01T06:53:20.000Z</time>
      </trkpt>
      <trkpt lat="43.5664" lon="2.53138">
        <ele>765.59997558594</ele>
        <time>2023-06-01T06:53:24.000Z</time>
      </trkpt>
      <trkpt lat="43.56641" lon="2.53138">
        <ele>765.59997558594</ele>
        <time>2023-06-01T06:53:25.000Z</time>
      </trkpt>
      <trkpt lat="43.56647" lon="2.53134">
        <ele>765.79998779297</ele>
        <time>2023-06-01T06:53:31.000Z</time>
      </trkpt>
      <trkpt lat="43.56648" lon="2.53134">
        <ele>765.79998779297</ele>
        <time>2023-06-01T06:53:33.000Z</time>
      </trkpt>
      <trkpt lat="43.56651" lon="2.53134">
        <ele>766.20001220703</ele>
        <time>2023-06-01T06:53:36.000Z</time>
      </trkpt>
      <trkpt lat="43.56651" lon="2.53134">
        <ele>766.40002441406</ele>
        <time>2023-06-01T06:53:37.000Z</time>
      </trkpt>
      <trkpt lat="43.56651" lon="2.53135">
        <ele>766.40002441406</ele>
        <time>2023-06-01T06:53:44.000Z</time>
      </trkpt>
      <trkpt lat="43.56654" lon="2.53134">
        <ele>766.40002441406</ele>
        <time>2023-06-01T06:53:55.000Z</time>
      </trkpt>
      <trkpt lat="43.56648" lon="2.5314">
        <ele>766.59997558594</ele>
        <time>2023-06-01T06:54:05.000Z</time>
      </trkpt>
      <trkpt lat="43.56645" lon="2.53134">
        <ele>766.59997558594</ele>
        <time>2023-06-01T06:54:11.000Z</time>
      </trkpt>
      <trkpt lat="43.56673" lon="2.53127">
        <ele>766.59997558594</ele>
        <time>2023-06-01T06:54:13.000Z</time>
      </trkpt>
      <trkpt lat="43.56673" lon="2.53129">
        <ele>766.59997558594</ele>
        <time>2023-06-01T06:54:20.000Z</time>
      </trkpt>
      <trkpt lat="43.56673" lon="2.53124">
        <ele>766.40002441406</ele>
        <time>2023-06-01T06:54:27.000Z</time>
      </trkpt>
      <trkpt lat="43.56669" lon="2.53121">
        <ele>766.40002441406</ele>
        <time>2023-06-01T06:54:38.000Z</time>
      </trkpt>
      <trkpt lat="43.56669" lon="2.53119">
        <ele>766.40002441406</ele>
        <time>2023-06-01T06:54:46.000Z</time>
      </trkpt>
      <trkpt lat="43.56667" lon="2.53118">
        <ele>766.40002441406</ele>
        <time>2023-06-01T06:54:52.000Z</time>
      </trkpt>
      <trkpt lat="43.56666" lon="2.53117">
        <ele>766.40002441406</ele>
        <time>2023-06-01T06:55:01.000Z</time>
      </trkpt>
      <trkpt lat="43.56665" lon="2.53115">
        <ele>766.40002441406</ele>
        <time>2023-06-01T06:55:07.000Z</time>
      </trkpt>
      <trkpt lat="43.56664" lon="2.53113">
        <ele>766.59997558594</ele>
        <time>2023-06-01T06:55:15.000Z</time>
      </trkpt>
      <trkpt lat="43.56663" lon="2.53112">
        <ele>766.40002441406</ele>
        <time>2023-06-01T06:55:20.000Z</time>
      </trkpt>
      <trkpt lat="43.56663" lon="2.53114">
        <ele>766.40002441406</ele>
        <time>2023-06-01T06:55:27.000Z</time>
      </trkpt>
      <trkpt lat="43.5666" lon="2.53111">
        <ele>766.40002441406</ele>
        <time>2023-06-01T06:55:36.000Z</time>
      </trkpt>
      <trkpt lat="43.56659" lon="2.5311">
        <ele>766.20001220703</ele>
        <time>2023-06-01T06:55:48.000Z</time>
      </trkpt>
      <trkpt lat="43.56659" lon="2.53108">
        <ele>766</ele>
        <time>2023-06-01T06:55:57.000Z</time>
      </trkpt>
      <trkpt lat="43.56659" lon="2.53109">
        <ele>766.40002441406</ele>
        <time>2023-06-01T06:56:05.000Z</time>
      </trkpt>
      <trkpt lat="43.5666" lon="2.53108">
        <ele>766.40002441406</ele>
        <time>2023-06-01T06:56:13.000Z</time>
      </trkpt>
      <trkpt lat="43.56662" lon="2.53106">
        <ele>766.59997558594</ele>
        <time>2023-06-01T06:56:19.000Z</time>
      </trkpt>
      <trkpt lat="43.56662" lon="2.53109">
        <ele>766.40002441406</ele>
        <time>2023-06-01T06:56:25.000Z</time>
      </trkpt>
      <trkpt lat="43.56661" lon="2.53111">
        <ele>766.59997558594</ele>
        <time>2023-06-01T06:56:32.000Z</time>
      </trkpt>
      <trkpt lat="43.56659" lon="2.5311">
        <ele>766.40002441406</ele>
        <time>2023-06-01T06:56:38.000Z</time>
      </trkpt>
      <trkpt lat="43.56659" lon="2.53109">
        <ele>766.40002441406</ele>
        <time>2023-06-01T06:56:44.000Z</time>
      </trkpt>
      <trkpt lat="43.56664" lon="2.53107">
        <ele>766.20001220703</ele>
        <time>2023-06-01T06:56:50.000Z</time>
      </trkpt>
      <trkpt lat="43.56669" lon="2.53108">
        <ele>766.20001220703</ele>
        <time>2023-06-01T06:56:54.000Z</time>
      </trkpt>
      <trkpt lat="43.5667" lon="2.53108">
        <ele>766.20001220703</ele>
        <time>2023-06-01T06:56:56.000Z</time>
      </trkpt>
      <trkpt lat="43.56672" lon="2.53108">
        <ele>766.20001220703</ele>
        <time>2023-06-01T06:56:58.000Z</time>
      </trkpt>
      <trkpt lat="43.56676" lon="2.53107">
        <ele>766.40002441406</ele>
        <time>2023-06-01T06:57:02.000Z</time>
      </trkpt>
      <trkpt lat="43.5668" lon="2.53108">
        <ele>766.40002441406</ele>
        <time>2023-06-01T06:57:07.000Z</time>
      </trkpt>
      <trkpt lat="43.56681" lon="2.53109">
        <ele>766.59997558594</ele>
        <time>2023-06-01T06:57:08.000Z</time>
      </trkpt>
      <trkpt lat="43.56685" lon="2.53109">
        <ele>766.59997558594</ele>
        <time>2023-06-01T06:57:14.000Z</time>
      </trkpt>
      <trkpt lat="43.5669" lon="2.5311">
        <ele>766.79998779297</ele>
        <time>2023-06-01T06:57:18.000Z</time>
      </trkpt>
      <trkpt lat="43.56691" lon="2.5311">
        <ele>767</ele>
        <time>2023-06-01T06:57:20.000Z</time>
      </trkpt>
      <trkpt lat="43.56694" lon="2.53109">
        <ele>767.20001220703</ele>
        <time>2023-06-01T06:57:24.000Z</time>
      </trkpt>
      <trkpt lat="43.56697" lon="2.53109">
        <ele>767.40002441406</ele>
        <time>2023-06-01T06:57:26.000Z</time>
      </trkpt>
      <trkpt lat="43.56699" lon="2.53108">
        <ele>767.59997558594</ele>
        <time>2023-06-01T06:57:30.000Z</time>
      </trkpt>
      <trkpt lat="43.567" lon="2.53107">
        <ele>767.59997558594</ele>
        <time>2023-06-01T06:57:31.000Z</time>
      </trkpt>
      <trkpt lat="43.56704" lon="2.53107">
        <ele>768</ele>
        <time>2023-06-01T06:57:36.000Z</time>
      </trkpt>
      <trkpt lat="43.56706" lon="2.53106">
        <ele>768.40002441406</ele>
        <time>2023-06-01T06:57:41.000Z</time>
      </trkpt>
      <trkpt lat="43.56705" lon="2.53106">
        <ele>768.40002441406</ele>
        <time>2023-06-01T06:57:42.000Z</time>
      </trkpt>
      <trkpt lat="43.56715" lon="2.53107">
        <ele>768.40002441406</ele>
        <time>2023-06-01T06:57:48.000Z</time>
      </trkpt>
      <trkpt lat="43.56719" lon="2.53108">
        <ele>768.59997558594</ele>
        <time>2023-06-01T06:57:51.000Z</time>
      </trkpt>
      <trkpt lat="43.56722" lon="2.53108">
        <ele>768.79998779297</ele>
        <time>2023-06-01T06:57:55.000Z</time>
      </trkpt>
      <trkpt lat="43.56725" lon="2.53108">
        <ele>768.79998779297</ele>
        <time>2023-06-01T06:57:58.000Z</time>
      </trkpt>
      <trkpt lat="43.56726" lon="2.53108">
        <ele>769</ele>
        <time>2023-06-01T06:57:59.000Z</time>
      </trkpt>
      <trkpt lat="43.56729" lon="2.53108">
        <ele>769.20001220703</ele>
        <time>2023-06-01T06:58:02.000Z</time>
      </trkpt>
      <trkpt lat="43.56729" lon="2.53108">
        <ele>769.20001220703</ele>
        <time>2023-06-01T06:58:03.000Z</time>
      </trkpt>
      <trkpt lat="43.56733" lon="2.53108">
        <ele>769.40002441406</ele>
        <time>2023-06-01T06:58:05.000Z</time>
      </trkpt>
      <trkpt lat="43.56735" lon="2.53108">
        <ele>769.40002441406</ele>
        <time>2023-06-01T06:58:07.000Z</time>
      </trkpt>
      <trkpt lat="43.56736" lon="2.53108">
        <ele>769.40002441406</ele>
        <time>2023-06-01T06:58:08.000Z</time>
      </trkpt>
      <trkpt lat="43.56739" lon="2.53107">
        <ele>769.79998779297</ele>
        <time>2023-06-01T06:58:12.000Z</time>
      </trkpt>
      <trkpt lat="43.56741" lon="2.53107">
        <ele>769.79998779297</ele>
        <time>2023-06-01T06:58:13.000Z</time>
      </trkpt>
      <trkpt lat="43.56743" lon="2.53107">
        <ele>770</ele>
        <time>2023-06-01T06:58:14.000Z</time>
      </trkpt>
      <trkpt lat="43.56748" lon="2.53107">
        <ele>770.20001220703</ele>
        <time>2023-06-01T06:58:18.000Z</time>
      </trkpt>
      <trkpt lat="43.56748" lon="2.53106">
        <ele>770.40002441406</ele>
        <time>2023-06-01T06:58:20.000Z</time>
      </trkpt>
      <trkpt lat="43.56753" lon="2.53101">
        <ele>770.79998779297</ele>
        <time>2023-06-01T06:58:28.000Z</time>
      </trkpt>
      <trkpt lat="43.56755" lon="2.53096">
        <ele>771.40002441406</ele>
        <time>2023-06-01T06:58:35.000Z</time>
      </trkpt>
      <trkpt lat="43.56755" lon="2.53097">
        <ele>771.40002441406</ele>
        <time>2023-06-01T06:58:36.000Z</time>
      </trkpt>
      <trkpt lat="43.56757" lon="2.53094">
        <ele>771.59997558594</ele>
        <time>2023-06-01T06:58:40.000Z</time>
      </trkpt>
      <trkpt lat="43.56756" lon="2.53092">
        <ele>771.59997558594</ele>
        <time>2023-06-01T06:58:44.000Z</time>
      </trkpt>
      <trkpt lat="43.56757" lon="2.53088">
        <ele>771.79998779297</ele>
        <time>2023-06-01T06:58:48.000Z</time>
      </trkpt>
      <trkpt lat="43.56761" lon="2.53086">
        <ele>771.59997558594</ele>
        <time>2023-06-01T06:58:53.000Z</time>
      </trkpt>
      <trkpt lat="43.56764" lon="2.53081">
        <ele>771.79998779297</ele>
        <time>2023-06-01T06:58:58.000Z</time>
      </trkpt>
      <trkpt lat="43.56766" lon="2.53078">
        <ele>772</ele>
        <time>2023-06-01T06:59:04.000Z</time>
      </trkpt>
      <trkpt lat="43.56771" lon="2.53073">
        <ele>772.20001220703</ele>
        <time>2023-06-01T06:59:11.000Z</time>
      </trkpt>
      <trkpt lat="43.56772" lon="2.53072">
        <ele>772.40002441406</ele>
        <time>2023-06-01T06:59:15.000Z</time>
      </trkpt>
      <trkpt lat="43.56775" lon="2.53071">
        <ele>772.59997558594</ele>
        <time>2023-06-01T06:59:19.000Z</time>
      </trkpt>
      <trkpt lat="43.5678" lon="2.53067">
        <ele>773</ele>
        <time>2023-06-01T06:59:26.000Z</time>
      </trkpt>
      <trkpt lat="43.56785" lon="2.53065">
        <ele>773.20001220703</ele>
        <time>2023-06-01T06:59:31.000Z</time>
      </trkpt>
      <trkpt lat="43.56787" lon="2.53064">
        <ele>773.40002441406</ele>
        <time>2023-06-01T06:59:34.000Z</time>
      </trkpt>
      <trkpt lat="43.56788" lon="2.53064">
        <ele>773.59997558594</ele>
        <time>2023-06-01T06:59:36.000Z</time>
      </trkpt>
      <trkpt lat="43.5679" lon="2.53063">
        <ele>773.79998779297</ele>
        <time>2023-06-01T06:59:37.000Z</time>
      </trkpt>
      <trkpt lat="43.56792" lon="2.53063">
        <ele>774</ele>
        <time>2023-06-01T06:59:39.000Z</time>
      </trkpt>
      <trkpt lat="43.56793" lon="2.53062">
        <ele>774.40002441406</ele>
        <time>2023-06-01T06:59:41.000Z</time>
      </trkpt>
      <trkpt lat="43.56797" lon="2.53062">
        <ele>774.59997558594</ele>
        <time>2023-06-01T06:59:44.000Z</time>
      </trkpt>
      <trkpt lat="43.56798" lon="2.53062">
        <ele>774.59997558594</ele>
        <time>2023-06-01T06:59:45.000Z</time>
      </trkpt>
      <trkpt lat="43.56804" lon="2.5306">
        <ele>775.20001220703</ele>
        <time>2023-06-01T06:59:52.000Z</time>
      </trkpt>
      <trkpt lat="43.56809" lon="2.53057">
        <ele>775.59997558594</ele>
        <time>2023-06-01T06:59:59.000Z</time>
      </trkpt>
      <trkpt lat="43.5681" lon="2.53057">
        <ele>775.79998779297</ele>
        <time>2023-06-01T07:00:00.000Z</time>
      </trkpt>
      <trkpt lat="43.56816" lon="2.53055">
        <ele>776.20001220703</ele>
        <time>2023-06-01T07:00:05.000Z</time>
      </trkpt>
      <trkpt lat="43.56818" lon="2.53055">
        <ele>776.40002441406</ele>
        <time>2023-06-01T07:00:08.000Z</time>
      </trkpt>
      <trkpt lat="43.56819" lon="2.53055">
        <ele>776.59997558594</ele>
        <time>2023-06-01T07:00:10.000Z</time>
      </trkpt>
      <trkpt lat="43.5682" lon="2.53055">
        <ele>776.59997558594</ele>
        <time>2023-06-01T07:00:11.000Z</time>
      </trkpt>
      <trkpt lat="43.56823" lon="2.53053">
        <ele>777</ele>
        <time>2023-06-01T07:00:17.000Z</time>
      </trkpt>
      <trkpt lat="43.56827" lon="2.5305">
        <ele>777.20001220703</ele>
        <time>2023-06-01T07:00:23.000Z</time>
      </trkpt>
      <trkpt lat="43.56832" lon="2.53047">
        <ele>777.20001220703</ele>
        <time>2023-06-01T07:00:29.000Z</time>
      </trkpt>
      <trkpt lat="43.56835" lon="2.53043">
        <ele>777</ele>
        <time>2023-06-01T07:00:34.000Z</time>
      </trkpt>
      <trkpt lat="43.56836" lon="2.53042">
        <ele>776.79998779297</ele>
        <time>2023-06-01T07:00:35.000Z</time>
      </trkpt>
      <trkpt lat="43.5684" lon="2.53037">
        <ele>776.79998779297</ele>
        <time>2023-06-01T07:00:42.000Z</time>
      </trkpt>
      <trkpt lat="43.56843" lon="2.5303">
        <ele>777</ele>
        <time>2023-06-01T07:00:49.000Z</time>
      </trkpt>
      <trkpt lat="43.56843" lon="2.53029">
        <ele>777</ele>
        <time>2023-06-01T07:00:50.000Z</time>
      </trkpt>
      <trkpt lat="43.56845" lon="2.53024">
        <ele>777</ele>
        <time>2023-06-01T07:00:55.000Z</time>
      </trkpt>
      <trkpt lat="43.56843" lon="2.53021">
        <ele>777</ele>
        <time>2023-06-01T07:00:58.000Z</time>
      </trkpt>
      <trkpt lat="43.56841" lon="2.53019">
        <ele>777.20001220703</ele>
        <time>2023-06-01T07:01:00.000Z</time>
      </trkpt>
      <trkpt lat="43.56837" lon="2.53014">
        <ele>777.59997558594</ele>
        <time>2023-06-01T07:01:07.000Z</time>
      </trkpt>
      <trkpt lat="43.56837" lon="2.53013">
        <ele>777.59997558594</ele>
        <time>2023-06-01T07:01:08.000Z</time>
      </trkpt>
      <trkpt lat="43.56836" lon="2.53013">
        <ele>777.79998779297</ele>
        <time>2023-06-01T07:01:09.000Z</time>
      </trkpt>
      <trkpt lat="43.56834" lon="2.53009">
        <ele>777.40002441406</ele>
        <time>2023-06-01T07:01:14.000Z</time>
      </trkpt>
      <trkpt lat="43.56831" lon="2.53006">
        <ele>777</ele>
        <time>2023-06-01T07:01:18.000Z</time>
      </trkpt>
      <trkpt lat="43.5683" lon="2.53005">
        <ele>776.79998779297</ele>
        <time>2023-06-01T07:01:20.000Z</time>
      </trkpt>
      <trkpt lat="43.56829" lon="2.53003">
        <ele>776.59997558594</ele>
        <time>2023-06-01T07:01:21.000Z</time>
      </trkpt>
      <trkpt lat="43.56827" lon="2.53">
        <ele>776.20001220703</ele>
        <time>2023-06-01T07:01:25.000Z</time>
      </trkpt>
      <trkpt lat="43.56826" lon="2.52997">
        <ele>776</ele>
        <time>2023-06-01T07:01:29.000Z</time>
      </trkpt>
      <trkpt lat="43.56826" lon="2.52996">
        <ele>776</ele>
        <time>2023-06-01T07:01:30.000Z</time>
      </trkpt>
      <trkpt lat="43.56824" lon="2.52993">
        <ele>775.79998779297</ele>
        <time>2023-06-01T07:01:31.000Z</time>
      </trkpt>
      <trkpt lat="43.56823" lon="2.5299">
        <ele>775.79998779297</ele>
        <time>2023-06-01T07:01:33.000Z</time>
      </trkpt>
      <trkpt lat="43.56823" lon="2.52991">
        <ele>775.79998779297</ele>
        <time>2023-06-01T07:01:34.000Z</time>
      </trkpt>
      <trkpt lat="43.56821" lon="2.52984">
        <ele>775.59997558594</ele>
        <time>2023-06-01T07:01:39.000Z</time>
      </trkpt>
      <trkpt lat="43.5682" lon="2.52982">
        <ele>775.59997558594</ele>
        <time>2023-06-01T07:01:40.000Z</time>
      </trkpt>
      <trkpt lat="43.5682" lon="2.52981">
        <ele>775.40002441406</ele>
        <time>2023-06-01T07:01:41.000Z</time>
      </trkpt>
      <trkpt lat="43.56819" lon="2.52977">
        <ele>775.40002441406</ele>
        <time>2023-06-01T07:01:44.000Z</time>
      </trkpt>
      <trkpt lat="43.56817" lon="2.52974">
        <ele>775.20001220703</ele>
        <time>2023-06-01T07:01:47.000Z</time>
      </trkpt>
      <trkpt lat="43.56816" lon="2.52972">
        <ele>775</ele>
        <time>2023-06-01T07:01:49.000Z</time>
      </trkpt>
      <trkpt lat="43.56815" lon="2.52971">
        <ele>775</ele>
        <time>2023-06-01T07:01:50.000Z</time>
      </trkpt>
      <trkpt lat="43.56813" lon="2.52962">
        <ele>774.79998779297</ele>
        <time>2023-06-01T07:01:56.000Z</time>
      </trkpt>
      <trkpt lat="43.56811" lon="2.52956">
        <ele>775</ele>
        <time>2023-06-01T07:02:00.000Z</time>
      </trkpt>
      <trkpt lat="43.56811" lon="2.52952">
        <ele>775</ele>
        <time>2023-06-01T07:02:02.000Z</time>
      </trkpt>
      <trkpt lat="43.56811" lon="2.52947">
        <ele>774.79998779297</ele>
        <time>2023-06-01T07:02:05.000Z</time>
      </trkpt>
      <trkpt lat="43.5681" lon="2.52941">
        <ele>774.59997558594</ele>
        <time>2023-06-01T07:02:09.000Z</time>
      </trkpt>
      <trkpt lat="43.56809" lon="2.52939">
        <ele>774.59997558594</ele>
        <time>2023-06-01T07:02:11.000Z</time>
      </trkpt>
      <trkpt lat="43.56809" lon="2.52936">
        <ele>774.59997558594</ele>
        <time>2023-06-01T07:02:13.000Z</time>
      </trkpt>
      <trkpt lat="43.56806" lon="2.52928">
        <ele>774.59997558594</ele>
        <time>2023-06-01T07:02:18.000Z</time>
      </trkpt>
      <trkpt lat="43.56803" lon="2.52922">
        <ele>774.40002441406</ele>
        <time>2023-06-01T07:02:22.000Z</time>
      </trkpt>
      <trkpt lat="43.56802" lon="2.52922">
        <ele>774.40002441406</ele>
        <time>2023-06-01T07:02:24.000Z</time>
      </trkpt>
      <trkpt lat="43.56801" lon="2.52918">
        <ele>774.40002441406</ele>
        <time>2023-06-01T07:02:26.000Z</time>
      </trkpt>
      <trkpt lat="43.56799" lon="2.52915">
        <ele>774.20001220703</ele>
        <time>2023-06-01T07:02:29.000Z</time>
      </trkpt>
      <trkpt lat="43.56797" lon="2.52912">
        <ele>774.20001220703</ele>
        <time>2023-06-01T07:02:31.000Z</time>
      </trkpt>
      <trkpt lat="43.56793" lon="2.52907">
        <ele>774</ele>
        <time>2023-06-01T07:02:34.000Z</time>
      </trkpt>
      <trkpt lat="43.56792" lon="2.52904">
        <ele>773.79998779297</ele>
        <time>2023-06-01T07:02:36.000Z</time>
      </trkpt>
      <trkpt lat="43.56789" lon="2.52899">
        <ele>774</ele>
        <time>2023-06-01T07:02:39.000Z</time>
      </trkpt>
      <trkpt lat="43.56788" lon="2.52898">
        <ele>774.20001220703</ele>
        <time>2023-06-01T07:02:40.000Z</time>
      </trkpt>
      <trkpt lat="43.56787" lon="2.52892">
        <ele>775</ele>
        <time>2023-06-01T07:02:46.000Z</time>
      </trkpt>
      <trkpt lat="43.56786" lon="2.52889">
        <ele>775.59997558594</ele>
        <time>2023-06-01T07:02:49.000Z</time>
      </trkpt>
      <trkpt lat="43.56785" lon="2.52885">
        <ele>775.59997558594</ele>
        <time>2023-06-01T07:02:51.000Z</time>
      </trkpt>
      <trkpt lat="43.56785" lon="2.52886">
        <ele>776</ele>
        <time>2023-06-01T07:02:55.000Z</time>
      </trkpt>
      <trkpt lat="43.56784" lon="2.52875">
        <ele>776.20001220703</ele>
        <time>2023-06-01T07:03:01.000Z</time>
      </trkpt>
      <trkpt lat="43.56785" lon="2.52874">
        <ele>776.20001220703</ele>
        <time>2023-06-01T07:03:02.000Z</time>
      </trkpt>
      <trkpt lat="43.56784" lon="2.52868">
        <ele>776.40002441406</ele>
        <time>2023-06-01T07:03:06.000Z</time>
      </trkpt>
      <trkpt lat="43.56781" lon="2.52856">
        <ele>776.59997558594</ele>
        <time>2023-06-01T07:03:13.000Z</time>
      </trkpt>
      <trkpt lat="43.56779" lon="2.52846">
        <ele>775.79998779297</ele>
        <time>2023-06-01T07:03:21.000Z</time>
      </trkpt>
      <trkpt lat="43.56779" lon="2.52846">
        <ele>775.79998779297</ele>
        <time>2023-06-01T07:03:22.000Z</time>
      </trkpt>
      <trkpt lat="43.56779" lon="2.52843">
        <ele>775.40002441406</ele>
        <time>2023-06-01T07:03:24.000Z</time>
      </trkpt>
      <trkpt lat="43.56777" lon="2.5284">
        <ele>775</ele>
        <time>2023-06-01T07:03:27.000Z</time>
      </trkpt>
      <trkpt lat="43.56776" lon="2.52839">
        <ele>775</ele>
        <time>2023-06-01T07:03:28.000Z</time>
      </trkpt>
      <trkpt lat="43.56773" lon="2.52835">
        <ele>774.40002441406</ele>
        <time>2023-06-01T07:03:32.000Z</time>
      </trkpt>
      <trkpt lat="43.56771" lon="2.52834">
        <ele>774.40002441406</ele>
        <time>2023-06-01T07:03:33.000Z</time>
      </trkpt>
      <trkpt lat="43.5677" lon="2.52834">
        <ele>774</ele>
        <time>2023-06-01T07:03:35.000Z</time>
      </trkpt>
      <trkpt lat="43.56765" lon="2.52832">
        <ele>773.79998779297</ele>
        <time>2023-06-01T07:03:39.000Z</time>
      </trkpt>
      <trkpt lat="43.56763" lon="2.52831">
        <ele>773.40002441406</ele>
        <time>2023-06-01T07:03:41.000Z</time>
      </trkpt>
      <trkpt lat="43.56761" lon="2.52828">
        <ele>773</ele>
        <time>2023-06-01T07:03:43.000Z</time>
      </trkpt>
      <trkpt lat="43.56757" lon="2.52829">
        <ele>772.20001220703</ele>
        <time>2023-06-01T07:03:47.000Z</time>
      </trkpt>
      <trkpt lat="43.56756" lon="2.52828">
        <ele>772</ele>
        <time>2023-06-01T07:03:48.000Z</time>
      </trkpt>
      <trkpt lat="43.56754" lon="2.52828">
        <ele>771.40002441406</ele>
        <time>2023-06-01T07:03:51.000Z</time>
      </trkpt>
      <trkpt lat="43.56752" lon="2.52828">
        <ele>771.20001220703</ele>
        <time>2023-06-01T07:03:52.000Z</time>
      </trkpt>
      <trkpt lat="43.56751" lon="2.52827">
        <ele>771</ele>
        <time>2023-06-01T07:03:53.000Z</time>
      </trkpt>
      <trkpt lat="43.56747" lon="2.52825">
        <ele>770</ele>
        <time>2023-06-01T07:03:57.000Z</time>
      </trkpt>
      <trkpt lat="43.56746" lon="2.52824">
        <ele>769.79998779297</ele>
        <time>2023-06-01T07:03:58.000Z</time>
      </trkpt>
      <trkpt lat="43.56744" lon="2.52822">
        <ele>769.59997558594</ele>
        <time>2023-06-01T07:04:00.000Z</time>
      </trkpt>
      <trkpt lat="43.56744" lon="2.52818">
        <ele>769.20001220703</ele>
        <time>2023-06-01T07:04:05.000Z</time>
      </trkpt>
      <trkpt lat="43.56744" lon="2.52817">
        <ele>769.40002441406</ele>
        <time>2023-06-01T07:04:06.000Z</time>
      </trkpt>
      <trkpt lat="43.56744" lon="2.5281">
        <ele>769.40002441406</ele>
        <time>2023-06-01T07:04:12.000Z</time>
      </trkpt>
      <trkpt lat="43.56743" lon="2.52812">
        <ele>769.40002441406</ele>
        <time>2023-06-01T07:04:19.000Z</time>
      </trkpt>
      <trkpt lat="43.56743" lon="2.52804">
        <ele>769.40002441406</ele>
        <time>2023-06-01T07:04:28.000Z</time>
      </trkpt>
      <trkpt lat="43.56744" lon="2.52793">
        <ele>769.20001220703</ele>
        <time>2023-06-01T07:04:36.000Z</time>
      </trkpt>
      <trkpt lat="43.56745" lon="2.5279">
        <ele>769.40002441406</ele>
        <time>2023-06-01T07:04:39.000Z</time>
      </trkpt>
      <trkpt lat="43.56746" lon="2.52785">
        <ele>769.59997558594</ele>
        <time>2023-06-01T07:04:43.000Z</time>
      </trkpt>
      <trkpt lat="43.56747" lon="2.52779">
        <ele>769.79998779297</ele>
        <time>2023-06-01T07:04:48.000Z</time>
      </trkpt>
      <trkpt lat="43.56749" lon="2.52774">
        <ele>770.20001220703</ele>
        <time>2023-06-01T07:04:53.000Z</time>
      </trkpt>
      <trkpt lat="43.56749" lon="2.52773">
        <ele>770.20001220703</ele>
        <time>2023-06-01T07:04:54.000Z</time>
      </trkpt>
      <trkpt lat="43.56749" lon="2.5277">
        <ele>770.40002441406</ele>
        <time>2023-06-01T07:04:56.000Z</time>
      </trkpt>
      <trkpt lat="43.56749" lon="2.52768">
        <ele>770.59997558594</ele>
        <time>2023-06-01T07:04:58.000Z</time>
      </trkpt>
      <trkpt lat="43.5675" lon="2.52762">
        <ele>770.79998779297</ele>
        <time>2023-06-01T07:05:03.000Z</time>
      </trkpt>
      <trkpt lat="43.56751" lon="2.5276">
        <ele>771</ele>
        <time>2023-06-01T07:05:05.000Z</time>
      </trkpt>
      <trkpt lat="43.56754" lon="2.52752">
        <ele>771.20001220703</ele>
        <time>2023-06-01T07:05:12.000Z</time>
      </trkpt>
      <trkpt lat="43.56754" lon="2.52751">
        <ele>771.20001220703</ele>
        <time>2023-06-01T07:05:13.000Z</time>
      </trkpt>
      <trkpt lat="43.56755" lon="2.52745">
        <ele>771.59997558594</ele>
        <time>2023-06-01T07:05:18.000Z</time>
      </trkpt>
      <trkpt lat="43.56756" lon="2.52743">
        <ele>771.59997558594</ele>
        <time>2023-06-01T07:05:19.000Z</time>
      </trkpt>
      <trkpt lat="43.56756" lon="2.52741">
        <ele>771.79998779297</ele>
        <time>2023-06-01T07:05:21.000Z</time>
      </trkpt>
      <trkpt lat="43.56757" lon="2.52734">
        <ele>772.40002441406</ele>
        <time>2023-06-01T07:05:27.000Z</time>
      </trkpt>
      <trkpt lat="43.56758" lon="2.52729">
        <ele>772.40002441406</ele>
        <time>2023-06-01T07:05:32.000Z</time>
      </trkpt>
      <trkpt lat="43.56759" lon="2.52727">
        <ele>772.59997558594</ele>
        <time>2023-06-01T07:05:34.000Z</time>
      </trkpt>
      <trkpt lat="43.5676" lon="2.52718">
        <ele>772.59997558594</ele>
        <time>2023-06-01T07:05:40.000Z</time>
      </trkpt>
      <trkpt lat="43.56761" lon="2.52708">
        <ele>772.40002441406</ele>
        <time>2023-06-01T07:05:46.000Z</time>
      </trkpt>
      <trkpt lat="43.56762" lon="2.52698">
        <ele>772.20001220703</ele>
        <time>2023-06-01T07:05:53.000Z</time>
      </trkpt>
      <trkpt lat="43.56762" lon="2.52696">
        <ele>772.20001220703</ele>
        <time>2023-06-01T07:05:54.000Z</time>
      </trkpt>
      <trkpt lat="43.56761" lon="2.52695">
        <ele>772.20001220703</ele>
        <time>2023-06-01T07:05:55.000Z</time>
      </trkpt>
      <trkpt lat="43.56758" lon="2.52689">
        <ele>772.20001220703</ele>
        <time>2023-06-01T07:06:00.000Z</time>
      </trkpt>
      <trkpt lat="43.56757" lon="2.52678">
        <ele>771.79998779297</ele>
        <time>2023-06-01T07:06:07.000Z</time>
      </trkpt>
      <trkpt lat="43.56755" lon="2.52668">
        <ele>771.20001220703</ele>
        <time>2023-06-01T07:06:14.000Z</time>
      </trkpt>
      <trkpt lat="43.56754" lon="2.52668">
        <ele>771.20001220703</ele>
        <time>2023-06-01T07:06:15.000Z</time>
      </trkpt>
      <trkpt lat="43.56753" lon="2.52662">
        <ele>771</ele>
        <time>2023-06-01T07:06:19.000Z</time>
      </trkpt>
      <trkpt lat="43.56753" lon="2.52659">
        <ele>770.79998779297</ele>
        <time>2023-06-01T07:06:22.000Z</time>
      </trkpt>
      <trkpt lat="43.56753" lon="2.52656">
        <ele>770.59997558594</ele>
        <time>2023-06-01T07:06:24.000Z</time>
      </trkpt>
      <trkpt lat="43.56754" lon="2.52651">
        <ele>770.40002441406</ele>
        <time>2023-06-01T07:06:28.000Z</time>
      </trkpt>
      <trkpt lat="43.56752" lon="2.52648">
        <ele>770.40002441406</ele>
        <time>2023-06-01T07:06:30.000Z</time>
      </trkpt>
      <trkpt lat="43.56751" lon="2.52642">
        <ele>770.40002441406</ele>
        <time>2023-06-01T07:06:34.000Z</time>
      </trkpt>
      <trkpt lat="43.56752" lon="2.52634">
        <ele>770.20001220703</ele>
        <time>2023-06-01T07:06:39.000Z</time>
      </trkpt>
      <trkpt lat="43.56752" lon="2.52633">
        <ele>770.20001220703</ele>
        <time>2023-06-01T07:06:40.000Z</time>
      </trkpt>
      <trkpt lat="43.56752" lon="2.52632">
        <ele>770.20001220703</ele>
        <time>2023-06-01T07:06:41.000Z</time>
      </trkpt>
      <trkpt lat="43.56754" lon="2.52625">
        <ele>770</ele>
        <time>2023-06-01T07:06:47.000Z</time>
      </trkpt>
      <trkpt lat="43.56756" lon="2.5262">
        <ele>769.79998779297</ele>
        <time>2023-06-01T07:06:51.000Z</time>
      </trkpt>
      <trkpt lat="43.56756" lon="2.52617">
        <ele>769.79998779297</ele>
        <time>2023-06-01T07:06:54.000Z</time>
      </trkpt>
      <trkpt lat="43.56757" lon="2.52615">
        <ele>769.59997558594</ele>
        <time>2023-06-01T07:06:56.000Z</time>
      </trkpt>
      <trkpt lat="43.56756" lon="2.52612">
        <ele>769.59997558594</ele>
        <time>2023-06-01T07:06:59.000Z</time>
      </trkpt>
      <trkpt lat="43.56757" lon="2.52608">
        <ele>769.59997558594</ele>
        <time>2023-06-01T07:07:02.000Z</time>
      </trkpt>
      <trkpt lat="43.56757" lon="2.52604">
        <ele>769.40002441406</ele>
        <time>2023-06-01T07:07:05.000Z</time>
      </trkpt>
      <trkpt lat="43.56758" lon="2.52597">
        <ele>769.40002441406</ele>
        <time>2023-06-01T07:07:09.000Z</time>
      </trkpt>
      <trkpt lat="43.56759" lon="2.52594">
        <ele>769.20001220703</ele>
        <time>2023-06-01T07:07:11.000Z</time>
      </trkpt>
      <trkpt lat="43.5676" lon="2.52587">
        <ele>769.20001220703</ele>
        <time>2023-06-01T07:07:16.000Z</time>
      </trkpt>
      <trkpt lat="43.56761" lon="2.52584">
        <ele>769</ele>
        <time>2023-06-01T07:07:18.000Z</time>
      </trkpt>
      <trkpt lat="43.56763" lon="2.52581">
        <ele>768.79998779297</ele>
        <time>2023-06-01T07:07:21.000Z</time>
      </trkpt>
      <trkpt lat="43.56763" lon="2.5258">
        <ele>768.79998779297</ele>
        <time>2023-06-01T07:07:22.000Z</time>
      </trkpt>
      <trkpt lat="43.56764" lon="2.52578">
        <ele>768.79998779297</ele>
        <time>2023-06-01T07:07:24.000Z</time>
      </trkpt>
      <trkpt lat="43.56764" lon="2.52576">
        <ele>768.79998779297</ele>
        <time>2023-06-01T07:07:31.000Z</time>
      </trkpt>
      <trkpt lat="43.5677" lon="2.52569">
        <ele>769</ele>
        <time>2023-06-01T07:07:38.000Z</time>
      </trkpt>
      <trkpt lat="43.56775" lon="2.52565">
        <ele>768.79998779297</ele>
        <time>2023-06-01T07:07:43.000Z</time>
      </trkpt>
      <trkpt lat="43.56776" lon="2.52563">
        <ele>769</ele>
        <time>2023-06-01T07:07:45.000Z</time>
      </trkpt>
      <trkpt lat="43.56778" lon="2.52562">
        <ele>769.59997558594</ele>
        <time>2023-06-01T07:07:48.000Z</time>
      </trkpt>
      <trkpt lat="43.5678" lon="2.5256">
        <ele>770</ele>
        <time>2023-06-01T07:07:50.000Z</time>
      </trkpt>
      <trkpt lat="43.5678" lon="2.52558">
        <ele>770.20001220703</ele>
        <time>2023-06-01T07:07:52.000Z</time>
      </trkpt>
      <trkpt lat="43.56779" lon="2.52556">
        <ele>770.40002441406</ele>
        <time>2023-06-01T07:07:54.000Z</time>
      </trkpt>
      <trkpt lat="43.5678" lon="2.5255">
        <ele>771</ele>
        <time>2023-06-01T07:08:00.000Z</time>
      </trkpt>
      <trkpt lat="43.5678" lon="2.52546">
        <ele>771</ele>
        <time>2023-06-01T07:08:04.000Z</time>
      </trkpt>
      <trkpt lat="43.56778" lon="2.52541">
        <ele>770.20001220703</ele>
        <time>2023-06-01T07:08:10.000Z</time>
      </trkpt>
      <trkpt lat="43.56777" lon="2.52537">
        <ele>769.79998779297</ele>
        <time>2023-06-01T07:08:13.000Z</time>
      </trkpt>
      <trkpt lat="43.56776" lon="2.52534">
        <ele>769.20001220703</ele>
        <time>2023-06-01T07:08:17.000Z</time>
      </trkpt>
      <trkpt lat="43.56775" lon="2.52531">
        <ele>768.79998779297</ele>
        <time>2023-06-01T07:08:20.000Z</time>
      </trkpt>
      <trkpt lat="43.56773" lon="2.52529">
        <ele>768.59997558594</ele>
        <time>2023-06-01T07:08:23.000Z</time>
      </trkpt>
      <trkpt lat="43.5677" lon="2.52527">
        <ele>768</ele>
        <time>2023-06-01T07:08:27.000Z</time>
      </trkpt>
      <trkpt lat="43.56769" lon="2.52524">
        <ele>767.79998779297</ele>
        <time>2023-06-01T07:08:30.000Z</time>
      </trkpt>
      <trkpt lat="43.56768" lon="2.52522">
        <ele>767.40002441406</ele>
        <time>2023-06-01T07:08:33.000Z</time>
      </trkpt>
      <trkpt lat="43.56766" lon="2.52517">
        <ele>766.79998779297</ele>
        <time>2023-06-01T07:08:38.000Z</time>
      </trkpt>
      <trkpt lat="43.56765" lon="2.52517">
        <ele>766.79998779297</ele>
        <time>2023-06-01T07:08:39.000Z</time>
      </trkpt>
      <trkpt lat="43.56761" lon="2.52513">
        <ele>766.20001220703</ele>
        <time>2023-06-01T07:08:43.000Z</time>
      </trkpt>
      <trkpt lat="43.56761" lon="2.52512">
        <ele>766.20001220703</ele>
        <time>2023-06-01T07:08:44.000Z</time>
      </trkpt>
      <trkpt lat="43.56759" lon="2.52506">
        <ele>765.79998779297</ele>
        <time>2023-06-01T07:08:48.000Z</time>
      </trkpt>
      <trkpt lat="43.56759" lon="2.52504">
        <ele>765.59997558594</ele>
        <time>2023-06-01T07:08:49.000Z</time>
      </trkpt>
      <trkpt lat="43.56758" lon="2.52501">
        <ele>765.40002441406</ele>
        <time>2023-06-01T07:08:52.000Z</time>
      </trkpt>
      <trkpt lat="43.56758" lon="2.52499">
        <ele>765.40002441406</ele>
        <time>2023-06-01T07:08:53.000Z</time>
      </trkpt>
      <trkpt lat="43.56757" lon="2.52497">
        <ele>765.20001220703</ele>
        <time>2023-06-01T07:08:54.000Z</time>
      </trkpt>
      <trkpt lat="43.56756" lon="2.52489">
        <ele>765</ele>
        <time>2023-06-01T07:09:00.000Z</time>
      </trkpt>
      <trkpt lat="43.56755" lon="2.52485">
        <ele>764.79998779297</ele>
        <time>2023-06-01T07:09:03.000Z</time>
      </trkpt>
      <trkpt lat="43.56754" lon="2.52482">
        <ele>764.79998779297</ele>
        <time>2023-06-01T07:09:04.000Z</time>
      </trkpt>
      <trkpt lat="43.56754" lon="2.52479">
        <ele>764.79998779297</ele>
        <time>2023-06-01T07:09:06.000Z</time>
      </trkpt>
      <trkpt lat="43.56753" lon="2.52473">
        <ele>764.59997558594</ele>
        <time>2023-06-01T07:09:09.000Z</time>
      </trkpt>
      <trkpt lat="43.56753" lon="2.52468">
        <ele>764.59997558594</ele>
        <time>2023-06-01T07:09:11.000Z</time>
      </trkpt>
      <trkpt lat="43.56754" lon="2.52461">
        <ele>764.59997558594</ele>
        <time>2023-06-01T07:09:15.000Z</time>
      </trkpt>
      <trkpt lat="43.56755" lon="2.52452">
        <ele>764.59997558594</ele>
        <time>2023-06-01T07:09:21.000Z</time>
      </trkpt>
      <trkpt lat="43.56755" lon="2.52447">
        <ele>764.59997558594</ele>
        <time>2023-06-01T07:09:24.000Z</time>
      </trkpt>
      <trkpt lat="43.56755" lon="2.52444">
        <ele>764.59997558594</ele>
        <time>2023-06-01T07:09:26.000Z</time>
      </trkpt>
      <trkpt lat="43.56756" lon="2.52441">
        <ele>764.59997558594</ele>
        <time>2023-06-01T07:09:28.000Z</time>
      </trkpt>
      <trkpt lat="43.56757" lon="2.52433">
        <ele>764.40002441406</ele>
        <time>2023-06-01T07:09:33.000Z</time>
      </trkpt>
      <trkpt lat="43.56757" lon="2.52431">
        <ele>764.40002441406</ele>
        <time>2023-06-01T07:09:34.000Z</time>
      </trkpt>
      <trkpt lat="43.56759" lon="2.52419">
        <ele>764</ele>
        <time>2023-06-01T07:09:41.000Z</time>
      </trkpt>
      <trkpt lat="43.5676" lon="2.52414">
        <ele>763.79998779297</ele>
        <time>2023-06-01T07:09:44.000Z</time>
      </trkpt>
      <trkpt lat="43.56759" lon="2.52408">
        <ele>763.59997558594</ele>
        <time>2023-06-01T07:09:47.000Z</time>
      </trkpt>
      <trkpt lat="43.56759" lon="2.52406">
        <ele>763.59997558594</ele>
        <time>2023-06-01T07:09:48.000Z</time>
      </trkpt>
      <trkpt lat="43.56759" lon="2.52399">
        <ele>763.20001220703</ele>
        <time>2023-06-01T07:09:52.000Z</time>
      </trkpt>
      <trkpt lat="43.5676" lon="2.52395">
        <ele>763.20001220703</ele>
        <time>2023-06-01T07:09:54.000Z</time>
      </trkpt>
      <trkpt lat="43.56761" lon="2.52383">
        <ele>762.59997558594</ele>
        <time>2023-06-01T07:10:02.000Z</time>
      </trkpt>
      <trkpt lat="43.56762" lon="2.52381">
        <ele>762.59997558594</ele>
        <time>2023-06-01T07:10:03.000Z</time>
      </trkpt>
      <trkpt lat="43.56763" lon="2.5237">
        <ele>762</ele>
        <time>2023-06-01T07:10:10.000Z</time>
      </trkpt>
      <trkpt lat="43.56764" lon="2.52362">
        <ele>761.79998779297</ele>
        <time>2023-06-01T07:10:16.000Z</time>
      </trkpt>
      <trkpt lat="43.56764" lon="2.52361">
        <ele>761.59997558594</ele>
        <time>2023-06-01T07:10:17.000Z</time>
      </trkpt>
      <trkpt lat="43.56765" lon="2.5236">
        <ele>761.59997558594</ele>
        <time>2023-06-01T07:10:18.000Z</time>
      </trkpt>
      <trkpt lat="43.56766" lon="2.52355">
        <ele>761.20001220703</ele>
        <time>2023-06-01T07:10:22.000Z</time>
      </trkpt>
      <trkpt lat="43.56767" lon="2.52353">
        <ele>761.20001220703</ele>
        <time>2023-06-01T07:10:23.000Z</time>
      </trkpt>
      <trkpt lat="43.56767" lon="2.52352">
        <ele>761</ele>
        <time>2023-06-01T07:10:24.000Z</time>
      </trkpt>
      <trkpt lat="43.56768" lon="2.52343">
        <ele>760.59997558594</ele>
        <time>2023-06-01T07:10:30.000Z</time>
      </trkpt>
      <trkpt lat="43.56768" lon="2.52342">
        <ele>760.59997558594</ele>
        <time>2023-06-01T07:10:31.000Z</time>
      </trkpt>
      <trkpt lat="43.56769" lon="2.52338">
        <ele>760.40002441406</ele>
        <time>2023-06-01T07:10:34.000Z</time>
      </trkpt>
      <trkpt lat="43.5677" lon="2.52335">
        <ele>760.40002441406</ele>
        <time>2023-06-01T07:10:36.000Z</time>
      </trkpt>
      <trkpt lat="43.5677" lon="2.52332">
        <ele>760.20001220703</ele>
        <time>2023-06-01T07:10:38.000Z</time>
      </trkpt>
      <trkpt lat="43.56772" lon="2.52327">
        <ele>759.79998779297</ele>
        <time>2023-06-01T07:10:42.000Z</time>
      </trkpt>
      <trkpt lat="43.56772" lon="2.52323">
        <ele>759.59997558594</ele>
        <time>2023-06-01T07:10:45.000Z</time>
      </trkpt>
      <trkpt lat="43.56773" lon="2.5232">
        <ele>759.40002441406</ele>
        <time>2023-06-01T07:10:48.000Z</time>
      </trkpt>
      <trkpt lat="43.56774" lon="2.52316">
        <ele>759.20001220703</ele>
        <time>2023-06-01T07:10:51.000Z</time>
      </trkpt>
      <trkpt lat="43.56774" lon="2.52313">
        <ele>758.79998779297</ele>
        <time>2023-06-01T07:10:54.000Z</time>
      </trkpt>
      <trkpt lat="43.56774" lon="2.52311">
        <ele>758.79998779297</ele>
        <time>2023-06-01T07:11:01.000Z</time>
      </trkpt>
      <trkpt lat="43.56775" lon="2.52305">
        <ele>758.40002441406</ele>
        <time>2023-06-01T07:11:07.000Z</time>
      </trkpt>
      <trkpt lat="43.56776" lon="2.52305">
        <ele>758.40002441406</ele>
        <time>2023-06-01T07:11:08.000Z</time>
      </trkpt>
      <trkpt lat="43.56777" lon="2.52302">
        <ele>757.79998779297</ele>
        <time>2023-06-01T07:11:12.000Z</time>
      </trkpt>
      <trkpt lat="43.56776" lon="2.523">
        <ele>757.40002441406</ele>
        <time>2023-06-01T07:11:16.000Z</time>
      </trkpt>
      <trkpt lat="43.56777" lon="2.52299">
        <ele>757.20001220703</ele>
        <time>2023-06-01T07:11:17.000Z</time>
      </trkpt>
      <trkpt lat="43.56777" lon="2.52289">
        <ele>756.20001220703</ele>
        <time>2023-06-01T07:11:23.000Z</time>
      </trkpt>
      <trkpt lat="43.56777" lon="2.52284">
        <ele>755.59997558594</ele>
        <time>2023-06-01T07:11:28.000Z</time>
      </trkpt>
      <trkpt lat="43.56778" lon="2.52281">
        <ele>755.40002441406</ele>
        <time>2023-06-01T07:11:30.000Z</time>
      </trkpt>
      <trkpt lat="43.56778" lon="2.52279">
        <ele>755.20001220703</ele>
        <time>2023-06-01T07:11:32.000Z</time>
      </trkpt>
      <trkpt lat="43.56778" lon="2.52274">
        <ele>754.79998779297</ele>
        <time>2023-06-01T07:11:36.000Z</time>
      </trkpt>
      <trkpt lat="43.56779" lon="2.52269">
        <ele>754.40002441406</ele>
        <time>2023-06-01T07:11:39.000Z</time>
      </trkpt>
      <trkpt lat="43.56779" lon="2.52268">
        <ele>754.20001220703</ele>
        <time>2023-06-01T07:11:40.000Z</time>
      </trkpt>
      <trkpt lat="43.56778" lon="2.52267">
        <ele>754.20001220703</ele>
        <time>2023-06-01T07:11:41.000Z</time>
      </trkpt>
      <trkpt lat="43.56776" lon="2.52263">
        <ele>754</ele>
        <time>2023-06-01T07:11:44.000Z</time>
      </trkpt>
      <trkpt lat="43.56777" lon="2.52257">
        <ele>753.40002441406</ele>
        <time>2023-06-01T07:11:48.000Z</time>
      </trkpt>
      <trkpt lat="43.56777" lon="2.52254">
        <ele>753.20001220703</ele>
        <time>2023-06-01T07:11:50.000Z</time>
      </trkpt>
      <trkpt lat="43.56777" lon="2.5225">
        <ele>752.79998779297</ele>
        <time>2023-06-01T07:11:53.000Z</time>
      </trkpt>
      <trkpt lat="43.56776" lon="2.52242">
        <ele>752.40002441406</ele>
        <time>2023-06-01T07:11:58.000Z</time>
      </trkpt>
      <trkpt lat="43.56776" lon="2.5224">
        <ele>752.20001220703</ele>
        <time>2023-06-01T07:11:59.000Z</time>
      </trkpt>
      <trkpt lat="43.56775" lon="2.52237">
        <ele>752</ele>
        <time>2023-06-01T07:12:01.000Z</time>
      </trkpt>
      <trkpt lat="43.56776" lon="2.52236">
        <ele>751.79998779297</ele>
        <time>2023-06-01T07:12:02.000Z</time>
      </trkpt>
      <trkpt lat="43.56776" lon="2.52233">
        <ele>751.40002441406</ele>
        <time>2023-06-01T07:12:05.000Z</time>
      </trkpt>
      <trkpt lat="43.56775" lon="2.5223">
        <ele>751</ele>
        <time>2023-06-01T07:12:07.000Z</time>
      </trkpt>
      <trkpt lat="43.56775" lon="2.52228">
        <ele>751</ele>
        <time>2023-06-01T07:12:08.000Z</time>
      </trkpt>
      <trkpt lat="43.56775" lon="2.52226">
        <ele>750.59997558594</ele>
        <time>2023-06-01T07:12:10.000Z</time>
      </trkpt>
      <trkpt lat="43.56775" lon="2.52222">
        <ele>750.20001220703</ele>
        <time>2023-06-01T07:12:14.000Z</time>
      </trkpt>
      <trkpt lat="43.56775" lon="2.52218">
        <ele>749.79998779297</ele>
        <time>2023-06-01T07:12:17.000Z</time>
      </trkpt>
      <trkpt lat="43.56776" lon="2.52214">
        <ele>749.20001220703</ele>
        <time>2023-06-01T07:12:21.000Z</time>
      </trkpt>
      <trkpt lat="43.56775" lon="2.52212">
        <ele>748.79998779297</ele>
        <time>2023-06-01T07:12:23.000Z</time>
      </trkpt>
      <trkpt lat="43.56775" lon="2.5221">
        <ele>748.20001220703</ele>
        <time>2023-06-01T07:12:27.000Z</time>
      </trkpt>
      <trkpt lat="43.56778" lon="2.52201">
        <ele>747.79998779297</ele>
        <time>2023-06-01T07:12:33.000Z</time>
      </trkpt>
      <trkpt lat="43.56779" lon="2.522">
        <ele>747.59997558594</ele>
        <time>2023-06-01T07:12:34.000Z</time>
      </trkpt>
      <trkpt lat="43.56779" lon="2.52198">
        <ele>747.40002441406</ele>
        <time>2023-06-01T07:12:35.000Z</time>
      </trkpt>
      <trkpt lat="43.5678" lon="2.52196">
        <ele>747.20001220703</ele>
        <time>2023-06-01T07:12:38.000Z</time>
      </trkpt>
      <trkpt lat="43.5678" lon="2.52194">
        <ele>747.40002441406</ele>
        <time>2023-06-01T07:12:40.000Z</time>
      </trkpt>
      <trkpt lat="43.5678" lon="2.52192">
        <ele>747.40002441406</ele>
        <time>2023-06-01T07:12:42.000Z</time>
      </trkpt>
      <trkpt lat="43.56779" lon="2.52188">
        <ele>747.20001220703</ele>
        <time>2023-06-01T07:12:44.000Z</time>
      </trkpt>
      <trkpt lat="43.56778" lon="2.52185">
        <ele>746.79998779297</ele>
        <time>2023-06-01T07:12:46.000Z</time>
      </trkpt>
      <trkpt lat="43.56776" lon="2.52184">
        <ele>746.59997558594</ele>
        <time>2023-06-01T07:12:47.000Z</time>
      </trkpt>
      <trkpt lat="43.56777" lon="2.52183">
        <ele>746.40002441406</ele>
        <time>2023-06-01T07:12:49.000Z</time>
      </trkpt>
      <trkpt lat="43.56776" lon="2.5218">
        <ele>746</ele>
        <time>2023-06-01T07:12:52.000Z</time>
      </trkpt>
      <trkpt lat="43.56777" lon="2.52176">
        <ele>745.40002441406</ele>
        <time>2023-06-01T07:12:55.000Z</time>
      </trkpt>
      <trkpt lat="43.56776" lon="2.52175">
        <ele>745.40002441406</ele>
        <time>2023-06-01T07:12:56.000Z</time>
      </trkpt>
      <trkpt lat="43.56776" lon="2.52167">
        <ele>744.40002441406</ele>
        <time>2023-06-01T07:13:02.000Z</time>
      </trkpt>
      <trkpt lat="43.56775" lon="2.52164">
        <ele>744</ele>
        <time>2023-06-01T07:13:06.000Z</time>
      </trkpt>
      <trkpt lat="43.56775" lon="2.5216">
        <ele>743.59997558594</ele>
        <time>2023-06-01T07:13:08.000Z</time>
      </trkpt>
      <trkpt lat="43.56775" lon="2.52159">
        <ele>743.40002441406</ele>
        <time>2023-06-01T07:13:09.000Z</time>
      </trkpt>
      <trkpt lat="43.56776" lon="2.52153">
        <ele>742.79998779297</ele>
        <time>2023-06-01T07:13:14.000Z</time>
      </trkpt>
      <trkpt lat="43.56776" lon="2.5215">
        <ele>742.20001220703</ele>
        <time>2023-06-01T07:13:18.000Z</time>
      </trkpt>
      <trkpt lat="43.56777" lon="2.52149">
        <ele>742</ele>
        <time>2023-06-01T07:13:19.000Z</time>
      </trkpt>
      <trkpt lat="43.56776" lon="2.52146">
        <ele>741.79998779297</ele>
        <time>2023-06-01T07:13:21.000Z</time>
      </trkpt>
      <trkpt lat="43.56774" lon="2.52142">
        <ele>741.40002441406</ele>
        <time>2023-06-01T07:13:24.000Z</time>
      </trkpt>
      <trkpt lat="43.56775" lon="2.52138">
        <ele>741</ele>
        <time>2023-06-01T07:13:28.000Z</time>
      </trkpt>
      <trkpt lat="43.56775" lon="2.52137">
        <ele>741</ele>
        <time>2023-06-01T07:13:29.000Z</time>
      </trkpt>
      <trkpt lat="43.56775" lon="2.52134">
        <ele>740.59997558594</ele>
        <time>2023-06-01T07:13:34.000Z</time>
      </trkpt>
      <trkpt lat="43.56776" lon="2.52128">
        <ele>740.79998779297</ele>
        <time>2023-06-01T07:13:40.000Z</time>
      </trkpt>
      <trkpt lat="43.56777" lon="2.5212">
        <ele>740</ele>
        <time>2023-06-01T07:13:44.000Z</time>
      </trkpt>
      <trkpt lat="43.56776" lon="2.52114">
        <ele>739.20001220703</ele>
        <time>2023-06-01T07:13:48.000Z</time>
      </trkpt>
      <trkpt lat="43.56777" lon="2.52113">
        <ele>739</ele>
        <time>2023-06-01T07:13:49.000Z</time>
      </trkpt>
      <trkpt lat="43.56777" lon="2.52111">
        <ele>738.79998779297</ele>
        <time>2023-06-01T07:13:51.000Z</time>
      </trkpt>
      <trkpt lat="43.56777" lon="2.52106">
        <ele>738.59997558594</ele>
        <time>2023-06-01T07:13:54.000Z</time>
      </trkpt>
      <trkpt lat="43.56776" lon="2.52102">
        <ele>738.20001220703</ele>
        <time>2023-06-01T07:13:56.000Z</time>
      </trkpt>
      <trkpt lat="43.56776" lon="2.52099">
        <ele>737.79998779297</ele>
        <time>2023-06-01T07:13:59.000Z</time>
      </trkpt>
      <trkpt lat="43.56775" lon="2.52098">
        <ele>737.59997558594</ele>
        <time>2023-06-01T07:14:00.000Z</time>
      </trkpt>
      <trkpt lat="43.56775" lon="2.52096">
        <ele>737.40002441406</ele>
        <time>2023-06-01T07:14:02.000Z</time>
      </trkpt>
      <trkpt lat="43.56776" lon="2.52093">
        <ele>736.79998779297</ele>
        <time>2023-06-01T07:14:06.000Z</time>
      </trkpt>
      <trkpt lat="43.56775" lon="2.52092">
        <ele>736.79998779297</ele>
        <time>2023-06-01T07:14:07.000Z</time>
      </trkpt>
      <trkpt lat="43.56775" lon="2.52092">
        <ele>736.79998779297</ele>
        <time>2023-06-01T07:14:08.000Z</time>
      </trkpt>
      <trkpt lat="43.56773" lon="2.52086">
        <ele>736</ele>
        <time>2023-06-01T07:14:13.000Z</time>
      </trkpt>
      <trkpt lat="43.56772" lon="2.52082">
        <ele>735.59997558594</ele>
        <time>2023-06-01T07:14:16.000Z</time>
      </trkpt>
      <trkpt lat="43.56771" lon="2.5208">
        <ele>735.40002441406</ele>
        <time>2023-06-01T07:14:18.000Z</time>
      </trkpt>
      <trkpt lat="43.56771" lon="2.52077">
        <ele>735.20001220703</ele>
        <time>2023-06-01T07:14:20.000Z</time>
      </trkpt>
      <trkpt lat="43.56772" lon="2.52073">
        <ele>734.79998779297</ele>
        <time>2023-06-01T07:14:23.000Z</time>
      </trkpt>
      <trkpt lat="43.56772" lon="2.52072">
        <ele>734.59997558594</ele>
        <time>2023-06-01T07:14:24.000Z</time>
      </trkpt>
      <trkpt lat="43.56772" lon="2.5207">
        <ele>734.40002441406</ele>
        <time>2023-06-01T07:14:26.000Z</time>
      </trkpt>
      <trkpt lat="43.56772" lon="2.52069">
        <ele>734</ele>
        <time>2023-06-01T07:14:29.000Z</time>
      </trkpt>
      <trkpt lat="43.56772" lon="2.52066">
        <ele>733.79998779297</ele>
        <time>2023-06-01T07:14:30.000Z</time>
      </trkpt>
      <trkpt lat="43.56773" lon="2.52061">
        <ele>733.79998779297</ele>
        <time>2023-06-01T07:14:34.000Z</time>
      </trkpt>
      <trkpt lat="43.56772" lon="2.52059">
        <ele>733.59997558594</ele>
        <time>2023-06-01T07:14:35.000Z</time>
      </trkpt>
      <trkpt lat="43.56772" lon="2.52058">
        <ele>733.59997558594</ele>
        <time>2023-06-01T07:14:36.000Z</time>
      </trkpt>
      <trkpt lat="43.56772" lon="2.52056">
        <ele>733.20001220703</ele>
        <time>2023-06-01T07:14:38.000Z</time>
      </trkpt>
      <trkpt lat="43.56772" lon="2.5205">
        <ele>732.59997558594</ele>
        <time>2023-06-01T07:14:41.000Z</time>
      </trkpt>
      <trkpt lat="43.56772" lon="2.52048">
        <ele>732.40002441406</ele>
        <time>2023-06-01T07:14:42.000Z</time>
      </trkpt>
      <trkpt lat="43.5677" lon="2.5204">
        <ele>731.59997558594</ele>
        <time>2023-06-01T07:14:48.000Z</time>
      </trkpt>
      <trkpt lat="43.5677" lon="2.52038">
        <ele>731.40002441406</ele>
        <time>2023-06-01T07:14:49.000Z</time>
      </trkpt>
      <trkpt lat="43.56771" lon="2.52031">
        <ele>730.79998779297</ele>
        <time>2023-06-01T07:14:54.000Z</time>
      </trkpt>
      <trkpt lat="43.5677" lon="2.52026">
        <ele>730.40002441406</ele>
        <time>2023-06-01T07:14:57.000Z</time>
      </trkpt>
      <trkpt lat="43.5677" lon="2.52023">
        <ele>730.40002441406</ele>
        <time>2023-06-01T07:14:59.000Z</time>
      </trkpt>
      <trkpt lat="43.5677" lon="2.52021">
        <ele>730</ele>
        <time>2023-06-01T07:15:01.000Z</time>
      </trkpt>
      <trkpt lat="43.5677" lon="2.52018">
        <ele>729.79998779297</ele>
        <time>2023-06-01T07:15:03.000Z</time>
      </trkpt>
      <trkpt lat="43.5677" lon="2.52013">
        <ele>729.20001220703</ele>
        <time>2023-06-01T07:15:07.000Z</time>
      </trkpt>
      <trkpt lat="43.5677" lon="2.52012">
        <ele>729</ele>
        <time>2023-06-01T07:15:09.000Z</time>
      </trkpt>
      <trkpt lat="43.5677" lon="2.52008">
        <ele>728.59997558594</ele>
        <time>2023-06-01T07:15:11.000Z</time>
      </trkpt>
      <trkpt lat="43.56769" lon="2.52003">
        <ele>728.20001220703</ele>
        <time>2023-06-01T07:15:14.000Z</time>
      </trkpt>
      <trkpt lat="43.56769" lon="2.52002">
        <ele>728.20001220703</ele>
        <time>2023-06-01T07:15:15.000Z</time>
      </trkpt>
      <trkpt lat="43.56768" lon="2.51996">
        <ele>727.59997558594</ele>
        <time>2023-06-01T07:15:19.000Z</time>
      </trkpt>
      <trkpt lat="43.56768" lon="2.51994">
        <ele>727.40002441406</ele>
        <time>2023-06-01T07:15:21.000Z</time>
      </trkpt>
      <trkpt lat="43.56768" lon="2.51991">
        <ele>727</ele>
        <time>2023-06-01T07:15:23.000Z</time>
      </trkpt>
      <trkpt lat="43.56769" lon="2.5199">
        <ele>726.79998779297</ele>
        <time>2023-06-01T07:15:24.000Z</time>
      </trkpt>
      <trkpt lat="43.56769" lon="2.51988">
        <ele>726.79998779297</ele>
        <time>2023-06-01T07:15:25.000Z</time>
      </trkpt>
      <trkpt lat="43.56769" lon="2.51986">
        <ele>726.40002441406</ele>
        <time>2023-06-01T07:15:30.000Z</time>
      </trkpt>
      <trkpt lat="43.56772" lon="2.51978">
        <ele>726</ele>
        <time>2023-06-01T07:15:36.000Z</time>
      </trkpt>
      <trkpt lat="43.56772" lon="2.51978">
        <ele>726</ele>
        <time>2023-06-01T07:15:37.000Z</time>
      </trkpt>
      <trkpt lat="43.56775" lon="2.51972">
        <ele>725.40002441406</ele>
        <time>2023-06-01T07:15:42.000Z</time>
      </trkpt>
      <trkpt lat="43.56777" lon="2.5197">
        <ele>725</ele>
        <time>2023-06-01T07:15:44.000Z</time>
      </trkpt>
      <trkpt lat="43.56777" lon="2.51969">
        <ele>724.79998779297</ele>
        <time>2023-06-01T07:15:45.000Z</time>
      </trkpt>
      <trkpt lat="43.56778" lon="2.51969">
        <ele>724.40002441406</ele>
        <time>2023-06-01T07:15:47.000Z</time>
      </trkpt>
      <trkpt lat="43.56781" lon="2.51966">
        <ele>723.79998779297</ele>
        <time>2023-06-01T07:15:49.000Z</time>
      </trkpt>
      <trkpt lat="43.56782" lon="2.51965">
        <ele>723.59997558594</ele>
        <time>2023-06-01T07:15:50.000Z</time>
      </trkpt>
      <trkpt lat="43.56784" lon="2.51963">
        <ele>723.20001220703</ele>
        <time>2023-06-01T07:15:52.000Z</time>
      </trkpt>
      <trkpt lat="43.56789" lon="2.5196">
        <ele>722.79998779297</ele>
        <time>2023-06-01T07:15:57.000Z</time>
      </trkpt>
      <trkpt lat="43.56791" lon="2.5196">
        <ele>722.59997558594</ele>
        <time>2023-06-01T07:15:59.000Z</time>
      </trkpt>
      <trkpt lat="43.56798" lon="2.51958">
        <ele>722.20001220703</ele>
        <time>2023-06-01T07:16:06.000Z</time>
      </trkpt>
      <trkpt lat="43.56806" lon="2.51955">
        <ele>722</ele>
        <time>2023-06-01T07:16:14.000Z</time>
      </trkpt>
      <trkpt lat="43.5681" lon="2.51954">
        <ele>721.79998779297</ele>
        <time>2023-06-01T07:16:18.000Z</time>
      </trkpt>
      <trkpt lat="43.56812" lon="2.51953">
        <ele>721.79998779297</ele>
        <time>2023-06-01T07:16:20.000Z</time>
      </trkpt>
      <trkpt lat="43.56815" lon="2.51953">
        <ele>721.59997558594</ele>
        <time>2023-06-01T07:16:23.000Z</time>
      </trkpt>
      <trkpt lat="43.56817" lon="2.51952">
        <ele>721.40002441406</ele>
        <time>2023-06-01T07:16:26.000Z</time>
      </trkpt>
      <trkpt lat="43.56823" lon="2.51948">
        <ele>721.20001220703</ele>
        <time>2023-06-01T07:16:33.000Z</time>
      </trkpt>
      <trkpt lat="43.56826" lon="2.51947">
        <ele>721.20001220703</ele>
        <time>2023-06-01T07:16:35.000Z</time>
      </trkpt>
      <trkpt lat="43.56828" lon="2.51946">
        <ele>721.20001220703</ele>
        <time>2023-06-01T07:16:36.000Z</time>
      </trkpt>
      <trkpt lat="43.5683" lon="2.51945">
        <ele>721</ele>
        <time>2023-06-01T07:16:38.000Z</time>
      </trkpt>
      <trkpt lat="43.56832" lon="2.51945">
        <ele>721</ele>
        <time>2023-06-01T07:16:40.000Z</time>
      </trkpt>
      <trkpt lat="43.56836" lon="2.51943">
        <ele>721</ele>
        <time>2023-06-01T07:16:43.000Z</time>
      </trkpt>
      <trkpt lat="43.56839" lon="2.51942">
        <ele>721.20001220703</ele>
        <time>2023-06-01T07:16:47.000Z</time>
      </trkpt>
      <trkpt lat="43.56841" lon="2.5194">
        <ele>721</ele>
        <time>2023-06-01T07:16:50.000Z</time>
      </trkpt>
      <trkpt lat="43.56847" lon="2.5194">
        <ele>720.79998779297</ele>
        <time>2023-06-01T07:16:54.000Z</time>
      </trkpt>
      <trkpt lat="43.56847" lon="2.5194">
        <ele>720.59997558594</ele>
        <time>2023-06-01T07:16:56.000Z</time>
      </trkpt>
      <trkpt lat="43.5685" lon="2.5194">
        <ele>720.40002441406</ele>
        <time>2023-06-01T07:16:58.000Z</time>
      </trkpt>
      <trkpt lat="43.56851" lon="2.51939">
        <ele>720.40002441406</ele>
        <time>2023-06-01T07:17:00.000Z</time>
      </trkpt>
      <trkpt lat="43.56854" lon="2.51938">
        <ele>720</ele>
        <time>2023-06-01T07:17:03.000Z</time>
      </trkpt>
      <trkpt lat="43.56858" lon="2.51937">
        <ele>719.79998779297</ele>
        <time>2023-06-01T07:17:07.000Z</time>
      </trkpt>
      <trkpt lat="43.56861" lon="2.51936">
        <ele>719.40002441406</ele>
        <time>2023-06-01T07:17:10.000Z</time>
      </trkpt>
      <trkpt lat="43.56862" lon="2.51934">
        <ele>719.20001220703</ele>
        <time>2023-06-01T07:17:12.000Z</time>
      </trkpt>
      <trkpt lat="43.56866" lon="2.51932">
        <ele>718.59997558594</ele>
        <time>2023-06-01T07:17:16.000Z</time>
      </trkpt>
      <trkpt lat="43.56869" lon="2.5193">
        <ele>718.40002441406</ele>
        <time>2023-06-01T07:17:19.000Z</time>
      </trkpt>
      <trkpt lat="43.56873" lon="2.51928">
        <ele>718.20001220703</ele>
        <time>2023-06-01T07:17:23.000Z</time>
      </trkpt>
      <trkpt lat="43.56875" lon="2.51927">
        <ele>718.20001220703</ele>
        <time>2023-06-01T07:17:25.000Z</time>
      </trkpt>
      <trkpt lat="43.56877" lon="2.51926">
        <ele>718</ele>
        <time>2023-06-01T07:17:27.000Z</time>
      </trkpt>
      <trkpt lat="43.56881" lon="2.51925">
        <ele>718</ele>
        <time>2023-06-01T07:17:30.000Z</time>
      </trkpt>
      <trkpt lat="43.56882" lon="2.51924">
        <ele>718</ele>
        <time>2023-06-01T07:17:32.000Z</time>
      </trkpt>
      <trkpt lat="43.56886" lon="2.51922">
        <ele>717.79998779297</ele>
        <time>2023-06-01T07:17:36.000Z</time>
      </trkpt>
      <trkpt lat="43.56892" lon="2.51917">
        <ele>717.79998779297</ele>
        <time>2023-06-01T07:17:42.000Z</time>
      </trkpt>
      <trkpt lat="43.56899" lon="2.51913">
        <ele>717.79998779297</ele>
        <time>2023-06-01T07:17:48.000Z</time>
      </trkpt>
      <trkpt lat="43.56899" lon="2.51913">
        <ele>717.59997558594</ele>
        <time>2023-06-01T07:17:50.000Z</time>
      </trkpt>
      <trkpt lat="43.56902" lon="2.51911">
        <ele>717.59997558594</ele>
        <time>2023-06-01T07:17:53.000Z</time>
      </trkpt>
      <trkpt lat="43.56903" lon="2.51911">
        <ele>717.59997558594</ele>
        <time>2023-06-01T07:17:54.000Z</time>
      </trkpt>
      <trkpt lat="43.56904" lon="2.51909">
        <ele>717.79998779297</ele>
        <time>2023-06-01T07:18:00.000Z</time>
      </trkpt>
      <trkpt lat="43.56907" lon="2.51902">
        <ele>717.79998779297</ele>
        <time>2023-06-01T07:18:08.000Z</time>
      </trkpt>
      <trkpt lat="43.5691" lon="2.51898">
        <ele>717.59997558594</ele>
        <time>2023-06-01T07:18:11.000Z</time>
      </trkpt>
      <trkpt lat="43.56914" lon="2.51896">
        <ele>717.40002441406</ele>
        <time>2023-06-01T07:18:15.000Z</time>
      </trkpt>
      <trkpt lat="43.56916" lon="2.51894">
        <ele>717.40002441406</ele>
        <time>2023-06-01T07:18:18.000Z</time>
      </trkpt>
      <trkpt lat="43.56919" lon="2.51889">
        <ele>717.79998779297</ele>
        <time>2023-06-01T07:18:23.000Z</time>
      </trkpt>
      <trkpt lat="43.56922" lon="2.51887">
        <ele>718</ele>
        <time>2023-06-01T07:18:26.000Z</time>
      </trkpt>
      <trkpt lat="43.56926" lon="2.51882">
        <ele>718</ele>
        <time>2023-06-01T07:18:32.000Z</time>
      </trkpt>
      <trkpt lat="43.56932" lon="2.51876">
        <ele>718.40002441406</ele>
        <time>2023-06-01T07:18:40.000Z</time>
      </trkpt>
      <trkpt lat="43.56935" lon="2.51872">
        <ele>718.59997558594</ele>
        <time>2023-06-01T07:18:45.000Z</time>
      </trkpt>
      <trkpt lat="43.56936" lon="2.5187">
        <ele>718.59997558594</ele>
        <time>2023-06-01T07:18:47.000Z</time>
      </trkpt>
      <trkpt lat="43.56938" lon="2.51867">
        <ele>718.59997558594</ele>
        <time>2023-06-01T07:18:52.000Z</time>
      </trkpt>
      <trkpt lat="43.56938" lon="2.51866">
        <ele>718.79998779297</ele>
        <time>2023-06-01T07:18:53.000Z</time>
      </trkpt>
      <trkpt lat="43.5694" lon="2.51862">
        <ele>718.40002441406</ele>
        <time>2023-06-01T07:18:58.000Z</time>
      </trkpt>
      <trkpt lat="43.56943" lon="2.51857">
        <ele>718</ele>
        <time>2023-06-01T07:19:05.000Z</time>
      </trkpt>
      <trkpt lat="43.56946" lon="2.51852">
        <ele>717.79998779297</ele>
        <time>2023-06-01T07:19:11.000Z</time>
      </trkpt>
      <trkpt lat="43.56947" lon="2.5185">
        <ele>717.59997558594</ele>
        <time>2023-06-01T07:19:13.000Z</time>
      </trkpt>
      <trkpt lat="43.56951" lon="2.51846">
        <ele>717.40002441406</ele>
        <time>2023-06-01T07:19:18.000Z</time>
      </trkpt>
      <trkpt lat="43.56957" lon="2.51841">
        <ele>716.79998779297</ele>
        <time>2023-06-01T07:19:25.000Z</time>
      </trkpt>
      <trkpt lat="43.56959" lon="2.5184">
        <ele>716.59997558594</ele>
        <time>2023-06-01T07:19:27.000Z</time>
      </trkpt>
      <trkpt lat="43.5696" lon="2.51838">
        <ele>716.40002441406</ele>
        <time>2023-06-01T07:19:29.000Z</time>
      </trkpt>
      <trkpt lat="43.56961" lon="2.51838">
        <ele>716.20001220703</ele>
        <time>2023-06-01T07:19:31.000Z</time>
      </trkpt>
      <trkpt lat="43.56962" lon="2.51837">
        <ele>716.20001220703</ele>
        <time>2023-06-01T07:19:32.000Z</time>
      </trkpt>
      <trkpt lat="43.56966" lon="2.51835">
        <ele>716</ele>
        <time>2023-06-01T07:19:36.000Z</time>
      </trkpt>
      <trkpt lat="43.56967" lon="2.51834">
        <ele>716</ele>
        <time>2023-06-01T07:19:37.000Z</time>
      </trkpt>
      <trkpt lat="43.5697" lon="2.51831">
        <ele>715.59997558594</ele>
        <time>2023-06-01T07:19:42.000Z</time>
      </trkpt>
      <trkpt lat="43.56971" lon="2.5183">
        <ele>715.59997558594</ele>
        <time>2023-06-01T07:19:43.000Z</time>
      </trkpt>
      <trkpt lat="43.56978" lon="2.51825">
        <ele>715.40002441406</ele>
        <time>2023-06-01T07:19:49.000Z</time>
      </trkpt>
      <trkpt lat="43.56981" lon="2.51823">
        <ele>715</ele>
        <time>2023-06-01T07:19:53.000Z</time>
      </trkpt>
      <trkpt lat="43.56983" lon="2.51822">
        <ele>715</ele>
        <time>2023-06-01T07:19:55.000Z</time>
      </trkpt>
      <trkpt lat="43.56989" lon="2.51816">
        <ele>714.79998779297</ele>
        <time>2023-06-01T07:20:02.000Z</time>
      </trkpt>
      <trkpt lat="43.56993" lon="2.51812">
        <ele>715</ele>
        <time>2023-06-01T07:20:06.000Z</time>
      </trkpt>
      <trkpt lat="43.56995" lon="2.51808">
        <ele>715</ele>
        <time>2023-06-01T07:20:09.000Z</time>
      </trkpt>
      <trkpt lat="43.56997" lon="2.51807">
        <ele>715</ele>
        <time>2023-06-01T07:20:10.000Z</time>
      </trkpt>
      <trkpt lat="43.57001" lon="2.51803">
        <ele>715</ele>
        <time>2023-06-01T07:20:14.000Z</time>
      </trkpt>
      <trkpt lat="43.57003" lon="2.51801">
        <ele>715</ele>
        <time>2023-06-01T07:20:16.000Z</time>
      </trkpt>
      <trkpt lat="43.57008" lon="2.51795">
        <ele>715</ele>
        <time>2023-06-01T07:20:23.000Z</time>
      </trkpt>
      <trkpt lat="43.57012" lon="2.5179">
        <ele>715.59997558594</ele>
        <time>2023-06-01T07:20:28.000Z</time>
      </trkpt>
      <trkpt lat="43.57015" lon="2.51783">
        <ele>715.40002441406</ele>
        <time>2023-06-01T07:20:34.000Z</time>
      </trkpt>
      <trkpt lat="43.57015" lon="2.51783">
        <ele>715.20001220703</ele>
        <time>2023-06-01T07:20:35.000Z</time>
      </trkpt>
      <trkpt lat="43.57015" lon="2.5178">
        <ele>715.20001220703</ele>
        <time>2023-06-01T07:20:36.000Z</time>
      </trkpt>
      <trkpt lat="43.57017" lon="2.51771">
        <ele>715.20001220703</ele>
        <time>2023-06-01T07:20:41.000Z</time>
      </trkpt>
      <trkpt lat="43.57017" lon="2.51769">
        <ele>715.20001220703</ele>
        <time>2023-06-01T07:20:43.000Z</time>
      </trkpt>
      <trkpt lat="43.57018" lon="2.51766">
        <ele>715</ele>
        <time>2023-06-01T07:20:46.000Z</time>
      </trkpt>
      <trkpt lat="43.57017" lon="2.51765">
        <ele>714.79998779297</ele>
        <time>2023-06-01T07:20:47.000Z</time>
      </trkpt>
      <trkpt lat="43.57019" lon="2.51761">
        <ele>715</ele>
        <time>2023-06-01T07:20:52.000Z</time>
      </trkpt>
      <trkpt lat="43.57019" lon="2.5176">
        <ele>715</ele>
        <time>2023-06-01T07:20:53.000Z</time>
      </trkpt>
      <trkpt lat="43.5702" lon="2.51756">
        <ele>715.40002441406</ele>
        <time>2023-06-01T07:20:57.000Z</time>
      </trkpt>
      <trkpt lat="43.57022" lon="2.51751">
        <ele>715.79998779297</ele>
        <time>2023-06-01T07:21:02.000Z</time>
      </trkpt>
      <trkpt lat="43.57021" lon="2.51742">
        <ele>716.59997558594</ele>
        <time>2023-06-01T07:21:10.000Z</time>
      </trkpt>
      <trkpt lat="43.57021" lon="2.51737">
        <ele>717</ele>
        <time>2023-06-01T07:21:16.000Z</time>
      </trkpt>
      <trkpt lat="43.5702" lon="2.51732">
        <ele>716.79998779297</ele>
        <time>2023-06-01T07:21:22.000Z</time>
      </trkpt>
      <trkpt lat="43.5702" lon="2.51728">
        <ele>717.59997558594</ele>
        <time>2023-06-01T07:21:27.000Z</time>
      </trkpt>
      <trkpt lat="43.57021" lon="2.51727">
        <ele>718</ele>
        <time>2023-06-01T07:21:29.000Z</time>
      </trkpt>
      <trkpt lat="43.5702" lon="2.51724">
        <ele>718.40002441406</ele>
        <time>2023-06-01T07:21:34.000Z</time>
      </trkpt>
      <trkpt lat="43.57021" lon="2.51722">
        <ele>718.79998779297</ele>
        <time>2023-06-01T07:21:36.000Z</time>
      </trkpt>
      <trkpt lat="43.5702" lon="2.5172">
        <ele>719.20001220703</ele>
        <time>2023-06-01T07:21:39.000Z</time>
      </trkpt>
      <trkpt lat="43.57021" lon="2.51717">
        <ele>719.40002441406</ele>
        <time>2023-06-01T07:21:45.000Z</time>
      </trkpt>
      <trkpt lat="43.57021" lon="2.51711">
        <ele>719.79998779297</ele>
        <time>2023-06-01T07:21:51.000Z</time>
      </trkpt>
      <trkpt lat="43.57022" lon="2.51705">
        <ele>720.20001220703</ele>
        <time>2023-06-01T07:21:57.000Z</time>
      </trkpt>
      <trkpt lat="43.57024" lon="2.51701">
        <ele>720.79998779297</ele>
        <time>2023-06-01T07:22:01.000Z</time>
      </trkpt>
      <trkpt lat="43.57024" lon="2.51699">
        <ele>721.20001220703</ele>
        <time>2023-06-01T07:22:04.000Z</time>
      </trkpt>
      <trkpt lat="43.57023" lon="2.51694">
        <ele>721.79998779297</ele>
        <time>2023-06-01T07:22:10.000Z</time>
      </trkpt>
      <trkpt lat="43.57023" lon="2.51693">
        <ele>722</ele>
        <time>2023-06-01T07:22:12.000Z</time>
      </trkpt>
      <trkpt lat="43.57023" lon="2.5169">
        <ele>722</ele>
        <time>2023-06-01T07:22:19.000Z</time>
      </trkpt>
      <trkpt lat="43.57023" lon="2.51689">
        <ele>722.20001220703</ele>
        <time>2023-06-01T07:22:26.000Z</time>
      </trkpt>
      <trkpt lat="43.57022" lon="2.51681">
        <ele>722.40002441406</ele>
        <time>2023-06-01T07:22:33.000Z</time>
      </trkpt>
      <trkpt lat="43.57023" lon="2.51674">
        <ele>722.40002441406</ele>
        <time>2023-06-01T07:22:40.000Z</time>
      </trkpt>
      <trkpt lat="43.57024" lon="2.51669">
        <ele>722.59997558594</ele>
        <time>2023-06-01T07:22:46.000Z</time>
      </trkpt>
      <trkpt lat="43.57025" lon="2.51665">
        <ele>722.79998779297</ele>
        <time>2023-06-01T07:22:50.000Z</time>
      </trkpt>
      <trkpt lat="43.57026" lon="2.51663">
        <ele>723</ele>
        <time>2023-06-01T07:22:53.000Z</time>
      </trkpt>
      <trkpt lat="43.57027" lon="2.51656">
        <ele>723.59997558594</ele>
        <time>2023-06-01T07:23:01.000Z</time>
      </trkpt>
      <trkpt lat="43.57028" lon="2.51653">
        <ele>724</ele>
        <time>2023-06-01T07:23:05.000Z</time>
      </trkpt>
      <trkpt lat="43.57028" lon="2.51649">
        <ele>724.20001220703</ele>
        <time>2023-06-01T07:23:08.000Z</time>
      </trkpt>
      <trkpt lat="43.57028" lon="2.51643">
        <ele>724.59997558594</ele>
        <time>2023-06-01T07:23:15.000Z</time>
      </trkpt>
      <trkpt lat="43.57029" lon="2.51639">
        <ele>725</ele>
        <time>2023-06-01T07:23:22.000Z</time>
      </trkpt>
      <trkpt lat="43.57029" lon="2.51638">
        <ele>725</ele>
        <time>2023-06-01T07:23:23.000Z</time>
      </trkpt>
      <trkpt lat="43.5703" lon="2.51631">
        <ele>725.79998779297</ele>
        <time>2023-06-01T07:23:29.000Z</time>
      </trkpt>
      <trkpt lat="43.5703" lon="2.5163">
        <ele>726.20001220703</ele>
        <time>2023-06-01T07:23:31.000Z</time>
      </trkpt>
      <trkpt lat="43.5703" lon="2.51626">
        <ele>726.59997558594</ele>
        <time>2023-06-01T07:23:36.000Z</time>
      </trkpt>
      <trkpt lat="43.57029" lon="2.51621">
        <ele>727</ele>
        <time>2023-06-01T07:23:43.000Z</time>
      </trkpt>
      <trkpt lat="43.57029" lon="2.51617">
        <ele>727.20001220703</ele>
        <time>2023-06-01T07:23:45.000Z</time>
      </trkpt>
      <trkpt lat="43.57028" lon="2.51614">
        <ele>727.40002441406</ele>
        <time>2023-06-01T07:23:49.000Z</time>
      </trkpt>
      <trkpt lat="43.57028" lon="2.51609">
        <ele>727.59997558594</ele>
        <time>2023-06-01T07:23:54.000Z</time>
      </trkpt>
      <trkpt lat="43.57029" lon="2.51607">
        <ele>728.20001220703</ele>
        <time>2023-06-01T07:23:59.000Z</time>
      </trkpt>
      <trkpt lat="43.57029" lon="2.51606">
        <ele>728.20001220703</ele>
        <time>2023-06-01T07:24:01.000Z</time>
      </trkpt>
      <trkpt lat="43.57029" lon="2.51595">
        <ele>728.59997558594</ele>
        <time>2023-06-01T07:24:09.000Z</time>
      </trkpt>
      <trkpt lat="43.5703" lon="2.51586">
        <ele>727.79998779297</ele>
        <time>2023-06-01T07:24:16.000Z</time>
      </trkpt>
      <trkpt lat="43.5703" lon="2.51583">
        <ele>727.79998779297</ele>
        <time>2023-06-01T07:24:18.000Z</time>
      </trkpt>
      <trkpt lat="43.5703" lon="2.51581">
        <ele>727.59997558594</ele>
        <time>2023-06-01T07:24:20.000Z</time>
      </trkpt>
      <trkpt lat="43.5703" lon="2.5158">
        <ele>727.40002441406</ele>
        <time>2023-06-01T07:24:22.000Z</time>
      </trkpt>
      <trkpt lat="43.57031" lon="2.51574">
        <ele>727</ele>
        <time>2023-06-01T07:24:26.000Z</time>
      </trkpt>
      <trkpt lat="43.57031" lon="2.51573">
        <ele>727</ele>
        <time>2023-06-01T07:24:27.000Z</time>
      </trkpt>
      <trkpt lat="43.5703" lon="2.51564">
        <ele>726.40002441406</ele>
        <time>2023-06-01T07:24:34.000Z</time>
      </trkpt>
      <trkpt lat="43.5703" lon="2.51559">
        <ele>726</ele>
        <time>2023-06-01T07:24:38.000Z</time>
      </trkpt>
      <trkpt lat="43.5703" lon="2.51559">
        <ele>726</ele>
        <time>2023-06-01T07:24:39.000Z</time>
      </trkpt>
      <trkpt lat="43.5703" lon="2.51556">
        <ele>725.79998779297</ele>
        <time>2023-06-01T07:24:41.000Z</time>
      </trkpt>
      <trkpt lat="43.5703" lon="2.51556">
        <ele>725.59997558594</ele>
        <time>2023-06-01T07:24:42.000Z</time>
      </trkpt>
      <trkpt lat="43.57029" lon="2.51552">
        <ele>725</ele>
        <time>2023-06-01T07:24:48.000Z</time>
      </trkpt>
      <trkpt lat="43.57027" lon="2.51545">
        <ele>724.40002441406</ele>
        <time>2023-06-01T07:24:54.000Z</time>
      </trkpt>
      <trkpt lat="43.57027" lon="2.51541">
        <ele>724.40002441406</ele>
        <time>2023-06-01T07:25:00.000Z</time>
      </trkpt>
      <trkpt lat="43.57026" lon="2.51536">
        <ele>724</ele>
        <time>2023-06-01T07:25:06.000Z</time>
      </trkpt>
      <trkpt lat="43.57026" lon="2.51534">
        <ele>724</ele>
        <time>2023-06-01T07:25:08.000Z</time>
      </trkpt>
      <trkpt lat="43.57026" lon="2.51531">
        <ele>723.40002441406</ele>
        <time>2023-06-01T07:25:12.000Z</time>
      </trkpt>
      <trkpt lat="43.57026" lon="2.5153">
        <ele>723</ele>
        <time>2023-06-01T07:25:15.000Z</time>
      </trkpt>
      <trkpt lat="43.57025" lon="2.51525">
        <ele>722.59997558594</ele>
        <time>2023-06-01T07:25:20.000Z</time>
      </trkpt>
      <trkpt lat="43.57025" lon="2.5152">
        <ele>722</ele>
        <time>2023-06-01T07:25:25.000Z</time>
      </trkpt>
      <trkpt lat="43.57025" lon="2.51519">
        <ele>722</ele>
        <time>2023-06-01T07:25:27.000Z</time>
      </trkpt>
      <trkpt lat="43.57023" lon="2.51511">
        <ele>721.59997558594</ele>
        <time>2023-06-01T07:25:32.000Z</time>
      </trkpt>
      <trkpt lat="43.57023" lon="2.5151">
        <ele>721.40002441406</ele>
        <time>2023-06-01T07:25:33.000Z</time>
      </trkpt>
      <trkpt lat="43.57022" lon="2.51507">
        <ele>721.20001220703</ele>
        <time>2023-06-01T07:25:36.000Z</time>
      </trkpt>
      <trkpt lat="43.57021" lon="2.51504">
        <ele>721</ele>
        <time>2023-06-01T07:25:38.000Z</time>
      </trkpt>
      <trkpt lat="43.5702" lon="2.51496">
        <ele>720.79998779297</ele>
        <time>2023-06-01T07:25:44.000Z</time>
      </trkpt>
      <trkpt lat="43.57021" lon="2.5149">
        <ele>720.20001220703</ele>
        <time>2023-06-01T07:25:52.000Z</time>
      </trkpt>
      <trkpt lat="43.57021" lon="2.51485">
        <ele>720.59997558594</ele>
        <time>2023-06-01T07:25:59.000Z</time>
      </trkpt>
      <trkpt lat="43.57022" lon="2.5148">
        <ele>720.20001220703</ele>
        <time>2023-06-01T07:26:06.000Z</time>
      </trkpt>
      <trkpt lat="43.57022" lon="2.51476">
        <ele>720.20001220703</ele>
        <time>2023-06-01T07:26:11.000Z</time>
      </trkpt>
      <trkpt lat="43.57022" lon="2.51474">
        <ele>720.40002441406</ele>
        <time>2023-06-01T07:26:24.000Z</time>
      </trkpt>
      <trkpt lat="43.57023" lon="2.5147">
        <ele>719.79998779297</ele>
        <time>2023-06-01T07:26:37.000Z</time>
      </trkpt>
      <trkpt lat="43.57023" lon="2.51471">
        <ele>719.79998779297</ele>
        <time>2023-06-01T07:26:40.000Z</time>
      </trkpt>
      <trkpt lat="43.57024" lon="2.51471">
        <ele>720.20001220703</ele>
        <time>2023-06-01T07:26:48.000Z</time>
      </trkpt>
      <trkpt lat="43.57023" lon="2.51473">
        <ele>720.20001220703</ele>
        <time>2023-06-01T07:26:53.000Z</time>
      </trkpt>
      <trkpt lat="43.57022" lon="2.51476">
        <ele>720.20001220703</ele>
        <time>2023-06-01T07:27:01.000Z</time>
      </trkpt>
      <trkpt lat="43.57023" lon="2.51477">
        <ele>720.20001220703</ele>
        <time>2023-06-01T07:27:11.000Z</time>
      </trkpt>
      <trkpt lat="43.57023" lon="2.51479">
        <ele>720</ele>
        <time>2023-06-01T07:27:17.000Z</time>
      </trkpt>
      <trkpt lat="43.57022" lon="2.51477">
        <ele>720.40002441406</ele>
        <time>2023-06-01T07:27:25.000Z</time>
      </trkpt>
      <trkpt lat="43.57023" lon="2.51476">
        <ele>720.40002441406</ele>
        <time>2023-06-01T07:27:32.000Z</time>
      </trkpt>
      <trkpt lat="43.57023" lon="2.5148">
        <ele>720.40002441406</ele>
        <time>2023-06-01T07:27:39.000Z</time>
      </trkpt>
      <trkpt lat="43.57024" lon="2.51481">
        <ele>720.20001220703</ele>
        <time>2023-06-01T07:27:45.000Z</time>
      </trkpt>
      <trkpt lat="43.57025" lon="2.51482">
        <ele>720</ele>
        <time>2023-06-01T07:27:53.000Z</time>
      </trkpt>
      <trkpt lat="43.57027" lon="2.51485">
        <ele>720.20001220703</ele>
        <time>2023-06-01T07:28:02.000Z</time>
      </trkpt>
      <trkpt lat="43.57026" lon="2.51486">
        <ele>720</ele>
        <time>2023-06-01T07:28:15.000Z</time>
      </trkpt>
      <trkpt lat="43.57026" lon="2.51485">
        <ele>720.20001220703</ele>
        <time>2023-06-01T07:28:22.000Z</time>
      </trkpt>
      <trkpt lat="43.57026" lon="2.51484">
        <ele>720</ele>
        <time>2023-06-01T07:28:28.000Z</time>
      </trkpt>
      <trkpt lat="43.57026" lon="2.51484">
        <ele>720.20001220703</ele>
        <time>2023-06-01T07:28:35.000Z</time>
      </trkpt>
      <trkpt lat="43.57024" lon="2.51485">
        <ele>720</ele>
        <time>2023-06-01T07:28:43.000Z</time>
      </trkpt>
      <trkpt lat="43.57024" lon="2.51483">
        <ele>720</ele>
        <time>2023-06-01T07:28:50.000Z</time>
      </trkpt>
      <trkpt lat="43.57024" lon="2.51485">
        <ele>720.20001220703</ele>
        <time>2023-06-01T07:29:00.000Z</time>
      </trkpt>
      <trkpt lat="43.57022" lon="2.51483">
        <ele>720.59997558594</ele>
        <time>2023-06-01T07:29:07.000Z</time>
      </trkpt>
      <trkpt lat="43.57022" lon="2.51483">
        <ele>719.79998779297</ele>
        <time>2023-06-01T07:29:18.000Z</time>
      </trkpt>
      <trkpt lat="43.57022" lon="2.51482">
        <ele>719.79998779297</ele>
        <time>2023-06-01T07:29:29.000Z</time>
      </trkpt>
      <trkpt lat="43.57025" lon="2.5148">
        <ele>719.79998779297</ele>
        <time>2023-06-01T07:29:44.000Z</time>
      </trkpt>
      <trkpt lat="43.57024" lon="2.51479">
        <ele>720</ele>
        <time>2023-06-01T07:29:55.000Z</time>
      </trkpt>
      <trkpt lat="43.57022" lon="2.51479">
        <ele>719.79998779297</ele>
        <time>2023-06-01T07:30:05.000Z</time>
      </trkpt>
      <trkpt lat="43.57022" lon="2.5148">
        <ele>719.79998779297</ele>
        <time>2023-06-01T07:30:12.000Z</time>
      </trkpt>
      <trkpt lat="43.57023" lon="2.51479">
        <ele>719.40002441406</ele>
        <time>2023-06-01T07:30:18.000Z</time>
      </trkpt>
      <trkpt lat="43.57023" lon="2.51479">
        <ele>720</ele>
        <time>2023-06-01T07:30:25.000Z</time>
      </trkpt>
      <trkpt lat="43.57024" lon="2.51478">
        <ele>720.20001220703</ele>
        <time>2023-06-01T07:30:34.000Z</time>
      </trkpt>
      <trkpt lat="43.57025" lon="2.51476">
        <ele>719.79998779297</ele>
        <time>2023-06-01T07:30:43.000Z</time>
      </trkpt>
      <trkpt lat="43.57028" lon="2.5147">
        <ele>719.59997558594</ele>
        <time>2023-06-01T07:30:51.000Z</time>
      </trkpt>
      <trkpt lat="43.5703" lon="2.51465">
        <ele>719.40002441406</ele>
        <time>2023-06-01T07:30:57.000Z</time>
      </trkpt>
      <trkpt lat="43.57033" lon="2.51456">
        <ele>719.40002441406</ele>
        <time>2023-06-01T07:31:05.000Z</time>
      </trkpt>
      <trkpt lat="43.57033" lon="2.51454">
        <ele>719.40002441406</ele>
        <time>2023-06-01T07:31:06.000Z</time>
      </trkpt>
      <trkpt lat="43.57034" lon="2.51448">
        <ele>719.20001220703</ele>
        <time>2023-06-01T07:31:11.000Z</time>
      </trkpt>
      <trkpt lat="43.57036" lon="2.51442">
        <ele>719.20001220703</ele>
        <time>2023-06-01T07:31:16.000Z</time>
      </trkpt>
      <trkpt lat="43.57038" lon="2.51437">
        <ele>719</ele>
        <time>2023-06-01T07:31:20.000Z</time>
      </trkpt>
      <trkpt lat="43.57038" lon="2.51436">
        <ele>718.79998779297</ele>
        <time>2023-06-01T07:31:21.000Z</time>
      </trkpt>
      <trkpt lat="43.57041" lon="2.51429">
        <ele>718.79998779297</ele>
        <time>2023-06-01T07:31:26.000Z</time>
      </trkpt>
      <trkpt lat="43.57042" lon="2.51428">
        <ele>718.79998779297</ele>
        <time>2023-06-01T07:31:27.000Z</time>
      </trkpt>
      <trkpt lat="43.57042" lon="2.51426">
        <ele>718.79998779297</ele>
        <time>2023-06-01T07:31:28.000Z</time>
      </trkpt>
      <trkpt lat="43.57043" lon="2.51416">
        <ele>718.40002441406</ele>
        <time>2023-06-01T07:31:34.000Z</time>
      </trkpt>
      <trkpt lat="43.57043" lon="2.51409">
        <ele>718.40002441406</ele>
        <time>2023-06-01T07:31:39.000Z</time>
      </trkpt>
      <trkpt lat="43.57043" lon="2.51405">
        <ele>718.20001220703</ele>
        <time>2023-06-01T07:31:41.000Z</time>
      </trkpt>
      <trkpt lat="43.57044" lon="2.51405">
        <ele>718</ele>
        <time>2023-06-01T07:31:43.000Z</time>
      </trkpt>
      <trkpt lat="43.57044" lon="2.51403">
        <ele>718</ele>
        <time>2023-06-01T07:31:44.000Z</time>
      </trkpt>
      <trkpt lat="43.57044" lon="2.51399">
        <ele>718</ele>
        <time>2023-06-01T07:31:47.000Z</time>
      </trkpt>
      <trkpt lat="43.57044" lon="2.51395">
        <ele>717.79998779297</ele>
        <time>2023-06-01T07:31:50.000Z</time>
      </trkpt>
      <trkpt lat="43.57044" lon="2.51392">
        <ele>717.59997558594</ele>
        <time>2023-06-01T07:31:53.000Z</time>
      </trkpt>
      <trkpt lat="43.57042" lon="2.51388">
        <ele>717.40002441406</ele>
        <time>2023-06-01T07:31:56.000Z</time>
      </trkpt>
      <trkpt lat="43.57042" lon="2.51384">
        <ele>717.20001220703</ele>
        <time>2023-06-01T07:32:00.000Z</time>
      </trkpt>
      <trkpt lat="43.57042" lon="2.51385">
        <ele>717</ele>
        <time>2023-06-01T07:32:01.000Z</time>
      </trkpt>
      <trkpt lat="43.57042" lon="2.51383">
        <ele>716.79998779297</ele>
        <time>2023-06-01T07:32:02.000Z</time>
      </trkpt>
      <trkpt lat="43.57042" lon="2.51378">
        <ele>716.59997558594</ele>
        <time>2023-06-01T07:32:06.000Z</time>
      </trkpt>
      <trkpt lat="43.57042" lon="2.51372">
        <ele>716.40002441406</ele>
        <time>2023-06-01T07:32:11.000Z</time>
      </trkpt>
      <trkpt lat="43.57043" lon="2.5137">
        <ele>716.40002441406</ele>
        <time>2023-06-01T07:32:12.000Z</time>
      </trkpt>
      <trkpt lat="43.57043" lon="2.51362">
        <ele>716</ele>
        <time>2023-06-01T07:32:16.000Z</time>
      </trkpt>
      <trkpt lat="43.57043" lon="2.51362">
        <ele>715.79998779297</ele>
        <time>2023-06-01T07:32:17.000Z</time>
      </trkpt>
      <trkpt lat="43.57042" lon="2.51359">
        <ele>715.59997558594</ele>
        <time>2023-06-01T07:32:18.000Z</time>
      </trkpt>
      <trkpt lat="43.57043" lon="2.51359">
        <ele>715.59997558594</ele>
        <time>2023-06-01T07:32:19.000Z</time>
      </trkpt>
      <trkpt lat="43.57043" lon="2.51358">
        <ele>715</ele>
        <time>2023-06-01T07:32:23.000Z</time>
      </trkpt>
      <trkpt lat="43.57042" lon="2.5135">
        <ele>714.79998779297</ele>
        <time>2023-06-01T07:32:26.000Z</time>
      </trkpt>
      <trkpt lat="43.57042" lon="2.51345">
        <ele>714.59997558594</ele>
        <time>2023-06-01T07:32:30.000Z</time>
      </trkpt>
      <trkpt lat="43.57042" lon="2.51342">
        <ele>714.59997558594</ele>
        <time>2023-06-01T07:32:32.000Z</time>
      </trkpt>
      <trkpt lat="43.57042" lon="2.51342">
        <ele>714.40002441406</ele>
        <time>2023-06-01T07:32:33.000Z</time>
      </trkpt>
      <trkpt lat="43.57042" lon="2.5134">
        <ele>714.40002441406</ele>
        <time>2023-06-01T07:32:34.000Z</time>
      </trkpt>
      <trkpt lat="43.57043" lon="2.51336">
        <ele>714.20001220703</ele>
        <time>2023-06-01T07:32:37.000Z</time>
      </trkpt>
      <trkpt lat="43.57043" lon="2.51336">
        <ele>714.20001220703</ele>
        <time>2023-06-01T07:32:38.000Z</time>
      </trkpt>
      <trkpt lat="43.57043" lon="2.51326">
        <ele>713.79998779297</ele>
        <time>2023-06-01T07:32:44.000Z</time>
      </trkpt>
      <trkpt lat="43.57043" lon="2.51324">
        <ele>713.59997558594</ele>
        <time>2023-06-01T07:32:46.000Z</time>
      </trkpt>
      <trkpt lat="43.57043" lon="2.51321">
        <ele>713.40002441406</ele>
        <time>2023-06-01T07:32:51.000Z</time>
      </trkpt>
      <trkpt lat="43.57043" lon="2.51316">
        <ele>713.40002441406</ele>
        <time>2023-06-01T07:32:52.000Z</time>
      </trkpt>
      <trkpt lat="43.57043" lon="2.51313">
        <ele>713.20001220703</ele>
        <time>2023-06-01T07:32:54.000Z</time>
      </trkpt>
      <trkpt lat="43.57044" lon="2.51307">
        <ele>713</ele>
        <time>2023-06-01T07:32:58.000Z</time>
      </trkpt>
      <trkpt lat="43.57045" lon="2.51297">
        <ele>712.79998779297</ele>
        <time>2023-06-01T07:33:04.000Z</time>
      </trkpt>
      <trkpt lat="43.57046" lon="2.51288">
        <ele>712.20001220703</ele>
        <time>2023-06-01T07:33:09.000Z</time>
      </trkpt>
      <trkpt lat="43.57047" lon="2.51286">
        <ele>712</ele>
        <time>2023-06-01T07:33:11.000Z</time>
      </trkpt>
      <trkpt lat="43.57048" lon="2.51284">
        <ele>711.79998779297</ele>
        <time>2023-06-01T07:33:13.000Z</time>
      </trkpt>
      <trkpt lat="43.57052" lon="2.5128">
        <ele>711.40002441406</ele>
        <time>2023-06-01T07:33:17.000Z</time>
      </trkpt>
      <trkpt lat="43.57054" lon="2.51278">
        <ele>711.20001220703</ele>
        <time>2023-06-01T07:33:19.000Z</time>
      </trkpt>
      <trkpt lat="43.57055" lon="2.51275">
        <ele>711</ele>
        <time>2023-06-01T07:33:22.000Z</time>
      </trkpt>
      <trkpt lat="43.57057" lon="2.51272">
        <ele>711</ele>
        <time>2023-06-01T07:33:24.000Z</time>
      </trkpt>
      <trkpt lat="43.57061" lon="2.51267">
        <ele>710.79998779297</ele>
        <time>2023-06-01T07:33:29.000Z</time>
      </trkpt>
      <trkpt lat="43.57063" lon="2.51264">
        <ele>710.79998779297</ele>
        <time>2023-06-01T07:33:32.000Z</time>
      </trkpt>
      <trkpt lat="43.57064" lon="2.51262">
        <ele>710.79998779297</ele>
        <time>2023-06-01T07:33:34.000Z</time>
      </trkpt>
      <trkpt lat="43.57065" lon="2.51262">
        <ele>710.79998779297</ele>
        <time>2023-06-01T07:33:35.000Z</time>
      </trkpt>
      <trkpt lat="43.57066" lon="2.51262">
        <ele>710.79998779297</ele>
        <time>2023-06-01T07:33:36.000Z</time>
      </trkpt>
      <trkpt lat="43.5707" lon="2.51258">
        <ele>711</ele>
        <time>2023-06-01T07:33:40.000Z</time>
      </trkpt>
      <trkpt lat="43.57078" lon="2.51253">
        <ele>711</ele>
        <time>2023-06-01T07:33:48.000Z</time>
      </trkpt>
      <trkpt lat="43.57079" lon="2.51252">
        <ele>711</ele>
        <time>2023-06-01T07:33:49.000Z</time>
      </trkpt>
      <trkpt lat="43.57089" lon="2.51248">
        <ele>711.20001220703</ele>
        <time>2023-06-01T07:33:57.000Z</time>
      </trkpt>
      <trkpt lat="43.57092" lon="2.51248">
        <ele>711.20001220703</ele>
        <time>2023-06-01T07:33:59.000Z</time>
      </trkpt>
      <trkpt lat="43.57096" lon="2.51247">
        <ele>711.40002441406</ele>
        <time>2023-06-01T07:34:03.000Z</time>
      </trkpt>
      <trkpt lat="43.57097" lon="2.51246">
        <ele>711.59997558594</ele>
        <time>2023-06-01T07:34:04.000Z</time>
      </trkpt>
      <trkpt lat="43.571" lon="2.51245">
        <ele>711.59997558594</ele>
        <time>2023-06-01T07:34:10.000Z</time>
      </trkpt>
      <trkpt lat="43.57105" lon="2.51243">
        <ele>711.79998779297</ele>
        <time>2023-06-01T07:34:17.000Z</time>
      </trkpt>
      <trkpt lat="43.57108" lon="2.51242">
        <ele>711.79998779297</ele>
        <time>2023-06-01T07:34:22.000Z</time>
      </trkpt>
      <trkpt lat="43.57112" lon="2.51238">
        <ele>712.20001220703</ele>
        <time>2023-06-01T07:34:27.000Z</time>
      </trkpt>
      <trkpt lat="43.57114" lon="2.51237">
        <ele>712.40002441406</ele>
        <time>2023-06-01T07:34:29.000Z</time>
      </trkpt>
      <trkpt lat="43.57116" lon="2.51235">
        <ele>712.79998779297</ele>
        <time>2023-06-01T07:34:31.000Z</time>
      </trkpt>
      <trkpt lat="43.57119" lon="2.51235">
        <ele>713</ele>
        <time>2023-06-01T07:34:34.000Z</time>
      </trkpt>
      <trkpt lat="43.57125" lon="2.51233">
        <ele>713.20001220703</ele>
        <time>2023-06-01T07:34:41.000Z</time>
      </trkpt>
      <trkpt lat="43.5713" lon="2.51233">
        <ele>713.79998779297</ele>
        <time>2023-06-01T07:34:47.000Z</time>
      </trkpt>
      <trkpt lat="43.57133" lon="2.51234">
        <ele>714</ele>
        <time>2023-06-01T07:34:52.000Z</time>
      </trkpt>
      <trkpt lat="43.57139" lon="2.51236">
        <ele>714.20001220703</ele>
        <time>2023-06-01T07:34:58.000Z</time>
      </trkpt>
      <trkpt lat="43.57141" lon="2.51236">
        <ele>714.20001220703</ele>
        <time>2023-06-01T07:35:04.000Z</time>
      </trkpt>
      <trkpt lat="43.57144" lon="2.51236">
        <ele>714.20001220703</ele>
        <time>2023-06-01T07:35:05.000Z</time>
      </trkpt>
      <trkpt lat="43.57145" lon="2.51236">
        <ele>714.40002441406</ele>
        <time>2023-06-01T07:35:07.000Z</time>
      </trkpt>
      <trkpt lat="43.57148" lon="2.51237">
        <ele>714.40002441406</ele>
        <time>2023-06-01T07:35:10.000Z</time>
      </trkpt>
      <trkpt lat="43.57159" lon="2.51237">
        <ele>714.59997558594</ele>
        <time>2023-06-01T07:35:19.000Z</time>
      </trkpt>
      <trkpt lat="43.57167" lon="2.51236">
        <ele>715</ele>
        <time>2023-06-01T07:35:27.000Z</time>
      </trkpt>
      <trkpt lat="43.57169" lon="2.51235">
        <ele>715.20001220703</ele>
        <time>2023-06-01T07:35:29.000Z</time>
      </trkpt>
      <trkpt lat="43.5717" lon="2.51235">
        <ele>715.20001220703</ele>
        <time>2023-06-01T07:35:30.000Z</time>
      </trkpt>
      <trkpt lat="43.57173" lon="2.51233">
        <ele>715.59997558594</ele>
        <time>2023-06-01T07:35:34.000Z</time>
      </trkpt>
      <trkpt lat="43.57174" lon="2.51234">
        <ele>715.59997558594</ele>
        <time>2023-06-01T07:35:35.000Z</time>
      </trkpt>
      <trkpt lat="43.57175" lon="2.51233">
        <ele>715.79998779297</ele>
        <time>2023-06-01T07:35:36.000Z</time>
      </trkpt>
      <trkpt lat="43.57179" lon="2.5123">
        <ele>716.20001220703</ele>
        <time>2023-06-01T07:35:42.000Z</time>
      </trkpt>
      <trkpt lat="43.5718" lon="2.5123">
        <ele>716.40002441406</ele>
        <time>2023-06-01T07:35:43.000Z</time>
      </trkpt>
      <trkpt lat="43.57184" lon="2.51226">
        <ele>717</ele>
        <time>2023-06-01T07:35:50.000Z</time>
      </trkpt>
      <trkpt lat="43.57185" lon="2.51219">
        <ele>717.40002441406</ele>
        <time>2023-06-01T07:35:56.000Z</time>
      </trkpt>
      <trkpt lat="43.57186" lon="2.51218">
        <ele>717.59997558594</ele>
        <time>2023-06-01T07:35:58.000Z</time>
      </trkpt>
      <trkpt lat="43.57188" lon="2.51212">
        <ele>718.20001220703</ele>
        <time>2023-06-01T07:36:04.000Z</time>
      </trkpt>
      <trkpt lat="43.57189" lon="2.51211">
        <ele>718.20001220703</ele>
        <time>2023-06-01T07:36:05.000Z</time>
      </trkpt>
      <trkpt lat="43.5719" lon="2.51209">
        <ele>718.40002441406</ele>
        <time>2023-06-01T07:36:08.000Z</time>
      </trkpt>
      <trkpt lat="43.57191" lon="2.51208">
        <ele>718.59997558594</ele>
        <time>2023-06-01T07:36:10.000Z</time>
      </trkpt>
      <trkpt lat="43.57194" lon="2.512">
        <ele>719.40002441406</ele>
        <time>2023-06-01T07:36:18.000Z</time>
      </trkpt>
      <trkpt lat="43.57194" lon="2.51198">
        <ele>719.59997558594</ele>
        <time>2023-06-01T07:36:21.000Z</time>
      </trkpt>
      <trkpt lat="43.57196" lon="2.51193">
        <ele>720</ele>
        <time>2023-06-01T07:36:26.000Z</time>
      </trkpt>
      <trkpt lat="43.57198" lon="2.51189">
        <ele>720.59997558594</ele>
        <time>2023-06-01T07:36:31.000Z</time>
      </trkpt>
      <trkpt lat="43.57198" lon="2.51188">
        <ele>720.59997558594</ele>
        <time>2023-06-01T07:36:32.000Z</time>
      </trkpt>
      <trkpt lat="43.57199" lon="2.51184">
        <ele>720.79998779297</ele>
        <time>2023-06-01T07:36:37.000Z</time>
      </trkpt>
      <trkpt lat="43.57201" lon="2.51178">
        <ele>721.59997558594</ele>
        <time>2023-06-01T07:36:45.000Z</time>
      </trkpt>
      <trkpt lat="43.572" lon="2.51179">
        <ele>721.59997558594</ele>
        <time>2023-06-01T07:36:46.000Z</time>
      </trkpt>
      <trkpt lat="43.57203" lon="2.51174">
        <ele>722.20001220703</ele>
        <time>2023-06-01T07:36:51.000Z</time>
      </trkpt>
      <trkpt lat="43.57205" lon="2.51171">
        <ele>722.59997558594</ele>
        <time>2023-06-01T07:36:57.000Z</time>
      </trkpt>
      <trkpt lat="43.57206" lon="2.51164">
        <ele>723.20001220703</ele>
        <time>2023-06-01T07:37:05.000Z</time>
      </trkpt>
      <trkpt lat="43.57207" lon="2.51162">
        <ele>723.20001220703</ele>
        <time>2023-06-01T07:37:11.000Z</time>
      </trkpt>
      <trkpt lat="43.57211" lon="2.51155">
        <ele>723.20001220703</ele>
        <time>2023-06-01T07:37:17.000Z</time>
      </trkpt>
      <trkpt lat="43.57214" lon="2.51149">
        <ele>722.79998779297</ele>
        <time>2023-06-01T07:37:23.000Z</time>
      </trkpt>
      <trkpt lat="43.57215" lon="2.51147">
        <ele>722.59997558594</ele>
        <time>2023-06-01T07:37:25.000Z</time>
      </trkpt>
      <trkpt lat="43.57215" lon="2.51143">
        <ele>722.59997558594</ele>
        <time>2023-06-01T07:37:29.000Z</time>
      </trkpt>
      <trkpt lat="43.57218" lon="2.51135">
        <ele>722</ele>
        <time>2023-06-01T07:37:36.000Z</time>
      </trkpt>
      <trkpt lat="43.57218" lon="2.51132">
        <ele>722</ele>
        <time>2023-06-01T07:37:41.000Z</time>
      </trkpt>
      <trkpt lat="43.57218" lon="2.51131">
        <ele>721.59997558594</ele>
        <time>2023-06-01T07:37:46.000Z</time>
      </trkpt>
      <trkpt lat="43.57219" lon="2.51128">
        <ele>721.59997558594</ele>
        <time>2023-06-01T07:37:48.000Z</time>
      </trkpt>
      <trkpt lat="43.5722" lon="2.5112">
        <ele>721.40002441406</ele>
        <time>2023-06-01T07:37:53.000Z</time>
      </trkpt>
      <trkpt lat="43.57223" lon="2.51112">
        <ele>720.79998779297</ele>
        <time>2023-06-01T07:38:00.000Z</time>
      </trkpt>
      <trkpt lat="43.57224" lon="2.51108">
        <ele>720.59997558594</ele>
        <time>2023-06-01T07:38:04.000Z</time>
      </trkpt>
      <trkpt lat="43.57224" lon="2.51109">
        <ele>720.59997558594</ele>
        <time>2023-06-01T07:38:05.000Z</time>
      </trkpt>
      <trkpt lat="43.57226" lon="2.51102">
        <ele>720.79998779297</ele>
        <time>2023-06-01T07:38:15.000Z</time>
      </trkpt>
      <trkpt lat="43.57227" lon="2.51099">
        <ele>720.79998779297</ele>
        <time>2023-06-01T07:38:21.000Z</time>
      </trkpt>
      <trkpt lat="43.57228" lon="2.511">
        <ele>720.40002441406</ele>
        <time>2023-06-01T07:38:27.000Z</time>
      </trkpt>
      <trkpt lat="43.57228" lon="2.51101">
        <ele>720</ele>
        <time>2023-06-01T07:38:34.000Z</time>
      </trkpt>
      <trkpt lat="43.57229" lon="2.51096">
        <ele>720.20001220703</ele>
        <time>2023-06-01T07:38:42.000Z</time>
      </trkpt>
      <trkpt lat="43.57232" lon="2.51087">
        <ele>720.20001220703</ele>
        <time>2023-06-01T07:38:48.000Z</time>
      </trkpt>
      <trkpt lat="43.57235" lon="2.51081">
        <ele>720</ele>
        <time>2023-06-01T07:38:53.000Z</time>
      </trkpt>
      <trkpt lat="43.57238" lon="2.51073">
        <ele>720</ele>
        <time>2023-06-01T07:38:59.000Z</time>
      </trkpt>
      <trkpt lat="43.57239" lon="2.51071">
        <ele>720</ele>
        <time>2023-06-01T07:39:00.000Z</time>
      </trkpt>
      <trkpt lat="43.57242" lon="2.51066">
        <ele>720.20001220703</ele>
        <time>2023-06-01T07:39:05.000Z</time>
      </trkpt>
      <trkpt lat="43.57244" lon="2.51059">
        <ele>720</ele>
        <time>2023-06-01T07:39:10.000Z</time>
      </trkpt>
      <trkpt lat="43.57245" lon="2.51056">
        <ele>720</ele>
        <time>2023-06-01T07:39:13.000Z</time>
      </trkpt>
      <trkpt lat="43.57246" lon="2.51054">
        <ele>720</ele>
        <time>2023-06-01T07:39:15.000Z</time>
      </trkpt>
      <trkpt lat="43.57246" lon="2.51053">
        <ele>720.20001220703</ele>
        <time>2023-06-01T07:39:16.000Z</time>
      </trkpt>
      <trkpt lat="43.57247" lon="2.51046">
        <ele>720.40002441406</ele>
        <time>2023-06-01T07:39:21.000Z</time>
      </trkpt>
      <trkpt lat="43.57247" lon="2.51039">
        <ele>720.40002441406</ele>
        <time>2023-06-01T07:39:27.000Z</time>
      </trkpt>
      <trkpt lat="43.57247" lon="2.5103">
        <ele>720.20001220703</ele>
        <time>2023-06-01T07:39:34.000Z</time>
      </trkpt>
      <trkpt lat="43.57247" lon="2.51026">
        <ele>720.20001220703</ele>
        <time>2023-06-01T07:39:38.000Z</time>
      </trkpt>
      <trkpt lat="43.57246" lon="2.51023">
        <ele>720.20001220703</ele>
        <time>2023-06-01T07:39:39.000Z</time>
      </trkpt>
      <trkpt lat="43.57247" lon="2.51021">
        <ele>720.20001220703</ele>
        <time>2023-06-01T07:39:41.000Z</time>
      </trkpt>
      <trkpt lat="43.57247" lon="2.51016">
        <ele>720</ele>
        <time>2023-06-01T07:39:44.000Z</time>
      </trkpt>
      <trkpt lat="43.57247" lon="2.51011">
        <ele>719.59997558594</ele>
        <time>2023-06-01T07:39:47.000Z</time>
      </trkpt>
      <trkpt lat="43.57248" lon="2.5101">
        <ele>719.40002441406</ele>
        <time>2023-06-01T07:39:48.000Z</time>
      </trkpt>
      <trkpt lat="43.57249" lon="2.51006">
        <ele>718.59997558594</ele>
        <time>2023-06-01T07:39:52.000Z</time>
      </trkpt>
      <trkpt lat="43.5725" lon="2.51004">
        <ele>718.40002441406</ele>
        <time>2023-06-01T07:39:53.000Z</time>
      </trkpt>
      <trkpt lat="43.57252" lon="2.51">
        <ele>717.40002441406</ele>
        <time>2023-06-01T07:39:57.000Z</time>
      </trkpt>
      <trkpt lat="43.57252" lon="2.50999">
        <ele>717.20001220703</ele>
        <time>2023-06-01T07:39:58.000Z</time>
      </trkpt>
      <trkpt lat="43.57253" lon="2.50994">
        <ele>716.40002441406</ele>
        <time>2023-06-01T07:40:02.000Z</time>
      </trkpt>
      <trkpt lat="43.57253" lon="2.50993">
        <ele>716.20001220703</ele>
        <time>2023-06-01T07:40:03.000Z</time>
      </trkpt>
      <trkpt lat="43.57254" lon="2.50989">
        <ele>715.59997558594</ele>
        <time>2023-06-01T07:40:07.000Z</time>
      </trkpt>
      <trkpt lat="43.57254" lon="2.50987">
        <ele>715.20001220703</ele>
        <time>2023-06-01T07:40:09.000Z</time>
      </trkpt>
      <trkpt lat="43.57255" lon="2.50985">
        <ele>715</ele>
        <time>2023-06-01T07:40:11.000Z</time>
      </trkpt>
      <trkpt lat="43.57255" lon="2.50982">
        <ele>714.79998779297</ele>
        <time>2023-06-01T07:40:13.000Z</time>
      </trkpt>
      <trkpt lat="43.57254" lon="2.50978">
        <ele>714.40002441406</ele>
        <time>2023-06-01T07:40:17.000Z</time>
      </trkpt>
      <trkpt lat="43.57254" lon="2.50976">
        <ele>714.20001220703</ele>
        <time>2023-06-01T07:40:18.000Z</time>
      </trkpt>
      <trkpt lat="43.57254" lon="2.5097">
        <ele>713.59997558594</ele>
        <time>2023-06-01T07:40:22.000Z</time>
      </trkpt>
      <trkpt lat="43.57254" lon="2.50966">
        <ele>713.40002441406</ele>
        <time>2023-06-01T07:40:24.000Z</time>
      </trkpt>
      <trkpt lat="43.57254" lon="2.50962">
        <ele>713.20001220703</ele>
        <time>2023-06-01T07:40:26.000Z</time>
      </trkpt>
      <trkpt lat="43.57254" lon="2.50958">
        <ele>712.59997558594</ele>
        <time>2023-06-01T07:40:29.000Z</time>
      </trkpt>
      <trkpt lat="43.57254" lon="2.50957">
        <ele>712.59997558594</ele>
        <time>2023-06-01T07:40:30.000Z</time>
      </trkpt>
      <trkpt lat="43.57256" lon="2.50953">
        <ele>712</ele>
        <time>2023-06-01T07:40:33.000Z</time>
      </trkpt>
      <trkpt lat="43.57257" lon="2.50951">
        <ele>711.59997558594</ele>
        <time>2023-06-01T07:40:38.000Z</time>
      </trkpt>
      <trkpt lat="43.57257" lon="2.50949">
        <ele>711.59997558594</ele>
        <time>2023-06-01T07:40:39.000Z</time>
      </trkpt>
      <trkpt lat="43.57259" lon="2.50942">
        <ele>711</ele>
        <time>2023-06-01T07:40:44.000Z</time>
      </trkpt>
      <trkpt lat="43.57259" lon="2.5094">
        <ele>711</ele>
        <time>2023-06-01T07:40:45.000Z</time>
      </trkpt>
      <trkpt lat="43.57259" lon="2.50934">
        <ele>710.40002441406</ele>
        <time>2023-06-01T07:40:50.000Z</time>
      </trkpt>
      <trkpt lat="43.5726" lon="2.50926">
        <ele>709.79998779297</ele>
        <time>2023-06-01T07:40:54.000Z</time>
      </trkpt>
      <trkpt lat="43.57261" lon="2.50924">
        <ele>709.79998779297</ele>
        <time>2023-06-01T07:40:55.000Z</time>
      </trkpt>
      <trkpt lat="43.57261" lon="2.50922">
        <ele>709.59997558594</ele>
        <time>2023-06-01T07:40:56.000Z</time>
      </trkpt>
      <trkpt lat="43.57263" lon="2.50916">
        <ele>709.20001220703</ele>
        <time>2023-06-01T07:41:01.000Z</time>
      </trkpt>
      <trkpt lat="43.57263" lon="2.50913">
        <ele>708.79998779297</ele>
        <time>2023-06-01T07:41:03.000Z</time>
      </trkpt>
      <trkpt lat="43.57263" lon="2.50911">
        <ele>708.59997558594</ele>
        <time>2023-06-01T07:41:05.000Z</time>
      </trkpt>
      <trkpt lat="43.57264" lon="2.50909">
        <ele>708.40002441406</ele>
        <time>2023-06-01T07:41:07.000Z</time>
      </trkpt>
      <trkpt lat="43.57264" lon="2.50905">
        <ele>708</ele>
        <time>2023-06-01T07:41:11.000Z</time>
      </trkpt>
      <trkpt lat="43.57264" lon="2.50904">
        <ele>708</ele>
        <time>2023-06-01T07:41:12.000Z</time>
      </trkpt>
      <trkpt lat="43.57262" lon="2.509">
        <ele>707.79998779297</ele>
        <time>2023-06-01T07:41:15.000Z</time>
      </trkpt>
      <trkpt lat="43.57261" lon="2.50898">
        <ele>707.79998779297</ele>
        <time>2023-06-01T07:41:16.000Z</time>
      </trkpt>
      <trkpt lat="43.5726" lon="2.50894">
        <ele>707.59997558594</ele>
        <time>2023-06-01T07:41:20.000Z</time>
      </trkpt>
      <trkpt lat="43.57256" lon="2.50889">
        <ele>707.40002441406</ele>
        <time>2023-06-01T07:41:25.000Z</time>
      </trkpt>
      <trkpt lat="43.57255" lon="2.50887">
        <ele>707.20001220703</ele>
        <time>2023-06-01T07:41:26.000Z</time>
      </trkpt>
      <trkpt lat="43.57253" lon="2.50885">
        <ele>707</ele>
        <time>2023-06-01T07:41:28.000Z</time>
      </trkpt>
      <trkpt lat="43.57252" lon="2.50883">
        <ele>707</ele>
        <time>2023-06-01T07:41:31.000Z</time>
      </trkpt>
      <trkpt lat="43.57251" lon="2.50881">
        <ele>707</ele>
        <time>2023-06-01T07:41:33.000Z</time>
      </trkpt>
      <trkpt lat="43.57249" lon="2.50878">
        <ele>706.79998779297</ele>
        <time>2023-06-01T07:41:35.000Z</time>
      </trkpt>
      <trkpt lat="43.5725" lon="2.50876">
        <ele>706.79998779297</ele>
        <time>2023-06-01T07:41:36.000Z</time>
      </trkpt>
      <trkpt lat="43.57249" lon="2.50874">
        <ele>706.59997558594</ele>
        <time>2023-06-01T07:41:38.000Z</time>
      </trkpt>
      <trkpt lat="43.57247" lon="2.50867">
        <ele>706.59997558594</ele>
        <time>2023-06-01T07:41:42.000Z</time>
      </trkpt>
      <trkpt lat="43.57247" lon="2.50858">
        <ele>706.59997558594</ele>
        <time>2023-06-01T07:41:49.000Z</time>
      </trkpt>
      <trkpt lat="43.57247" lon="2.50856">
        <ele>706.59997558594</ele>
        <time>2023-06-01T07:41:51.000Z</time>
      </trkpt>
      <trkpt lat="43.57248" lon="2.5085">
        <ele>706.79998779297</ele>
        <time>2023-06-01T07:41:56.000Z</time>
      </trkpt>
      <trkpt lat="43.57247" lon="2.50845">
        <ele>706.79998779297</ele>
        <time>2023-06-01T07:42:00.000Z</time>
      </trkpt>
      <trkpt lat="43.57247" lon="2.50845">
        <ele>706.79998779297</ele>
        <time>2023-06-01T07:42:01.000Z</time>
      </trkpt>
      <trkpt lat="43.57246" lon="2.50843">
        <ele>707.20001220703</ele>
        <time>2023-06-01T07:42:10.000Z</time>
      </trkpt>
      <trkpt lat="43.57245" lon="2.5084">
        <ele>706.40002441406</ele>
        <time>2023-06-01T07:42:18.000Z</time>
      </trkpt>
      <trkpt lat="43.57244" lon="2.50841">
        <ele>706.79998779297</ele>
        <time>2023-06-01T07:42:24.000Z</time>
      </trkpt>
      <trkpt lat="43.5724" lon="2.50839">
        <ele>706.79998779297</ele>
        <time>2023-06-01T07:42:30.000Z</time>
      </trkpt>
      <trkpt lat="43.5724" lon="2.50838">
        <ele>706.59997558594</ele>
        <time>2023-06-01T07:42:37.000Z</time>
      </trkpt>
      <trkpt lat="43.57241" lon="2.50838">
        <ele>706.79998779297</ele>
        <time>2023-06-01T07:42:46.000Z</time>
      </trkpt>
      <trkpt lat="43.57241" lon="2.50836">
        <ele>707.20001220703</ele>
        <time>2023-06-01T07:42:53.000Z</time>
      </trkpt>
      <trkpt lat="43.57238" lon="2.50832">
        <ele>706.79998779297</ele>
        <time>2023-06-01T07:42:58.000Z</time>
      </trkpt>
      <trkpt lat="43.57232" lon="2.50825">
        <ele>706.79998779297</ele>
        <time>2023-06-01T07:43:05.000Z</time>
      </trkpt>
      <trkpt lat="43.57228" lon="2.50818">
        <ele>706.59997558594</ele>
        <time>2023-06-01T07:43:11.000Z</time>
      </trkpt>
      <trkpt lat="43.57227" lon="2.50814">
        <ele>706.59997558594</ele>
        <time>2023-06-01T07:43:15.000Z</time>
      </trkpt>
      <trkpt lat="43.57226" lon="2.50812">
        <ele>706.59997558594</ele>
        <time>2023-06-01T07:43:17.000Z</time>
      </trkpt>
      <trkpt lat="43.57224" lon="2.50808">
        <ele>706.59997558594</ele>
        <time>2023-06-01T07:43:20.000Z</time>
      </trkpt>
      <trkpt lat="43.57224" lon="2.50803">
        <ele>706.79998779297</ele>
        <time>2023-06-01T07:43:23.000Z</time>
      </trkpt>
      <trkpt lat="43.57222" lon="2.5079">
        <ele>707.40002441406</ele>
        <time>2023-06-01T07:43:31.000Z</time>
      </trkpt>
      <trkpt lat="43.57222" lon="2.50784">
        <ele>707.79998779297</ele>
        <time>2023-06-01T07:43:35.000Z</time>
      </trkpt>
      <trkpt lat="43.57222" lon="2.50782">
        <ele>708</ele>
        <time>2023-06-01T07:43:37.000Z</time>
      </trkpt>
      <trkpt lat="43.57223" lon="2.5077">
        <ele>708.59997558594</ele>
        <time>2023-06-01T07:43:44.000Z</time>
      </trkpt>
      <trkpt lat="43.57222" lon="2.50768">
        <ele>708.79998779297</ele>
        <time>2023-06-01T07:43:46.000Z</time>
      </trkpt>
      <trkpt lat="43.57222" lon="2.50762">
        <ele>709.20001220703</ele>
        <time>2023-06-01T07:43:51.000Z</time>
      </trkpt>
      <trkpt lat="43.57221" lon="2.50758">
        <ele>709.79998779297</ele>
        <time>2023-06-01T07:43:57.000Z</time>
      </trkpt>
      <trkpt lat="43.5722" lon="2.50756">
        <ele>710</ele>
        <time>2023-06-01T07:43:59.000Z</time>
      </trkpt>
      <trkpt lat="43.57219" lon="2.50749">
        <ele>710.79998779297</ele>
        <time>2023-06-01T07:44:06.000Z</time>
      </trkpt>
      <trkpt lat="43.57219" lon="2.50747">
        <ele>711</ele>
        <time>2023-06-01T07:44:07.000Z</time>
      </trkpt>
      <trkpt lat="43.57219" lon="2.50743">
        <ele>711.20001220703</ele>
        <time>2023-06-01T07:44:12.000Z</time>
      </trkpt>
      <trkpt lat="43.57218" lon="2.50739">
        <ele>712</ele>
        <time>2023-06-01T07:44:17.000Z</time>
      </trkpt>
      <trkpt lat="43.57218" lon="2.50739">
        <ele>712.20001220703</ele>
        <time>2023-06-01T07:44:18.000Z</time>
      </trkpt>
      <trkpt lat="43.57218" lon="2.50734">
        <ele>712.79998779297</ele>
        <time>2023-06-01T07:44:24.000Z</time>
      </trkpt>
      <trkpt lat="43.57218" lon="2.50732">
        <ele>713</ele>
        <time>2023-06-01T07:44:27.000Z</time>
      </trkpt>
      <trkpt lat="43.57217" lon="2.50726">
        <ele>712.79998779297</ele>
        <time>2023-06-01T07:44:31.000Z</time>
      </trkpt>
      <trkpt lat="43.57215" lon="2.50717">
        <ele>713.40002441406</ele>
        <time>2023-06-01T07:44:40.000Z</time>
      </trkpt>
      <trkpt lat="43.57214" lon="2.50711">
        <ele>714</ele>
        <time>2023-06-01T07:44:46.000Z</time>
      </trkpt>
      <trkpt lat="43.57214" lon="2.5071">
        <ele>714</ele>
        <time>2023-06-01T07:44:47.000Z</time>
      </trkpt>
      <trkpt lat="43.57213" lon="2.50703">
        <ele>714.59997558594</ele>
        <time>2023-06-01T07:44:54.000Z</time>
      </trkpt>
      <trkpt lat="43.57213" lon="2.50699">
        <ele>715.20001220703</ele>
        <time>2023-06-01T07:44:58.000Z</time>
      </trkpt>
      <trkpt lat="43.57213" lon="2.50699">
        <ele>715.40002441406</ele>
        <time>2023-06-01T07:45:00.000Z</time>
      </trkpt>
      <trkpt lat="43.57212" lon="2.50693">
        <ele>715.79998779297</ele>
        <time>2023-06-01T07:45:07.000Z</time>
      </trkpt>
      <trkpt lat="43.5721" lon="2.50686">
        <ele>716.20001220703</ele>
        <time>2023-06-01T07:45:13.000Z</time>
      </trkpt>
      <trkpt lat="43.5721" lon="2.50686">
        <ele>716.20001220703</ele>
        <time>2023-06-01T07:45:14.000Z</time>
      </trkpt>
      <trkpt lat="43.57208" lon="2.50681">
        <ele>716.79998779297</ele>
        <time>2023-06-01T07:45:20.000Z</time>
      </trkpt>
      <trkpt lat="43.57207" lon="2.50678">
        <ele>717.20001220703</ele>
        <time>2023-06-01T07:45:23.000Z</time>
      </trkpt>
      <trkpt lat="43.57206" lon="2.50675">
        <ele>717.59997558594</ele>
        <time>2023-06-01T07:45:27.000Z</time>
      </trkpt>
      <trkpt lat="43.57202" lon="2.50668">
        <ele>717.79998779297</ele>
        <time>2023-06-01T07:45:35.000Z</time>
      </trkpt>
      <trkpt lat="43.57201" lon="2.50665">
        <ele>718.20001220703</ele>
        <time>2023-06-01T07:45:39.000Z</time>
      </trkpt>
      <trkpt lat="43.57201" lon="2.50664">
        <ele>718.40002441406</ele>
        <time>2023-06-01T07:45:41.000Z</time>
      </trkpt>
      <trkpt lat="43.57199" lon="2.50659">
        <ele>718.79998779297</ele>
        <time>2023-06-01T07:45:48.000Z</time>
      </trkpt>
      <trkpt lat="43.57198" lon="2.50656">
        <ele>719.40002441406</ele>
        <time>2023-06-01T07:45:54.000Z</time>
      </trkpt>
      <trkpt lat="43.57197" lon="2.50656">
        <ele>719.40002441406</ele>
        <time>2023-06-01T07:45:55.000Z</time>
      </trkpt>
      <trkpt lat="43.57198" lon="2.50655">
        <ele>719.59997558594</ele>
        <time>2023-06-01T07:46:01.000Z</time>
      </trkpt>
      <trkpt lat="43.57195" lon="2.50649">
        <ele>719.40002441406</ele>
        <time>2023-06-01T07:46:07.000Z</time>
      </trkpt>
      <trkpt lat="43.57192" lon="2.50643">
        <ele>719.40002441406</ele>
        <time>2023-06-01T07:46:13.000Z</time>
      </trkpt>
      <trkpt lat="43.57191" lon="2.50638">
        <ele>720</ele>
        <time>2023-06-01T07:46:20.000Z</time>
      </trkpt>
      <trkpt lat="43.57191" lon="2.50635">
        <ele>720.40002441406</ele>
        <time>2023-06-01T07:46:25.000Z</time>
      </trkpt>
      <trkpt lat="43.57191" lon="2.50631">
        <ele>721</ele>
        <time>2023-06-01T07:46:30.000Z</time>
      </trkpt>
      <trkpt lat="43.5719" lon="2.5063">
        <ele>721.59997558594</ele>
        <time>2023-06-01T07:46:35.000Z</time>
      </trkpt>
      <trkpt lat="43.57189" lon="2.50627">
        <ele>721.59997558594</ele>
        <time>2023-06-01T07:46:36.000Z</time>
      </trkpt>
      <trkpt lat="43.57187" lon="2.50618">
        <ele>722.40002441406</ele>
        <time>2023-06-01T07:46:43.000Z</time>
      </trkpt>
      <trkpt lat="43.57187" lon="2.50615">
        <ele>722.59997558594</ele>
        <time>2023-06-01T07:46:45.000Z</time>
      </trkpt>
      <trkpt lat="43.57187" lon="2.50613">
        <ele>722.79998779297</ele>
        <time>2023-06-01T07:46:47.000Z</time>
      </trkpt>
      <trkpt lat="43.57187" lon="2.50609">
        <ele>723.20001220703</ele>
        <time>2023-06-01T07:46:50.000Z</time>
      </trkpt>
      <trkpt lat="43.57187" lon="2.50606">
        <ele>723.59997558594</ele>
        <time>2023-06-01T07:46:52.000Z</time>
      </trkpt>
      <trkpt lat="43.57187" lon="2.50601">
        <ele>724.20001220703</ele>
        <time>2023-06-01T07:46:56.000Z</time>
      </trkpt>
      <trkpt lat="43.57189" lon="2.50596">
        <ele>724.40002441406</ele>
        <time>2023-06-01T07:47:00.000Z</time>
      </trkpt>
      <trkpt lat="43.57189" lon="2.50594">
        <ele>724.40002441406</ele>
        <time>2023-06-01T07:47:02.000Z</time>
      </trkpt>
      <trkpt lat="43.5719" lon="2.50591">
        <ele>724.40002441406</ele>
        <time>2023-06-01T07:47:04.000Z</time>
      </trkpt>
      <trkpt lat="43.5719" lon="2.50589">
        <ele>724.59997558594</ele>
        <time>2023-06-01T07:47:06.000Z</time>
      </trkpt>
      <trkpt lat="43.57191" lon="2.50587">
        <ele>724.59997558594</ele>
        <time>2023-06-01T07:47:09.000Z</time>
      </trkpt>
      <trkpt lat="43.57191" lon="2.50585">
        <ele>724.59997558594</ele>
        <time>2023-06-01T07:47:10.000Z</time>
      </trkpt>
      <trkpt lat="43.57192" lon="2.5058">
        <ele>724.40002441406</ele>
        <time>2023-06-01T07:47:14.000Z</time>
      </trkpt>
      <trkpt lat="43.57193" lon="2.50575">
        <ele>724.40002441406</ele>
        <time>2023-06-01T07:47:18.000Z</time>
      </trkpt>
      <trkpt lat="43.57194" lon="2.50569">
        <ele>724.40002441406</ele>
        <time>2023-06-01T07:47:22.000Z</time>
      </trkpt>
      <trkpt lat="43.57195" lon="2.50562">
        <ele>724.40002441406</ele>
        <time>2023-06-01T07:47:28.000Z</time>
      </trkpt>
      <trkpt lat="43.57198" lon="2.50552">
        <ele>724.20001220703</ele>
        <time>2023-06-01T07:47:35.000Z</time>
      </trkpt>
      <trkpt lat="43.57202" lon="2.50544">
        <ele>724.20001220703</ele>
        <time>2023-06-01T07:47:42.000Z</time>
      </trkpt>
      <trkpt lat="43.57207" lon="2.50538">
        <ele>724.40002441406</ele>
        <time>2023-06-01T07:47:49.000Z</time>
      </trkpt>
      <trkpt lat="43.57209" lon="2.50535">
        <ele>724.40002441406</ele>
        <time>2023-06-01T07:47:52.000Z</time>
      </trkpt>
      <trkpt lat="43.5721" lon="2.50533">
        <ele>724.40002441406</ele>
        <time>2023-06-01T07:47:54.000Z</time>
      </trkpt>
      <trkpt lat="43.57214" lon="2.50524">
        <ele>725</ele>
        <time>2023-06-01T07:48:01.000Z</time>
      </trkpt>
      <trkpt lat="43.57215" lon="2.50523">
        <ele>725</ele>
        <time>2023-06-01T07:48:02.000Z</time>
      </trkpt>
      <trkpt lat="43.57215" lon="2.50522">
        <ele>725.20001220703</ele>
        <time>2023-06-01T07:48:03.000Z</time>
      </trkpt>
      <trkpt lat="43.57217" lon="2.50517">
        <ele>725.20001220703</ele>
        <time>2023-06-01T07:48:07.000Z</time>
      </trkpt>
      <trkpt lat="43.57219" lon="2.50516">
        <ele>725.20001220703</ele>
        <time>2023-06-01T07:48:13.000Z</time>
      </trkpt>
      <trkpt lat="43.57219" lon="2.50512">
        <ele>725.20001220703</ele>
        <time>2023-06-01T07:48:14.000Z</time>
      </trkpt>
      <trkpt lat="43.57219" lon="2.50504">
        <ele>725.20001220703</ele>
        <time>2023-06-01T07:48:18.000Z</time>
      </trkpt>
      <trkpt lat="43.57218" lon="2.50493">
        <ele>725.20001220703</ele>
        <time>2023-06-01T07:48:25.000Z</time>
      </trkpt>
      <trkpt lat="43.57218" lon="2.50489">
        <ele>725.20001220703</ele>
        <time>2023-06-01T07:48:28.000Z</time>
      </trkpt>
      <trkpt lat="43.57218" lon="2.50484">
        <ele>725.20001220703</ele>
        <time>2023-06-01T07:48:31.000Z</time>
      </trkpt>
      <trkpt lat="43.57217" lon="2.50474">
        <ele>725</ele>
        <time>2023-06-01T07:48:37.000Z</time>
      </trkpt>
      <trkpt lat="43.57217" lon="2.50469">
        <ele>724.79998779297</ele>
        <time>2023-06-01T07:48:40.000Z</time>
      </trkpt>
      <trkpt lat="43.57218" lon="2.50467">
        <ele>724.79998779297</ele>
        <time>2023-06-01T07:48:42.000Z</time>
      </trkpt>
      <trkpt lat="43.57218" lon="2.50464">
        <ele>724.79998779297</ele>
        <time>2023-06-01T07:48:44.000Z</time>
      </trkpt>
      <trkpt lat="43.57218" lon="2.50459">
        <ele>725</ele>
        <time>2023-06-01T07:48:48.000Z</time>
      </trkpt>
      <trkpt lat="43.57218" lon="2.50452">
        <ele>725</ele>
        <time>2023-06-01T07:48:53.000Z</time>
      </trkpt>
      <trkpt lat="43.57218" lon="2.50445">
        <ele>725.20001220703</ele>
        <time>2023-06-01T07:48:58.000Z</time>
      </trkpt>
      <trkpt lat="43.57218" lon="2.50444">
        <ele>725.20001220703</ele>
        <time>2023-06-01T07:48:59.000Z</time>
      </trkpt>
      <trkpt lat="43.57219" lon="2.50434">
        <ele>725</ele>
        <time>2023-06-01T07:49:06.000Z</time>
      </trkpt>
      <trkpt lat="43.5722" lon="2.50428">
        <ele>724.79998779297</ele>
        <time>2023-06-01T07:49:11.000Z</time>
      </trkpt>
      <trkpt lat="43.5722" lon="2.50425">
        <ele>724.79998779297</ele>
        <time>2023-06-01T07:49:14.000Z</time>
      </trkpt>
      <trkpt lat="43.5722" lon="2.50423">
        <ele>724.59997558594</ele>
        <time>2023-06-01T07:49:15.000Z</time>
      </trkpt>
      <trkpt lat="43.57222" lon="2.50416">
        <ele>724.40002441406</ele>
        <time>2023-06-01T07:49:21.000Z</time>
      </trkpt>
      <trkpt lat="43.57221" lon="2.50416">
        <ele>724.40002441406</ele>
        <time>2023-06-01T07:49:22.000Z</time>
      </trkpt>
      <trkpt lat="43.57221" lon="2.50411">
        <ele>724.40002441406</ele>
        <time>2023-06-01T07:49:27.000Z</time>
      </trkpt>
      <trkpt lat="43.57222" lon="2.50406">
        <ele>724.59997558594</ele>
        <time>2023-06-01T07:49:32.000Z</time>
      </trkpt>
      <trkpt lat="43.57221" lon="2.50399">
        <ele>725.20001220703</ele>
        <time>2023-06-01T07:49:38.000Z</time>
      </trkpt>
      <trkpt lat="43.5722" lon="2.50392">
        <ele>725.59997558594</ele>
        <time>2023-06-01T07:49:44.000Z</time>
      </trkpt>
      <trkpt lat="43.57219" lon="2.5039">
        <ele>725.79998779297</ele>
        <time>2023-06-01T07:49:47.000Z</time>
      </trkpt>
      <trkpt lat="43.57218" lon="2.50382">
        <ele>725.79998779297</ele>
        <time>2023-06-01T07:49:51.000Z</time>
      </trkpt>
      <trkpt lat="43.57218" lon="2.5038">
        <ele>725.59997558594</ele>
        <time>2023-06-01T07:49:52.000Z</time>
      </trkpt>
      <trkpt lat="43.57218" lon="2.50373">
        <ele>725.59997558594</ele>
        <time>2023-06-01T07:49:57.000Z</time>
      </trkpt>
      <trkpt lat="43.57219" lon="2.50361">
        <ele>725.40002441406</ele>
        <time>2023-06-01T07:50:04.000Z</time>
      </trkpt>
      <trkpt lat="43.57219" lon="2.50349">
        <ele>725.40002441406</ele>
        <time>2023-06-01T07:50:11.000Z</time>
      </trkpt>
      <trkpt lat="43.5722" lon="2.50343">
        <ele>725.40002441406</ele>
        <time>2023-06-01T07:50:15.000Z</time>
      </trkpt>
      <trkpt lat="43.5722" lon="2.50337">
        <ele>725.59997558594</ele>
        <time>2023-06-01T07:50:19.000Z</time>
      </trkpt>
      <trkpt lat="43.5722" lon="2.50335">
        <ele>725.59997558594</ele>
        <time>2023-06-01T07:50:20.000Z</time>
      </trkpt>
      <trkpt lat="43.5722" lon="2.50333">
        <ele>725.59997558594</ele>
        <time>2023-06-01T07:50:21.000Z</time>
      </trkpt>
      <trkpt lat="43.57221" lon="2.50328">
        <ele>725.59997558594</ele>
        <time>2023-06-01T07:50:25.000Z</time>
      </trkpt>
      <trkpt lat="43.57221" lon="2.50321">
        <ele>725.59997558594</ele>
        <time>2023-06-01T07:50:30.000Z</time>
      </trkpt>
      <trkpt lat="43.57221" lon="2.5032">
        <ele>725.40002441406</ele>
        <time>2023-06-01T07:50:31.000Z</time>
      </trkpt>
      <trkpt lat="43.57222" lon="2.50315">
        <ele>725.40002441406</ele>
        <time>2023-06-01T07:50:34.000Z</time>
      </trkpt>
      <trkpt lat="43.57222" lon="2.50309">
        <ele>725.40002441406</ele>
        <time>2023-06-01T07:50:38.000Z</time>
      </trkpt>
      <trkpt lat="43.57223" lon="2.50303">
        <ele>725.40002441406</ele>
        <time>2023-06-01T07:50:42.000Z</time>
      </trkpt>
      <trkpt lat="43.57224" lon="2.50295">
        <ele>725.40002441406</ele>
        <time>2023-06-01T07:50:47.000Z</time>
      </trkpt>
      <trkpt lat="43.57225" lon="2.50285">
        <ele>726</ele>
        <time>2023-06-01T07:50:54.000Z</time>
      </trkpt>
      <trkpt lat="43.57226" lon="2.50276">
        <ele>725.79998779297</ele>
        <time>2023-06-01T07:51:00.000Z</time>
      </trkpt>
      <trkpt lat="43.57226" lon="2.50275">
        <ele>725.79998779297</ele>
        <time>2023-06-01T07:51:01.000Z</time>
      </trkpt>
      <trkpt lat="43.57227" lon="2.50267">
        <ele>725.59997558594</ele>
        <time>2023-06-01T07:51:07.000Z</time>
      </trkpt>
      <trkpt lat="43.57227" lon="2.50261">
        <ele>725.40002441406</ele>
        <time>2023-06-01T07:51:13.000Z</time>
      </trkpt>
      <trkpt lat="43.57228" lon="2.50257">
        <ele>725.40002441406</ele>
        <time>2023-06-01T07:51:16.000Z</time>
      </trkpt>
      <trkpt lat="43.57228" lon="2.50253">
        <ele>725.40002441406</ele>
        <time>2023-06-01T07:51:20.000Z</time>
      </trkpt>
      <trkpt lat="43.57228" lon="2.50241">
        <ele>725.59997558594</ele>
        <time>2023-06-01T07:51:27.000Z</time>
      </trkpt>
      <trkpt lat="43.5723" lon="2.50233">
        <ele>725.59997558594</ele>
        <time>2023-06-01T07:51:34.000Z</time>
      </trkpt>
      <trkpt lat="43.57229" lon="2.50232">
        <ele>725.59997558594</ele>
        <time>2023-06-01T07:51:35.000Z</time>
      </trkpt>
      <trkpt lat="43.5723" lon="2.50223">
        <ele>725.59997558594</ele>
        <time>2023-06-01T07:51:41.000Z</time>
      </trkpt>
      <trkpt lat="43.5723" lon="2.50222">
        <ele>725.79998779297</ele>
        <time>2023-06-01T07:51:42.000Z</time>
      </trkpt>
      <trkpt lat="43.5723" lon="2.50218">
        <ele>725.59997558594</ele>
        <time>2023-06-01T07:51:49.000Z</time>
      </trkpt>
      <trkpt lat="43.57231" lon="2.50208">
        <ele>725.59997558594</ele>
        <time>2023-06-01T07:51:54.000Z</time>
      </trkpt>
      <trkpt lat="43.57233" lon="2.502">
        <ele>725.79998779297</ele>
        <time>2023-06-01T07:52:01.000Z</time>
      </trkpt>
      <trkpt lat="43.57233" lon="2.50194">
        <ele>725.79998779297</ele>
        <time>2023-06-01T07:52:05.000Z</time>
      </trkpt>
      <trkpt lat="43.57234" lon="2.50189">
        <ele>725.79998779297</ele>
        <time>2023-06-01T07:52:08.000Z</time>
      </trkpt>
      <trkpt lat="43.57234" lon="2.50185">
        <ele>726</ele>
        <time>2023-06-01T07:52:10.000Z</time>
      </trkpt>
      <trkpt lat="43.57234" lon="2.5018">
        <ele>726.20001220703</ele>
        <time>2023-06-01T07:52:13.000Z</time>
      </trkpt>
      <trkpt lat="43.57234" lon="2.50179">
        <ele>726.20001220703</ele>
        <time>2023-06-01T07:52:14.000Z</time>
      </trkpt>
      <trkpt lat="43.57236" lon="2.50172">
        <ele>726.40002441406</ele>
        <time>2023-06-01T07:52:19.000Z</time>
      </trkpt>
      <trkpt lat="43.57236" lon="2.50164">
        <ele>726.59997558594</ele>
        <time>2023-06-01T07:52:25.000Z</time>
      </trkpt>
      <trkpt lat="43.57238" lon="2.50158">
        <ele>726.59997558594</ele>
        <time>2023-06-01T07:52:31.000Z</time>
      </trkpt>
      <trkpt lat="43.57239" lon="2.50154">
        <ele>726.79998779297</ele>
        <time>2023-06-01T07:52:35.000Z</time>
      </trkpt>
      <trkpt lat="43.5724" lon="2.5015">
        <ele>726.79998779297</ele>
        <time>2023-06-01T07:52:38.000Z</time>
      </trkpt>
      <trkpt lat="43.57241" lon="2.50148">
        <ele>726.59997558594</ele>
        <time>2023-06-01T07:52:41.000Z</time>
      </trkpt>
      <trkpt lat="43.57242" lon="2.50143">
        <ele>726.59997558594</ele>
        <time>2023-06-01T07:52:45.000Z</time>
      </trkpt>
      <trkpt lat="43.57244" lon="2.50136">
        <ele>726.79998779297</ele>
        <time>2023-06-01T07:52:52.000Z</time>
      </trkpt>
      <trkpt lat="43.57244" lon="2.50129">
        <ele>726.79998779297</ele>
        <time>2023-06-01T07:52:56.000Z</time>
      </trkpt>
      <trkpt lat="43.57243" lon="2.50123">
        <ele>726.59997558594</ele>
        <time>2023-06-01T07:52:59.000Z</time>
      </trkpt>
      <trkpt lat="43.57245" lon="2.50115">
        <ele>726.59997558594</ele>
        <time>2023-06-01T07:53:04.000Z</time>
      </trkpt>
      <trkpt lat="43.57246" lon="2.50105">
        <ele>726.59997558594</ele>
        <time>2023-06-01T07:53:10.000Z</time>
      </trkpt>
      <trkpt lat="43.57246" lon="2.50106">
        <ele>726.40002441406</ele>
        <time>2023-06-01T07:53:11.000Z</time>
      </trkpt>
      <trkpt lat="43.57247" lon="2.501">
        <ele>726.40002441406</ele>
        <time>2023-06-01T07:53:14.000Z</time>
      </trkpt>
      <trkpt lat="43.57247" lon="2.50089">
        <ele>726.20001220703</ele>
        <time>2023-06-01T07:53:20.000Z</time>
      </trkpt>
      <trkpt lat="43.57247" lon="2.50086">
        <ele>726.20001220703</ele>
        <time>2023-06-01T07:53:22.000Z</time>
      </trkpt>
      <trkpt lat="43.57248" lon="2.50079">
        <ele>726.20001220703</ele>
        <time>2023-06-01T07:53:27.000Z</time>
      </trkpt>
      <trkpt lat="43.57249" lon="2.50068">
        <ele>726.40002441406</ele>
        <time>2023-06-01T07:53:34.000Z</time>
      </trkpt>
      <trkpt lat="43.5725" lon="2.50064">
        <ele>726.59997558594</ele>
        <time>2023-06-01T07:53:37.000Z</time>
      </trkpt>
      <trkpt lat="43.57251" lon="2.50058">
        <ele>726.40002441406</ele>
        <time>2023-06-01T07:53:41.000Z</time>
      </trkpt>
      <trkpt lat="43.57253" lon="2.50051">
        <ele>726.59997558594</ele>
        <time>2023-06-01T07:53:46.000Z</time>
      </trkpt>
      <trkpt lat="43.57253" lon="2.50041">
        <ele>726.59997558594</ele>
        <time>2023-06-01T07:53:52.000Z</time>
      </trkpt>
      <trkpt lat="43.57254" lon="2.50032">
        <ele>726.79998779297</ele>
        <time>2023-06-01T07:53:59.000Z</time>
      </trkpt>
      <trkpt lat="43.57254" lon="2.5003">
        <ele>726.79998779297</ele>
        <time>2023-06-01T07:54:00.000Z</time>
      </trkpt>
      <trkpt lat="43.57253" lon="2.50024">
        <ele>727</ele>
        <time>2023-06-01T07:54:04.000Z</time>
      </trkpt>
      <trkpt lat="43.57253" lon="2.50022">
        <ele>727</ele>
        <time>2023-06-01T07:54:05.000Z</time>
      </trkpt>
      <trkpt lat="43.57253" lon="2.5002">
        <ele>727.59997558594</ele>
        <time>2023-06-01T07:54:12.000Z</time>
      </trkpt>
      <trkpt lat="43.57252" lon="2.50013">
        <ele>727.59997558594</ele>
        <time>2023-06-01T07:54:21.000Z</time>
      </trkpt>
      <trkpt lat="43.57251" lon="2.50009">
        <ele>727.20001220703</ele>
        <time>2023-06-01T07:54:28.000Z</time>
      </trkpt>
      <trkpt lat="43.57251" lon="2.50004">
        <ele>727.40002441406</ele>
        <time>2023-06-01T07:54:38.000Z</time>
      </trkpt>
      <trkpt lat="43.57252" lon="2.49995">
        <ele>727.40002441406</ele>
        <time>2023-06-01T07:54:44.000Z</time>
      </trkpt>
      <trkpt lat="43.57251" lon="2.49992">
        <ele>727.59997558594</ele>
        <time>2023-06-01T07:54:47.000Z</time>
      </trkpt>
      <trkpt lat="43.57252" lon="2.49993">
        <ele>727.79998779297</ele>
        <time>2023-06-01T07:54:49.000Z</time>
      </trkpt>
      <trkpt lat="43.57252" lon="2.49992">
        <ele>727.79998779297</ele>
        <time>2023-06-01T07:54:50.000Z</time>
      </trkpt>
      <trkpt lat="43.5725" lon="2.49991">
        <ele>727.59997558594</ele>
        <time>2023-06-01T07:54:59.000Z</time>
      </trkpt>
      <trkpt lat="43.57249" lon="2.4999">
        <ele>727.59997558594</ele>
        <time>2023-06-01T07:55:19.000Z</time>
      </trkpt>
      <trkpt lat="43.5725" lon="2.49984">
        <ele>727.20001220703</ele>
        <time>2023-06-01T07:55:25.000Z</time>
      </trkpt>
      <trkpt lat="43.5725" lon="2.49974">
        <ele>727.40002441406</ele>
        <time>2023-06-01T07:55:32.000Z</time>
      </trkpt>
      <trkpt lat="43.57252" lon="2.49964">
        <ele>727.40002441406</ele>
        <time>2023-06-01T07:55:39.000Z</time>
      </trkpt>
      <trkpt lat="43.57253" lon="2.49956">
        <ele>727.20001220703</ele>
        <time>2023-06-01T07:55:45.000Z</time>
      </trkpt>
      <trkpt lat="43.57254" lon="2.49955">
        <ele>727.20001220703</ele>
        <time>2023-06-01T07:55:46.000Z</time>
      </trkpt>
      <trkpt lat="43.57254" lon="2.49954">
        <ele>727.20001220703</ele>
        <time>2023-06-01T07:55:47.000Z</time>
      </trkpt>
      <trkpt lat="43.57254" lon="2.49952">
        <ele>727.20001220703</ele>
        <time>2023-06-01T07:55:52.000Z</time>
      </trkpt>
      <trkpt lat="43.57254" lon="2.49948">
        <ele>727.59997558594</ele>
        <time>2023-06-01T07:56:03.000Z</time>
      </trkpt>
      <trkpt lat="43.57251" lon="2.49946">
        <ele>727.59997558594</ele>
        <time>2023-06-01T07:56:09.000Z</time>
      </trkpt>
      <trkpt lat="43.5725" lon="2.49947">
        <ele>727.40002441406</ele>
        <time>2023-06-01T07:56:15.000Z</time>
      </trkpt>
      <trkpt lat="43.57247" lon="2.49952">
        <ele>727.40002441406</ele>
        <time>2023-06-01T07:56:28.000Z</time>
      </trkpt>
      <trkpt lat="43.57247" lon="2.49951">
        <ele>727.20001220703</ele>
        <time>2023-06-01T07:56:39.000Z</time>
      </trkpt>
      <trkpt lat="43.57251" lon="2.49943">
        <ele>727.40002441406</ele>
        <time>2023-06-01T07:56:45.000Z</time>
      </trkpt>
      <trkpt lat="43.57252" lon="2.49938">
        <ele>727.40002441406</ele>
        <time>2023-06-01T07:56:48.000Z</time>
      </trkpt>
      <trkpt lat="43.57253" lon="2.49935">
        <ele>727.40002441406</ele>
        <time>2023-06-01T07:56:50.000Z</time>
      </trkpt>
      <trkpt lat="43.57253" lon="2.49934">
        <ele>727.59997558594</ele>
        <time>2023-06-01T07:56:51.000Z</time>
      </trkpt>
      <trkpt lat="43.57254" lon="2.49932">
        <ele>727.59997558594</ele>
        <time>2023-06-01T07:56:57.000Z</time>
      </trkpt>
      <trkpt lat="43.57254" lon="2.49923">
        <ele>727.59997558594</ele>
        <time>2023-06-01T07:57:03.000Z</time>
      </trkpt>
      <trkpt lat="43.57254" lon="2.49917">
        <ele>727.59997558594</ele>
        <time>2023-06-01T07:57:07.000Z</time>
      </trkpt>
      <trkpt lat="43.57255" lon="2.49914">
        <ele>727.59997558594</ele>
        <time>2023-06-01T07:57:09.000Z</time>
      </trkpt>
      <trkpt lat="43.57256" lon="2.49908">
        <ele>727.40002441406</ele>
        <time>2023-06-01T07:57:14.000Z</time>
      </trkpt>
      <trkpt lat="43.57256" lon="2.49906">
        <ele>727.40002441406</ele>
        <time>2023-06-01T07:57:16.000Z</time>
      </trkpt>
      <trkpt lat="43.57257" lon="2.49904">
        <ele>727.40002441406</ele>
        <time>2023-06-01T07:57:18.000Z</time>
      </trkpt>
      <trkpt lat="43.57257" lon="2.49901">
        <ele>727.40002441406</ele>
        <time>2023-06-01T07:57:22.000Z</time>
      </trkpt>
      <trkpt lat="43.57258" lon="2.49896">
        <ele>727.59997558594</ele>
        <time>2023-06-01T07:57:28.000Z</time>
      </trkpt>
      <trkpt lat="43.57258" lon="2.49888">
        <ele>728.59997558594</ele>
        <time>2023-06-01T07:57:36.000Z</time>
      </trkpt>
      <trkpt lat="43.5726" lon="2.49883">
        <ele>728.59997558594</ele>
        <time>2023-06-01T07:57:40.000Z</time>
      </trkpt>
      <trkpt lat="43.5726" lon="2.49882">
        <ele>728.59997558594</ele>
        <time>2023-06-01T07:57:41.000Z</time>
      </trkpt>
      <trkpt lat="43.5726" lon="2.4988">
        <ele>729</ele>
        <time>2023-06-01T07:57:42.000Z</time>
      </trkpt>
      <trkpt lat="43.5726" lon="2.49875">
        <ele>729.20001220703</ele>
        <time>2023-06-01T07:57:46.000Z</time>
      </trkpt>
      <trkpt lat="43.5726" lon="2.49873">
        <ele>729.20001220703</ele>
        <time>2023-06-01T07:57:47.000Z</time>
      </trkpt>
      <trkpt lat="43.5726" lon="2.49868">
        <ele>729.40002441406</ele>
        <time>2023-06-01T07:57:51.000Z</time>
      </trkpt>
      <trkpt lat="43.5726" lon="2.49865">
        <ele>729.59997558594</ele>
        <time>2023-06-01T07:57:53.000Z</time>
      </trkpt>
      <trkpt lat="43.5726" lon="2.49862">
        <ele>729.79998779297</ele>
        <time>2023-06-01T07:57:56.000Z</time>
      </trkpt>
      <trkpt lat="43.57261" lon="2.49861">
        <ele>730</ele>
        <time>2023-06-01T07:57:58.000Z</time>
      </trkpt>
      <trkpt lat="43.5726" lon="2.49861">
        <ele>730</ele>
        <time>2023-06-01T07:57:59.000Z</time>
      </trkpt>
      <trkpt lat="43.5726" lon="2.49858">
        <ele>730.59997558594</ele>
        <time>2023-06-01T07:58:06.000Z</time>
      </trkpt>
      <trkpt lat="43.57261" lon="2.49855">
        <ele>730.59997558594</ele>
        <time>2023-06-01T07:58:12.000Z</time>
      </trkpt>
      <trkpt lat="43.57259" lon="2.49849">
        <ele>730.40002441406</ele>
        <time>2023-06-01T07:58:19.000Z</time>
      </trkpt>
      <trkpt lat="43.57258" lon="2.49844">
        <ele>730.79998779297</ele>
        <time>2023-06-01T07:58:25.000Z</time>
      </trkpt>
      <trkpt lat="43.57258" lon="2.49842">
        <ele>731</ele>
        <time>2023-06-01T07:58:27.000Z</time>
      </trkpt>
      <trkpt lat="43.57258" lon="2.49839">
        <ele>731.20001220703</ele>
        <time>2023-06-01T07:58:30.000Z</time>
      </trkpt>
      <trkpt lat="43.57258" lon="2.49837">
        <ele>731.40002441406</ele>
        <time>2023-06-01T07:58:32.000Z</time>
      </trkpt>
      <trkpt lat="43.57259" lon="2.49831">
        <ele>732</ele>
        <time>2023-06-01T07:58:38.000Z</time>
      </trkpt>
      <trkpt lat="43.57259" lon="2.49831">
        <ele>732.20001220703</ele>
        <time>2023-06-01T07:58:39.000Z</time>
      </trkpt>
      <trkpt lat="43.57257" lon="2.49827">
        <ele>733</ele>
        <time>2023-06-01T07:58:47.000Z</time>
      </trkpt>
      <trkpt lat="43.57257" lon="2.49825">
        <ele>733</ele>
        <time>2023-06-01T07:58:49.000Z</time>
      </trkpt>
      <trkpt lat="43.57258" lon="2.49824">
        <ele>733.40002441406</ele>
        <time>2023-06-01T07:58:53.000Z</time>
      </trkpt>
      <trkpt lat="43.57258" lon="2.49816">
        <ele>733.79998779297</ele>
        <time>2023-06-01T07:58:58.000Z</time>
      </trkpt>
      <trkpt lat="43.57259" lon="2.49811">
        <ele>734.20001220703</ele>
        <time>2023-06-01T07:59:02.000Z</time>
      </trkpt>
      <trkpt lat="43.57259" lon="2.49809">
        <ele>734.40002441406</ele>
        <time>2023-06-01T07:59:04.000Z</time>
      </trkpt>
      <trkpt lat="43.57261" lon="2.49805">
        <ele>735.20001220703</ele>
        <time>2023-06-01T07:59:10.000Z</time>
      </trkpt>
      <trkpt lat="43.57263" lon="2.498">
        <ele>735.79998779297</ele>
        <time>2023-06-01T07:59:17.000Z</time>
      </trkpt>
      <trkpt lat="43.57263" lon="2.49796">
        <ele>735.59997558594</ele>
        <time>2023-06-01T07:59:22.000Z</time>
      </trkpt>
      <trkpt lat="43.57263" lon="2.49789">
        <ele>736</ele>
        <time>2023-06-01T07:59:29.000Z</time>
      </trkpt>
      <trkpt lat="43.57264" lon="2.49787">
        <ele>736.20001220703</ele>
        <time>2023-06-01T07:59:31.000Z</time>
      </trkpt>
      <trkpt lat="43.57264" lon="2.49781">
        <ele>736.79998779297</ele>
        <time>2023-06-01T07:59:37.000Z</time>
      </trkpt>
      <trkpt lat="43.57264" lon="2.49775">
        <ele>737.20001220703</ele>
        <time>2023-06-01T07:59:41.000Z</time>
      </trkpt>
      <trkpt lat="43.57264" lon="2.49772">
        <ele>737.59997558594</ele>
        <time>2023-06-01T07:59:44.000Z</time>
      </trkpt>
      <trkpt lat="43.57264" lon="2.49771">
        <ele>737.79998779297</ele>
        <time>2023-06-01T07:59:45.000Z</time>
      </trkpt>
      <trkpt lat="43.57264" lon="2.49768">
        <ele>738.20001220703</ele>
        <time>2023-06-01T07:59:50.000Z</time>
      </trkpt>
      <trkpt lat="43.57264" lon="2.49766">
        <ele>738.40002441406</ele>
        <time>2023-06-01T07:59:51.000Z</time>
      </trkpt>
      <trkpt lat="43.57264" lon="2.49761">
        <ele>738.59997558594</ele>
        <time>2023-06-01T07:59:56.000Z</time>
      </trkpt>
      <trkpt lat="43.57265" lon="2.49753">
        <ele>739.20001220703</ele>
        <time>2023-06-01T08:00:03.000Z</time>
      </trkpt>
      <trkpt lat="43.57265" lon="2.49751">
        <ele>739.40002441406</ele>
        <time>2023-06-01T08:00:06.000Z</time>
      </trkpt>
      <trkpt lat="43.57265" lon="2.49747">
        <ele>740</ele>
        <time>2023-06-01T08:00:09.000Z</time>
      </trkpt>
      <trkpt lat="43.57265" lon="2.49745">
        <ele>740</ele>
        <time>2023-06-01T08:00:15.000Z</time>
      </trkpt>
      <trkpt lat="43.57265" lon="2.49741">
        <ele>740.40002441406</ele>
        <time>2023-06-01T08:00:17.000Z</time>
      </trkpt>
      <trkpt lat="43.57265" lon="2.49738">
        <ele>740.59997558594</ele>
        <time>2023-06-01T08:00:20.000Z</time>
      </trkpt>
      <trkpt lat="43.57265" lon="2.49734">
        <ele>741</ele>
        <time>2023-06-01T08:00:25.000Z</time>
      </trkpt>
      <trkpt lat="43.57264" lon="2.49729">
        <ele>741.40002441406</ele>
        <time>2023-06-01T08:00:29.000Z</time>
      </trkpt>
      <trkpt lat="43.57265" lon="2.49727">
        <ele>741.59997558594</ele>
        <time>2023-06-01T08:00:31.000Z</time>
      </trkpt>
      <trkpt lat="43.57265" lon="2.4972">
        <ele>741.79998779297</ele>
        <time>2023-06-01T08:00:37.000Z</time>
      </trkpt>
      <trkpt lat="43.57265" lon="2.49718">
        <ele>742</ele>
        <time>2023-06-01T08:00:39.000Z</time>
      </trkpt>
      <trkpt lat="43.57266" lon="2.49712">
        <ele>742.40002441406</ele>
        <time>2023-06-01T08:00:44.000Z</time>
      </trkpt>
      <trkpt lat="43.57266" lon="2.49711">
        <ele>742.59997558594</ele>
        <time>2023-06-01T08:00:45.000Z</time>
      </trkpt>
      <trkpt lat="43.57265" lon="2.49703">
        <ele>743.20001220703</ele>
        <time>2023-06-01T08:00:51.000Z</time>
      </trkpt>
      <trkpt lat="43.57265" lon="2.49702">
        <ele>743.59997558594</ele>
        <time>2023-06-01T08:00:52.000Z</time>
      </trkpt>
      <trkpt lat="43.57266" lon="2.49701">
        <ele>743.79998779297</ele>
        <time>2023-06-01T08:00:53.000Z</time>
      </trkpt>
      <trkpt lat="43.57266" lon="2.49696">
        <ele>743.79998779297</ele>
        <time>2023-06-01T08:00:58.000Z</time>
      </trkpt>
      <trkpt lat="43.57266" lon="2.4969">
        <ele>744.20001220703</ele>
        <time>2023-06-01T08:01:03.000Z</time>
      </trkpt>
      <trkpt lat="43.57266" lon="2.49685">
        <ele>744.40002441406</ele>
        <time>2023-06-01T08:01:07.000Z</time>
      </trkpt>
      <trkpt lat="43.57267" lon="2.49683">
        <ele>744.40002441406</ele>
        <time>2023-06-01T08:01:09.000Z</time>
      </trkpt>
      <trkpt lat="43.57267" lon="2.49681">
        <ele>744.59997558594</ele>
        <time>2023-06-01T08:01:10.000Z</time>
      </trkpt>
      <trkpt lat="43.57267" lon="2.49677">
        <ele>744.59997558594</ele>
        <time>2023-06-01T08:01:14.000Z</time>
      </trkpt>
      <trkpt lat="43.57267" lon="2.49677">
        <ele>744.59997558594</ele>
        <time>2023-06-01T08:01:17.000Z</time>
      </trkpt>
      <trkpt lat="43.57267" lon="2.49671">
        <ele>744.59997558594</ele>
        <time>2023-06-01T08:01:22.000Z</time>
      </trkpt>
      <trkpt lat="43.57267" lon="2.49665">
        <ele>744.59997558594</ele>
        <time>2023-06-01T08:01:27.000Z</time>
      </trkpt>
      <trkpt lat="43.57267" lon="2.49659">
        <ele>744.79998779297</ele>
        <time>2023-06-01T08:01:32.000Z</time>
      </trkpt>
      <trkpt lat="43.57268" lon="2.49657">
        <ele>745</ele>
        <time>2023-06-01T08:01:34.000Z</time>
      </trkpt>
      <trkpt lat="43.57268" lon="2.49656">
        <ele>745</ele>
        <time>2023-06-01T08:01:36.000Z</time>
      </trkpt>
      <trkpt lat="43.57268" lon="2.49654">
        <ele>745</ele>
        <time>2023-06-01T08:01:37.000Z</time>
      </trkpt>
      <trkpt lat="43.57268" lon="2.49653">
        <ele>745</ele>
        <time>2023-06-01T08:01:39.000Z</time>
      </trkpt>
      <trkpt lat="43.57268" lon="2.4965">
        <ele>745.20001220703</ele>
        <time>2023-06-01T08:01:40.000Z</time>
      </trkpt>
      <trkpt lat="43.57268" lon="2.49648">
        <ele>745.20001220703</ele>
        <time>2023-06-01T08:01:42.000Z</time>
      </trkpt>
      <trkpt lat="43.57268" lon="2.49644">
        <ele>745.40002441406</ele>
        <time>2023-06-01T08:01:45.000Z</time>
      </trkpt>
      <trkpt lat="43.57268" lon="2.49637">
        <ele>745.40002441406</ele>
        <time>2023-06-01T08:01:50.000Z</time>
      </trkpt>
      <trkpt lat="43.57268" lon="2.49634">
        <ele>745.59997558594</ele>
        <time>2023-06-01T08:01:52.000Z</time>
      </trkpt>
      <trkpt lat="43.57268" lon="2.49633">
        <ele>745.40002441406</ele>
        <time>2023-06-01T08:01:54.000Z</time>
      </trkpt>
      <trkpt lat="43.57268" lon="2.49629">
        <ele>745.59997558594</ele>
        <time>2023-06-01T08:01:56.000Z</time>
      </trkpt>
      <trkpt lat="43.57268" lon="2.49628">
        <ele>745.59997558594</ele>
        <time>2023-06-01T08:01:57.000Z</time>
      </trkpt>
      <trkpt lat="43.57267" lon="2.49619">
        <ele>746</ele>
        <time>2023-06-01T08:02:04.000Z</time>
      </trkpt>
      <trkpt lat="43.57268" lon="2.49617">
        <ele>746</ele>
        <time>2023-06-01T08:02:06.000Z</time>
      </trkpt>
      <trkpt lat="43.57267" lon="2.49613">
        <ele>746</ele>
        <time>2023-06-01T08:02:09.000Z</time>
      </trkpt>
      <trkpt lat="43.57267" lon="2.49613">
        <ele>746</ele>
        <time>2023-06-01T08:02:10.000Z</time>
      </trkpt>
      <trkpt lat="43.57267" lon="2.49603">
        <ele>746.20001220703</ele>
        <time>2023-06-01T08:02:18.000Z</time>
      </trkpt>
      <trkpt lat="43.57266" lon="2.49598">
        <ele>746.40002441406</ele>
        <time>2023-06-01T08:02:22.000Z</time>
      </trkpt>
      <trkpt lat="43.57266" lon="2.49596">
        <ele>746.40002441406</ele>
        <time>2023-06-01T08:02:24.000Z</time>
      </trkpt>
      <trkpt lat="43.57266" lon="2.49594">
        <ele>746.59997558594</ele>
        <time>2023-06-01T08:02:25.000Z</time>
      </trkpt>
      <trkpt lat="43.57266" lon="2.49593">
        <ele>746.59997558594</ele>
        <time>2023-06-01T08:02:26.000Z</time>
      </trkpt>
      <trkpt lat="43.57266" lon="2.49585">
        <ele>746.59997558594</ele>
        <time>2023-06-01T08:02:30.000Z</time>
      </trkpt>
      <trkpt lat="43.57266" lon="2.49583">
        <ele>747</ele>
        <time>2023-06-01T08:02:36.000Z</time>
      </trkpt>
      <trkpt lat="43.57265" lon="2.49579">
        <ele>747.40002441406</ele>
        <time>2023-06-01T08:02:45.000Z</time>
      </trkpt>
      <trkpt lat="43.57265" lon="2.49568">
        <ele>746.79998779297</ele>
        <time>2023-06-01T08:02:53.000Z</time>
      </trkpt>
      <trkpt lat="43.57266" lon="2.49561">
        <ele>747.20001220703</ele>
        <time>2023-06-01T08:02:58.000Z</time>
      </trkpt>
      <trkpt lat="43.57267" lon="2.49559">
        <ele>747.20001220703</ele>
        <time>2023-06-01T08:03:00.000Z</time>
      </trkpt>
      <trkpt lat="43.57267" lon="2.49551">
        <ele>747.59997558594</ele>
        <time>2023-06-01T08:03:06.000Z</time>
      </trkpt>
      <trkpt lat="43.57267" lon="2.4955">
        <ele>747.59997558594</ele>
        <time>2023-06-01T08:03:07.000Z</time>
      </trkpt>
      <trkpt lat="43.57268" lon="2.49545">
        <ele>747.59997558594</ele>
        <time>2023-06-01T08:03:12.000Z</time>
      </trkpt>
      <trkpt lat="43.57269" lon="2.49538">
        <ele>748.20001220703</ele>
        <time>2023-06-01T08:03:19.000Z</time>
      </trkpt>
      <trkpt lat="43.57268" lon="2.49525">
        <ele>748.59997558594</ele>
        <time>2023-06-01T08:03:27.000Z</time>
      </trkpt>
      <trkpt lat="43.57267" lon="2.49513">
        <ele>748.40002441406</ele>
        <time>2023-06-01T08:03:35.000Z</time>
      </trkpt>
      <trkpt lat="43.57267" lon="2.49511">
        <ele>748.40002441406</ele>
        <time>2023-06-01T08:03:36.000Z</time>
      </trkpt>
      <trkpt lat="43.57267" lon="2.49509">
        <ele>748.40002441406</ele>
        <time>2023-06-01T08:03:38.000Z</time>
      </trkpt>
      <trkpt lat="43.57267" lon="2.49505">
        <ele>748.59997558594</ele>
        <time>2023-06-01T08:03:41.000Z</time>
      </trkpt>
      <trkpt lat="43.57267" lon="2.49498">
        <ele>748.40002441406</ele>
        <time>2023-06-01T08:03:46.000Z</time>
      </trkpt>
      <trkpt lat="43.57267" lon="2.49497">
        <ele>748.40002441406</ele>
        <time>2023-06-01T08:03:47.000Z</time>
      </trkpt>
      <trkpt lat="43.57267" lon="2.49494">
        <ele>748.59997558594</ele>
        <time>2023-06-01T08:03:50.000Z</time>
      </trkpt>
      <trkpt lat="43.57267" lon="2.49489">
        <ele>748.59997558594</ele>
        <time>2023-06-01T08:03:53.000Z</time>
      </trkpt>
      <trkpt lat="43.57266" lon="2.49488">
        <ele>748.79998779297</ele>
        <time>2023-06-01T08:03:55.000Z</time>
      </trkpt>
      <trkpt lat="43.57266" lon="2.49485">
        <ele>748.79998779297</ele>
        <time>2023-06-01T08:03:56.000Z</time>
      </trkpt>
      <trkpt lat="43.57265" lon="2.49481">
        <ele>749.20001220703</ele>
        <time>2023-06-01T08:03:59.000Z</time>
      </trkpt>
      <trkpt lat="43.57265" lon="2.49478">
        <ele>749.20001220703</ele>
        <time>2023-06-01T08:04:02.000Z</time>
      </trkpt>
      <trkpt lat="43.57264" lon="2.49473">
        <ele>749.59997558594</ele>
        <time>2023-06-01T08:04:07.000Z</time>
      </trkpt>
      <trkpt lat="43.57264" lon="2.49471">
        <ele>749.79998779297</ele>
        <time>2023-06-01T08:04:08.000Z</time>
      </trkpt>
      <trkpt lat="43.57264" lon="2.49465">
        <ele>750</ele>
        <time>2023-06-01T08:04:12.000Z</time>
      </trkpt>
      <trkpt lat="43.57263" lon="2.49456">
        <ele>750.40002441406</ele>
        <time>2023-06-01T08:04:17.000Z</time>
      </trkpt>
      <trkpt lat="43.57263" lon="2.4945">
        <ele>750.79998779297</ele>
        <time>2023-06-01T08:04:21.000Z</time>
      </trkpt>
      <trkpt lat="43.57263" lon="2.49449">
        <ele>750.79998779297</ele>
        <time>2023-06-01T08:04:22.000Z</time>
      </trkpt>
      <trkpt lat="43.57263" lon="2.49444">
        <ele>750.79998779297</ele>
        <time>2023-06-01T08:04:24.000Z</time>
      </trkpt>
      <trkpt lat="43.57264" lon="2.49439">
        <ele>751.20001220703</ele>
        <time>2023-06-01T08:04:29.000Z</time>
      </trkpt>
      <trkpt lat="43.57264" lon="2.49438">
        <ele>751.20001220703</ele>
        <time>2023-06-01T08:04:30.000Z</time>
      </trkpt>
      <trkpt lat="43.57265" lon="2.49437">
        <ele>751.40002441406</ele>
        <time>2023-06-01T08:04:31.000Z</time>
      </trkpt>
      <trkpt lat="43.57265" lon="2.49431">
        <ele>751.79998779297</ele>
        <time>2023-06-01T08:04:35.000Z</time>
      </trkpt>
      <trkpt lat="43.57265" lon="2.49428">
        <ele>752</ele>
        <time>2023-06-01T08:04:37.000Z</time>
      </trkpt>
      <trkpt lat="43.57264" lon="2.49425">
        <ele>752.40002441406</ele>
        <time>2023-06-01T08:04:40.000Z</time>
      </trkpt>
      <trkpt lat="43.57264" lon="2.49421">
        <ele>752.79998779297</ele>
        <time>2023-06-01T08:04:43.000Z</time>
      </trkpt>
      <trkpt lat="43.57265" lon="2.49421">
        <ele>752.79998779297</ele>
        <time>2023-06-01T08:04:44.000Z</time>
      </trkpt>
      <trkpt lat="43.57265" lon="2.49421">
        <ele>752.79998779297</ele>
        <time>2023-06-01T08:04:45.000Z</time>
      </trkpt>
      <trkpt lat="43.57265" lon="2.49416">
        <ele>752.79998779297</ele>
        <time>2023-06-01T08:04:50.000Z</time>
      </trkpt>
      <trkpt lat="43.57265" lon="2.49411">
        <ele>753.20001220703</ele>
        <time>2023-06-01T08:04:58.000Z</time>
      </trkpt>
      <trkpt lat="43.57265" lon="2.4941">
        <ele>753.40002441406</ele>
        <time>2023-06-01T08:05:05.000Z</time>
      </trkpt>
      <trkpt lat="43.57265" lon="2.49411">
        <ele>753.40002441406</ele>
        <time>2023-06-01T08:05:10.000Z</time>
      </trkpt>
      <trkpt lat="43.57265" lon="2.4941">
        <ele>753.40002441406</ele>
        <time>2023-06-01T08:05:15.000Z</time>
      </trkpt>
      <trkpt lat="43.57265" lon="2.49409">
        <ele>753</ele>
        <time>2023-06-01T08:05:22.000Z</time>
      </trkpt>
      <trkpt lat="43.57266" lon="2.49409">
        <ele>753</ele>
        <time>2023-06-01T08:05:29.000Z</time>
      </trkpt>
      <trkpt lat="43.57266" lon="2.49408">
        <ele>753</ele>
        <time>2023-06-01T08:05:36.000Z</time>
      </trkpt>
      <trkpt lat="43.57266" lon="2.49408">
        <ele>753</ele>
        <time>2023-06-01T08:05:47.000Z</time>
      </trkpt>
      <trkpt lat="43.57266" lon="2.49407">
        <ele>752.59997558594</ele>
        <time>2023-06-01T08:05:57.000Z</time>
      </trkpt>
      <trkpt lat="43.57266" lon="2.49406">
        <ele>752.59997558594</ele>
        <time>2023-06-01T08:06:03.000Z</time>
      </trkpt>
      <trkpt lat="43.57266" lon="2.49406">
        <ele>752.79998779297</ele>
        <time>2023-06-01T08:06:10.000Z</time>
      </trkpt>
      <trkpt lat="43.57266" lon="2.49405">
        <ele>752.59997558594</ele>
        <time>2023-06-01T08:06:17.000Z</time>
      </trkpt>
      <trkpt lat="43.57266" lon="2.49405">
        <ele>752.79998779297</ele>
        <time>2023-06-01T08:06:22.000Z</time>
      </trkpt>
      <trkpt lat="43.57266" lon="2.49405">
        <ele>753</ele>
        <time>2023-06-01T08:06:29.000Z</time>
      </trkpt>
      <trkpt lat="43.57266" lon="2.49406">
        <ele>753</ele>
        <time>2023-06-01T08:06:41.000Z</time>
      </trkpt>
      <trkpt lat="43.57267" lon="2.49406">
        <ele>752.59997558594</ele>
        <time>2023-06-01T08:06:51.000Z</time>
      </trkpt>
      <trkpt lat="43.57268" lon="2.49405">
        <ele>752.40002441406</ele>
        <time>2023-06-01T08:06:58.000Z</time>
      </trkpt>
      <trkpt lat="43.57268" lon="2.49407">
        <ele>752.79998779297</ele>
        <time>2023-06-01T08:07:04.000Z</time>
      </trkpt>
      <trkpt lat="43.57268" lon="2.49407">
        <ele>752.79998779297</ele>
        <time>2023-06-01T08:07:13.000Z</time>
      </trkpt>
      <trkpt lat="43.57268" lon="2.49408">
        <ele>752.79998779297</ele>
        <time>2023-06-01T08:07:21.000Z</time>
      </trkpt>
      <trkpt lat="43.57269" lon="2.49408">
        <ele>752.59997558594</ele>
        <time>2023-06-01T08:07:31.000Z</time>
      </trkpt>
      <trkpt lat="43.5727" lon="2.49409">
        <ele>753</ele>
        <time>2023-06-01T08:07:37.000Z</time>
      </trkpt>
      <trkpt lat="43.5727" lon="2.49411">
        <ele>752.20001220703</ele>
        <time>2023-06-01T08:07:47.000Z</time>
      </trkpt>
      <trkpt lat="43.5727" lon="2.49414">
        <ele>752.59997558594</ele>
        <time>2023-06-01T08:07:53.000Z</time>
      </trkpt>
      <trkpt lat="43.57271" lon="2.49413">
        <ele>753.20001220703</ele>
        <time>2023-06-01T08:08:00.000Z</time>
      </trkpt>
      <trkpt lat="43.57271" lon="2.49409">
        <ele>752.59997558594</ele>
        <time>2023-06-01T08:08:08.000Z</time>
      </trkpt>
      <trkpt lat="43.5727" lon="2.49408">
        <ele>752.59997558594</ele>
        <time>2023-06-01T08:08:16.000Z</time>
      </trkpt>
      <trkpt lat="43.5727" lon="2.49408">
        <ele>752.79998779297</ele>
        <time>2023-06-01T08:08:24.000Z</time>
      </trkpt>
      <trkpt lat="43.5727" lon="2.49407">
        <ele>753.59997558594</ele>
        <time>2023-06-01T08:08:31.000Z</time>
      </trkpt>
      <trkpt lat="43.5727" lon="2.49408">
        <ele>754</ele>
        <time>2023-06-01T08:08:33.000Z</time>
      </trkpt>
      <trkpt lat="43.5727" lon="2.49408">
        <ele>753.59997558594</ele>
        <time>2023-06-01T08:08:38.000Z</time>
      </trkpt>
      <trkpt lat="43.5727" lon="2.49408">
        <ele>752.79998779297</ele>
        <time>2023-06-01T08:08:46.000Z</time>
      </trkpt>
      <trkpt lat="43.57273" lon="2.49408">
        <ele>753</ele>
        <time>2023-06-01T08:08:56.000Z</time>
      </trkpt>
      <trkpt lat="43.57274" lon="2.49408">
        <ele>752.79998779297</ele>
        <time>2023-06-01T08:09:01.000Z</time>
      </trkpt>
      <trkpt lat="43.57274" lon="2.49409">
        <ele>752.59997558594</ele>
        <time>2023-06-01T08:09:02.000Z</time>
      </trkpt>
      <trkpt lat="43.57266" lon="2.49408">
        <ele>752</ele>
        <time>2023-06-01T08:19:35.000Z</time>
      </trkpt>
      <trkpt lat="43.57264" lon="2.49408">
        <ele>751.79998779297</ele>
        <time>2023-06-01T08:19:37.000Z</time>
      </trkpt>
      <trkpt lat="43.57268" lon="2.49409">
        <ele>752</ele>
        <time>2023-06-01T08:19:40.000Z</time>
      </trkpt>
      <trkpt lat="43.5727" lon="2.49415">
        <ele>751.59997558594</ele>
        <time>2023-06-01T08:19:46.000Z</time>
      </trkpt>
      <trkpt lat="43.57272" lon="2.49419">
        <ele>751.20001220703</ele>
        <time>2023-06-01T08:19:53.000Z</time>
      </trkpt>
      <trkpt lat="43.57272" lon="2.49424">
        <ele>751</ele>
        <time>2023-06-01T08:19:59.000Z</time>
      </trkpt>
      <trkpt lat="43.57272" lon="2.49427">
        <ele>750.79998779297</ele>
        <time>2023-06-01T08:20:02.000Z</time>
      </trkpt>
      <trkpt lat="43.5727" lon="2.49428">
        <ele>750.40002441406</ele>
        <time>2023-06-01T08:20:06.000Z</time>
      </trkpt>
      <trkpt lat="43.57266" lon="2.49428">
        <ele>750.40002441406</ele>
        <time>2023-06-01T08:20:13.000Z</time>
      </trkpt>
      <trkpt lat="43.57265" lon="2.49428">
        <ele>750.40002441406</ele>
        <time>2023-06-01T08:20:20.000Z</time>
      </trkpt>
      <trkpt lat="43.57263" lon="2.49426">
        <ele>750.40002441406</ele>
        <time>2023-06-01T08:20:28.000Z</time>
      </trkpt>
      <trkpt lat="43.57262" lon="2.49423">
        <ele>750.40002441406</ele>
        <time>2023-06-01T08:20:37.000Z</time>
      </trkpt>
      <trkpt lat="43.57265" lon="2.49424">
        <ele>750.59997558594</ele>
        <time>2023-06-01T08:20:46.000Z</time>
      </trkpt>
      <trkpt lat="43.57265" lon="2.49423">
        <ele>750.20001220703</ele>
        <time>2023-06-01T08:20:53.000Z</time>
      </trkpt>
      <trkpt lat="43.57261" lon="2.49418">
        <ele>750.40002441406</ele>
        <time>2023-06-01T08:21:00.000Z</time>
      </trkpt>
      <trkpt lat="43.5726" lon="2.49412">
        <ele>751</ele>
        <time>2023-06-01T08:21:07.000Z</time>
      </trkpt>
      <trkpt lat="43.5726" lon="2.49411">
        <ele>751.79998779297</ele>
        <time>2023-06-01T08:21:12.000Z</time>
      </trkpt>
      <trkpt lat="43.5726" lon="2.49409">
        <ele>752.40002441406</ele>
        <time>2023-06-01T08:21:18.000Z</time>
      </trkpt>
      <trkpt lat="43.57261" lon="2.49403">
        <ele>753</ele>
        <time>2023-06-01T08:21:21.000Z</time>
      </trkpt>
      <trkpt lat="43.5726" lon="2.49403">
        <ele>753.40002441406</ele>
        <time>2023-06-01T08:21:26.000Z</time>
      </trkpt>
      <trkpt lat="43.57261" lon="2.49402">
        <ele>754</ele>
        <time>2023-06-01T08:21:29.000Z</time>
      </trkpt>
      <trkpt lat="43.5726" lon="2.49403">
        <ele>754.20001220703</ele>
        <time>2023-06-01T08:21:37.000Z</time>
      </trkpt>
      <trkpt lat="43.57256" lon="2.4939">
        <ele>754.59997558594</ele>
        <time>2023-06-01T08:21:48.000Z</time>
      </trkpt>
      <trkpt lat="43.57257" lon="2.4939">
        <ele>754.79998779297</ele>
        <time>2023-06-01T08:21:52.000Z</time>
      </trkpt>
      <trkpt lat="43.57254" lon="2.49388">
        <ele>754.79998779297</ele>
        <time>2023-06-01T08:21:56.000Z</time>
      </trkpt>
      <trkpt lat="43.57249" lon="2.49383">
        <ele>755</ele>
        <time>2023-06-01T08:22:04.000Z</time>
      </trkpt>
      <trkpt lat="43.57248" lon="2.49382">
        <ele>755</ele>
        <time>2023-06-01T08:22:05.000Z</time>
      </trkpt>
      <trkpt lat="43.57245" lon="2.49376">
        <ele>755</ele>
        <time>2023-06-01T08:22:10.000Z</time>
      </trkpt>
      <trkpt lat="43.57244" lon="2.49375">
        <ele>755</ele>
        <time>2023-06-01T08:22:11.000Z</time>
      </trkpt>
      <trkpt lat="43.57243" lon="2.49369">
        <ele>755.20001220703</ele>
        <time>2023-06-01T08:22:15.000Z</time>
      </trkpt>
      <trkpt lat="43.57242" lon="2.49366">
        <ele>755</ele>
        <time>2023-06-01T08:22:17.000Z</time>
      </trkpt>
      <trkpt lat="43.5724" lon="2.49354">
        <ele>755.20001220703</ele>
        <time>2023-06-01T08:22:25.000Z</time>
      </trkpt>
      <trkpt lat="43.57241" lon="2.49351">
        <ele>755.20001220703</ele>
        <time>2023-06-01T08:22:27.000Z</time>
      </trkpt>
      <trkpt lat="43.57241" lon="2.49345">
        <ele>755.59997558594</ele>
        <time>2023-06-01T08:22:31.000Z</time>
      </trkpt>
      <trkpt lat="43.57241" lon="2.49343">
        <ele>756</ele>
        <time>2023-06-01T08:22:36.000Z</time>
      </trkpt>
      <trkpt lat="43.57241" lon="2.49343">
        <ele>756</ele>
        <time>2023-06-01T08:22:37.000Z</time>
      </trkpt>
      <trkpt lat="43.57241" lon="2.49344">
        <ele>756</ele>
        <time>2023-06-01T08:22:46.000Z</time>
      </trkpt>
      <trkpt lat="43.57241" lon="2.4934">
        <ele>755.79998779297</ele>
        <time>2023-06-01T08:22:57.000Z</time>
      </trkpt>
      <trkpt lat="43.57242" lon="2.49331">
        <ele>755.59997558594</ele>
        <time>2023-06-01T08:23:04.000Z</time>
      </trkpt>
      <trkpt lat="43.57242" lon="2.49319">
        <ele>755.79998779297</ele>
        <time>2023-06-01T08:23:13.000Z</time>
      </trkpt>
      <trkpt lat="43.57241" lon="2.49313">
        <ele>756.20001220703</ele>
        <time>2023-06-01T08:23:21.000Z</time>
      </trkpt>
      <trkpt lat="43.57242" lon="2.49305">
        <ele>756.20001220703</ele>
        <time>2023-06-01T08:23:26.000Z</time>
      </trkpt>
      <trkpt lat="43.57243" lon="2.49294">
        <ele>756.20001220703</ele>
        <time>2023-06-01T08:23:34.000Z</time>
      </trkpt>
      <trkpt lat="43.57244" lon="2.49289">
        <ele>756.20001220703</ele>
        <time>2023-06-01T08:23:38.000Z</time>
      </trkpt>
      <trkpt lat="43.57243" lon="2.49287">
        <ele>756.20001220703</ele>
        <time>2023-06-01T08:23:39.000Z</time>
      </trkpt>
      <trkpt lat="43.57244" lon="2.49279">
        <ele>756.79998779297</ele>
        <time>2023-06-01T08:23:46.000Z</time>
      </trkpt>
      <trkpt lat="43.57244" lon="2.49275">
        <ele>756.79998779297</ele>
        <time>2023-06-01T08:23:49.000Z</time>
      </trkpt>
      <trkpt lat="43.57244" lon="2.49273">
        <ele>757</ele>
        <time>2023-06-01T08:23:51.000Z</time>
      </trkpt>
      <trkpt lat="43.57244" lon="2.49268">
        <ele>757</ele>
        <time>2023-06-01T08:23:54.000Z</time>
      </trkpt>
      <trkpt lat="43.57245" lon="2.49263">
        <ele>757</ele>
        <time>2023-06-01T08:23:58.000Z</time>
      </trkpt>
      <trkpt lat="43.57245" lon="2.49261">
        <ele>757.20001220703</ele>
        <time>2023-06-01T08:24:00.000Z</time>
      </trkpt>
      <trkpt lat="43.57244" lon="2.49252">
        <ele>757.40002441406</ele>
        <time>2023-06-01T08:24:07.000Z</time>
      </trkpt>
      <trkpt lat="43.57244" lon="2.49251">
        <ele>757.40002441406</ele>
        <time>2023-06-01T08:24:08.000Z</time>
      </trkpt>
      <trkpt lat="43.57242" lon="2.49241">
        <ele>757</ele>
        <time>2023-06-01T08:24:15.000Z</time>
      </trkpt>
      <trkpt lat="43.57242" lon="2.4924">
        <ele>756.79998779297</ele>
        <time>2023-06-01T08:24:16.000Z</time>
      </trkpt>
      <trkpt lat="43.57241" lon="2.4923">
        <ele>757</ele>
        <time>2023-06-01T08:24:23.000Z</time>
      </trkpt>
      <trkpt lat="43.57241" lon="2.49227">
        <ele>757</ele>
        <time>2023-06-01T08:24:25.000Z</time>
      </trkpt>
      <trkpt lat="43.57243" lon="2.49223">
        <ele>757.20001220703</ele>
        <time>2023-06-01T08:24:29.000Z</time>
      </trkpt>
      <trkpt lat="43.57244" lon="2.49222">
        <ele>757.20001220703</ele>
        <time>2023-06-01T08:24:31.000Z</time>
      </trkpt>
      <trkpt lat="43.57247" lon="2.4922">
        <ele>757.59997558594</ele>
        <time>2023-06-01T08:24:37.000Z</time>
      </trkpt>
      <trkpt lat="43.5725" lon="2.4922">
        <ele>757.79998779297</ele>
        <time>2023-06-01T08:24:43.000Z</time>
      </trkpt>
      <trkpt lat="43.57252" lon="2.4922">
        <ele>758</ele>
        <time>2023-06-01T08:24:45.000Z</time>
      </trkpt>
      <trkpt lat="43.57254" lon="2.49219">
        <ele>758.79998779297</ele>
        <time>2023-06-01T08:24:50.000Z</time>
      </trkpt>
      <trkpt lat="43.57254" lon="2.49219">
        <ele>759</ele>
        <time>2023-06-01T08:24:52.000Z</time>
      </trkpt>
      <trkpt lat="43.57257" lon="2.49217">
        <ele>759.40002441406</ele>
        <time>2023-06-01T08:24:56.000Z</time>
      </trkpt>
      <trkpt lat="43.57259" lon="2.49211">
        <ele>759.40002441406</ele>
        <time>2023-06-01T08:25:03.000Z</time>
      </trkpt>
      <trkpt lat="43.5726" lon="2.49204">
        <ele>759.79998779297</ele>
        <time>2023-06-01T08:25:09.000Z</time>
      </trkpt>
      <trkpt lat="43.5726" lon="2.49201">
        <ele>759.79998779297</ele>
        <time>2023-06-01T08:25:11.000Z</time>
      </trkpt>
      <trkpt lat="43.5726" lon="2.49195">
        <ele>759.79998779297</ele>
        <time>2023-06-01T08:25:15.000Z</time>
      </trkpt>
      <trkpt lat="43.57261" lon="2.4919">
        <ele>759.79998779297</ele>
        <time>2023-06-01T08:25:18.000Z</time>
      </trkpt>
      <trkpt lat="43.57262" lon="2.49183">
        <ele>759.79998779297</ele>
        <time>2023-06-01T08:25:23.000Z</time>
      </trkpt>
      <trkpt lat="43.57262" lon="2.4918">
        <ele>759.79998779297</ele>
        <time>2023-06-01T08:25:25.000Z</time>
      </trkpt>
      <trkpt lat="43.57262" lon="2.49179">
        <ele>760</ele>
        <time>2023-06-01T08:25:26.000Z</time>
      </trkpt>
      <trkpt lat="43.57261" lon="2.49172">
        <ele>760.40002441406</ele>
        <time>2023-06-01T08:25:30.000Z</time>
      </trkpt>
      <trkpt lat="43.57262" lon="2.4917">
        <ele>760.40002441406</ele>
        <time>2023-06-01T08:25:31.000Z</time>
      </trkpt>
      <trkpt lat="43.57261" lon="2.49165">
        <ele>760.20001220703</ele>
        <time>2023-06-01T08:25:34.000Z</time>
      </trkpt>
      <trkpt lat="43.57261" lon="2.49163">
        <ele>760.20001220703</ele>
        <time>2023-06-01T08:25:36.000Z</time>
      </trkpt>
      <trkpt lat="43.57261" lon="2.49161">
        <ele>760.40002441406</ele>
        <time>2023-06-01T08:25:38.000Z</time>
      </trkpt>
      <trkpt lat="43.57261" lon="2.49157">
        <ele>760.40002441406</ele>
        <time>2023-06-01T08:25:41.000Z</time>
      </trkpt>
      <trkpt lat="43.57261" lon="2.49155">
        <ele>760.59997558594</ele>
        <time>2023-06-01T08:25:42.000Z</time>
      </trkpt>
      <trkpt lat="43.57261" lon="2.49147">
        <ele>760.79998779297</ele>
        <time>2023-06-01T08:25:47.000Z</time>
      </trkpt>
      <trkpt lat="43.57261" lon="2.49144">
        <ele>760.79998779297</ele>
        <time>2023-06-01T08:25:49.000Z</time>
      </trkpt>
      <trkpt lat="43.57262" lon="2.49137">
        <ele>761.20001220703</ele>
        <time>2023-06-01T08:25:56.000Z</time>
      </trkpt>
      <trkpt lat="43.57262" lon="2.49131">
        <ele>761.79998779297</ele>
        <time>2023-06-01T08:26:02.000Z</time>
      </trkpt>
      <trkpt lat="43.57262" lon="2.49126">
        <ele>762.20001220703</ele>
        <time>2023-06-01T08:26:07.000Z</time>
      </trkpt>
      <trkpt lat="43.57262" lon="2.49124">
        <ele>762.20001220703</ele>
        <time>2023-06-01T08:26:08.000Z</time>
      </trkpt>
      <trkpt lat="43.57263" lon="2.49118">
        <ele>762.40002441406</ele>
        <time>2023-06-01T08:26:13.000Z</time>
      </trkpt>
      <trkpt lat="43.57263" lon="2.49115">
        <ele>762.59997558594</ele>
        <time>2023-06-01T08:26:15.000Z</time>
      </trkpt>
      <trkpt lat="43.57264" lon="2.49106">
        <ele>762.59997558594</ele>
        <time>2023-06-01T08:26:23.000Z</time>
      </trkpt>
      <trkpt lat="43.57265" lon="2.49106">
        <ele>762.59997558594</ele>
        <time>2023-06-01T08:26:24.000Z</time>
      </trkpt>
      <trkpt lat="43.57265" lon="2.49094">
        <ele>762.59997558594</ele>
        <time>2023-06-01T08:26:33.000Z</time>
      </trkpt>
      <trkpt lat="43.57265" lon="2.49092">
        <ele>762.59997558594</ele>
        <time>2023-06-01T08:26:34.000Z</time>
      </trkpt>
      <trkpt lat="43.57264" lon="2.49083">
        <ele>762.59997558594</ele>
        <time>2023-06-01T08:26:40.000Z</time>
      </trkpt>
      <trkpt lat="43.57264" lon="2.4908">
        <ele>762.79998779297</ele>
        <time>2023-06-01T08:26:43.000Z</time>
      </trkpt>
      <trkpt lat="43.57264" lon="2.49076">
        <ele>763.20001220703</ele>
        <time>2023-06-01T08:26:46.000Z</time>
      </trkpt>
      <trkpt lat="43.57264" lon="2.49076">
        <ele>763.20001220703</ele>
        <time>2023-06-01T08:26:47.000Z</time>
      </trkpt>
      <trkpt lat="43.57265" lon="2.49069">
        <ele>763.59997558594</ele>
        <time>2023-06-01T08:26:54.000Z</time>
      </trkpt>
      <trkpt lat="43.57266" lon="2.49062">
        <ele>764</ele>
        <time>2023-06-01T08:27:01.000Z</time>
      </trkpt>
      <trkpt lat="43.57266" lon="2.49053">
        <ele>764.40002441406</ele>
        <time>2023-06-01T08:27:08.000Z</time>
      </trkpt>
      <trkpt lat="43.57266" lon="2.49044">
        <ele>764.40002441406</ele>
        <time>2023-06-01T08:27:14.000Z</time>
      </trkpt>
      <trkpt lat="43.57266" lon="2.49042">
        <ele>764.59997558594</ele>
        <time>2023-06-01T08:27:15.000Z</time>
      </trkpt>
      <trkpt lat="43.57266" lon="2.49035">
        <ele>764.79998779297</ele>
        <time>2023-06-01T08:27:20.000Z</time>
      </trkpt>
      <trkpt lat="43.57266" lon="2.49031">
        <ele>765</ele>
        <time>2023-06-01T08:27:23.000Z</time>
      </trkpt>
      <trkpt lat="43.57265" lon="2.49026">
        <ele>765.20001220703</ele>
        <time>2023-06-01T08:27:26.000Z</time>
      </trkpt>
      <trkpt lat="43.57266" lon="2.49025">
        <ele>765.20001220703</ele>
        <time>2023-06-01T08:27:27.000Z</time>
      </trkpt>
      <trkpt lat="43.57265" lon="2.49019">
        <ele>765.40002441406</ele>
        <time>2023-06-01T08:27:30.000Z</time>
      </trkpt>
      <trkpt lat="43.57265" lon="2.49017">
        <ele>765.40002441406</ele>
        <time>2023-06-01T08:27:31.000Z</time>
      </trkpt>
      <trkpt lat="43.57264" lon="2.49009">
        <ele>765</ele>
        <time>2023-06-01T08:27:36.000Z</time>
      </trkpt>
      <trkpt lat="43.57264" lon="2.49005">
        <ele>765</ele>
        <time>2023-06-01T08:27:38.000Z</time>
      </trkpt>
      <trkpt lat="43.57264" lon="2.48996">
        <ele>765.20001220703</ele>
        <time>2023-06-01T08:27:45.000Z</time>
      </trkpt>
      <trkpt lat="43.57265" lon="2.48988">
        <ele>765.20001220703</ele>
        <time>2023-06-01T08:27:50.000Z</time>
      </trkpt>
      <trkpt lat="43.57265" lon="2.48987">
        <ele>765.20001220703</ele>
        <time>2023-06-01T08:27:51.000Z</time>
      </trkpt>
      <trkpt lat="43.57265" lon="2.48984">
        <ele>765.40002441406</ele>
        <time>2023-06-01T08:27:53.000Z</time>
      </trkpt>
      <trkpt lat="43.57266" lon="2.48981">
        <ele>765.79998779297</ele>
        <time>2023-06-01T08:27:56.000Z</time>
      </trkpt>
      <trkpt lat="43.57266" lon="2.4898">
        <ele>766</ele>
        <time>2023-06-01T08:27:57.000Z</time>
      </trkpt>
      <trkpt lat="43.57266" lon="2.48975">
        <ele>766.20001220703</ele>
        <time>2023-06-01T08:28:01.000Z</time>
      </trkpt>
      <trkpt lat="43.57265" lon="2.4897">
        <ele>766.20001220703</ele>
        <time>2023-06-01T08:28:04.000Z</time>
      </trkpt>
      <trkpt lat="43.57266" lon="2.48966">
        <ele>766</ele>
        <time>2023-06-01T08:28:07.000Z</time>
      </trkpt>
      <trkpt lat="43.57265" lon="2.48954">
        <ele>766.20001220703</ele>
        <time>2023-06-01T08:28:15.000Z</time>
      </trkpt>
      <trkpt lat="43.57264" lon="2.48944">
        <ele>766.20001220703</ele>
        <time>2023-06-01T08:28:22.000Z</time>
      </trkpt>
      <trkpt lat="43.57263" lon="2.48936">
        <ele>766.20001220703</ele>
        <time>2023-06-01T08:28:28.000Z</time>
      </trkpt>
      <trkpt lat="43.57263" lon="2.48931">
        <ele>766.40002441406</ele>
        <time>2023-06-01T08:28:32.000Z</time>
      </trkpt>
      <trkpt lat="43.57263" lon="2.48928">
        <ele>766.59997558594</ele>
        <time>2023-06-01T08:28:35.000Z</time>
      </trkpt>
      <trkpt lat="43.57263" lon="2.48923">
        <ele>766.59997558594</ele>
        <time>2023-06-01T08:28:39.000Z</time>
      </trkpt>
      <trkpt lat="43.57263" lon="2.48922">
        <ele>766.79998779297</ele>
        <time>2023-06-01T08:28:40.000Z</time>
      </trkpt>
      <trkpt lat="43.57263" lon="2.48915">
        <ele>767</ele>
        <time>2023-06-01T08:28:45.000Z</time>
      </trkpt>
      <trkpt lat="43.57264" lon="2.48914">
        <ele>767</ele>
        <time>2023-06-01T08:28:46.000Z</time>
      </trkpt>
      <trkpt lat="43.57264" lon="2.48912">
        <ele>767.20001220703</ele>
        <time>2023-06-01T08:28:48.000Z</time>
      </trkpt>
      <trkpt lat="43.57264" lon="2.4891">
        <ele>767.40002441406</ele>
        <time>2023-06-01T08:28:50.000Z</time>
      </trkpt>
      <trkpt lat="43.57265" lon="2.48908">
        <ele>767.79998779297</ele>
        <time>2023-06-01T08:28:52.000Z</time>
      </trkpt>
      <trkpt lat="43.57265" lon="2.48901">
        <ele>768.20001220703</ele>
        <time>2023-06-01T08:29:00.000Z</time>
      </trkpt>
      <trkpt lat="43.57266" lon="2.48896">
        <ele>768.40002441406</ele>
        <time>2023-06-01T08:29:05.000Z</time>
      </trkpt>
      <trkpt lat="43.57266" lon="2.48892">
        <ele>768.59997558594</ele>
        <time>2023-06-01T08:29:08.000Z</time>
      </trkpt>
      <trkpt lat="43.57266" lon="2.4889">
        <ele>768.59997558594</ele>
        <time>2023-06-01T08:29:09.000Z</time>
      </trkpt>
      <trkpt lat="43.57267" lon="2.48884">
        <ele>768.79998779297</ele>
        <time>2023-06-01T08:29:14.000Z</time>
      </trkpt>
      <trkpt lat="43.57268" lon="2.48877">
        <ele>769</ele>
        <time>2023-06-01T08:29:21.000Z</time>
      </trkpt>
      <trkpt lat="43.57269" lon="2.48873">
        <ele>769.40002441406</ele>
        <time>2023-06-01T08:29:26.000Z</time>
      </trkpt>
      <trkpt lat="43.5727" lon="2.48869">
        <ele>769.59997558594</ele>
        <time>2023-06-01T08:29:29.000Z</time>
      </trkpt>
      <trkpt lat="43.57271" lon="2.48862">
        <ele>770.40002441406</ele>
        <time>2023-06-01T08:29:37.000Z</time>
      </trkpt>
      <trkpt lat="43.5727" lon="2.48858">
        <ele>770.40002441406</ele>
        <time>2023-06-01T08:29:38.000Z</time>
      </trkpt>
      <trkpt lat="43.5727" lon="2.48855">
        <ele>770.40002441406</ele>
        <time>2023-06-01T08:29:40.000Z</time>
      </trkpt>
      <trkpt lat="43.57269" lon="2.48846">
        <ele>770.59997558594</ele>
        <time>2023-06-01T08:29:45.000Z</time>
      </trkpt>
      <trkpt lat="43.57269" lon="2.48844">
        <ele>770.40002441406</ele>
        <time>2023-06-01T08:29:46.000Z</time>
      </trkpt>
      <trkpt lat="43.57269" lon="2.48841">
        <ele>770.40002441406</ele>
        <time>2023-06-01T08:29:48.000Z</time>
      </trkpt>
      <trkpt lat="43.57268" lon="2.48832">
        <ele>770.59997558594</ele>
        <time>2023-06-01T08:29:53.000Z</time>
      </trkpt>
      <trkpt lat="43.57266" lon="2.4882">
        <ele>770.79998779297</ele>
        <time>2023-06-01T08:30:01.000Z</time>
      </trkpt>
      <trkpt lat="43.57265" lon="2.48808">
        <ele>771.40002441406</ele>
        <time>2023-06-01T08:30:09.000Z</time>
      </trkpt>
      <trkpt lat="43.57264" lon="2.48801">
        <ele>771.59997558594</ele>
        <time>2023-06-01T08:30:14.000Z</time>
      </trkpt>
      <trkpt lat="43.57263" lon="2.48798">
        <ele>771.59997558594</ele>
        <time>2023-06-01T08:30:16.000Z</time>
      </trkpt>
      <trkpt lat="43.57263" lon="2.48793">
        <ele>771.59997558594</ele>
        <time>2023-06-01T08:30:19.000Z</time>
      </trkpt>
      <trkpt lat="43.57262" lon="2.48786">
        <ele>771.79998779297</ele>
        <time>2023-06-01T08:30:24.000Z</time>
      </trkpt>
      <trkpt lat="43.5726" lon="2.48777">
        <ele>772.20001220703</ele>
        <time>2023-06-01T08:30:31.000Z</time>
      </trkpt>
      <trkpt lat="43.5726" lon="2.48772">
        <ele>772.40002441406</ele>
        <time>2023-06-01T08:30:35.000Z</time>
      </trkpt>
      <trkpt lat="43.5726" lon="2.48773">
        <ele>773</ele>
        <time>2023-06-01T08:30:39.000Z</time>
      </trkpt>
      <trkpt lat="43.57259" lon="2.48771">
        <ele>773.59997558594</ele>
        <time>2023-06-01T08:30:41.000Z</time>
      </trkpt>
      <trkpt lat="43.57259" lon="2.48766">
        <ele>773.40002441406</ele>
        <time>2023-06-01T08:30:47.000Z</time>
      </trkpt>
      <trkpt lat="43.57259" lon="2.48764">
        <ele>773</ele>
        <time>2023-06-01T08:30:54.000Z</time>
      </trkpt>
      <trkpt lat="43.57257" lon="2.48755">
        <ele>772.59997558594</ele>
        <time>2023-06-01T08:31:02.000Z</time>
      </trkpt>
      <trkpt lat="43.57256" lon="2.48754">
        <ele>772.40002441406</ele>
        <time>2023-06-01T08:31:03.000Z</time>
      </trkpt>
      <trkpt lat="43.57256" lon="2.48749">
        <ele>771.79998779297</ele>
        <time>2023-06-01T08:31:08.000Z</time>
      </trkpt>
      <trkpt lat="43.57255" lon="2.48743">
        <ele>771.40002441406</ele>
        <time>2023-06-01T08:31:12.000Z</time>
      </trkpt>
      <trkpt lat="43.57254" lon="2.48739">
        <ele>771</ele>
        <time>2023-06-01T08:31:15.000Z</time>
      </trkpt>
      <trkpt lat="43.57254" lon="2.48738">
        <ele>771</ele>
        <time>2023-06-01T08:31:16.000Z</time>
      </trkpt>
      <trkpt lat="43.57253" lon="2.48731">
        <ele>770.59997558594</ele>
        <time>2023-06-01T08:31:21.000Z</time>
      </trkpt>
      <trkpt lat="43.57252" lon="2.48729">
        <ele>770.40002441406</ele>
        <time>2023-06-01T08:31:22.000Z</time>
      </trkpt>
      <trkpt lat="43.57252" lon="2.48726">
        <ele>770.20001220703</ele>
        <time>2023-06-01T08:31:24.000Z</time>
      </trkpt>
      <trkpt lat="43.57251" lon="2.48721">
        <ele>769.79998779297</ele>
        <time>2023-06-01T08:31:28.000Z</time>
      </trkpt>
      <trkpt lat="43.57249" lon="2.48712">
        <ele>769.20001220703</ele>
        <time>2023-06-01T08:31:35.000Z</time>
      </trkpt>
      <trkpt lat="43.57249" lon="2.48711">
        <ele>769.20001220703</ele>
        <time>2023-06-01T08:31:36.000Z</time>
      </trkpt>
      <trkpt lat="43.57249" lon="2.4871">
        <ele>769</ele>
        <time>2023-06-01T08:31:37.000Z</time>
      </trkpt>
      <trkpt lat="43.57248" lon="2.48706">
        <ele>768.79998779297</ele>
        <time>2023-06-01T08:31:41.000Z</time>
      </trkpt>
      <trkpt lat="43.57248" lon="2.48702">
        <ele>768</ele>
        <time>2023-06-01T08:31:44.000Z</time>
      </trkpt>
      <trkpt lat="43.57247" lon="2.487">
        <ele>767.79998779297</ele>
        <time>2023-06-01T08:31:46.000Z</time>
      </trkpt>
      <trkpt lat="43.57247" lon="2.48698">
        <ele>767.59997558594</ele>
        <time>2023-06-01T08:31:47.000Z</time>
      </trkpt>
      <trkpt lat="43.57246" lon="2.48693">
        <ele>767</ele>
        <time>2023-06-01T08:31:51.000Z</time>
      </trkpt>
      <trkpt lat="43.57246" lon="2.48691">
        <ele>767</ele>
        <time>2023-06-01T08:31:52.000Z</time>
      </trkpt>
      <trkpt lat="43.57246" lon="2.4869">
        <ele>766.79998779297</ele>
        <time>2023-06-01T08:31:53.000Z</time>
      </trkpt>
      <trkpt lat="43.57243" lon="2.48681">
        <ele>766</ele>
        <time>2023-06-01T08:31:59.000Z</time>
      </trkpt>
      <trkpt lat="43.57242" lon="2.4868">
        <ele>766</ele>
        <time>2023-06-01T08:32:00.000Z</time>
      </trkpt>
      <trkpt lat="43.57241" lon="2.48677">
        <ele>765.79998779297</ele>
        <time>2023-06-01T08:32:04.000Z</time>
      </trkpt>
      <trkpt lat="43.57241" lon="2.48675">
        <ele>765.59997558594</ele>
        <time>2023-06-01T08:32:06.000Z</time>
      </trkpt>
      <trkpt lat="43.5724" lon="2.48665">
        <ele>765.59997558594</ele>
        <time>2023-06-01T08:32:12.000Z</time>
      </trkpt>
      <trkpt lat="43.57238" lon="2.4866">
        <ele>765.40002441406</ele>
        <time>2023-06-01T08:32:16.000Z</time>
      </trkpt>
      <trkpt lat="43.57237" lon="2.48657">
        <ele>765.40002441406</ele>
        <time>2023-06-01T08:32:18.000Z</time>
      </trkpt>
      <trkpt lat="43.57235" lon="2.4865">
        <ele>765</ele>
        <time>2023-06-01T08:32:24.000Z</time>
      </trkpt>
      <trkpt lat="43.57234" lon="2.4865">
        <ele>764.79998779297</ele>
        <time>2023-06-01T08:32:25.000Z</time>
      </trkpt>
      <trkpt lat="43.57232" lon="2.48645">
        <ele>765</ele>
        <time>2023-06-01T08:32:31.000Z</time>
      </trkpt>
      <trkpt lat="43.57231" lon="2.48638">
        <ele>764.79998779297</ele>
        <time>2023-06-01T08:32:35.000Z</time>
      </trkpt>
      <trkpt lat="43.57231" lon="2.48635">
        <ele>764.59997558594</ele>
        <time>2023-06-01T08:32:37.000Z</time>
      </trkpt>
      <trkpt lat="43.5723" lon="2.48631">
        <ele>764.59997558594</ele>
        <time>2023-06-01T08:32:39.000Z</time>
      </trkpt>
      <trkpt lat="43.57228" lon="2.48623">
        <ele>764.40002441406</ele>
        <time>2023-06-01T08:32:43.000Z</time>
      </trkpt>
      <trkpt lat="43.57228" lon="2.48623">
        <ele>764.40002441406</ele>
        <time>2023-06-01T08:32:44.000Z</time>
      </trkpt>
      <trkpt lat="43.57225" lon="2.48616">
        <ele>764.59997558594</ele>
        <time>2023-06-01T08:32:48.000Z</time>
      </trkpt>
      <trkpt lat="43.57224" lon="2.48615">
        <ele>764.59997558594</ele>
        <time>2023-06-01T08:32:49.000Z</time>
      </trkpt>
      <trkpt lat="43.57222" lon="2.48608">
        <ele>764.20001220703</ele>
        <time>2023-06-01T08:32:53.000Z</time>
      </trkpt>
      <trkpt lat="43.57221" lon="2.48605">
        <ele>764</ele>
        <time>2023-06-01T08:32:55.000Z</time>
      </trkpt>
      <trkpt lat="43.57221" lon="2.48604">
        <ele>764</ele>
        <time>2023-06-01T08:32:56.000Z</time>
      </trkpt>
      <trkpt lat="43.57219" lon="2.48596">
        <ele>764</ele>
        <time>2023-06-01T08:33:01.000Z</time>
      </trkpt>
      <trkpt lat="43.57217" lon="2.48592">
        <ele>764</ele>
        <time>2023-06-01T08:33:04.000Z</time>
      </trkpt>
      <trkpt lat="43.57216" lon="2.48586">
        <ele>764.20001220703</ele>
        <time>2023-06-01T08:33:08.000Z</time>
      </trkpt>
      <trkpt lat="43.57215" lon="2.48579">
        <ele>764.20001220703</ele>
        <time>2023-06-01T08:33:13.000Z</time>
      </trkpt>
      <trkpt lat="43.57214" lon="2.48576">
        <ele>764.20001220703</ele>
        <time>2023-06-01T08:33:15.000Z</time>
      </trkpt>
      <trkpt lat="43.57213" lon="2.4857">
        <ele>764.20001220703</ele>
        <time>2023-06-01T08:33:20.000Z</time>
      </trkpt>
      <trkpt lat="43.57211" lon="2.4856">
        <ele>764</ele>
        <time>2023-06-01T08:33:27.000Z</time>
      </trkpt>
      <trkpt lat="43.5721" lon="2.48556">
        <ele>764</ele>
        <time>2023-06-01T08:33:30.000Z</time>
      </trkpt>
      <trkpt lat="43.57209" lon="2.48549">
        <ele>763.79998779297</ele>
        <time>2023-06-01T08:33:35.000Z</time>
      </trkpt>
      <trkpt lat="43.57209" lon="2.48548">
        <ele>764</ele>
        <time>2023-06-01T08:33:36.000Z</time>
      </trkpt>
      <trkpt lat="43.57208" lon="2.48541">
        <ele>764.20001220703</ele>
        <time>2023-06-01T08:33:41.000Z</time>
      </trkpt>
      <trkpt lat="43.57207" lon="2.48534">
        <ele>764.40002441406</ele>
        <time>2023-06-01T08:33:47.000Z</time>
      </trkpt>
      <trkpt lat="43.57206" lon="2.48532">
        <ele>764.20001220703</ele>
        <time>2023-06-01T08:33:48.000Z</time>
      </trkpt>
      <trkpt lat="43.57206" lon="2.48524">
        <ele>764.20001220703</ele>
        <time>2023-06-01T08:33:53.000Z</time>
      </trkpt>
      <trkpt lat="43.57205" lon="2.48518">
        <ele>764.20001220703</ele>
        <time>2023-06-01T08:33:58.000Z</time>
      </trkpt>
      <trkpt lat="43.57205" lon="2.48516">
        <ele>764.20001220703</ele>
        <time>2023-06-01T08:33:59.000Z</time>
      </trkpt>
      <trkpt lat="43.57205" lon="2.48515">
        <ele>764.20001220703</ele>
        <time>2023-06-01T08:34:00.000Z</time>
      </trkpt>
      <trkpt lat="43.57204" lon="2.48509">
        <ele>764.20001220703</ele>
        <time>2023-06-01T08:34:04.000Z</time>
      </trkpt>
      <trkpt lat="43.57202" lon="2.48502">
        <ele>764.20001220703</ele>
        <time>2023-06-01T08:34:09.000Z</time>
      </trkpt>
      <trkpt lat="43.57202" lon="2.48501">
        <ele>764</ele>
        <time>2023-06-01T08:34:10.000Z</time>
      </trkpt>
      <trkpt lat="43.572" lon="2.4849">
        <ele>764.40002441406</ele>
        <time>2023-06-01T08:34:18.000Z</time>
      </trkpt>
      <trkpt lat="43.57198" lon="2.48483">
        <ele>764.59997558594</ele>
        <time>2023-06-01T08:34:23.000Z</time>
      </trkpt>
      <trkpt lat="43.57195" lon="2.48473">
        <ele>764.59997558594</ele>
        <time>2023-06-01T08:34:29.000Z</time>
      </trkpt>
      <trkpt lat="43.57195" lon="2.48473">
        <ele>764.59997558594</ele>
        <time>2023-06-01T08:34:30.000Z</time>
      </trkpt>
      <trkpt lat="43.57194" lon="2.48469">
        <ele>764.59997558594</ele>
        <time>2023-06-01T08:34:32.000Z</time>
      </trkpt>
      <trkpt lat="43.57194" lon="2.48466">
        <ele>764.59997558594</ele>
        <time>2023-06-01T08:34:35.000Z</time>
      </trkpt>
      <trkpt lat="43.57193" lon="2.48464">
        <ele>764.40002441406</ele>
        <time>2023-06-01T08:34:37.000Z</time>
      </trkpt>
      <trkpt lat="43.57191" lon="2.48457">
        <ele>764.20001220703</ele>
        <time>2023-06-01T08:34:41.000Z</time>
      </trkpt>
      <trkpt lat="43.5719" lon="2.48452">
        <ele>764.20001220703</ele>
        <time>2023-06-01T08:34:45.000Z</time>
      </trkpt>
      <trkpt lat="43.57189" lon="2.4845">
        <ele>764.20001220703</ele>
        <time>2023-06-01T08:34:46.000Z</time>
      </trkpt>
      <trkpt lat="43.57189" lon="2.48447">
        <ele>764.20001220703</ele>
        <time>2023-06-01T08:34:48.000Z</time>
      </trkpt>
      <trkpt lat="43.57187" lon="2.48438">
        <ele>764.20001220703</ele>
        <time>2023-06-01T08:34:53.000Z</time>
      </trkpt>
      <trkpt lat="43.57187" lon="2.48437">
        <ele>764.20001220703</ele>
        <time>2023-06-01T08:34:54.000Z</time>
      </trkpt>
      <trkpt lat="43.57186" lon="2.48431">
        <ele>764.40002441406</ele>
        <time>2023-06-01T08:34:58.000Z</time>
      </trkpt>
      <trkpt lat="43.57185" lon="2.48426">
        <ele>764.40002441406</ele>
        <time>2023-06-01T08:35:01.000Z</time>
      </trkpt>
      <trkpt lat="43.57184" lon="2.48422">
        <ele>764.20001220703</ele>
        <time>2023-06-01T08:35:05.000Z</time>
      </trkpt>
      <trkpt lat="43.57184" lon="2.4842">
        <ele>764.20001220703</ele>
        <time>2023-06-01T08:35:07.000Z</time>
      </trkpt>
      <trkpt lat="43.57183" lon="2.48416">
        <ele>764.40002441406</ele>
        <time>2023-06-01T08:35:09.000Z</time>
      </trkpt>
      <trkpt lat="43.57183" lon="2.48414">
        <ele>764.20001220703</ele>
        <time>2023-06-01T08:35:12.000Z</time>
      </trkpt>
      <trkpt lat="43.5718" lon="2.4841">
        <ele>764.20001220703</ele>
        <time>2023-06-01T08:35:15.000Z</time>
      </trkpt>
      <trkpt lat="43.57179" lon="2.48406">
        <ele>764</ele>
        <time>2023-06-01T08:35:18.000Z</time>
      </trkpt>
      <trkpt lat="43.57178" lon="2.48405">
        <ele>764</ele>
        <time>2023-06-01T08:35:19.000Z</time>
      </trkpt>
      <trkpt lat="43.57176" lon="2.484">
        <ele>764</ele>
        <time>2023-06-01T08:35:23.000Z</time>
      </trkpt>
      <trkpt lat="43.57176" lon="2.48398">
        <ele>764.20001220703</ele>
        <time>2023-06-01T08:35:24.000Z</time>
      </trkpt>
      <trkpt lat="43.57176" lon="2.48396">
        <ele>764</ele>
        <time>2023-06-01T08:35:25.000Z</time>
      </trkpt>
      <trkpt lat="43.57174" lon="2.48391">
        <ele>764.40002441406</ele>
        <time>2023-06-01T08:35:28.000Z</time>
      </trkpt>
      <trkpt lat="43.57172" lon="2.48385">
        <ele>764.40002441406</ele>
        <time>2023-06-01T08:35:32.000Z</time>
      </trkpt>
      <trkpt lat="43.57171" lon="2.4838">
        <ele>764.40002441406</ele>
        <time>2023-06-01T08:35:36.000Z</time>
      </trkpt>
      <trkpt lat="43.5717" lon="2.48377">
        <ele>764.40002441406</ele>
        <time>2023-06-01T08:35:38.000Z</time>
      </trkpt>
      <trkpt lat="43.57169" lon="2.48368">
        <ele>764.40002441406</ele>
        <time>2023-06-01T08:35:45.000Z</time>
      </trkpt>
      <trkpt lat="43.57168" lon="2.48364">
        <ele>764.20001220703</ele>
        <time>2023-06-01T08:35:48.000Z</time>
      </trkpt>
      <trkpt lat="43.57167" lon="2.48359">
        <ele>764.59997558594</ele>
        <time>2023-06-01T08:35:51.000Z</time>
      </trkpt>
      <trkpt lat="43.57167" lon="2.48358">
        <ele>764.59997558594</ele>
        <time>2023-06-01T08:35:52.000Z</time>
      </trkpt>
      <trkpt lat="43.57167" lon="2.48355">
        <ele>764.79998779297</ele>
        <time>2023-06-01T08:35:55.000Z</time>
      </trkpt>
      <trkpt lat="43.57167" lon="2.48352">
        <ele>765</ele>
        <time>2023-06-01T08:35:57.000Z</time>
      </trkpt>
      <trkpt lat="43.57166" lon="2.48349">
        <ele>765.20001220703</ele>
        <time>2023-06-01T08:35:59.000Z</time>
      </trkpt>
      <trkpt lat="43.57165" lon="2.48346">
        <ele>765.20001220703</ele>
        <time>2023-06-01T08:36:02.000Z</time>
      </trkpt>
      <trkpt lat="43.57165" lon="2.48342">
        <ele>765.40002441406</ele>
        <time>2023-06-01T08:36:05.000Z</time>
      </trkpt>
      <trkpt lat="43.57163" lon="2.48334">
        <ele>765.40002441406</ele>
        <time>2023-06-01T08:36:11.000Z</time>
      </trkpt>
      <trkpt lat="43.57162" lon="2.48327">
        <ele>765.59997558594</ele>
        <time>2023-06-01T08:36:17.000Z</time>
      </trkpt>
      <trkpt lat="43.57162" lon="2.48325">
        <ele>765.59997558594</ele>
        <time>2023-06-01T08:36:19.000Z</time>
      </trkpt>
      <trkpt lat="43.57162" lon="2.48323">
        <ele>765.79998779297</ele>
        <time>2023-06-01T08:36:21.000Z</time>
      </trkpt>
      <trkpt lat="43.57162" lon="2.48321">
        <ele>765.79998779297</ele>
        <time>2023-06-01T08:36:23.000Z</time>
      </trkpt>
      <trkpt lat="43.57161" lon="2.48317">
        <ele>766</ele>
        <time>2023-06-01T08:36:27.000Z</time>
      </trkpt>
      <trkpt lat="43.5716" lon="2.48315">
        <ele>765.79998779297</ele>
        <time>2023-06-01T08:36:29.000Z</time>
      </trkpt>
      <trkpt lat="43.57159" lon="2.48308">
        <ele>766</ele>
        <time>2023-06-01T08:36:34.000Z</time>
      </trkpt>
      <trkpt lat="43.57157" lon="2.48301">
        <ele>766.20001220703</ele>
        <time>2023-06-01T08:36:39.000Z</time>
      </trkpt>
      <trkpt lat="43.57157" lon="2.483">
        <ele>766.20001220703</ele>
        <time>2023-06-01T08:36:40.000Z</time>
      </trkpt>
      <trkpt lat="43.57156" lon="2.48298">
        <ele>766.20001220703</ele>
        <time>2023-06-01T08:36:42.000Z</time>
      </trkpt>
      <trkpt lat="43.57155" lon="2.48293">
        <ele>766.59997558594</ele>
        <time>2023-06-01T08:36:46.000Z</time>
      </trkpt>
      <trkpt lat="43.57155" lon="2.48291">
        <ele>766.59997558594</ele>
        <time>2023-06-01T08:36:47.000Z</time>
      </trkpt>
      <trkpt lat="43.57153" lon="2.48285">
        <ele>766.40002441406</ele>
        <time>2023-06-01T08:36:51.000Z</time>
      </trkpt>
      <trkpt lat="43.57151" lon="2.48276">
        <ele>766.20001220703</ele>
        <time>2023-06-01T08:36:58.000Z</time>
      </trkpt>
      <trkpt lat="43.5715" lon="2.48273">
        <ele>766.40002441406</ele>
        <time>2023-06-01T08:37:00.000Z</time>
      </trkpt>
      <trkpt lat="43.57149" lon="2.48269">
        <ele>766.59997558594</ele>
        <time>2023-06-01T08:37:03.000Z</time>
      </trkpt>
      <trkpt lat="43.57148" lon="2.48264">
        <ele>767</ele>
        <time>2023-06-01T08:37:07.000Z</time>
      </trkpt>
      <trkpt lat="43.57147" lon="2.4826">
        <ele>767</ele>
        <time>2023-06-01T08:37:10.000Z</time>
      </trkpt>
      <trkpt lat="43.57145" lon="2.48254">
        <ele>767.20001220703</ele>
        <time>2023-06-01T08:37:15.000Z</time>
      </trkpt>
      <trkpt lat="43.57144" lon="2.48246">
        <ele>768</ele>
        <time>2023-06-01T08:37:20.000Z</time>
      </trkpt>
      <trkpt lat="43.57143" lon="2.48244">
        <ele>768.20001220703</ele>
        <time>2023-06-01T08:37:22.000Z</time>
      </trkpt>
      <trkpt lat="43.57143" lon="2.48241">
        <ele>768.20001220703</ele>
        <time>2023-06-01T08:37:24.000Z</time>
      </trkpt>
      <trkpt lat="43.57142" lon="2.48237">
        <ele>768.20001220703</ele>
        <time>2023-06-01T08:37:27.000Z</time>
      </trkpt>
      <trkpt lat="43.57141" lon="2.48233">
        <ele>768.40002441406</ele>
        <time>2023-06-01T08:37:32.000Z</time>
      </trkpt>
      <trkpt lat="43.57141" lon="2.48231">
        <ele>768.40002441406</ele>
        <time>2023-06-01T08:37:33.000Z</time>
      </trkpt>
      <trkpt lat="43.57141" lon="2.4822">
        <ele>768.40002441406</ele>
        <time>2023-06-01T08:37:39.000Z</time>
      </trkpt>
      <trkpt lat="43.57141" lon="2.48218">
        <ele>768.59997558594</ele>
        <time>2023-06-01T08:37:40.000Z</time>
      </trkpt>
      <trkpt lat="43.5714" lon="2.48212">
        <ele>769.20001220703</ele>
        <time>2023-06-01T08:37:43.000Z</time>
      </trkpt>
      <trkpt lat="43.57139" lon="2.48207">
        <ele>769.79998779297</ele>
        <time>2023-06-01T08:37:46.000Z</time>
      </trkpt>
      <trkpt lat="43.57137" lon="2.48203">
        <ele>770</ele>
        <time>2023-06-01T08:37:49.000Z</time>
      </trkpt>
      <trkpt lat="43.57136" lon="2.48198">
        <ele>770.20001220703</ele>
        <time>2023-06-01T08:37:52.000Z</time>
      </trkpt>
      <trkpt lat="43.57136" lon="2.48197">
        <ele>770.20001220703</ele>
        <time>2023-06-01T08:37:53.000Z</time>
      </trkpt>
      <trkpt lat="43.57135" lon="2.48192">
        <ele>770.79998779297</ele>
        <time>2023-06-01T08:37:57.000Z</time>
      </trkpt>
      <trkpt lat="43.57135" lon="2.48192">
        <ele>770.79998779297</ele>
        <time>2023-06-01T08:37:59.000Z</time>
      </trkpt>
      <trkpt lat="43.57136" lon="2.48191">
        <ele>770.40002441406</ele>
        <time>2023-06-01T08:38:12.000Z</time>
      </trkpt>
      <trkpt lat="43.57138" lon="2.4819">
        <ele>770.59997558594</ele>
        <time>2023-06-01T08:38:21.000Z</time>
      </trkpt>
      <trkpt lat="43.57137" lon="2.48184">
        <ele>770.79998779297</ele>
        <time>2023-06-01T08:38:28.000Z</time>
      </trkpt>
      <trkpt lat="43.57135" lon="2.48175">
        <ele>771.20001220703</ele>
        <time>2023-06-01T08:38:35.000Z</time>
      </trkpt>
      <trkpt lat="43.57132" lon="2.48168">
        <ele>771.20001220703</ele>
        <time>2023-06-01T08:38:41.000Z</time>
      </trkpt>
      <trkpt lat="43.57132" lon="2.48166">
        <ele>771.40002441406</ele>
        <time>2023-06-01T08:38:42.000Z</time>
      </trkpt>
      <trkpt lat="43.57127" lon="2.48158">
        <ele>771.79998779297</ele>
        <time>2023-06-01T08:38:49.000Z</time>
      </trkpt>
      <trkpt lat="43.57125" lon="2.48154">
        <ele>771.59997558594</ele>
        <time>2023-06-01T08:38:53.000Z</time>
      </trkpt>
      <trkpt lat="43.57126" lon="2.48153">
        <ele>771.40002441406</ele>
        <time>2023-06-01T08:38:55.000Z</time>
      </trkpt>
      <trkpt lat="43.57126" lon="2.48154">
        <ele>771.40002441406</ele>
        <time>2023-06-01T08:39:01.000Z</time>
      </trkpt>
      <trkpt lat="43.57125" lon="2.48154">
        <ele>772</ele>
        <time>2023-06-01T08:39:08.000Z</time>
      </trkpt>
      <trkpt lat="43.57126" lon="2.48153">
        <ele>771.79998779297</ele>
        <time>2023-06-01T08:39:17.000Z</time>
      </trkpt>
      <trkpt lat="43.57125" lon="2.48153">
        <ele>771.40002441406</ele>
        <time>2023-06-01T08:39:22.000Z</time>
      </trkpt>
      <trkpt lat="43.57124" lon="2.48152">
        <ele>772</ele>
        <time>2023-06-01T08:39:33.000Z</time>
      </trkpt>
      <trkpt lat="43.57122" lon="2.48149">
        <ele>771.79998779297</ele>
        <time>2023-06-01T08:39:39.000Z</time>
      </trkpt>
      <trkpt lat="43.57117" lon="2.4814">
        <ele>770.79998779297</ele>
        <time>2023-06-01T08:39:47.000Z</time>
      </trkpt>
      <trkpt lat="43.57114" lon="2.48131">
        <ele>770.40002441406</ele>
        <time>2023-06-01T08:39:54.000Z</time>
      </trkpt>
      <trkpt lat="43.57114" lon="2.4813">
        <ele>770.40002441406</ele>
        <time>2023-06-01T08:39:55.000Z</time>
      </trkpt>
      <trkpt lat="43.57113" lon="2.48123">
        <ele>769.79998779297</ele>
        <time>2023-06-01T08:40:01.000Z</time>
      </trkpt>
      <trkpt lat="43.57111" lon="2.48114">
        <ele>769.59997558594</ele>
        <time>2023-06-01T08:40:08.000Z</time>
      </trkpt>
      <trkpt lat="43.5711" lon="2.48111">
        <ele>769.59997558594</ele>
        <time>2023-06-01T08:40:10.000Z</time>
      </trkpt>
      <trkpt lat="43.57109" lon="2.48106">
        <ele>769.40002441406</ele>
        <time>2023-06-01T08:40:13.000Z</time>
      </trkpt>
      <trkpt lat="43.57108" lon="2.48104">
        <ele>769.20001220703</ele>
        <time>2023-06-01T08:40:15.000Z</time>
      </trkpt>
      <trkpt lat="43.57105" lon="2.48098">
        <ele>768.59997558594</ele>
        <time>2023-06-01T08:40:20.000Z</time>
      </trkpt>
      <trkpt lat="43.57104" lon="2.48094">
        <ele>768.59997558594</ele>
        <time>2023-06-01T08:40:23.000Z</time>
      </trkpt>
      <trkpt lat="43.57098" lon="2.48087">
        <ele>768.40002441406</ele>
        <time>2023-06-01T08:40:29.000Z</time>
      </trkpt>
      <trkpt lat="43.57093" lon="2.48081">
        <ele>769.20001220703</ele>
        <time>2023-06-01T08:40:35.000Z</time>
      </trkpt>
      <trkpt lat="43.57091" lon="2.48078">
        <ele>768.79998779297</ele>
        <time>2023-06-01T08:40:38.000Z</time>
      </trkpt>
      <trkpt lat="43.57088" lon="2.48073">
        <ele>768.40002441406</ele>
        <time>2023-06-01T08:40:42.000Z</time>
      </trkpt>
      <trkpt lat="43.57088" lon="2.48072">
        <ele>768.20001220703</ele>
        <time>2023-06-01T08:40:43.000Z</time>
      </trkpt>
      <trkpt lat="43.57084" lon="2.48066">
        <ele>767.79998779297</ele>
        <time>2023-06-01T08:40:48.000Z</time>
      </trkpt>
      <trkpt lat="43.57081" lon="2.48058">
        <ele>767.20001220703</ele>
        <time>2023-06-01T08:40:53.000Z</time>
      </trkpt>
      <trkpt lat="43.57078" lon="2.48055">
        <ele>766.79998779297</ele>
        <time>2023-06-01T08:40:56.000Z</time>
      </trkpt>
      <trkpt lat="43.57071" lon="2.48046">
        <ele>766.59997558594</ele>
        <time>2023-06-01T08:41:04.000Z</time>
      </trkpt>
      <trkpt lat="43.57065" lon="2.48037">
        <ele>767</ele>
        <time>2023-06-01T08:41:12.000Z</time>
      </trkpt>
      <trkpt lat="43.57063" lon="2.48034">
        <ele>766.79998779297</ele>
        <time>2023-06-01T08:41:16.000Z</time>
      </trkpt>
      <trkpt lat="43.5706" lon="2.4803">
        <ele>766.59997558594</ele>
        <time>2023-06-01T08:41:19.000Z</time>
      </trkpt>
      <trkpt lat="43.57059" lon="2.48027">
        <ele>766.40002441406</ele>
        <time>2023-06-01T08:41:22.000Z</time>
      </trkpt>
      <trkpt lat="43.57058" lon="2.48024">
        <ele>766.20001220703</ele>
        <time>2023-06-01T08:41:24.000Z</time>
      </trkpt>
      <trkpt lat="43.57057" lon="2.48023">
        <ele>766.20001220703</ele>
        <time>2023-06-01T08:41:25.000Z</time>
      </trkpt>
      <trkpt lat="43.57056" lon="2.48022">
        <ele>766</ele>
        <time>2023-06-01T08:41:26.000Z</time>
      </trkpt>
      <trkpt lat="43.57055" lon="2.48019">
        <ele>765.79998779297</ele>
        <time>2023-06-01T08:41:28.000Z</time>
      </trkpt>
      <trkpt lat="43.57051" lon="2.48011">
        <ele>765.20001220703</ele>
        <time>2023-06-01T08:41:34.000Z</time>
      </trkpt>
      <trkpt lat="43.5705" lon="2.48009">
        <ele>765.20001220703</ele>
        <time>2023-06-01T08:41:35.000Z</time>
      </trkpt>
      <trkpt lat="43.57045" lon="2.48003">
        <ele>764.79998779297</ele>
        <time>2023-06-01T08:41:41.000Z</time>
      </trkpt>
      <trkpt lat="43.57034" lon="2.47994">
        <ele>764.20001220703</ele>
        <time>2023-06-01T08:41:52.000Z</time>
      </trkpt>
      <trkpt lat="43.57022" lon="2.47989">
        <ele>764.40002441406</ele>
        <time>2023-06-01T08:42:02.000Z</time>
      </trkpt>
      <trkpt lat="43.57021" lon="2.47988">
        <ele>764.20001220703</ele>
        <time>2023-06-01T08:42:03.000Z</time>
      </trkpt>
      <trkpt lat="43.57017" lon="2.47986">
        <ele>764.20001220703</ele>
        <time>2023-06-01T08:42:06.000Z</time>
      </trkpt>
      <trkpt lat="43.57016" lon="2.47986">
        <ele>764</ele>
        <time>2023-06-01T08:42:07.000Z</time>
      </trkpt>
      <trkpt lat="43.57015" lon="2.47985">
        <ele>764</ele>
        <time>2023-06-01T08:42:08.000Z</time>
      </trkpt>
      <trkpt lat="43.57007" lon="2.47982">
        <ele>763.79998779297</ele>
        <time>2023-06-01T08:42:15.000Z</time>
      </trkpt>
      <trkpt lat="43.56999" lon="2.47977">
        <ele>763.59997558594</ele>
        <time>2023-06-01T08:42:23.000Z</time>
      </trkpt>
      <trkpt lat="43.56995" lon="2.47973">
        <ele>763.20001220703</ele>
        <time>2023-06-01T08:42:29.000Z</time>
      </trkpt>
      <trkpt lat="43.56995" lon="2.47973">
        <ele>763</ele>
        <time>2023-06-01T08:42:30.000Z</time>
      </trkpt>
      <trkpt lat="43.56993" lon="2.47972">
        <ele>762.20001220703</ele>
        <time>2023-06-01T08:42:35.000Z</time>
      </trkpt>
      <trkpt lat="43.5699" lon="2.47969">
        <ele>762.40002441406</ele>
        <time>2023-06-01T08:42:42.000Z</time>
      </trkpt>
      <trkpt lat="43.56983" lon="2.47962">
        <ele>762.79998779297</ele>
        <time>2023-06-01T08:42:50.000Z</time>
      </trkpt>
      <trkpt lat="43.56977" lon="2.47958">
        <ele>762.20001220703</ele>
        <time>2023-06-01T08:42:57.000Z</time>
      </trkpt>
      <trkpt lat="43.56977" lon="2.47957">
        <ele>762</ele>
        <time>2023-06-01T08:42:58.000Z</time>
      </trkpt>
      <trkpt lat="43.56974" lon="2.47956">
        <ele>762</ele>
        <time>2023-06-01T08:43:01.000Z</time>
      </trkpt>
      <trkpt lat="43.56973" lon="2.47954">
        <ele>761.79998779297</ele>
        <time>2023-06-01T08:43:03.000Z</time>
      </trkpt>
      <trkpt lat="43.56971" lon="2.47952">
        <ele>761.59997558594</ele>
        <time>2023-06-01T08:43:05.000Z</time>
      </trkpt>
      <trkpt lat="43.56969" lon="2.47951">
        <ele>761.59997558594</ele>
        <time>2023-06-01T08:43:07.000Z</time>
      </trkpt>
      <trkpt lat="43.56967" lon="2.47949">
        <ele>761.40002441406</ele>
        <time>2023-06-01T08:43:09.000Z</time>
      </trkpt>
      <trkpt lat="43.56961" lon="2.47944">
        <ele>761</ele>
        <time>2023-06-01T08:43:16.000Z</time>
      </trkpt>
      <trkpt lat="43.56959" lon="2.47941">
        <ele>761</ele>
        <time>2023-06-01T08:43:17.000Z</time>
      </trkpt>
      <trkpt lat="43.56957" lon="2.4794">
        <ele>760.79998779297</ele>
        <time>2023-06-01T08:43:19.000Z</time>
      </trkpt>
      <trkpt lat="43.56957" lon="2.4794">
        <ele>760.79998779297</ele>
        <time>2023-06-01T08:43:20.000Z</time>
      </trkpt>
      <trkpt lat="43.56955" lon="2.47939">
        <ele>761</ele>
        <time>2023-06-01T08:43:23.000Z</time>
      </trkpt>
      <trkpt lat="43.56953" lon="2.47938">
        <ele>761</ele>
        <time>2023-06-01T08:43:25.000Z</time>
      </trkpt>
      <trkpt lat="43.56952" lon="2.47937">
        <ele>760.79998779297</ele>
        <time>2023-06-01T08:43:26.000Z</time>
      </trkpt>
      <trkpt lat="43.56951" lon="2.47936">
        <ele>760.59997558594</ele>
        <time>2023-06-01T08:43:33.000Z</time>
      </trkpt>
      <trkpt lat="43.56945" lon="2.47932">
        <ele>760.40002441406</ele>
        <time>2023-06-01T08:43:39.000Z</time>
      </trkpt>
      <trkpt lat="43.56939" lon="2.47928">
        <ele>760.20001220703</ele>
        <time>2023-06-01T08:43:44.000Z</time>
      </trkpt>
      <trkpt lat="43.56932" lon="2.47923">
        <ele>760.79998779297</ele>
        <time>2023-06-01T08:43:52.000Z</time>
      </trkpt>
      <trkpt lat="43.56927" lon="2.47921">
        <ele>761</ele>
        <time>2023-06-01T08:43:56.000Z</time>
      </trkpt>
      <trkpt lat="43.56924" lon="2.4792">
        <ele>761</ele>
        <time>2023-06-01T08:43:59.000Z</time>
      </trkpt>
      <trkpt lat="43.56922" lon="2.47919">
        <ele>761</ele>
        <time>2023-06-01T08:44:01.000Z</time>
      </trkpt>
      <trkpt lat="43.56917" lon="2.47916">
        <ele>760</ele>
        <time>2023-06-01T08:44:06.000Z</time>
      </trkpt>
      <trkpt lat="43.56916" lon="2.47916">
        <ele>759.79998779297</ele>
        <time>2023-06-01T08:44:07.000Z</time>
      </trkpt>
      <trkpt lat="43.56913" lon="2.47914">
        <ele>759.59997558594</ele>
        <time>2023-06-01T08:44:10.000Z</time>
      </trkpt>
      <trkpt lat="43.5691" lon="2.47911">
        <ele>759.59997558594</ele>
        <time>2023-06-01T08:44:14.000Z</time>
      </trkpt>
      <trkpt lat="43.56905" lon="2.47909">
        <ele>759.20001220703</ele>
        <time>2023-06-01T08:44:20.000Z</time>
      </trkpt>
      <trkpt lat="43.56905" lon="2.47909">
        <ele>759.20001220703</ele>
        <time>2023-06-01T08:44:21.000Z</time>
      </trkpt>
      <trkpt lat="43.56902" lon="2.47906">
        <ele>759</ele>
        <time>2023-06-01T08:44:26.000Z</time>
      </trkpt>
      <trkpt lat="43.569" lon="2.47906">
        <ele>758.79998779297</ele>
        <time>2023-06-01T08:44:29.000Z</time>
      </trkpt>
      <trkpt lat="43.56897" lon="2.47904">
        <ele>758.20001220703</ele>
        <time>2023-06-01T08:44:33.000Z</time>
      </trkpt>
      <trkpt lat="43.56892" lon="2.47904">
        <ele>758</ele>
        <time>2023-06-01T08:44:39.000Z</time>
      </trkpt>
      <trkpt lat="43.5689" lon="2.47904">
        <ele>757.79998779297</ele>
        <time>2023-06-01T08:44:40.000Z</time>
      </trkpt>
      <trkpt lat="43.56886" lon="2.47904">
        <ele>758</ele>
        <time>2023-06-01T08:44:45.000Z</time>
      </trkpt>
      <trkpt lat="43.56884" lon="2.47905">
        <ele>758</ele>
        <time>2023-06-01T08:44:48.000Z</time>
      </trkpt>
      <trkpt lat="43.56882" lon="2.47906">
        <ele>758</ele>
        <time>2023-06-01T08:44:50.000Z</time>
      </trkpt>
      <trkpt lat="43.56881" lon="2.47906">
        <ele>758</ele>
        <time>2023-06-01T08:44:51.000Z</time>
      </trkpt>
      <trkpt lat="43.56879" lon="2.47907">
        <ele>757.79998779297</ele>
        <time>2023-06-01T08:44:54.000Z</time>
      </trkpt>
      <trkpt lat="43.56877" lon="2.47909">
        <ele>757.59997558594</ele>
        <time>2023-06-01T08:44:57.000Z</time>
      </trkpt>
      <trkpt lat="43.56872" lon="2.47911">
        <ele>757.59997558594</ele>
        <time>2023-06-01T08:45:03.000Z</time>
      </trkpt>
      <trkpt lat="43.56871" lon="2.47911">
        <ele>757.59997558594</ele>
        <time>2023-06-01T08:45:04.000Z</time>
      </trkpt>
      <trkpt lat="43.56865" lon="2.47914">
        <ele>757.40002441406</ele>
        <time>2023-06-01T08:45:09.000Z</time>
      </trkpt>
      <trkpt lat="43.5686" lon="2.47914">
        <ele>757.40002441406</ele>
        <time>2023-06-01T08:45:13.000Z</time>
      </trkpt>
      <trkpt lat="43.56855" lon="2.47914">
        <ele>757.20001220703</ele>
        <time>2023-06-01T08:45:16.000Z</time>
      </trkpt>
      <trkpt lat="43.56843" lon="2.47913">
        <ele>756.79998779297</ele>
        <time>2023-06-01T08:45:25.000Z</time>
      </trkpt>
      <trkpt lat="43.56842" lon="2.47913">
        <ele>756.79998779297</ele>
        <time>2023-06-01T08:45:26.000Z</time>
      </trkpt>
      <trkpt lat="43.56834" lon="2.47912">
        <ele>756.40002441406</ele>
        <time>2023-06-01T08:45:32.000Z</time>
      </trkpt>
      <trkpt lat="43.56824" lon="2.47912">
        <ele>755.59997558594</ele>
        <time>2023-06-01T08:45:39.000Z</time>
      </trkpt>
      <trkpt lat="43.56823" lon="2.47912">
        <ele>755.59997558594</ele>
        <time>2023-06-01T08:45:40.000Z</time>
      </trkpt>
      <trkpt lat="43.56815" lon="2.47911">
        <ele>755.20001220703</ele>
        <time>2023-06-01T08:45:46.000Z</time>
      </trkpt>
      <trkpt lat="43.56806" lon="2.47909">
        <ele>754.59997558594</ele>
        <time>2023-06-01T08:45:53.000Z</time>
      </trkpt>
      <trkpt lat="43.56803" lon="2.47908">
        <ele>754.40002441406</ele>
        <time>2023-06-01T08:45:55.000Z</time>
      </trkpt>
      <trkpt lat="43.568" lon="2.47906">
        <ele>754.20001220703</ele>
        <time>2023-06-01T08:45:58.000Z</time>
      </trkpt>
      <trkpt lat="43.56797" lon="2.47905">
        <ele>754</ele>
        <time>2023-06-01T08:46:01.000Z</time>
      </trkpt>
      <trkpt lat="43.56794" lon="2.47902">
        <ele>753.79998779297</ele>
        <time>2023-06-01T08:46:04.000Z</time>
      </trkpt>
      <trkpt lat="43.5679" lon="2.479">
        <ele>753.59997558594</ele>
        <time>2023-06-01T08:46:07.000Z</time>
      </trkpt>
      <trkpt lat="43.56788" lon="2.47898">
        <ele>753.40002441406</ele>
        <time>2023-06-01T08:46:10.000Z</time>
      </trkpt>
      <trkpt lat="43.56786" lon="2.47897">
        <ele>753.40002441406</ele>
        <time>2023-06-01T08:46:11.000Z</time>
      </trkpt>
      <trkpt lat="43.56783" lon="2.47895">
        <ele>753.20001220703</ele>
        <time>2023-06-01T08:46:14.000Z</time>
      </trkpt>
      <trkpt lat="43.56782" lon="2.47894">
        <ele>753.20001220703</ele>
        <time>2023-06-01T08:46:15.000Z</time>
      </trkpt>
      <trkpt lat="43.5678" lon="2.47892">
        <ele>753.20001220703</ele>
        <time>2023-06-01T08:46:17.000Z</time>
      </trkpt>
      <trkpt lat="43.56772" lon="2.47886">
        <ele>753.20001220703</ele>
        <time>2023-06-01T08:46:25.000Z</time>
      </trkpt>
      <trkpt lat="43.56771" lon="2.47885">
        <ele>753.20001220703</ele>
        <time>2023-06-01T08:46:26.000Z</time>
      </trkpt>
      <trkpt lat="43.56767" lon="2.47881">
        <ele>753.20001220703</ele>
        <time>2023-06-01T08:46:32.000Z</time>
      </trkpt>
      <trkpt lat="43.56765" lon="2.47881">
        <ele>753</ele>
        <time>2023-06-01T08:46:40.000Z</time>
      </trkpt>
      <trkpt lat="43.5676" lon="2.47878">
        <ele>752.79998779297</ele>
        <time>2023-06-01T08:46:48.000Z</time>
      </trkpt>
      <trkpt lat="43.56755" lon="2.47875">
        <ele>752.79998779297</ele>
        <time>2023-06-01T08:46:54.000Z</time>
      </trkpt>
      <trkpt lat="43.56754" lon="2.47875">
        <ele>752.79998779297</ele>
        <time>2023-06-01T08:46:55.000Z</time>
      </trkpt>
      <trkpt lat="43.5675" lon="2.47871">
        <ele>752.40002441406</ele>
        <time>2023-06-01T08:46:59.000Z</time>
      </trkpt>
      <trkpt lat="43.56748" lon="2.4787">
        <ele>752.20001220703</ele>
        <time>2023-06-01T08:47:01.000Z</time>
      </trkpt>
      <trkpt lat="43.56746" lon="2.47868">
        <ele>752</ele>
        <time>2023-06-01T08:47:03.000Z</time>
      </trkpt>
      <trkpt lat="43.56743" lon="2.47866">
        <ele>751.40002441406</ele>
        <time>2023-06-01T08:47:06.000Z</time>
      </trkpt>
      <trkpt lat="43.5674" lon="2.47865">
        <ele>751</ele>
        <time>2023-06-01T08:47:09.000Z</time>
      </trkpt>
      <trkpt lat="43.56739" lon="2.47864">
        <ele>750.79998779297</ele>
        <time>2023-06-01T08:47:11.000Z</time>
      </trkpt>
      <trkpt lat="43.56736" lon="2.47862">
        <ele>750.40002441406</ele>
        <time>2023-06-01T08:47:15.000Z</time>
      </trkpt>
      <trkpt lat="43.56735" lon="2.47861">
        <ele>749.79998779297</ele>
        <time>2023-06-01T08:47:18.000Z</time>
      </trkpt>
      <trkpt lat="43.56732" lon="2.47858">
        <ele>749.40002441406</ele>
        <time>2023-06-01T08:47:22.000Z</time>
      </trkpt>
      <trkpt lat="43.56731" lon="2.47858">
        <ele>749.20001220703</ele>
        <time>2023-06-01T08:47:23.000Z</time>
      </trkpt>
      <trkpt lat="43.56725" lon="2.4785">
        <ele>748.40002441406</ele>
        <time>2023-06-01T08:47:31.000Z</time>
      </trkpt>
      <trkpt lat="43.56725" lon="2.4785">
        <ele>748.20001220703</ele>
        <time>2023-06-01T08:47:32.000Z</time>
      </trkpt>
      <trkpt lat="43.5672" lon="2.47845">
        <ele>747.40002441406</ele>
        <time>2023-06-01T08:47:38.000Z</time>
      </trkpt>
      <trkpt lat="43.56719" lon="2.47843">
        <ele>747.20001220703</ele>
        <time>2023-06-01T08:47:39.000Z</time>
      </trkpt>
      <trkpt lat="43.56718" lon="2.47841">
        <ele>746.79998779297</ele>
        <time>2023-06-01T08:47:41.000Z</time>
      </trkpt>
      <trkpt lat="43.56716" lon="2.47839">
        <ele>746.59997558594</ele>
        <time>2023-06-01T08:47:43.000Z</time>
      </trkpt>
      <trkpt lat="43.56714" lon="2.47837">
        <ele>746.20001220703</ele>
        <time>2023-06-01T08:47:45.000Z</time>
      </trkpt>
      <trkpt lat="43.56713" lon="2.47836">
        <ele>746.20001220703</ele>
        <time>2023-06-01T08:47:46.000Z</time>
      </trkpt>
      <trkpt lat="43.56709" lon="2.47834">
        <ele>745.79998779297</ele>
        <time>2023-06-01T08:47:50.000Z</time>
      </trkpt>
      <trkpt lat="43.56707" lon="2.47832">
        <ele>745.59997558594</ele>
        <time>2023-06-01T08:47:52.000Z</time>
      </trkpt>
      <trkpt lat="43.56703" lon="2.47831">
        <ele>745.59997558594</ele>
        <time>2023-06-01T08:47:55.000Z</time>
      </trkpt>
      <trkpt lat="43.56699" lon="2.47827">
        <ele>745.20001220703</ele>
        <time>2023-06-01T08:47:59.000Z</time>
      </trkpt>
      <trkpt lat="43.56698" lon="2.47826">
        <ele>745</ele>
        <time>2023-06-01T08:48:00.000Z</time>
      </trkpt>
      <trkpt lat="43.56697" lon="2.47824">
        <ele>745</ele>
        <time>2023-06-01T08:48:01.000Z</time>
      </trkpt>
      <trkpt lat="43.56693" lon="2.4782">
        <ele>744.79998779297</ele>
        <time>2023-06-01T08:48:05.000Z</time>
      </trkpt>
      <trkpt lat="43.5669" lon="2.47819">
        <ele>744.79998779297</ele>
        <time>2023-06-01T08:48:07.000Z</time>
      </trkpt>
      <trkpt lat="43.56681" lon="2.47813">
        <ele>744.59997558594</ele>
        <time>2023-06-01T08:48:15.000Z</time>
      </trkpt>
      <trkpt lat="43.5668" lon="2.47811">
        <ele>744.40002441406</ele>
        <time>2023-06-01T08:48:16.000Z</time>
      </trkpt>
      <trkpt lat="43.56675" lon="2.47808">
        <ele>744.20001220703</ele>
        <time>2023-06-01T08:48:21.000Z</time>
      </trkpt>
      <trkpt lat="43.56671" lon="2.47804">
        <ele>743.59997558594</ele>
        <time>2023-06-01T08:48:26.000Z</time>
      </trkpt>
      <trkpt lat="43.56669" lon="2.47801">
        <ele>743.40002441406</ele>
        <time>2023-06-01T08:48:28.000Z</time>
      </trkpt>
      <trkpt lat="43.56666" lon="2.47797">
        <ele>743.40002441406</ele>
        <time>2023-06-01T08:48:32.000Z</time>
      </trkpt>
      <trkpt lat="43.56663" lon="2.47795">
        <ele>743.59997558594</ele>
        <time>2023-06-01T08:48:35.000Z</time>
      </trkpt>
      <trkpt lat="43.5666" lon="2.47794">
        <ele>743.59997558594</ele>
        <time>2023-06-01T08:48:38.000Z</time>
      </trkpt>
      <trkpt lat="43.56659" lon="2.47793">
        <ele>743.59997558594</ele>
        <time>2023-06-01T08:48:39.000Z</time>
      </trkpt>
      <trkpt lat="43.56658" lon="2.47792">
        <ele>743.59997558594</ele>
        <time>2023-06-01T08:48:40.000Z</time>
      </trkpt>
      <trkpt lat="43.56656" lon="2.47791">
        <ele>743.79998779297</ele>
        <time>2023-06-01T08:48:43.000Z</time>
      </trkpt>
      <trkpt lat="43.56655" lon="2.47791">
        <ele>743.79998779297</ele>
        <time>2023-06-01T08:48:44.000Z</time>
      </trkpt>
      <trkpt lat="43.56654" lon="2.4779">
        <ele>744.20001220703</ele>
        <time>2023-06-01T08:48:46.000Z</time>
      </trkpt>
      <trkpt lat="43.5665" lon="2.47784">
        <ele>744.40002441406</ele>
        <time>2023-06-01T08:48:52.000Z</time>
      </trkpt>
      <trkpt lat="43.56646" lon="2.47779">
        <ele>744.20001220703</ele>
        <time>2023-06-01T08:48:58.000Z</time>
      </trkpt>
      <trkpt lat="43.56645" lon="2.47778">
        <ele>744.20001220703</ele>
        <time>2023-06-01T08:48:59.000Z</time>
      </trkpt>
      <trkpt lat="43.56641" lon="2.47771">
        <ele>744</ele>
        <time>2023-06-01T08:49:05.000Z</time>
      </trkpt>
      <trkpt lat="43.56638" lon="2.47766">
        <ele>744.20001220703</ele>
        <time>2023-06-01T08:49:10.000Z</time>
      </trkpt>
      <trkpt lat="43.56638" lon="2.47766">
        <ele>744.20001220703</ele>
        <time>2023-06-01T08:49:11.000Z</time>
      </trkpt>
      <trkpt lat="43.56635" lon="2.47763">
        <ele>744.40002441406</ele>
        <time>2023-06-01T08:49:15.000Z</time>
      </trkpt>
      <trkpt lat="43.56634" lon="2.47762">
        <ele>744.59997558594</ele>
        <time>2023-06-01T08:49:19.000Z</time>
      </trkpt>
      <trkpt lat="43.56631" lon="2.47758">
        <ele>745.20001220703</ele>
        <time>2023-06-01T08:49:23.000Z</time>
      </trkpt>
      <trkpt lat="43.56628" lon="2.47756">
        <ele>745.20001220703</ele>
        <time>2023-06-01T08:49:26.000Z</time>
      </trkpt>
      <trkpt lat="43.56626" lon="2.47753">
        <ele>745.20001220703</ele>
        <time>2023-06-01T08:49:29.000Z</time>
      </trkpt>
      <trkpt lat="43.56623" lon="2.47751">
        <ele>745.59997558594</ele>
        <time>2023-06-01T08:49:33.000Z</time>
      </trkpt>
      <trkpt lat="43.56621" lon="2.4775">
        <ele>745.79998779297</ele>
        <time>2023-06-01T08:49:36.000Z</time>
      </trkpt>
      <trkpt lat="43.56618" lon="2.47747">
        <ele>745.79998779297</ele>
        <time>2023-06-01T08:49:39.000Z</time>
      </trkpt>
      <trkpt lat="43.56617" lon="2.47746">
        <ele>745.79998779297</ele>
        <time>2023-06-01T08:49:40.000Z</time>
      </trkpt>
      <trkpt lat="43.56611" lon="2.47741">
        <ele>745.79998779297</ele>
        <time>2023-06-01T08:49:46.000Z</time>
      </trkpt>
      <trkpt lat="43.56609" lon="2.4774">
        <ele>745.79998779297</ele>
        <time>2023-06-01T08:49:48.000Z</time>
      </trkpt>
      <trkpt lat="43.56604" lon="2.47735">
        <ele>746</ele>
        <time>2023-06-01T08:49:53.000Z</time>
      </trkpt>
      <trkpt lat="43.56603" lon="2.47734">
        <ele>746.20001220703</ele>
        <time>2023-06-01T08:49:54.000Z</time>
      </trkpt>
      <trkpt lat="43.56598" lon="2.4773">
        <ele>746.59997558594</ele>
        <time>2023-06-01T08:49:59.000Z</time>
      </trkpt>
      <trkpt lat="43.56597" lon="2.4773">
        <ele>746.59997558594</ele>
        <time>2023-06-01T08:50:00.000Z</time>
      </trkpt>
      <trkpt lat="43.56593" lon="2.47727">
        <ele>746.59997558594</ele>
        <time>2023-06-01T08:50:04.000Z</time>
      </trkpt>
      <trkpt lat="43.5659" lon="2.47724">
        <ele>746.79998779297</ele>
        <time>2023-06-01T08:50:08.000Z</time>
      </trkpt>
      <trkpt lat="43.5659" lon="2.47724">
        <ele>746.59997558594</ele>
        <time>2023-06-01T08:50:09.000Z</time>
      </trkpt>
      <trkpt lat="43.56589" lon="2.47721">
        <ele>746.79998779297</ele>
        <time>2023-06-01T08:50:18.000Z</time>
      </trkpt>
      <trkpt lat="43.56587" lon="2.47715">
        <ele>746.79998779297</ele>
        <time>2023-06-01T08:50:24.000Z</time>
      </trkpt>
      <trkpt lat="43.5658" lon="2.47708">
        <ele>746.40002441406</ele>
        <time>2023-06-01T08:50:31.000Z</time>
      </trkpt>
      <trkpt lat="43.56578" lon="2.47707">
        <ele>746.40002441406</ele>
        <time>2023-06-01T08:50:32.000Z</time>
      </trkpt>
      <trkpt lat="43.56567" lon="2.47704">
        <ele>745.79998779297</ele>
        <time>2023-06-01T08:50:40.000Z</time>
      </trkpt>
      <trkpt lat="43.56565" lon="2.47704">
        <ele>745.79998779297</ele>
        <time>2023-06-01T08:50:42.000Z</time>
      </trkpt>
      <trkpt lat="43.56561" lon="2.47703">
        <ele>746.20001220703</ele>
        <time>2023-06-01T08:50:46.000Z</time>
      </trkpt>
      <trkpt lat="43.56555" lon="2.47697">
        <ele>745.79998779297</ele>
        <time>2023-06-01T08:50:53.000Z</time>
      </trkpt>
      <trkpt lat="43.56553" lon="2.47695">
        <ele>745.59997558594</ele>
        <time>2023-06-01T08:50:55.000Z</time>
      </trkpt>
      <trkpt lat="43.56549" lon="2.47692">
        <ele>746</ele>
        <time>2023-06-01T08:51:00.000Z</time>
      </trkpt>
      <trkpt lat="43.56548" lon="2.47692">
        <ele>746</ele>
        <time>2023-06-01T08:51:02.000Z</time>
      </trkpt>
      <trkpt lat="43.56546" lon="2.47691">
        <ele>746</ele>
        <time>2023-06-01T08:51:05.000Z</time>
      </trkpt>
      <trkpt lat="43.56543" lon="2.47691">
        <ele>746.20001220703</ele>
        <time>2023-06-01T08:51:12.000Z</time>
      </trkpt>
      <trkpt lat="43.56542" lon="2.4769">
        <ele>746.40002441406</ele>
        <time>2023-06-01T08:51:19.000Z</time>
      </trkpt>
      <trkpt lat="43.56538" lon="2.47687">
        <ele>746.20001220703</ele>
        <time>2023-06-01T08:51:25.000Z</time>
      </trkpt>
      <trkpt lat="43.56531" lon="2.47682">
        <ele>746</ele>
        <time>2023-06-01T08:51:31.000Z</time>
      </trkpt>
      <trkpt lat="43.56526" lon="2.47678">
        <ele>746.40002441406</ele>
        <time>2023-06-01T08:51:37.000Z</time>
      </trkpt>
      <trkpt lat="43.56523" lon="2.47676">
        <ele>746.40002441406</ele>
        <time>2023-06-01T08:51:40.000Z</time>
      </trkpt>
      <trkpt lat="43.56519" lon="2.47675">
        <ele>746.59997558594</ele>
        <time>2023-06-01T08:51:43.000Z</time>
      </trkpt>
      <trkpt lat="43.56516" lon="2.47672">
        <ele>746.59997558594</ele>
        <time>2023-06-01T08:51:47.000Z</time>
      </trkpt>
      <trkpt lat="43.56514" lon="2.4767">
        <ele>746.40002441406</ele>
        <time>2023-06-01T08:51:49.000Z</time>
      </trkpt>
      <trkpt lat="43.56511" lon="2.47668">
        <ele>746.59997558594</ele>
        <time>2023-06-01T08:51:53.000Z</time>
      </trkpt>
      <trkpt lat="43.56507" lon="2.47665">
        <ele>746.79998779297</ele>
        <time>2023-06-01T08:51:57.000Z</time>
      </trkpt>
      <trkpt lat="43.56503" lon="2.47661">
        <ele>747.20001220703</ele>
        <time>2023-06-01T08:52:02.000Z</time>
      </trkpt>
      <trkpt lat="43.56502" lon="2.4766">
        <ele>747.20001220703</ele>
        <time>2023-06-01T08:52:03.000Z</time>
      </trkpt>
      <trkpt lat="43.565" lon="2.47658">
        <ele>747.59997558594</ele>
        <time>2023-06-01T08:52:06.000Z</time>
      </trkpt>
      <trkpt lat="43.56499" lon="2.47657">
        <ele>747.59997558594</ele>
        <time>2023-06-01T08:52:09.000Z</time>
      </trkpt>
      <trkpt lat="43.56495" lon="2.47657">
        <ele>747.20001220703</ele>
        <time>2023-06-01T08:52:15.000Z</time>
      </trkpt>
      <trkpt lat="43.5649" lon="2.47655">
        <ele>747.40002441406</ele>
        <time>2023-06-01T08:52:21.000Z</time>
      </trkpt>
      <trkpt lat="43.56484" lon="2.47653">
        <ele>748.20001220703</ele>
        <time>2023-06-01T08:52:27.000Z</time>
      </trkpt>
      <trkpt lat="43.56483" lon="2.47652">
        <ele>748.40002441406</ele>
        <time>2023-06-01T08:52:28.000Z</time>
      </trkpt>
      <trkpt lat="43.56482" lon="2.47651">
        <ele>748.59997558594</ele>
        <time>2023-06-01T08:52:30.000Z</time>
      </trkpt>
      <trkpt lat="43.56477" lon="2.47648">
        <ele>749.20001220703</ele>
        <time>2023-06-01T08:52:35.000Z</time>
      </trkpt>
      <trkpt lat="43.56475" lon="2.47646">
        <ele>749.59997558594</ele>
        <time>2023-06-01T08:52:38.000Z</time>
      </trkpt>
      <trkpt lat="43.56472" lon="2.47641">
        <ele>749.20001220703</ele>
        <time>2023-06-01T08:52:43.000Z</time>
      </trkpt>
      <trkpt lat="43.56471" lon="2.47641">
        <ele>749.20001220703</ele>
        <time>2023-06-01T08:52:44.000Z</time>
      </trkpt>
      <trkpt lat="43.56468" lon="2.47633">
        <ele>749</ele>
        <time>2023-06-01T08:52:52.000Z</time>
      </trkpt>
      <trkpt lat="43.56466" lon="2.47631">
        <ele>749.79998779297</ele>
        <time>2023-06-01T08:52:55.000Z</time>
      </trkpt>
      <trkpt lat="43.56464" lon="2.47628">
        <ele>750.59997558594</ele>
        <time>2023-06-01T08:52:58.000Z</time>
      </trkpt>
      <trkpt lat="43.56463" lon="2.47623">
        <ele>751.20001220703</ele>
        <time>2023-06-01T08:53:01.000Z</time>
      </trkpt>
      <trkpt lat="43.56463" lon="2.47622">
        <ele>751.20001220703</ele>
        <time>2023-06-01T08:53:02.000Z</time>
      </trkpt>
      <trkpt lat="43.56461" lon="2.47618">
        <ele>751.40002441406</ele>
        <time>2023-06-01T08:53:05.000Z</time>
      </trkpt>
      <trkpt lat="43.5646" lon="2.47615">
        <ele>751.59997558594</ele>
        <time>2023-06-01T08:53:07.000Z</time>
      </trkpt>
      <trkpt lat="43.56459" lon="2.47608">
        <ele>751.59997558594</ele>
        <time>2023-06-01T08:53:13.000Z</time>
      </trkpt>
      <trkpt lat="43.56458" lon="2.47604">
        <ele>751.20001220703</ele>
        <time>2023-06-01T08:53:20.000Z</time>
      </trkpt>
      <trkpt lat="43.56455" lon="2.47594">
        <ele>751.79998779297</ele>
        <time>2023-06-01T08:53:29.000Z</time>
      </trkpt>
      <trkpt lat="43.56453" lon="2.47577">
        <ele>751</ele>
        <time>2023-06-01T08:53:39.000Z</time>
      </trkpt>
      <trkpt lat="43.56451" lon="2.47566">
        <ele>751.79998779297</ele>
        <time>2023-06-01T08:53:46.000Z</time>
      </trkpt>
      <trkpt lat="43.56449" lon="2.47552">
        <ele>751</ele>
        <time>2023-06-01T08:53:54.000Z</time>
      </trkpt>
      <trkpt lat="43.56448" lon="2.47551">
        <ele>750.79998779297</ele>
        <time>2023-06-01T08:53:55.000Z</time>
      </trkpt>
      <trkpt lat="43.56448" lon="2.47547">
        <ele>750.59997558594</ele>
        <time>2023-06-01T08:53:57.000Z</time>
      </trkpt>
      <trkpt lat="43.56447" lon="2.47537">
        <ele>751.20001220703</ele>
        <time>2023-06-01T08:54:03.000Z</time>
      </trkpt>
      <trkpt lat="43.56444" lon="2.47521">
        <ele>751.40002441406</ele>
        <time>2023-06-01T08:54:13.000Z</time>
      </trkpt>
      <trkpt lat="43.56443" lon="2.47512">
        <ele>751.40002441406</ele>
        <time>2023-06-01T08:54:21.000Z</time>
      </trkpt>
      <trkpt lat="43.56442" lon="2.4751">
        <ele>751.20001220703</ele>
        <time>2023-06-01T08:54:29.000Z</time>
      </trkpt>
      <trkpt lat="43.56443" lon="2.47499">
        <ele>751.20001220703</ele>
        <time>2023-06-01T08:54:36.000Z</time>
      </trkpt>
      <trkpt lat="43.56443" lon="2.47485">
        <ele>751</ele>
        <time>2023-06-01T08:54:44.000Z</time>
      </trkpt>
      <trkpt lat="43.56442" lon="2.47475">
        <ele>750.20001220703</ele>
        <time>2023-06-01T08:54:51.000Z</time>
      </trkpt>
      <trkpt lat="43.56442" lon="2.47466">
        <ele>749.79998779297</ele>
        <time>2023-06-01T08:54:57.000Z</time>
      </trkpt>
      <trkpt lat="43.56443" lon="2.47462">
        <ele>749.59997558594</ele>
        <time>2023-06-01T08:55:00.000Z</time>
      </trkpt>
      <trkpt lat="43.56443" lon="2.47456">
        <ele>749.20001220703</ele>
        <time>2023-06-01T08:55:04.000Z</time>
      </trkpt>
      <trkpt lat="43.56442" lon="2.47446">
        <ele>749</ele>
        <time>2023-06-01T08:55:11.000Z</time>
      </trkpt>
      <trkpt lat="43.56441" lon="2.47438">
        <ele>748.79998779297</ele>
        <time>2023-06-01T08:55:17.000Z</time>
      </trkpt>
      <trkpt lat="43.56441" lon="2.47432">
        <ele>748.40002441406</ele>
        <time>2023-06-01T08:55:20.000Z</time>
      </trkpt>
      <trkpt lat="43.56441" lon="2.47427">
        <ele>748.40002441406</ele>
        <time>2023-06-01T08:55:23.000Z</time>
      </trkpt>
      <trkpt lat="43.56441" lon="2.47413">
        <ele>747.59997558594</ele>
        <time>2023-06-01T08:55:32.000Z</time>
      </trkpt>
      <trkpt lat="43.5644" lon="2.4741">
        <ele>747.40002441406</ele>
        <time>2023-06-01T08:55:34.000Z</time>
      </trkpt>
      <trkpt lat="43.56439" lon="2.47397">
        <ele>746.59997558594</ele>
        <time>2023-06-01T08:55:42.000Z</time>
      </trkpt>
      <trkpt lat="43.56438" lon="2.47392">
        <ele>746.40002441406</ele>
        <time>2023-06-01T08:55:45.000Z</time>
      </trkpt>
      <trkpt lat="43.56437" lon="2.47381">
        <ele>745.59997558594</ele>
        <time>2023-06-01T08:55:52.000Z</time>
      </trkpt>
      <trkpt lat="43.56436" lon="2.47369">
        <ele>745.40002441406</ele>
        <time>2023-06-01T08:56:00.000Z</time>
      </trkpt>
      <trkpt lat="43.56435" lon="2.47364">
        <ele>745.20001220703</ele>
        <time>2023-06-01T08:56:03.000Z</time>
      </trkpt>
      <trkpt lat="43.56433" lon="2.47347">
        <ele>745.20001220703</ele>
        <time>2023-06-01T08:56:14.000Z</time>
      </trkpt>
      <trkpt lat="43.56433" lon="2.47332">
        <ele>744.79998779297</ele>
        <time>2023-06-01T08:56:24.000Z</time>
      </trkpt>
      <trkpt lat="43.56435" lon="2.47324">
        <ele>744.20001220703</ele>
        <time>2023-06-01T08:56:30.000Z</time>
      </trkpt>
      <trkpt lat="43.56436" lon="2.4732">
        <ele>744.20001220703</ele>
        <time>2023-06-01T08:56:33.000Z</time>
      </trkpt>
      <trkpt lat="43.56436" lon="2.47315">
        <ele>744</ele>
        <time>2023-06-01T08:56:36.000Z</time>
      </trkpt>
      <trkpt lat="43.56437" lon="2.4731">
        <ele>744</ele>
        <time>2023-06-01T08:56:40.000Z</time>
      </trkpt>
      <trkpt lat="43.56442" lon="2.47299">
        <ele>743.40002441406</ele>
        <time>2023-06-01T08:56:49.000Z</time>
      </trkpt>
      <trkpt lat="43.56445" lon="2.47292">
        <ele>743.20001220703</ele>
        <time>2023-06-01T08:56:54.000Z</time>
      </trkpt>
      <trkpt lat="43.56445" lon="2.4729">
        <ele>743.20001220703</ele>
        <time>2023-06-01T08:56:55.000Z</time>
      </trkpt>
      <trkpt lat="43.56446" lon="2.47289">
        <ele>743.20001220703</ele>
        <time>2023-06-01T08:56:56.000Z</time>
      </trkpt>
      <trkpt lat="43.5645" lon="2.47275">
        <ele>742.59997558594</ele>
        <time>2023-06-01T08:57:05.000Z</time>
      </trkpt>
      <trkpt lat="43.56452" lon="2.47266">
        <ele>742.20001220703</ele>
        <time>2023-06-01T08:57:11.000Z</time>
      </trkpt>
      <trkpt lat="43.56452" lon="2.47262">
        <ele>741.79998779297</ele>
        <time>2023-06-01T08:57:13.000Z</time>
      </trkpt>
      <trkpt lat="43.56453" lon="2.4725">
        <ele>741.59997558594</ele>
        <time>2023-06-01T08:57:21.000Z</time>
      </trkpt>
      <trkpt lat="43.56453" lon="2.47239">
        <ele>741</ele>
        <time>2023-06-01T08:57:28.000Z</time>
      </trkpt>
      <trkpt lat="43.56454" lon="2.47233">
        <ele>740.59997558594</ele>
        <time>2023-06-01T08:57:32.000Z</time>
      </trkpt>
      <trkpt lat="43.56454" lon="2.4722">
        <ele>740.20001220703</ele>
        <time>2023-06-01T08:57:41.000Z</time>
      </trkpt>
      <trkpt lat="43.56454" lon="2.47218">
        <ele>740</ele>
        <time>2023-06-01T08:57:42.000Z</time>
      </trkpt>
      <trkpt lat="43.56454" lon="2.47208">
        <ele>739.59997558594</ele>
        <time>2023-06-01T08:57:49.000Z</time>
      </trkpt>
      <trkpt lat="43.56453" lon="2.47207">
        <ele>739</ele>
        <time>2023-06-01T08:57:52.000Z</time>
      </trkpt>
      <trkpt lat="43.56453" lon="2.47207">
        <ele>738.79998779297</ele>
        <time>2023-06-01T08:57:54.000Z</time>
      </trkpt>
      <trkpt lat="43.56452" lon="2.47201">
        <ele>739</ele>
        <time>2023-06-01T08:58:01.000Z</time>
      </trkpt>
      <trkpt lat="43.5645" lon="2.47188">
        <ele>738</ele>
        <time>2023-06-01T08:58:09.000Z</time>
      </trkpt>
      <trkpt lat="43.5645" lon="2.47186">
        <ele>737.79998779297</ele>
        <time>2023-06-01T08:58:10.000Z</time>
      </trkpt>
      <trkpt lat="43.56447" lon="2.47171">
        <ele>737.20001220703</ele>
        <time>2023-06-01T08:58:20.000Z</time>
      </trkpt>
      <trkpt lat="43.56447" lon="2.47157">
        <ele>737.20001220703</ele>
        <time>2023-06-01T08:58:29.000Z</time>
      </trkpt>
      <trkpt lat="43.56448" lon="2.47153">
        <ele>737.20001220703</ele>
        <time>2023-06-01T08:58:32.000Z</time>
      </trkpt>
      <trkpt lat="43.56449" lon="2.47147">
        <ele>737.20001220703</ele>
        <time>2023-06-01T08:58:36.000Z</time>
      </trkpt>
      <trkpt lat="43.5645" lon="2.47144">
        <ele>737.20001220703</ele>
        <time>2023-06-01T08:58:39.000Z</time>
      </trkpt>
      <trkpt lat="43.56451" lon="2.47142">
        <ele>737.20001220703</ele>
        <time>2023-06-01T08:58:42.000Z</time>
      </trkpt>
      <trkpt lat="43.56451" lon="2.47139">
        <ele>737.40002441406</ele>
        <time>2023-06-01T08:58:45.000Z</time>
      </trkpt>
      <trkpt lat="43.56452" lon="2.47137">
        <ele>737.59997558594</ele>
        <time>2023-06-01T08:58:47.000Z</time>
      </trkpt>
      <trkpt lat="43.56457" lon="2.47131">
        <ele>738.20001220703</ele>
        <time>2023-06-01T08:58:54.000Z</time>
      </trkpt>
      <trkpt lat="43.5646" lon="2.47128">
        <ele>738.59997558594</ele>
        <time>2023-06-01T08:58:59.000Z</time>
      </trkpt>
      <trkpt lat="43.56461" lon="2.47127">
        <ele>738.59997558594</ele>
        <time>2023-06-01T08:59:01.000Z</time>
      </trkpt>
      <trkpt lat="43.56466" lon="2.47121">
        <ele>739</ele>
        <time>2023-06-01T08:59:07.000Z</time>
      </trkpt>
      <trkpt lat="43.56467" lon="2.47121">
        <ele>739</ele>
        <time>2023-06-01T08:59:08.000Z</time>
      </trkpt>
      <trkpt lat="43.56469" lon="2.47118">
        <ele>739</ele>
        <time>2023-06-01T08:59:13.000Z</time>
      </trkpt>
      <trkpt lat="43.5647" lon="2.47117">
        <ele>739</ele>
        <time>2023-06-01T08:59:14.000Z</time>
      </trkpt>
      <trkpt lat="43.56475" lon="2.47111">
        <ele>738.79998779297</ele>
        <time>2023-06-01T08:59:19.000Z</time>
      </trkpt>
      <trkpt lat="43.56478" lon="2.47106">
        <ele>738.79998779297</ele>
        <time>2023-06-01T08:59:23.000Z</time>
      </trkpt>
      <trkpt lat="43.5648" lon="2.47103">
        <ele>739</ele>
        <time>2023-06-01T08:59:25.000Z</time>
      </trkpt>
      <trkpt lat="43.56485" lon="2.47096">
        <ele>738.79998779297</ele>
        <time>2023-06-01T08:59:31.000Z</time>
      </trkpt>
      <trkpt lat="43.56486" lon="2.47093">
        <ele>738.59997558594</ele>
        <time>2023-06-01T08:59:33.000Z</time>
      </trkpt>
      <trkpt lat="43.56489" lon="2.4709">
        <ele>738.59997558594</ele>
        <time>2023-06-01T08:59:37.000Z</time>
      </trkpt>
      <trkpt lat="43.56498" lon="2.47079">
        <ele>738.59997558594</ele>
        <time>2023-06-01T08:59:48.000Z</time>
      </trkpt>
      <trkpt lat="43.56503" lon="2.47071">
        <ele>738.40002441406</ele>
        <time>2023-06-01T08:59:56.000Z</time>
      </trkpt>
      <trkpt lat="43.56506" lon="2.47064">
        <ele>738.40002441406</ele>
        <time>2023-06-01T09:00:03.000Z</time>
      </trkpt>
      <trkpt lat="43.56507" lon="2.47062">
        <ele>738.40002441406</ele>
        <time>2023-06-01T09:00:04.000Z</time>
      </trkpt>
      <trkpt lat="43.5651" lon="2.47057">
        <ele>738.20001220703</ele>
        <time>2023-06-01T09:00:09.000Z</time>
      </trkpt>
      <trkpt lat="43.56512" lon="2.47052">
        <ele>738.40002441406</ele>
        <time>2023-06-01T09:00:13.000Z</time>
      </trkpt>
      <trkpt lat="43.56513" lon="2.47048">
        <ele>738.59997558594</ele>
        <time>2023-06-01T09:00:16.000Z</time>
      </trkpt>
      <trkpt lat="43.56516" lon="2.4704">
        <ele>738.79998779297</ele>
        <time>2023-06-01T09:00:21.000Z</time>
      </trkpt>
      <trkpt lat="43.56516" lon="2.47039">
        <ele>738.79998779297</ele>
        <time>2023-06-01T09:00:22.000Z</time>
      </trkpt>
      <trkpt lat="43.56516" lon="2.47037">
        <ele>738.79998779297</ele>
        <time>2023-06-01T09:00:23.000Z</time>
      </trkpt>
      <trkpt lat="43.56518" lon="2.47031">
        <ele>739</ele>
        <time>2023-06-01T09:00:27.000Z</time>
      </trkpt>
      <trkpt lat="43.5652" lon="2.47025">
        <ele>739.20001220703</ele>
        <time>2023-06-01T09:00:31.000Z</time>
      </trkpt>
      <trkpt lat="43.56523" lon="2.47014">
        <ele>739.20001220703</ele>
        <time>2023-06-01T09:00:38.000Z</time>
      </trkpt>
      <trkpt lat="43.56525" lon="2.47005">
        <ele>739.79998779297</ele>
        <time>2023-06-01T09:00:46.000Z</time>
      </trkpt>
      <trkpt lat="43.56525" lon="2.47003">
        <ele>739.79998779297</ele>
        <time>2023-06-01T09:00:47.000Z</time>
      </trkpt>
      <trkpt lat="43.56525" lon="2.46997">
        <ele>740</ele>
        <time>2023-06-01T09:00:52.000Z</time>
      </trkpt>
      <trkpt lat="43.56525" lon="2.46996">
        <ele>740</ele>
        <time>2023-06-01T09:00:53.000Z</time>
      </trkpt>
      <trkpt lat="43.56524" lon="2.46995">
        <ele>740</ele>
        <time>2023-06-01T09:00:54.000Z</time>
      </trkpt>
      <trkpt lat="43.56521" lon="2.46987">
        <ele>740.59997558594</ele>
        <time>2023-06-01T09:01:01.000Z</time>
      </trkpt>
      <trkpt lat="43.56518" lon="2.46978">
        <ele>740.79998779297</ele>
        <time>2023-06-01T09:01:09.000Z</time>
      </trkpt>
      <trkpt lat="43.56516" lon="2.46976">
        <ele>741</ele>
        <time>2023-06-01T09:01:13.000Z</time>
      </trkpt>
      <trkpt lat="43.56514" lon="2.46973">
        <ele>741.20001220703</ele>
        <time>2023-06-01T09:01:16.000Z</time>
      </trkpt>
      <trkpt lat="43.5651" lon="2.46969">
        <ele>741.59997558594</ele>
        <time>2023-06-01T09:01:22.000Z</time>
      </trkpt>
      <trkpt lat="43.56508" lon="2.46966">
        <ele>741.79998779297</ele>
        <time>2023-06-01T09:01:26.000Z</time>
      </trkpt>
      <trkpt lat="43.56506" lon="2.46965">
        <ele>741.79998779297</ele>
        <time>2023-06-01T09:01:28.000Z</time>
      </trkpt>
      <trkpt lat="43.56505" lon="2.46963">
        <ele>741.79998779297</ele>
        <time>2023-06-01T09:01:30.000Z</time>
      </trkpt>
      <trkpt lat="43.56503" lon="2.46959">
        <ele>742</ele>
        <time>2023-06-01T09:01:34.000Z</time>
      </trkpt>
      <trkpt lat="43.56503" lon="2.46958">
        <ele>742.20001220703</ele>
        <time>2023-06-01T09:01:35.000Z</time>
      </trkpt>
      <trkpt lat="43.56501" lon="2.46951">
        <ele>742.79998779297</ele>
        <time>2023-06-01T09:01:40.000Z</time>
      </trkpt>
      <trkpt lat="43.56501" lon="2.4695">
        <ele>742.79998779297</ele>
        <time>2023-06-01T09:01:41.000Z</time>
      </trkpt>
      <trkpt lat="43.565" lon="2.46946">
        <ele>743</ele>
        <time>2023-06-01T09:01:44.000Z</time>
      </trkpt>
      <trkpt lat="43.565" lon="2.46944">
        <ele>743</ele>
        <time>2023-06-01T09:01:45.000Z</time>
      </trkpt>
      <trkpt lat="43.56499" lon="2.46939">
        <ele>743.20001220703</ele>
        <time>2023-06-01T09:01:49.000Z</time>
      </trkpt>
      <trkpt lat="43.565" lon="2.46932">
        <ele>744.20001220703</ele>
        <time>2023-06-01T09:01:54.000Z</time>
      </trkpt>
      <trkpt lat="43.56501" lon="2.46925">
        <ele>745</ele>
        <time>2023-06-01T09:01:59.000Z</time>
      </trkpt>
      <trkpt lat="43.56502" lon="2.46922">
        <ele>745.40002441406</ele>
        <time>2023-06-01T09:02:01.000Z</time>
      </trkpt>
      <trkpt lat="43.56502" lon="2.46918">
        <ele>745.79998779297</ele>
        <time>2023-06-01T09:02:04.000Z</time>
      </trkpt>
      <trkpt lat="43.56504" lon="2.46914">
        <ele>746.40002441406</ele>
        <time>2023-06-01T09:02:07.000Z</time>
      </trkpt>
      <trkpt lat="43.56504" lon="2.46912">
        <ele>746.40002441406</ele>
        <time>2023-06-01T09:02:08.000Z</time>
      </trkpt>
      <trkpt lat="43.56509" lon="2.46899">
        <ele>746.40002441406</ele>
        <time>2023-06-01T09:02:18.000Z</time>
      </trkpt>
      <trkpt lat="43.56513" lon="2.46887">
        <ele>746.20001220703</ele>
        <time>2023-06-01T09:02:26.000Z</time>
      </trkpt>
      <trkpt lat="43.56517" lon="2.46868">
        <ele>746.20001220703</ele>
        <time>2023-06-01T09:02:38.000Z</time>
      </trkpt>
      <trkpt lat="43.56518" lon="2.46861">
        <ele>746.40002441406</ele>
        <time>2023-06-01T09:02:46.000Z</time>
      </trkpt>
      <trkpt lat="43.5652" lon="2.46861">
        <ele>747.59997558594</ele>
        <time>2023-06-01T09:02:52.000Z</time>
      </trkpt>
      <trkpt lat="43.5652" lon="2.46857">
        <ele>747.20001220703</ele>
        <time>2023-06-01T09:03:00.000Z</time>
      </trkpt>
      <trkpt lat="43.56522" lon="2.46846">
        <ele>746.79998779297</ele>
        <time>2023-06-01T09:03:07.000Z</time>
      </trkpt>
      <trkpt lat="43.56524" lon="2.46837">
        <ele>746.40002441406</ele>
        <time>2023-06-01T09:03:13.000Z</time>
      </trkpt>
      <trkpt lat="43.56525" lon="2.46836">
        <ele>746.20001220703</ele>
        <time>2023-06-01T09:03:14.000Z</time>
      </trkpt>
      <trkpt lat="43.56529" lon="2.46825">
        <ele>746.20001220703</ele>
        <time>2023-06-01T09:03:22.000Z</time>
      </trkpt>
      <trkpt lat="43.56533" lon="2.46811">
        <ele>745.40002441406</ele>
        <time>2023-06-01T09:03:31.000Z</time>
      </trkpt>
      <trkpt lat="43.56534" lon="2.46809">
        <ele>745.40002441406</ele>
        <time>2023-06-01T09:03:33.000Z</time>
      </trkpt>
      <trkpt lat="43.56538" lon="2.46799">
        <ele>745.40002441406</ele>
        <time>2023-06-01T09:03:40.000Z</time>
      </trkpt>
      <trkpt lat="43.56544" lon="2.46785">
        <ele>744.59997558594</ele>
        <time>2023-06-01T09:03:50.000Z</time>
      </trkpt>
      <trkpt lat="43.56552" lon="2.46771">
        <ele>744.40002441406</ele>
        <time>2023-06-01T09:04:01.000Z</time>
      </trkpt>
      <trkpt lat="43.56556" lon="2.46764">
        <ele>744.40002441406</ele>
        <time>2023-06-01T09:04:07.000Z</time>
      </trkpt>
      <trkpt lat="43.5656" lon="2.46759">
        <ele>744</ele>
        <time>2023-06-01T09:04:11.000Z</time>
      </trkpt>
      <trkpt lat="43.56561" lon="2.46759">
        <ele>744</ele>
        <time>2023-06-01T09:04:12.000Z</time>
      </trkpt>
      <trkpt lat="43.56564" lon="2.46754">
        <ele>744.79998779297</ele>
        <time>2023-06-01T09:04:17.000Z</time>
      </trkpt>
      <trkpt lat="43.5657" lon="2.46741">
        <ele>745</ele>
        <time>2023-06-01T09:04:27.000Z</time>
      </trkpt>
      <trkpt lat="43.56575" lon="2.46729">
        <ele>744.40002441406</ele>
        <time>2023-06-01T09:04:36.000Z</time>
      </trkpt>
      <trkpt lat="43.56576" lon="2.46725">
        <ele>744</ele>
        <time>2023-06-01T09:04:41.000Z</time>
      </trkpt>
      <trkpt lat="43.5658" lon="2.46713">
        <ele>744</ele>
        <time>2023-06-01T09:04:49.000Z</time>
      </trkpt>
      <trkpt lat="43.56584" lon="2.46698">
        <ele>743.20001220703</ele>
        <time>2023-06-01T09:04:59.000Z</time>
      </trkpt>
      <trkpt lat="43.56587" lon="2.46686">
        <ele>743.20001220703</ele>
        <time>2023-06-01T09:05:07.000Z</time>
      </trkpt>
      <trkpt lat="43.56589" lon="2.46679">
        <ele>742.20001220703</ele>
        <time>2023-06-01T09:05:12.000Z</time>
      </trkpt>
      <trkpt lat="43.56589" lon="2.46678">
        <ele>742</ele>
        <time>2023-06-01T09:05:13.000Z</time>
      </trkpt>
      <trkpt lat="43.5659" lon="2.46674">
        <ele>742</ele>
        <time>2023-06-01T09:05:16.000Z</time>
      </trkpt>
      <trkpt lat="43.56591" lon="2.4667">
        <ele>741.79998779297</ele>
        <time>2023-06-01T09:05:23.000Z</time>
      </trkpt>
      <trkpt lat="43.56594" lon="2.46667">
        <ele>741.40002441406</ele>
        <time>2023-06-01T09:05:33.000Z</time>
      </trkpt>
      <trkpt lat="43.56602" lon="2.46662">
        <ele>741.40002441406</ele>
        <time>2023-06-01T09:05:41.000Z</time>
      </trkpt>
      <trkpt lat="43.56607" lon="2.46657">
        <ele>742.20001220703</ele>
        <time>2023-06-01T09:05:48.000Z</time>
      </trkpt>
      <trkpt lat="43.5661" lon="2.46652">
        <ele>742.59997558594</ele>
        <time>2023-06-01T09:05:52.000Z</time>
      </trkpt>
      <trkpt lat="43.56611" lon="2.46646">
        <ele>743</ele>
        <time>2023-06-01T09:05:56.000Z</time>
      </trkpt>
      <trkpt lat="43.56612" lon="2.46643">
        <ele>743.20001220703</ele>
        <time>2023-06-01T09:05:58.000Z</time>
      </trkpt>
      <trkpt lat="43.56615" lon="2.46631">
        <ele>743.40002441406</ele>
        <time>2023-06-01T09:06:06.000Z</time>
      </trkpt>
      <trkpt lat="43.56618" lon="2.46622">
        <ele>743.40002441406</ele>
        <time>2023-06-01T09:06:13.000Z</time>
      </trkpt>
      <trkpt lat="43.56621" lon="2.46608">
        <ele>743.59997558594</ele>
        <time>2023-06-01T09:06:23.000Z</time>
      </trkpt>
      <trkpt lat="43.56622" lon="2.46602">
        <ele>743.59997558594</ele>
        <time>2023-06-01T09:06:27.000Z</time>
      </trkpt>
      <trkpt lat="43.56624" lon="2.46598">
        <ele>743.40002441406</ele>
        <time>2023-06-01T09:06:30.000Z</time>
      </trkpt>
      <trkpt lat="43.56629" lon="2.46584">
        <ele>743.79998779297</ele>
        <time>2023-06-01T09:06:40.000Z</time>
      </trkpt>
      <trkpt lat="43.56631" lon="2.46577">
        <ele>744.20001220703</ele>
        <time>2023-06-01T09:06:45.000Z</time>
      </trkpt>
      <trkpt lat="43.56632" lon="2.46573">
        <ele>744.20001220703</ele>
        <time>2023-06-01T09:06:48.000Z</time>
      </trkpt>
      <trkpt lat="43.56635" lon="2.46564">
        <ele>744.59997558594</ele>
        <time>2023-06-01T09:06:57.000Z</time>
      </trkpt>
      <trkpt lat="43.56638" lon="2.46555">
        <ele>744.20001220703</ele>
        <time>2023-06-01T09:07:04.000Z</time>
      </trkpt>
      <trkpt lat="43.56642" lon="2.46543">
        <ele>743.79998779297</ele>
        <time>2023-06-01T09:07:13.000Z</time>
      </trkpt>
      <trkpt lat="43.56642" lon="2.46537">
        <ele>743.20001220703</ele>
        <time>2023-06-01T09:07:18.000Z</time>
      </trkpt>
      <trkpt lat="43.56642" lon="2.46532">
        <ele>742.79998779297</ele>
        <time>2023-06-01T09:07:21.000Z</time>
      </trkpt>
      <trkpt lat="43.56642" lon="2.4652">
        <ele>742.40002441406</ele>
        <time>2023-06-01T09:07:29.000Z</time>
      </trkpt>
      <trkpt lat="43.56641" lon="2.46513">
        <ele>742</ele>
        <time>2023-06-01T09:07:34.000Z</time>
      </trkpt>
      <trkpt lat="43.5664" lon="2.46504">
        <ele>741.59997558594</ele>
        <time>2023-06-01T09:07:40.000Z</time>
      </trkpt>
      <trkpt lat="43.56641" lon="2.46493">
        <ele>741</ele>
        <time>2023-06-01T09:07:47.000Z</time>
      </trkpt>
      <trkpt lat="43.56642" lon="2.46492">
        <ele>741</ele>
        <time>2023-06-01T09:07:48.000Z</time>
      </trkpt>
      <trkpt lat="43.56643" lon="2.46485">
        <ele>740</ele>
        <time>2023-06-01T09:07:53.000Z</time>
      </trkpt>
      <trkpt lat="43.56645" lon="2.46479">
        <ele>739.59997558594</ele>
        <time>2023-06-01T09:07:57.000Z</time>
      </trkpt>
      <trkpt lat="43.56649" lon="2.46467">
        <ele>739</ele>
        <time>2023-06-01T09:08:06.000Z</time>
      </trkpt>
      <trkpt lat="43.5665" lon="2.46465">
        <ele>739</ele>
        <time>2023-06-01T09:08:07.000Z</time>
      </trkpt>
      <trkpt lat="43.56652" lon="2.4646">
        <ele>739</ele>
        <time>2023-06-01T09:08:14.000Z</time>
      </trkpt>
      <trkpt lat="43.56652" lon="2.46459">
        <ele>739</ele>
        <time>2023-06-01T09:08:24.000Z</time>
      </trkpt>
      <trkpt lat="43.56654" lon="2.46455">
        <ele>738.59997558594</ele>
        <time>2023-06-01T09:08:29.000Z</time>
      </trkpt>
      <trkpt lat="43.56657" lon="2.46447">
        <ele>738</ele>
        <time>2023-06-01T09:08:37.000Z</time>
      </trkpt>
      <trkpt lat="43.56659" lon="2.46443">
        <ele>737.79998779297</ele>
        <time>2023-06-01T09:08:44.000Z</time>
      </trkpt>
      <trkpt lat="43.56659" lon="2.46438">
        <ele>737.20001220703</ele>
        <time>2023-06-01T09:08:54.000Z</time>
      </trkpt>
      <trkpt lat="43.56662" lon="2.46432">
        <ele>736.79998779297</ele>
        <time>2023-06-01T09:09:00.000Z</time>
      </trkpt>
      <trkpt lat="43.56663" lon="2.46428">
        <ele>736.20001220703</ele>
        <time>2023-06-01T09:09:03.000Z</time>
      </trkpt>
      <trkpt lat="43.56665" lon="2.46425">
        <ele>735.79998779297</ele>
        <time>2023-06-01T09:09:06.000Z</time>
      </trkpt>
      <trkpt lat="43.56667" lon="2.46419">
        <ele>735</ele>
        <time>2023-06-01T09:09:11.000Z</time>
      </trkpt>
      <trkpt lat="43.56672" lon="2.4641">
        <ele>734.79998779297</ele>
        <time>2023-06-01T09:09:18.000Z</time>
      </trkpt>
      <trkpt lat="43.56673" lon="2.46409">
        <ele>734.59997558594</ele>
        <time>2023-06-01T09:09:19.000Z</time>
      </trkpt>
      <trkpt lat="43.56678" lon="2.46404">
        <ele>733.40002441406</ele>
        <time>2023-06-01T09:09:24.000Z</time>
      </trkpt>
      <trkpt lat="43.56679" lon="2.46402">
        <ele>733</ele>
        <time>2023-06-01T09:09:26.000Z</time>
      </trkpt>
      <trkpt lat="43.56685" lon="2.46395">
        <ele>732.59997558594</ele>
        <time>2023-06-01T09:09:34.000Z</time>
      </trkpt>
      <trkpt lat="43.56687" lon="2.46392">
        <ele>732.40002441406</ele>
        <time>2023-06-01T09:09:36.000Z</time>
      </trkpt>
      <trkpt lat="43.56691" lon="2.46386">
        <ele>731.79998779297</ele>
        <time>2023-06-01T09:09:42.000Z</time>
      </trkpt>
      <trkpt lat="43.56693" lon="2.46383">
        <ele>731.59997558594</ele>
        <time>2023-06-01T09:09:45.000Z</time>
      </trkpt>
      <trkpt lat="43.56695" lon="2.46379">
        <ele>731.59997558594</ele>
        <time>2023-06-01T09:09:48.000Z</time>
      </trkpt>
      <trkpt lat="43.56697" lon="2.46376">
        <ele>731.40002441406</ele>
        <time>2023-06-01T09:09:51.000Z</time>
      </trkpt>
      <trkpt lat="43.56701" lon="2.4637">
        <ele>731</ele>
        <time>2023-06-01T09:09:56.000Z</time>
      </trkpt>
      <trkpt lat="43.56704" lon="2.46366">
        <ele>730.40002441406</ele>
        <time>2023-06-01T09:10:00.000Z</time>
      </trkpt>
      <trkpt lat="43.56707" lon="2.4636">
        <ele>730.20001220703</ele>
        <time>2023-06-01T09:10:04.000Z</time>
      </trkpt>
      <trkpt lat="43.56714" lon="2.46351">
        <ele>729.59997558594</ele>
        <time>2023-06-01T09:10:12.000Z</time>
      </trkpt>
      <trkpt lat="43.56716" lon="2.46349">
        <ele>729.20001220703</ele>
        <time>2023-06-01T09:10:14.000Z</time>
      </trkpt>
      <trkpt lat="43.56719" lon="2.46344">
        <ele>729</ele>
        <time>2023-06-01T09:10:18.000Z</time>
      </trkpt>
      <trkpt lat="43.56721" lon="2.46342">
        <ele>729</ele>
        <time>2023-06-01T09:10:20.000Z</time>
      </trkpt>
      <trkpt lat="43.56726" lon="2.46335">
        <ele>728.59997558594</ele>
        <time>2023-06-01T09:10:27.000Z</time>
      </trkpt>
      <trkpt lat="43.56726" lon="2.46335">
        <ele>728.40002441406</ele>
        <time>2023-06-01T09:10:28.000Z</time>
      </trkpt>
      <trkpt lat="43.56727" lon="2.46335">
        <ele>728.20001220703</ele>
        <time>2023-06-01T09:10:29.000Z</time>
      </trkpt>
      <trkpt lat="43.56727" lon="2.46334">
        <ele>728</ele>
        <time>2023-06-01T09:10:30.000Z</time>
      </trkpt>
      <trkpt lat="43.5673" lon="2.4633">
        <ele>727.59997558594</ele>
        <time>2023-06-01T09:10:33.000Z</time>
      </trkpt>
      <trkpt lat="43.56733" lon="2.46326">
        <ele>727.20001220703</ele>
        <time>2023-06-01T09:10:37.000Z</time>
      </trkpt>
      <trkpt lat="43.56736" lon="2.46322">
        <ele>726.59997558594</ele>
        <time>2023-06-01T09:10:41.000Z</time>
      </trkpt>
      <trkpt lat="43.56739" lon="2.46315">
        <ele>726.20001220703</ele>
        <time>2023-06-01T09:10:46.000Z</time>
      </trkpt>
      <trkpt lat="43.5674" lon="2.46313">
        <ele>726</ele>
        <time>2023-06-01T09:10:48.000Z</time>
      </trkpt>
      <trkpt lat="43.56745" lon="2.46303">
        <ele>725.59997558594</ele>
        <time>2023-06-01T09:10:55.000Z</time>
      </trkpt>
      <trkpt lat="43.56746" lon="2.46301">
        <ele>725.59997558594</ele>
        <time>2023-06-01T09:10:57.000Z</time>
      </trkpt>
      <trkpt lat="43.56747" lon="2.46297">
        <ele>725.40002441406</ele>
        <time>2023-06-01T09:11:00.000Z</time>
      </trkpt>
      <trkpt lat="43.56749" lon="2.46294">
        <ele>725.20001220703</ele>
        <time>2023-06-01T09:11:05.000Z</time>
      </trkpt>
      <trkpt lat="43.56749" lon="2.46293">
        <ele>725</ele>
        <time>2023-06-01T09:11:06.000Z</time>
      </trkpt>
      <trkpt lat="43.56752" lon="2.46285">
        <ele>724.20001220703</ele>
        <time>2023-06-01T09:11:13.000Z</time>
      </trkpt>
      <trkpt lat="43.56754" lon="2.46283">
        <ele>724.20001220703</ele>
        <time>2023-06-01T09:11:16.000Z</time>
      </trkpt>
      <trkpt lat="43.56754" lon="2.46279">
        <ele>724.20001220703</ele>
        <time>2023-06-01T09:11:19.000Z</time>
      </trkpt>
      <trkpt lat="43.56754" lon="2.46279">
        <ele>724.20001220703</ele>
        <time>2023-06-01T09:11:20.000Z</time>
      </trkpt>
      <trkpt lat="43.56755" lon="2.46274">
        <ele>724.20001220703</ele>
        <time>2023-06-01T09:11:23.000Z</time>
      </trkpt>
      <trkpt lat="43.56756" lon="2.46269">
        <ele>724.20001220703</ele>
        <time>2023-06-01T09:11:26.000Z</time>
      </trkpt>
      <trkpt lat="43.56756" lon="2.46267">
        <ele>724</ele>
        <time>2023-06-01T09:11:27.000Z</time>
      </trkpt>
      <trkpt lat="43.56757" lon="2.46257">
        <ele>723.79998779297</ele>
        <time>2023-06-01T09:11:33.000Z</time>
      </trkpt>
      <trkpt lat="43.56756" lon="2.46245">
        <ele>724</ele>
        <time>2023-06-01T09:11:41.000Z</time>
      </trkpt>
      <trkpt lat="43.56755" lon="2.46237">
        <ele>723.59997558594</ele>
        <time>2023-06-01T09:11:46.000Z</time>
      </trkpt>
      <trkpt lat="43.56754" lon="2.46231">
        <ele>723.79998779297</ele>
        <time>2023-06-01T09:11:50.000Z</time>
      </trkpt>
      <trkpt lat="43.56752" lon="2.46214">
        <ele>724</ele>
        <time>2023-06-01T09:12:00.000Z</time>
      </trkpt>
      <trkpt lat="43.56748" lon="2.46198">
        <ele>724.20001220703</ele>
        <time>2023-06-01T09:12:09.000Z</time>
      </trkpt>
      <trkpt lat="43.56745" lon="2.46188">
        <ele>723.79998779297</ele>
        <time>2023-06-01T09:12:16.000Z</time>
      </trkpt>
      <trkpt lat="43.56741" lon="2.46174">
        <ele>723.20001220703</ele>
        <time>2023-06-01T09:12:26.000Z</time>
      </trkpt>
      <trkpt lat="43.56738" lon="2.46162">
        <ele>724</ele>
        <time>2023-06-01T09:12:34.000Z</time>
      </trkpt>
      <trkpt lat="43.56736" lon="2.46152">
        <ele>724.40002441406</ele>
        <time>2023-06-01T09:12:41.000Z</time>
      </trkpt>
      <trkpt lat="43.56733" lon="2.46141">
        <ele>724</ele>
        <time>2023-06-01T09:12:49.000Z</time>
      </trkpt>
      <trkpt lat="43.56728" lon="2.46128">
        <ele>723.59997558594</ele>
        <time>2023-06-01T09:13:00.000Z</time>
      </trkpt>
      <trkpt lat="43.56729" lon="2.46128">
        <ele>723.79998779297</ele>
        <time>2023-06-01T09:13:10.000Z</time>
      </trkpt>
      <trkpt lat="43.56729" lon="2.4612">
        <ele>723.20001220703</ele>
        <time>2023-06-01T09:13:16.000Z</time>
      </trkpt>
      <trkpt lat="43.56728" lon="2.46112">
        <ele>723</ele>
        <time>2023-06-01T09:13:22.000Z</time>
      </trkpt>
      <trkpt lat="43.56728" lon="2.46107">
        <ele>722.79998779297</ele>
        <time>2023-06-01T09:13:25.000Z</time>
      </trkpt>
      <trkpt lat="43.56727" lon="2.46096">
        <ele>722</ele>
        <time>2023-06-01T09:13:33.000Z</time>
      </trkpt>
      <trkpt lat="43.56727" lon="2.46093">
        <ele>722</ele>
        <time>2023-06-01T09:13:35.000Z</time>
      </trkpt>
      <trkpt lat="43.56727" lon="2.46084">
        <ele>721.40002441406</ele>
        <time>2023-06-01T09:13:41.000Z</time>
      </trkpt>
      <trkpt lat="43.56726" lon="2.46072">
        <ele>721.20001220703</ele>
        <time>2023-06-01T09:13:49.000Z</time>
      </trkpt>
      <trkpt lat="43.56725" lon="2.46059">
        <ele>720.79998779297</ele>
        <time>2023-06-01T09:13:57.000Z</time>
      </trkpt>
      <trkpt lat="43.56724" lon="2.46054">
        <ele>720.79998779297</ele>
        <time>2023-06-01T09:14:00.000Z</time>
      </trkpt>
      <trkpt lat="43.56724" lon="2.46048">
        <ele>721</ele>
        <time>2023-06-01T09:14:04.000Z</time>
      </trkpt>
      <trkpt lat="43.56724" lon="2.46044">
        <ele>721</ele>
        <time>2023-06-01T09:14:07.000Z</time>
      </trkpt>
      <trkpt lat="43.56724" lon="2.4604">
        <ele>721</ele>
        <time>2023-06-01T09:14:09.000Z</time>
      </trkpt>
      <trkpt lat="43.56723" lon="2.46029">
        <ele>721</ele>
        <time>2023-06-01T09:14:16.000Z</time>
      </trkpt>
      <trkpt lat="43.56722" lon="2.46018">
        <ele>721</ele>
        <time>2023-06-01T09:14:22.000Z</time>
      </trkpt>
      <trkpt lat="43.5672" lon="2.46007">
        <ele>721</ele>
        <time>2023-06-01T09:14:29.000Z</time>
      </trkpt>
      <trkpt lat="43.56716" lon="2.45993">
        <ele>720.79998779297</ele>
        <time>2023-06-01T09:14:38.000Z</time>
      </trkpt>
      <trkpt lat="43.56713" lon="2.4598">
        <ele>720.79998779297</ele>
        <time>2023-06-01T09:14:47.000Z</time>
      </trkpt>
      <trkpt lat="43.5671" lon="2.45967">
        <ele>720.79998779297</ele>
        <time>2023-06-01T09:14:56.000Z</time>
      </trkpt>
      <trkpt lat="43.56707" lon="2.45953">
        <ele>720.59997558594</ele>
        <time>2023-06-01T09:15:06.000Z</time>
      </trkpt>
      <trkpt lat="43.56704" lon="2.45945">
        <ele>719.79998779297</ele>
        <time>2023-06-01T09:15:13.000Z</time>
      </trkpt>
      <trkpt lat="43.56704" lon="2.45944">
        <ele>719.79998779297</ele>
        <time>2023-06-01T09:15:14.000Z</time>
      </trkpt>
      <trkpt lat="43.56704" lon="2.45944">
        <ele>720.59997558594</ele>
        <time>2023-06-01T09:15:18.000Z</time>
      </trkpt>
      <trkpt lat="43.56705" lon="2.45944">
        <ele>721</ele>
        <time>2023-06-01T09:15:21.000Z</time>
      </trkpt>
      <trkpt lat="43.56706" lon="2.45944">
        <ele>721</ele>
        <time>2023-06-01T09:15:27.000Z</time>
      </trkpt>
      <trkpt lat="43.56703" lon="2.45939">
        <ele>720.79998779297</ele>
        <time>2023-06-01T09:15:32.000Z</time>
      </trkpt>
      <trkpt lat="43.56697" lon="2.45929">
        <ele>720.79998779297</ele>
        <time>2023-06-01T09:15:39.000Z</time>
      </trkpt>
      <trkpt lat="43.5669" lon="2.45917">
        <ele>720.59997558594</ele>
        <time>2023-06-01T09:15:48.000Z</time>
      </trkpt>
      <trkpt lat="43.56684" lon="2.45907">
        <ele>720.20001220703</ele>
        <time>2023-06-01T09:15:56.000Z</time>
      </trkpt>
      <trkpt lat="43.5668" lon="2.459">
        <ele>720</ele>
        <time>2023-06-01T09:16:01.000Z</time>
      </trkpt>
      <trkpt lat="43.56678" lon="2.45897">
        <ele>719.79998779297</ele>
        <time>2023-06-01T09:16:03.000Z</time>
      </trkpt>
      <trkpt lat="43.56675" lon="2.45885">
        <ele>719.20001220703</ele>
        <time>2023-06-01T09:16:11.000Z</time>
      </trkpt>
      <trkpt lat="43.56674" lon="2.45877">
        <ele>718.79998779297</ele>
        <time>2023-06-01T09:16:16.000Z</time>
      </trkpt>
      <trkpt lat="43.56673" lon="2.45872">
        <ele>718.40002441406</ele>
        <time>2023-06-01T09:16:19.000Z</time>
      </trkpt>
      <trkpt lat="43.56671" lon="2.45859">
        <ele>717.79998779297</ele>
        <time>2023-06-01T09:16:27.000Z</time>
      </trkpt>
      <trkpt lat="43.56671" lon="2.45857">
        <ele>717.59997558594</ele>
        <time>2023-06-01T09:16:28.000Z</time>
      </trkpt>
      <trkpt lat="43.56669" lon="2.45841">
        <ele>716.79998779297</ele>
        <time>2023-06-01T09:16:37.000Z</time>
      </trkpt>
      <trkpt lat="43.56669" lon="2.4584">
        <ele>716.79998779297</ele>
        <time>2023-06-01T09:16:38.000Z</time>
      </trkpt>
      <trkpt lat="43.56665" lon="2.4583">
        <ele>716.59997558594</ele>
        <time>2023-06-01T09:16:44.000Z</time>
      </trkpt>
      <trkpt lat="43.56663" lon="2.4582">
        <ele>715.59997558594</ele>
        <time>2023-06-01T09:16:50.000Z</time>
      </trkpt>
      <trkpt lat="43.56662" lon="2.45817">
        <ele>715.20001220703</ele>
        <time>2023-06-01T09:16:52.000Z</time>
      </trkpt>
      <trkpt lat="43.5666" lon="2.45812">
        <ele>714.59997558594</ele>
        <time>2023-06-01T09:16:55.000Z</time>
      </trkpt>
      <trkpt lat="43.56659" lon="2.45806">
        <ele>714.20001220703</ele>
        <time>2023-06-01T09:16:59.000Z</time>
      </trkpt>
      <trkpt lat="43.56656" lon="2.45797">
        <ele>713.59997558594</ele>
        <time>2023-06-01T09:17:04.000Z</time>
      </trkpt>
      <trkpt lat="43.56654" lon="2.4579">
        <ele>713.20001220703</ele>
        <time>2023-06-01T09:17:09.000Z</time>
      </trkpt>
      <trkpt lat="43.56652" lon="2.45786">
        <ele>712.59997558594</ele>
        <time>2023-06-01T09:17:12.000Z</time>
      </trkpt>
      <trkpt lat="43.56648" lon="2.45778">
        <ele>712</ele>
        <time>2023-06-01T09:17:18.000Z</time>
      </trkpt>
      <trkpt lat="43.56644" lon="2.45776">
        <ele>712</ele>
        <time>2023-06-01T09:17:22.000Z</time>
      </trkpt>
      <trkpt lat="43.56644" lon="2.45774">
        <ele>711.79998779297</ele>
        <time>2023-06-01T09:17:23.000Z</time>
      </trkpt>
      <trkpt lat="43.56641" lon="2.45772">
        <ele>711.40002441406</ele>
        <time>2023-06-01T09:17:26.000Z</time>
      </trkpt>
      <trkpt lat="43.56641" lon="2.45771">
        <ele>711.40002441406</ele>
        <time>2023-06-01T09:17:30.000Z</time>
      </trkpt>
      <trkpt lat="43.56642" lon="2.45773">
        <ele>711.40002441406</ele>
        <time>2023-06-01T09:17:41.000Z</time>
      </trkpt>
      <trkpt lat="43.56642" lon="2.45767">
        <ele>711.79998779297</ele>
        <time>2023-06-01T09:17:50.000Z</time>
      </trkpt>
      <trkpt lat="43.56641" lon="2.45764">
        <ele>712</ele>
        <time>2023-06-01T09:18:00.000Z</time>
      </trkpt>
      <trkpt lat="43.56638" lon="2.45752">
        <ele>710.59997558594</ele>
        <time>2023-06-01T09:18:12.000Z</time>
      </trkpt>
      <trkpt lat="43.56637" lon="2.45748">
        <ele>710.40002441406</ele>
        <time>2023-06-01T09:18:16.000Z</time>
      </trkpt>
      <trkpt lat="43.56635" lon="2.45745">
        <ele>710.20001220703</ele>
        <time>2023-06-01T09:18:18.000Z</time>
      </trkpt>
      <trkpt lat="43.56635" lon="2.45745">
        <ele>709.79998779297</ele>
        <time>2023-06-01T09:18:19.000Z</time>
      </trkpt>
      <trkpt lat="43.56634" lon="2.45741">
        <ele>709.40002441406</ele>
        <time>2023-06-01T09:18:23.000Z</time>
      </trkpt>
      <trkpt lat="43.56633" lon="2.45738">
        <ele>709.20001220703</ele>
        <time>2023-06-01T09:18:26.000Z</time>
      </trkpt>
      <trkpt lat="43.5663" lon="2.45731">
        <ele>708.79998779297</ele>
        <time>2023-06-01T09:18:32.000Z</time>
      </trkpt>
      <trkpt lat="43.56629" lon="2.4573">
        <ele>708.79998779297</ele>
        <time>2023-06-01T09:18:33.000Z</time>
      </trkpt>
      <trkpt lat="43.56624" lon="2.45713">
        <ele>708.20001220703</ele>
        <time>2023-06-01T09:18:44.000Z</time>
      </trkpt>
      <trkpt lat="43.56624" lon="2.45712">
        <ele>708.20001220703</ele>
        <time>2023-06-01T09:18:45.000Z</time>
      </trkpt>
      <trkpt lat="43.56622" lon="2.45703">
        <ele>707.20001220703</ele>
        <time>2023-06-01T09:18:51.000Z</time>
      </trkpt>
      <trkpt lat="43.56621" lon="2.45702">
        <ele>706.79998779297</ele>
        <time>2023-06-01T09:18:52.000Z</time>
      </trkpt>
      <trkpt lat="43.56621" lon="2.45699">
        <ele>706.59997558594</ele>
        <time>2023-06-01T09:18:54.000Z</time>
      </trkpt>
      <trkpt lat="43.5662" lon="2.45696">
        <ele>706.59997558594</ele>
        <time>2023-06-01T09:18:56.000Z</time>
      </trkpt>
      <trkpt lat="43.56617" lon="2.45689">
        <ele>707.59997558594</ele>
        <time>2023-06-01T09:19:02.000Z</time>
      </trkpt>
      <trkpt lat="43.56615" lon="2.45686">
        <ele>708.20001220703</ele>
        <time>2023-06-01T09:19:04.000Z</time>
      </trkpt>
      <trkpt lat="43.5661" lon="2.45682">
        <ele>707.59997558594</ele>
        <time>2023-06-01T09:19:10.000Z</time>
      </trkpt>
      <trkpt lat="43.56609" lon="2.45682">
        <ele>707.59997558594</ele>
        <time>2023-06-01T09:19:11.000Z</time>
      </trkpt>
      <trkpt lat="43.56607" lon="2.4568">
        <ele>707</ele>
        <time>2023-06-01T09:19:14.000Z</time>
      </trkpt>
      <trkpt lat="43.56603" lon="2.45678">
        <ele>707.40002441406</ele>
        <time>2023-06-01T09:19:18.000Z</time>
      </trkpt>
      <trkpt lat="43.56595" lon="2.45673">
        <ele>707.79998779297</ele>
        <time>2023-06-01T09:19:27.000Z</time>
      </trkpt>
      <trkpt lat="43.56593" lon="2.45671">
        <ele>707.59997558594</ele>
        <time>2023-06-01T09:19:33.000Z</time>
      </trkpt>
      <trkpt lat="43.56587" lon="2.45664">
        <ele>707.40002441406</ele>
        <time>2023-06-01T09:19:40.000Z</time>
      </trkpt>
      <trkpt lat="43.5658" lon="2.45655">
        <ele>706.20001220703</ele>
        <time>2023-06-01T09:19:49.000Z</time>
      </trkpt>
      <trkpt lat="43.5658" lon="2.45654">
        <ele>706</ele>
        <time>2023-06-01T09:19:50.000Z</time>
      </trkpt>
      <trkpt lat="43.56575" lon="2.45646">
        <ele>705.20001220703</ele>
        <time>2023-06-01T09:19:56.000Z</time>
      </trkpt>
      <trkpt lat="43.56575" lon="2.45645">
        <ele>705</ele>
        <time>2023-06-01T09:19:57.000Z</time>
      </trkpt>
      <trkpt lat="43.56568" lon="2.45628">
        <ele>704.20001220703</ele>
        <time>2023-06-01T09:20:08.000Z</time>
      </trkpt>
      <trkpt lat="43.56567" lon="2.45624">
        <ele>703.79998779297</ele>
        <time>2023-06-01T09:20:10.000Z</time>
      </trkpt>
      <trkpt lat="43.56563" lon="2.45612">
        <ele>703.20001220703</ele>
        <time>2023-06-01T09:20:18.000Z</time>
      </trkpt>
      <trkpt lat="43.56558" lon="2.456">
        <ele>703.20001220703</ele>
        <time>2023-06-01T09:20:27.000Z</time>
      </trkpt>
      <trkpt lat="43.56555" lon="2.45592">
        <ele>702.79998779297</ele>
        <time>2023-06-01T09:20:32.000Z</time>
      </trkpt>
      <trkpt lat="43.56552" lon="2.45586">
        <ele>702.20001220703</ele>
        <time>2023-06-01T09:20:37.000Z</time>
      </trkpt>
      <trkpt lat="43.56551" lon="2.45583">
        <ele>701.79998779297</ele>
        <time>2023-06-01T09:20:42.000Z</time>
      </trkpt>
      <trkpt lat="43.56551" lon="2.45582">
        <ele>702</ele>
        <time>2023-06-01T09:20:43.000Z</time>
      </trkpt>
      <trkpt lat="43.56544" lon="2.45572">
        <ele>702.79998779297</ele>
        <time>2023-06-01T09:20:52.000Z</time>
      </trkpt>
      <trkpt lat="43.56543" lon="2.45571">
        <ele>702.79998779297</ele>
        <time>2023-06-01T09:20:53.000Z</time>
      </trkpt>
      <trkpt lat="43.56538" lon="2.45564">
        <ele>702.59997558594</ele>
        <time>2023-06-01T09:21:01.000Z</time>
      </trkpt>
      <trkpt lat="43.56531" lon="2.45557">
        <ele>702.20001220703</ele>
        <time>2023-06-01T09:21:10.000Z</time>
      </trkpt>
      <trkpt lat="43.56524" lon="2.45552">
        <ele>702</ele>
        <time>2023-06-01T09:21:19.000Z</time>
      </trkpt>
      <trkpt lat="43.56524" lon="2.45552">
        <ele>701.79998779297</ele>
        <time>2023-06-01T09:21:20.000Z</time>
      </trkpt>
      <trkpt lat="43.56523" lon="2.45551">
        <ele>701.79998779297</ele>
        <time>2023-06-01T09:21:21.000Z</time>
      </trkpt>
      <trkpt lat="43.56522" lon="2.4555">
        <ele>701.59997558594</ele>
        <time>2023-06-01T09:21:22.000Z</time>
      </trkpt>
      <trkpt lat="43.56516" lon="2.45545">
        <ele>702</ele>
        <time>2023-06-01T09:21:29.000Z</time>
      </trkpt>
      <trkpt lat="43.56513" lon="2.45542">
        <ele>701.20001220703</ele>
        <time>2023-06-01T09:21:36.000Z</time>
      </trkpt>
      <trkpt lat="43.56508" lon="2.45537">
        <ele>702.20001220703</ele>
        <time>2023-06-01T09:21:42.000Z</time>
      </trkpt>
      <trkpt lat="43.56501" lon="2.45533">
        <ele>701.20001220703</ele>
        <time>2023-06-01T09:21:52.000Z</time>
      </trkpt>
      <trkpt lat="43.56501" lon="2.45533">
        <ele>702.79998779297</ele>
        <time>2023-06-01T09:21:57.000Z</time>
      </trkpt>
      <trkpt lat="43.56501" lon="2.45532">
        <ele>704.20001220703</ele>
        <time>2023-06-01T09:22:00.000Z</time>
      </trkpt>
      <trkpt lat="43.56503" lon="2.45532">
        <ele>704</ele>
        <time>2023-06-01T09:22:06.000Z</time>
      </trkpt>
      <trkpt lat="43.56504" lon="2.45532">
        <ele>703.20001220703</ele>
        <time>2023-06-01T09:22:07.000Z</time>
      </trkpt>
      <trkpt lat="43.5651" lon="2.45528">
        <ele>703.59997558594</ele>
        <time>2023-06-01T09:22:14.000Z</time>
      </trkpt>
      <trkpt lat="43.56517" lon="2.45522">
        <ele>703.79998779297</ele>
        <time>2023-06-01T09:22:22.000Z</time>
      </trkpt>
      <trkpt lat="43.56524" lon="2.45515">
        <ele>703</ele>
        <time>2023-06-01T09:22:31.000Z</time>
      </trkpt>
      <trkpt lat="43.56534" lon="2.45506">
        <ele>703.79998779297</ele>
        <time>2023-06-01T09:22:41.000Z</time>
      </trkpt>
      <trkpt lat="43.5654" lon="2.455">
        <ele>704.20001220703</ele>
        <time>2023-06-01T09:22:48.000Z</time>
      </trkpt>
      <trkpt lat="43.56542" lon="2.45499">
        <ele>704.40002441406</ele>
        <time>2023-06-01T09:22:50.000Z</time>
      </trkpt>
      <trkpt lat="43.56543" lon="2.45498">
        <ele>704.59997558594</ele>
        <time>2023-06-01T09:22:52.000Z</time>
      </trkpt>
      <trkpt lat="43.56547" lon="2.45491">
        <ele>705.20001220703</ele>
        <time>2023-06-01T09:22:57.000Z</time>
      </trkpt>
      <trkpt lat="43.56554" lon="2.45477">
        <ele>703.20001220703</ele>
        <time>2023-06-01T09:23:07.000Z</time>
      </trkpt>
      <trkpt lat="43.56559" lon="2.45467">
        <ele>703.20001220703</ele>
        <time>2023-06-01T09:23:15.000Z</time>
      </trkpt>
      <trkpt lat="43.56564" lon="2.45458">
        <ele>703.59997558594</ele>
        <time>2023-06-01T09:23:22.000Z</time>
      </trkpt>
      <trkpt lat="43.56565" lon="2.45454">
        <ele>703</ele>
        <time>2023-06-01T09:23:27.000Z</time>
      </trkpt>
      <trkpt lat="43.5657" lon="2.45442">
        <ele>702.79998779297</ele>
        <time>2023-06-01T09:23:36.000Z</time>
      </trkpt>
      <trkpt lat="43.56575" lon="2.45429">
        <ele>703.40002441406</ele>
        <time>2023-06-01T09:23:45.000Z</time>
      </trkpt>
      <trkpt lat="43.56579" lon="2.4542">
        <ele>703.40002441406</ele>
        <time>2023-06-01T09:23:52.000Z</time>
      </trkpt>
      <trkpt lat="43.56584" lon="2.4541">
        <ele>704.20001220703</ele>
        <time>2023-06-01T09:24:00.000Z</time>
      </trkpt>
      <trkpt lat="43.56589" lon="2.45401">
        <ele>703.79998779297</ele>
        <time>2023-06-01T09:24:08.000Z</time>
      </trkpt>
      <trkpt lat="43.56595" lon="2.45392">
        <ele>704.40002441406</ele>
        <time>2023-06-01T09:24:16.000Z</time>
      </trkpt>
      <trkpt lat="43.56598" lon="2.45389">
        <ele>704.59997558594</ele>
        <time>2023-06-01T09:24:19.000Z</time>
      </trkpt>
      <trkpt lat="43.56603" lon="2.45382">
        <ele>704.40002441406</ele>
        <time>2023-06-01T09:24:29.000Z</time>
      </trkpt>
      <trkpt lat="43.56606" lon="2.45377">
        <ele>704.40002441406</ele>
        <time>2023-06-01T09:24:39.000Z</time>
      </trkpt>
      <trkpt lat="43.56613" lon="2.45367">
        <ele>704.59997558594</ele>
        <time>2023-06-01T09:24:48.000Z</time>
      </trkpt>
      <trkpt lat="43.56621" lon="2.45358">
        <ele>705</ele>
        <time>2023-06-01T09:24:57.000Z</time>
      </trkpt>
      <trkpt lat="43.56627" lon="2.45351">
        <ele>705.40002441406</ele>
        <time>2023-06-01T09:25:04.000Z</time>
      </trkpt>
      <trkpt lat="43.56628" lon="2.4535">
        <ele>705.59997558594</ele>
        <time>2023-06-01T09:25:05.000Z</time>
      </trkpt>
      <trkpt lat="43.56634" lon="2.45342">
        <ele>705.40002441406</ele>
        <time>2023-06-01T09:25:12.000Z</time>
      </trkpt>
      <trkpt lat="43.56636" lon="2.4534">
        <ele>705.40002441406</ele>
        <time>2023-06-01T09:25:18.000Z</time>
      </trkpt>
      <trkpt lat="43.5664" lon="2.45337">
        <ele>705.40002441406</ele>
        <time>2023-06-01T09:25:25.000Z</time>
      </trkpt>
      <trkpt lat="43.56648" lon="2.4533">
        <ele>704.79998779297</ele>
        <time>2023-06-01T09:25:33.000Z</time>
      </trkpt>
      <trkpt lat="43.56654" lon="2.45322">
        <ele>704.59997558594</ele>
        <time>2023-06-01T09:25:40.000Z</time>
      </trkpt>
      <trkpt lat="43.56655" lon="2.45321">
        <ele>704.59997558594</ele>
        <time>2023-06-01T09:25:41.000Z</time>
      </trkpt>
      <trkpt lat="43.56657" lon="2.45318">
        <ele>704.59997558594</ele>
        <time>2023-06-01T09:25:44.000Z</time>
      </trkpt>
      <trkpt lat="43.56659" lon="2.45316">
        <ele>704.59997558594</ele>
        <time>2023-06-01T09:25:46.000Z</time>
      </trkpt>
      <trkpt lat="43.5666" lon="2.45315">
        <ele>704.40002441406</ele>
        <time>2023-06-01T09:25:47.000Z</time>
      </trkpt>
      <trkpt lat="43.56666" lon="2.4531">
        <ele>704.40002441406</ele>
        <time>2023-06-01T09:25:54.000Z</time>
      </trkpt>
      <trkpt lat="43.56668" lon="2.45308">
        <ele>704.20001220703</ele>
        <time>2023-06-01T09:25:56.000Z</time>
      </trkpt>
      <trkpt lat="43.56671" lon="2.45305">
        <ele>704</ele>
        <time>2023-06-01T09:26:00.000Z</time>
      </trkpt>
      <trkpt lat="43.56674" lon="2.45303">
        <ele>703.79998779297</ele>
        <time>2023-06-01T09:26:03.000Z</time>
      </trkpt>
      <trkpt lat="43.56684" lon="2.45295">
        <ele>703.59997558594</ele>
        <time>2023-06-01T09:26:14.000Z</time>
      </trkpt>
      <trkpt lat="43.56685" lon="2.45294">
        <ele>703.20001220703</ele>
        <time>2023-06-01T09:26:15.000Z</time>
      </trkpt>
      <trkpt lat="43.56691" lon="2.45287">
        <ele>702.40002441406</ele>
        <time>2023-06-01T09:26:23.000Z</time>
      </trkpt>
      <trkpt lat="43.56693" lon="2.45285">
        <ele>702.20001220703</ele>
        <time>2023-06-01T09:26:25.000Z</time>
      </trkpt>
      <trkpt lat="43.56694" lon="2.45284">
        <ele>702.20001220703</ele>
        <time>2023-06-01T09:26:28.000Z</time>
      </trkpt>
      <trkpt lat="43.56699" lon="2.45279">
        <ele>702</ele>
        <time>2023-06-01T09:26:34.000Z</time>
      </trkpt>
      <trkpt lat="43.56701" lon="2.45278">
        <ele>701.79998779297</ele>
        <time>2023-06-01T09:26:36.000Z</time>
      </trkpt>
      <trkpt lat="43.56702" lon="2.45276">
        <ele>701.59997558594</ele>
        <time>2023-06-01T09:26:38.000Z</time>
      </trkpt>
      <trkpt lat="43.56706" lon="2.45273">
        <ele>701.20001220703</ele>
        <time>2023-06-01T09:26:43.000Z</time>
      </trkpt>
      <trkpt lat="43.56707" lon="2.45273">
        <ele>701</ele>
        <time>2023-06-01T09:26:44.000Z</time>
      </trkpt>
      <trkpt lat="43.5671" lon="2.45269">
        <ele>700.20001220703</ele>
        <time>2023-06-01T09:26:50.000Z</time>
      </trkpt>
      <trkpt lat="43.56715" lon="2.45264">
        <ele>700</ele>
        <time>2023-06-01T09:26:57.000Z</time>
      </trkpt>
      <trkpt lat="43.56718" lon="2.45262">
        <ele>699.40002441406</ele>
        <time>2023-06-01T09:27:00.000Z</time>
      </trkpt>
      <trkpt lat="43.56726" lon="2.45255">
        <ele>698.79998779297</ele>
        <time>2023-06-01T09:27:08.000Z</time>
      </trkpt>
      <trkpt lat="43.56731" lon="2.45252">
        <ele>698.20001220703</ele>
        <time>2023-06-01T09:27:14.000Z</time>
      </trkpt>
      <trkpt lat="43.5674" lon="2.45245">
        <ele>698.20001220703</ele>
        <time>2023-06-01T09:27:24.000Z</time>
      </trkpt>
      <trkpt lat="43.56745" lon="2.4524">
        <ele>697.79998779297</ele>
        <time>2023-06-01T09:27:30.000Z</time>
      </trkpt>
      <trkpt lat="43.56746" lon="2.45238">
        <ele>697.40002441406</ele>
        <time>2023-06-01T09:27:32.000Z</time>
      </trkpt>
      <trkpt lat="43.56749" lon="2.45236">
        <ele>696.79998779297</ele>
        <time>2023-06-01T09:27:35.000Z</time>
      </trkpt>
      <trkpt lat="43.56752" lon="2.45234">
        <ele>696.59997558594</ele>
        <time>2023-06-01T09:27:39.000Z</time>
      </trkpt>
      <trkpt lat="43.56753" lon="2.45233">
        <ele>696.59997558594</ele>
        <time>2023-06-01T09:27:40.000Z</time>
      </trkpt>
      <trkpt lat="43.56758" lon="2.45229">
        <ele>696.20001220703</ele>
        <time>2023-06-01T09:27:47.000Z</time>
      </trkpt>
      <trkpt lat="43.5676" lon="2.45227">
        <ele>695.79998779297</ele>
        <time>2023-06-01T09:27:49.000Z</time>
      </trkpt>
      <trkpt lat="43.56767" lon="2.45224">
        <ele>695.40002441406</ele>
        <time>2023-06-01T09:27:56.000Z</time>
      </trkpt>
      <trkpt lat="43.56774" lon="2.45219">
        <ele>694.79998779297</ele>
        <time>2023-06-01T09:28:04.000Z</time>
      </trkpt>
      <trkpt lat="43.5678" lon="2.45216">
        <ele>694.40002441406</ele>
        <time>2023-06-01T09:28:10.000Z</time>
      </trkpt>
      <trkpt lat="43.56782" lon="2.45215">
        <ele>694.79998779297</ele>
        <time>2023-06-01T09:28:12.000Z</time>
      </trkpt>
      <trkpt lat="43.56787" lon="2.45213">
        <ele>694.59997558594</ele>
        <time>2023-06-01T09:28:17.000Z</time>
      </trkpt>
      <trkpt lat="43.56789" lon="2.45212">
        <ele>694.59997558594</ele>
        <time>2023-06-01T09:28:19.000Z</time>
      </trkpt>
      <trkpt lat="43.56794" lon="2.4521">
        <ele>694.20001220703</ele>
        <time>2023-06-01T09:28:25.000Z</time>
      </trkpt>
      <trkpt lat="43.56796" lon="2.45208">
        <ele>693.40002441406</ele>
        <time>2023-06-01T09:28:29.000Z</time>
      </trkpt>
      <trkpt lat="43.56798" lon="2.45205">
        <ele>692.59997558594</ele>
        <time>2023-06-01T09:28:32.000Z</time>
      </trkpt>
      <trkpt lat="43.56799" lon="2.45204">
        <ele>692.40002441406</ele>
        <time>2023-06-01T09:28:33.000Z</time>
      </trkpt>
      <trkpt lat="43.56803" lon="2.452">
        <ele>692</ele>
        <time>2023-06-01T09:28:38.000Z</time>
      </trkpt>
      <trkpt lat="43.56806" lon="2.45197">
        <ele>691.40002441406</ele>
        <time>2023-06-01T09:28:43.000Z</time>
      </trkpt>
      <trkpt lat="43.56808" lon="2.45196">
        <ele>691.20001220703</ele>
        <time>2023-06-01T09:28:45.000Z</time>
      </trkpt>
      <trkpt lat="43.56811" lon="2.45195">
        <ele>690.59997558594</ele>
        <time>2023-06-01T09:28:49.000Z</time>
      </trkpt>
      <trkpt lat="43.56812" lon="2.45192">
        <ele>690.40002441406</ele>
        <time>2023-06-01T09:28:52.000Z</time>
      </trkpt>
      <trkpt lat="43.56813" lon="2.45191">
        <ele>690.20001220703</ele>
        <time>2023-06-01T09:28:54.000Z</time>
      </trkpt>
      <trkpt lat="43.56817" lon="2.45189">
        <ele>689.59997558594</ele>
        <time>2023-06-01T09:28:57.000Z</time>
      </trkpt>
      <trkpt lat="43.56818" lon="2.45187">
        <ele>689.20001220703</ele>
        <time>2023-06-01T09:28:59.000Z</time>
      </trkpt>
      <trkpt lat="43.56819" lon="2.45186">
        <ele>689</ele>
        <time>2023-06-01T09:29:00.000Z</time>
      </trkpt>
      <trkpt lat="43.56818" lon="2.45186">
        <ele>688.59997558594</ele>
        <time>2023-06-01T09:29:03.000Z</time>
      </trkpt>
      <trkpt lat="43.56823" lon="2.45184">
        <ele>688.40002441406</ele>
        <time>2023-06-01T09:29:08.000Z</time>
      </trkpt>
      <trkpt lat="43.56827" lon="2.45181">
        <ele>687.79998779297</ele>
        <time>2023-06-01T09:29:13.000Z</time>
      </trkpt>
      <trkpt lat="43.56828" lon="2.4518">
        <ele>687.59997558594</ele>
        <time>2023-06-01T09:29:14.000Z</time>
      </trkpt>
      <trkpt lat="43.56833" lon="2.45177">
        <ele>686.59997558594</ele>
        <time>2023-06-01T09:29:18.000Z</time>
      </trkpt>
      <trkpt lat="43.56835" lon="2.45176">
        <ele>685.79998779297</ele>
        <time>2023-06-01T09:29:21.000Z</time>
      </trkpt>
      <trkpt lat="43.56838" lon="2.45175">
        <ele>685.40002441406</ele>
        <time>2023-06-01T09:29:23.000Z</time>
      </trkpt>
      <trkpt lat="43.56845" lon="2.4517">
        <ele>684.40002441406</ele>
        <time>2023-06-01T09:29:30.000Z</time>
      </trkpt>
      <trkpt lat="43.56848" lon="2.45168">
        <ele>683.20001220703</ele>
        <time>2023-06-01T09:29:34.000Z</time>
      </trkpt>
      <trkpt lat="43.56853" lon="2.45165">
        <ele>682</ele>
        <time>2023-06-01T09:29:39.000Z</time>
      </trkpt>
      <trkpt lat="43.56853" lon="2.45165">
        <ele>682</ele>
        <time>2023-06-01T09:29:40.000Z</time>
      </trkpt>
      <trkpt lat="43.56858" lon="2.45165">
        <ele>681.79998779297</ele>
        <time>2023-06-01T09:29:47.000Z</time>
      </trkpt>
      <trkpt lat="43.56861" lon="2.45163">
        <ele>681</ele>
        <time>2023-06-01T09:29:50.000Z</time>
      </trkpt>
      <trkpt lat="43.56863" lon="2.45163">
        <ele>680.79998779297</ele>
        <time>2023-06-01T09:29:53.000Z</time>
      </trkpt>
      <trkpt lat="43.56866" lon="2.45161">
        <ele>680.79998779297</ele>
        <time>2023-06-01T09:29:58.000Z</time>
      </trkpt>
      <trkpt lat="43.56871" lon="2.45161">
        <ele>679.79998779297</ele>
        <time>2023-06-01T09:30:03.000Z</time>
      </trkpt>
      <trkpt lat="43.56874" lon="2.45161">
        <ele>679.20001220703</ele>
        <time>2023-06-01T09:30:06.000Z</time>
      </trkpt>
      <trkpt lat="43.56877" lon="2.4516">
        <ele>678.59997558594</ele>
        <time>2023-06-01T09:30:08.000Z</time>
      </trkpt>
      <trkpt lat="43.5688" lon="2.45158">
        <ele>677.59997558594</ele>
        <time>2023-06-01T09:30:11.000Z</time>
      </trkpt>
      <trkpt lat="43.56881" lon="2.45158">
        <ele>677.20001220703</ele>
        <time>2023-06-01T09:30:12.000Z</time>
      </trkpt>
      <trkpt lat="43.56884" lon="2.45158">
        <ele>676.59997558594</ele>
        <time>2023-06-01T09:30:15.000Z</time>
      </trkpt>
      <trkpt lat="43.56885" lon="2.45158">
        <ele>676.40002441406</ele>
        <time>2023-06-01T09:30:16.000Z</time>
      </trkpt>
      <trkpt lat="43.56889" lon="2.45156">
        <ele>675.59997558594</ele>
        <time>2023-06-01T09:30:20.000Z</time>
      </trkpt>
      <trkpt lat="43.5689" lon="2.45155">
        <ele>675.40002441406</ele>
        <time>2023-06-01T09:30:21.000Z</time>
      </trkpt>
      <trkpt lat="43.5689" lon="2.45155">
        <ele>675</ele>
        <time>2023-06-01T09:30:24.000Z</time>
      </trkpt>
      <trkpt lat="43.5689" lon="2.45154">
        <ele>674.20001220703</ele>
        <time>2023-06-01T09:30:34.000Z</time>
      </trkpt>
      <trkpt lat="43.5689" lon="2.45154">
        <ele>674</ele>
        <time>2023-06-01T09:30:37.000Z</time>
      </trkpt>
      <trkpt lat="43.5689" lon="2.45153">
        <ele>674.59997558594</ele>
        <time>2023-06-01T09:30:46.000Z</time>
      </trkpt>
      <trkpt lat="43.5689" lon="2.45148">
        <ele>674.79998779297</ele>
        <time>2023-06-01T09:30:53.000Z</time>
      </trkpt>
      <trkpt lat="43.56892" lon="2.45139">
        <ele>673.79998779297</ele>
        <time>2023-06-01T09:31:00.000Z</time>
      </trkpt>
      <trkpt lat="43.56893" lon="2.45135">
        <ele>673.20001220703</ele>
        <time>2023-06-01T09:31:03.000Z</time>
      </trkpt>
      <trkpt lat="43.56894" lon="2.45131">
        <ele>672.79998779297</ele>
        <time>2023-06-01T09:31:06.000Z</time>
      </trkpt>
      <trkpt lat="43.56894" lon="2.45129">
        <ele>672.20001220703</ele>
        <time>2023-06-01T09:31:08.000Z</time>
      </trkpt>
      <trkpt lat="43.56894" lon="2.45127">
        <ele>672</ele>
        <time>2023-06-01T09:31:09.000Z</time>
      </trkpt>
      <trkpt lat="43.56895" lon="2.45119">
        <ele>670.79998779297</ele>
        <time>2023-06-01T09:31:15.000Z</time>
      </trkpt>
      <trkpt lat="43.56895" lon="2.45118">
        <ele>670.59997558594</ele>
        <time>2023-06-01T09:31:16.000Z</time>
      </trkpt>
      <trkpt lat="43.56896" lon="2.45117">
        <ele>670.59997558594</ele>
        <time>2023-06-01T09:31:17.000Z</time>
      </trkpt>
      <trkpt lat="43.56898" lon="2.45111">
        <ele>669.79998779297</ele>
        <time>2023-06-01T09:31:21.000Z</time>
      </trkpt>
      <trkpt lat="43.56898" lon="2.45102">
        <ele>669.20001220703</ele>
        <time>2023-06-01T09:31:27.000Z</time>
      </trkpt>
      <trkpt lat="43.56897" lon="2.45099">
        <ele>669.20001220703</ele>
        <time>2023-06-01T09:31:29.000Z</time>
      </trkpt>
      <trkpt lat="43.56897" lon="2.45095">
        <ele>669.20001220703</ele>
        <time>2023-06-01T09:31:32.000Z</time>
      </trkpt>
      <trkpt lat="43.56897" lon="2.45091">
        <ele>669.40002441406</ele>
        <time>2023-06-01T09:31:35.000Z</time>
      </trkpt>
      <trkpt lat="43.56897" lon="2.4509">
        <ele>669.40002441406</ele>
        <time>2023-06-01T09:31:36.000Z</time>
      </trkpt>
      <trkpt lat="43.56896" lon="2.45087">
        <ele>669</ele>
        <time>2023-06-01T09:31:39.000Z</time>
      </trkpt>
      <trkpt lat="43.56896" lon="2.45085">
        <ele>668.79998779297</ele>
        <time>2023-06-01T09:31:40.000Z</time>
      </trkpt>
      <trkpt lat="43.56895" lon="2.45081">
        <ele>668.20001220703</ele>
        <time>2023-06-01T09:31:44.000Z</time>
      </trkpt>
      <trkpt lat="43.56893" lon="2.45075">
        <ele>667.59997558594</ele>
        <time>2023-06-01T09:31:48.000Z</time>
      </trkpt>
      <trkpt lat="43.56893" lon="2.45074">
        <ele>667.40002441406</ele>
        <time>2023-06-01T09:31:49.000Z</time>
      </trkpt>
      <trkpt lat="43.56891" lon="2.4507">
        <ele>666.79998779297</ele>
        <time>2023-06-01T09:31:52.000Z</time>
      </trkpt>
      <trkpt lat="43.5689" lon="2.45068">
        <ele>666.59997558594</ele>
        <time>2023-06-01T09:31:54.000Z</time>
      </trkpt>
      <trkpt lat="43.56889" lon="2.45066">
        <ele>666.59997558594</ele>
        <time>2023-06-01T09:31:55.000Z</time>
      </trkpt>
      <trkpt lat="43.56886" lon="2.45061">
        <ele>665.59997558594</ele>
        <time>2023-06-01T09:32:00.000Z</time>
      </trkpt>
      <trkpt lat="43.56885" lon="2.45059">
        <ele>665.59997558594</ele>
        <time>2023-06-01T09:32:02.000Z</time>
      </trkpt>
      <trkpt lat="43.5688" lon="2.45051">
        <ele>665.20001220703</ele>
        <time>2023-06-01T09:32:09.000Z</time>
      </trkpt>
      <trkpt lat="43.56877" lon="2.45047">
        <ele>664.40002441406</ele>
        <time>2023-06-01T09:32:13.000Z</time>
      </trkpt>
      <trkpt lat="43.56875" lon="2.45043">
        <ele>664.20001220703</ele>
        <time>2023-06-01T09:32:17.000Z</time>
      </trkpt>
      <trkpt lat="43.56872" lon="2.45041">
        <ele>664.20001220703</ele>
        <time>2023-06-01T09:32:20.000Z</time>
      </trkpt>
      <trkpt lat="43.5687" lon="2.45036">
        <ele>663.59997558594</ele>
        <time>2023-06-01T09:32:24.000Z</time>
      </trkpt>
      <trkpt lat="43.56869" lon="2.45034">
        <ele>663.40002441406</ele>
        <time>2023-06-01T09:32:26.000Z</time>
      </trkpt>
      <trkpt lat="43.56865" lon="2.4503">
        <ele>663.20001220703</ele>
        <time>2023-06-01T09:32:31.000Z</time>
      </trkpt>
      <trkpt lat="43.56858" lon="2.45025">
        <ele>662.79998779297</ele>
        <time>2023-06-01T09:32:39.000Z</time>
      </trkpt>
      <trkpt lat="43.56855" lon="2.45024">
        <ele>662.40002441406</ele>
        <time>2023-06-01T09:32:42.000Z</time>
      </trkpt>
      <trkpt lat="43.56855" lon="2.45024">
        <ele>662.20001220703</ele>
        <time>2023-06-01T09:32:43.000Z</time>
      </trkpt>
      <trkpt lat="43.56852" lon="2.45022">
        <ele>661.59997558594</ele>
        <time>2023-06-01T09:32:46.000Z</time>
      </trkpt>
      <trkpt lat="43.56849" lon="2.45021">
        <ele>661.20001220703</ele>
        <time>2023-06-01T09:32:49.000Z</time>
      </trkpt>
      <trkpt lat="43.56846" lon="2.4502">
        <ele>660.20001220703</ele>
        <time>2023-06-01T09:32:52.000Z</time>
      </trkpt>
      <trkpt lat="43.56845" lon="2.45019">
        <ele>660</ele>
        <time>2023-06-01T09:32:53.000Z</time>
      </trkpt>
      <trkpt lat="43.56842" lon="2.45018">
        <ele>659.59997558594</ele>
        <time>2023-06-01T09:32:56.000Z</time>
      </trkpt>
      <trkpt lat="43.5684" lon="2.45017">
        <ele>659.40002441406</ele>
        <time>2023-06-01T09:32:59.000Z</time>
      </trkpt>
      <trkpt lat="43.56839" lon="2.45016">
        <ele>659.40002441406</ele>
        <time>2023-06-01T09:33:01.000Z</time>
      </trkpt>
      <trkpt lat="43.56835" lon="2.45016">
        <ele>659.20001220703</ele>
        <time>2023-06-01T09:33:04.000Z</time>
      </trkpt>
      <trkpt lat="43.56834" lon="2.45015">
        <ele>659</ele>
        <time>2023-06-01T09:33:05.000Z</time>
      </trkpt>
      <trkpt lat="43.5683" lon="2.45013">
        <ele>657.79998779297</ele>
        <time>2023-06-01T09:33:10.000Z</time>
      </trkpt>
      <trkpt lat="43.56829" lon="2.45013">
        <ele>657.40002441406</ele>
        <time>2023-06-01T09:33:11.000Z</time>
      </trkpt>
      <trkpt lat="43.56824" lon="2.45009">
        <ele>657</ele>
        <time>2023-06-01T09:33:17.000Z</time>
      </trkpt>
      <trkpt lat="43.56824" lon="2.45008">
        <ele>657.20001220703</ele>
        <time>2023-06-01T09:33:19.000Z</time>
      </trkpt>
      <trkpt lat="43.56823" lon="2.45007">
        <ele>656.79998779297</ele>
        <time>2023-06-01T09:33:24.000Z</time>
      </trkpt>
      <trkpt lat="43.56823" lon="2.45007">
        <ele>656.59997558594</ele>
        <time>2023-06-01T09:33:25.000Z</time>
      </trkpt>
      <trkpt lat="43.56821" lon="2.45001">
        <ele>656.20001220703</ele>
        <time>2023-06-01T09:33:34.000Z</time>
      </trkpt>
      <trkpt lat="43.56824" lon="2.44998">
        <ele>655.79998779297</ele>
        <time>2023-06-01T09:33:38.000Z</time>
      </trkpt>
      <trkpt lat="43.56827" lon="2.44996">
        <ele>655.40002441406</ele>
        <time>2023-06-01T09:33:42.000Z</time>
      </trkpt>
      <trkpt lat="43.56834" lon="2.44991">
        <ele>655.20001220703</ele>
        <time>2023-06-01T09:33:51.000Z</time>
      </trkpt>
      <trkpt lat="43.5684" lon="2.4499">
        <ele>654.79998779297</ele>
        <time>2023-06-01T09:33:57.000Z</time>
      </trkpt>
      <trkpt lat="43.56843" lon="2.44989">
        <ele>654.40002441406</ele>
        <time>2023-06-01T09:34:00.000Z</time>
      </trkpt>
      <trkpt lat="43.56851" lon="2.44986">
        <ele>653.59997558594</ele>
        <time>2023-06-01T09:34:08.000Z</time>
      </trkpt>
      <trkpt lat="43.56862" lon="2.44982">
        <ele>653</ele>
        <time>2023-06-01T09:34:17.000Z</time>
      </trkpt>
      <trkpt lat="43.56868" lon="2.4498">
        <ele>652.59997558594</ele>
        <time>2023-06-01T09:34:22.000Z</time>
      </trkpt>
      <trkpt lat="43.5687" lon="2.4498">
        <ele>652.40002441406</ele>
        <time>2023-06-01T09:34:24.000Z</time>
      </trkpt>
      <trkpt lat="43.56876" lon="2.44977">
        <ele>651.59997558594</ele>
        <time>2023-06-01T09:34:29.000Z</time>
      </trkpt>
      <trkpt lat="43.56878" lon="2.44976">
        <ele>651.40002441406</ele>
        <time>2023-06-01T09:34:31.000Z</time>
      </trkpt>
      <trkpt lat="43.56883" lon="2.44974">
        <ele>651.40002441406</ele>
        <time>2023-06-01T09:34:35.000Z</time>
      </trkpt>
      <trkpt lat="43.56884" lon="2.44973">
        <ele>651.20001220703</ele>
        <time>2023-06-01T09:34:36.000Z</time>
      </trkpt>
      <trkpt lat="43.56889" lon="2.44975">
        <ele>650.59997558594</ele>
        <time>2023-06-01T09:34:42.000Z</time>
      </trkpt>
      <trkpt lat="43.56889" lon="2.44975">
        <ele>650.59997558594</ele>
        <time>2023-06-01T09:34:43.000Z</time>
      </trkpt>
      <trkpt lat="43.56892" lon="2.44973">
        <ele>650.59997558594</ele>
        <time>2023-06-01T09:34:47.000Z</time>
      </trkpt>
      <trkpt lat="43.56901" lon="2.44972">
        <ele>650</ele>
        <time>2023-06-01T09:34:54.000Z</time>
      </trkpt>
      <trkpt lat="43.56907" lon="2.44973">
        <ele>649.59997558594</ele>
        <time>2023-06-01T09:35:00.000Z</time>
      </trkpt>
      <trkpt lat="43.56909" lon="2.44973">
        <ele>649.40002441406</ele>
        <time>2023-06-01T09:35:02.000Z</time>
      </trkpt>
      <trkpt lat="43.56916" lon="2.44974">
        <ele>648.79998779297</ele>
        <time>2023-06-01T09:35:10.000Z</time>
      </trkpt>
      <trkpt lat="43.56925" lon="2.44979">
        <ele>649</ele>
        <time>2023-06-01T09:35:18.000Z</time>
      </trkpt>
      <trkpt lat="43.5693" lon="2.44984">
        <ele>648.40002441406</ele>
        <time>2023-06-01T09:35:23.000Z</time>
      </trkpt>
      <trkpt lat="43.56934" lon="2.44988">
        <ele>648</ele>
        <time>2023-06-01T09:35:28.000Z</time>
      </trkpt>
      <trkpt lat="43.5694" lon="2.44997">
        <ele>647.59997558594</ele>
        <time>2023-06-01T09:35:36.000Z</time>
      </trkpt>
      <trkpt lat="43.56944" lon="2.45002">
        <ele>647.40002441406</ele>
        <time>2023-06-01T09:35:40.000Z</time>
      </trkpt>
      <trkpt lat="43.56949" lon="2.45007">
        <ele>647</ele>
        <time>2023-06-01T09:35:45.000Z</time>
      </trkpt>
      <trkpt lat="43.56958" lon="2.45016">
        <ele>646.59997558594</ele>
        <time>2023-06-01T09:35:54.000Z</time>
      </trkpt>
      <trkpt lat="43.56961" lon="2.45019">
        <ele>646.40002441406</ele>
        <time>2023-06-01T09:35:57.000Z</time>
      </trkpt>
      <trkpt lat="43.56964" lon="2.45025">
        <ele>646</ele>
        <time>2023-06-01T09:36:02.000Z</time>
      </trkpt>
      <trkpt lat="43.5697" lon="2.45037">
        <ele>645.20001220703</ele>
        <time>2023-06-01T09:36:11.000Z</time>
      </trkpt>
      <trkpt lat="43.56971" lon="2.45038">
        <ele>645.20001220703</ele>
        <time>2023-06-01T09:36:12.000Z</time>
      </trkpt>
      <trkpt lat="43.56975" lon="2.45048">
        <ele>644.79998779297</ele>
        <time>2023-06-01T09:36:19.000Z</time>
      </trkpt>
      <trkpt lat="43.56977" lon="2.45051">
        <ele>644.40002441406</ele>
        <time>2023-06-01T09:36:22.000Z</time>
      </trkpt>
      <trkpt lat="43.56978" lon="2.45054">
        <ele>644.20001220703</ele>
        <time>2023-06-01T09:36:24.000Z</time>
      </trkpt>
      <trkpt lat="43.5698" lon="2.45056">
        <ele>644</ele>
        <time>2023-06-01T09:36:26.000Z</time>
      </trkpt>
      <trkpt lat="43.56982" lon="2.45061">
        <ele>643.79998779297</ele>
        <time>2023-06-01T09:36:30.000Z</time>
      </trkpt>
      <trkpt lat="43.56984" lon="2.45065">
        <ele>643.59997558594</ele>
        <time>2023-06-01T09:36:33.000Z</time>
      </trkpt>
      <trkpt lat="43.56985" lon="2.45068">
        <ele>643.40002441406</ele>
        <time>2023-06-01T09:36:35.000Z</time>
      </trkpt>
      <trkpt lat="43.56986" lon="2.4507">
        <ele>643.20001220703</ele>
        <time>2023-06-01T09:36:37.000Z</time>
      </trkpt>
      <trkpt lat="43.56988" lon="2.45074">
        <ele>643</ele>
        <time>2023-06-01T09:36:40.000Z</time>
      </trkpt>
      <trkpt lat="43.56993" lon="2.45082">
        <ele>642.59997558594</ele>
        <time>2023-06-01T09:36:46.000Z</time>
      </trkpt>
      <trkpt lat="43.56994" lon="2.45083">
        <ele>642.40002441406</ele>
        <time>2023-06-01T09:36:47.000Z</time>
      </trkpt>
      <trkpt lat="43.56995" lon="2.45085">
        <ele>642.20001220703</ele>
        <time>2023-06-01T09:36:48.000Z</time>
      </trkpt>
      <trkpt lat="43.56996" lon="2.45089">
        <ele>642</ele>
        <time>2023-06-01T09:36:51.000Z</time>
      </trkpt>
      <trkpt lat="43.56997" lon="2.4509">
        <ele>641.79998779297</ele>
        <time>2023-06-01T09:36:52.000Z</time>
      </trkpt>
      <trkpt lat="43.56998" lon="2.45091">
        <ele>641.79998779297</ele>
        <time>2023-06-01T09:36:53.000Z</time>
      </trkpt>
      <trkpt lat="43.57" lon="2.45098">
        <ele>641.40002441406</ele>
        <time>2023-06-01T09:36:58.000Z</time>
      </trkpt>
      <trkpt lat="43.57" lon="2.45098">
        <ele>641.20001220703</ele>
        <time>2023-06-01T09:36:59.000Z</time>
      </trkpt>
      <trkpt lat="43.57001" lon="2.45099">
        <ele>641.20001220703</ele>
        <time>2023-06-01T09:37:00.000Z</time>
      </trkpt>
      <trkpt lat="43.57002" lon="2.45107">
        <ele>641.40002441406</ele>
        <time>2023-06-01T09:37:05.000Z</time>
      </trkpt>
      <trkpt lat="43.57001" lon="2.45113">
        <ele>640.79998779297</ele>
        <time>2023-06-01T09:37:09.000Z</time>
      </trkpt>
      <trkpt lat="43.57001" lon="2.45116">
        <ele>640.59997558594</ele>
        <time>2023-06-01T09:37:11.000Z</time>
      </trkpt>
      <trkpt lat="43.57002" lon="2.45124">
        <ele>640.20001220703</ele>
        <time>2023-06-01T09:37:17.000Z</time>
      </trkpt>
      <trkpt lat="43.57002" lon="2.45126">
        <ele>640</ele>
        <time>2023-06-01T09:37:18.000Z</time>
      </trkpt>
      <trkpt lat="43.57003" lon="2.45129">
        <ele>640</ele>
        <time>2023-06-01T09:37:20.000Z</time>
      </trkpt>
      <trkpt lat="43.57003" lon="2.45133">
        <ele>640</ele>
        <time>2023-06-01T09:37:23.000Z</time>
      </trkpt>
      <trkpt lat="43.57004" lon="2.45135">
        <ele>639.79998779297</ele>
        <time>2023-06-01T09:37:25.000Z</time>
      </trkpt>
      <trkpt lat="43.57008" lon="2.45137">
        <ele>639.40002441406</ele>
        <time>2023-06-01T09:37:33.000Z</time>
      </trkpt>
      <trkpt lat="43.5701" lon="2.45143">
        <ele>639.40002441406</ele>
        <time>2023-06-01T09:37:39.000Z</time>
      </trkpt>
      <trkpt lat="43.57011" lon="2.45149">
        <ele>639</ele>
        <time>2023-06-01T09:37:44.000Z</time>
      </trkpt>
      <trkpt lat="43.57014" lon="2.45153">
        <ele>638.79998779297</ele>
        <time>2023-06-01T09:37:50.000Z</time>
      </trkpt>
      <trkpt lat="43.57019" lon="2.45149">
        <ele>638.79998779297</ele>
        <time>2023-06-01T09:37:58.000Z</time>
      </trkpt>
      <trkpt lat="43.57018" lon="2.45144">
        <ele>638.79998779297</ele>
        <time>2023-06-01T09:38:05.000Z</time>
      </trkpt>
      <trkpt lat="43.57016" lon="2.45138">
        <ele>638</ele>
        <time>2023-06-01T09:38:10.000Z</time>
      </trkpt>
      <trkpt lat="43.57015" lon="2.45135">
        <ele>637.59997558594</ele>
        <time>2023-06-01T09:38:12.000Z</time>
      </trkpt>
      <trkpt lat="43.57013" lon="2.45129">
        <ele>637.40002441406</ele>
        <time>2023-06-01T09:38:20.000Z</time>
      </trkpt>
      <trkpt lat="43.57011" lon="2.45127">
        <ele>637.59997558594</ele>
        <time>2023-06-01T09:38:35.000Z</time>
      </trkpt>
      <trkpt lat="43.57011" lon="2.45121">
        <ele>637.40002441406</ele>
        <time>2023-06-01T09:38:43.000Z</time>
      </trkpt>
      <trkpt lat="43.57011" lon="2.45118">
        <ele>637</ele>
        <time>2023-06-01T09:38:48.000Z</time>
      </trkpt>
      <trkpt lat="43.57011" lon="2.45117">
        <ele>636.79998779297</ele>
        <time>2023-06-01T09:38:49.000Z</time>
      </trkpt>
      <trkpt lat="43.5701" lon="2.4511">
        <ele>637</ele>
        <time>2023-06-01T09:38:55.000Z</time>
      </trkpt>
      <trkpt lat="43.5701" lon="2.45101">
        <ele>636.59997558594</ele>
        <time>2023-06-01T09:39:01.000Z</time>
      </trkpt>
      <trkpt lat="43.5701" lon="2.45099">
        <ele>636.40002441406</ele>
        <time>2023-06-01T09:39:03.000Z</time>
      </trkpt>
      <trkpt lat="43.5701" lon="2.45092">
        <ele>636</ele>
        <time>2023-06-01T09:39:07.000Z</time>
      </trkpt>
      <trkpt lat="43.57009" lon="2.45088">
        <ele>636</ele>
        <time>2023-06-01T09:39:10.000Z</time>
      </trkpt>
      <trkpt lat="43.57009" lon="2.45086">
        <ele>635.79998779297</ele>
        <time>2023-06-01T09:39:11.000Z</time>
      </trkpt>
      <trkpt lat="43.5701" lon="2.45083">
        <ele>635.79998779297</ele>
        <time>2023-06-01T09:39:13.000Z</time>
      </trkpt>
      <trkpt lat="43.5701" lon="2.45073">
        <ele>635.20001220703</ele>
        <time>2023-06-01T09:39:20.000Z</time>
      </trkpt>
      <trkpt lat="43.57011" lon="2.45065">
        <ele>634.79998779297</ele>
        <time>2023-06-01T09:39:25.000Z</time>
      </trkpt>
      <trkpt lat="43.57011" lon="2.45058">
        <ele>634.59997558594</ele>
        <time>2023-06-01T09:39:29.000Z</time>
      </trkpt>
      <trkpt lat="43.57012" lon="2.45055">
        <ele>634.40002441406</ele>
        <time>2023-06-01T09:39:31.000Z</time>
      </trkpt>
      <trkpt lat="43.57012" lon="2.4505">
        <ele>634.20001220703</ele>
        <time>2023-06-01T09:39:34.000Z</time>
      </trkpt>
      <trkpt lat="43.57012" lon="2.45045">
        <ele>633.79998779297</ele>
        <time>2023-06-01T09:39:37.000Z</time>
      </trkpt>
      <trkpt lat="43.57012" lon="2.45041">
        <ele>633.40002441406</ele>
        <time>2023-06-01T09:39:39.000Z</time>
      </trkpt>
      <trkpt lat="43.57012" lon="2.45036">
        <ele>633.20001220703</ele>
        <time>2023-06-01T09:39:42.000Z</time>
      </trkpt>
      <trkpt lat="43.57014" lon="2.4503">
        <ele>632.79998779297</ele>
        <time>2023-06-01T09:39:46.000Z</time>
      </trkpt>
      <trkpt lat="43.57014" lon="2.45027">
        <ele>632.40002441406</ele>
        <time>2023-06-01T09:39:48.000Z</time>
      </trkpt>
      <trkpt lat="43.57013" lon="2.45024">
        <ele>632.20001220703</ele>
        <time>2023-06-01T09:39:50.000Z</time>
      </trkpt>
      <trkpt lat="43.57011" lon="2.45013">
        <ele>631.79998779297</ele>
        <time>2023-06-01T09:39:58.000Z</time>
      </trkpt>
      <trkpt lat="43.57007" lon="2.45003">
        <ele>630.79998779297</ele>
        <time>2023-06-01T09:40:05.000Z</time>
      </trkpt>
      <trkpt lat="43.57006" lon="2.45002">
        <ele>630.59997558594</ele>
        <time>2023-06-01T09:40:06.000Z</time>
      </trkpt>
      <trkpt lat="43.57003" lon="2.44996">
        <ele>630.59997558594</ele>
        <time>2023-06-01T09:40:10.000Z</time>
      </trkpt>
      <trkpt lat="43.57001" lon="2.44991">
        <ele>630.20001220703</ele>
        <time>2023-06-01T09:40:14.000Z</time>
      </trkpt>
      <trkpt lat="43.56998" lon="2.44983">
        <ele>629.59997558594</ele>
        <time>2023-06-01T09:40:21.000Z</time>
      </trkpt>
      <trkpt lat="43.56997" lon="2.44982">
        <ele>629.40002441406</ele>
        <time>2023-06-01T09:40:22.000Z</time>
      </trkpt>
      <trkpt lat="43.56996" lon="2.44979">
        <ele>629.20001220703</ele>
        <time>2023-06-01T09:40:24.000Z</time>
      </trkpt>
      <trkpt lat="43.56996" lon="2.44973">
        <ele>629.20001220703</ele>
        <time>2023-06-01T09:40:28.000Z</time>
      </trkpt>
      <trkpt lat="43.56998" lon="2.44966">
        <ele>628.79998779297</ele>
        <time>2023-06-01T09:40:33.000Z</time>
      </trkpt>
      <trkpt lat="43.56999" lon="2.44964">
        <ele>628.40002441406</ele>
        <time>2023-06-01T09:40:35.000Z</time>
      </trkpt>
      <trkpt lat="43.57001" lon="2.44963">
        <ele>628.20001220703</ele>
        <time>2023-06-01T09:40:37.000Z</time>
      </trkpt>
      <trkpt lat="43.57002" lon="2.44961">
        <ele>628</ele>
        <time>2023-06-01T09:40:41.000Z</time>
      </trkpt>
      <trkpt lat="43.57007" lon="2.44959">
        <ele>627.79998779297</ele>
        <time>2023-06-01T09:40:47.000Z</time>
      </trkpt>
      <trkpt lat="43.5701" lon="2.44958">
        <ele>627.59997558594</ele>
        <time>2023-06-01T09:40:50.000Z</time>
      </trkpt>
      <trkpt lat="43.57012" lon="2.44958">
        <ele>627.40002441406</ele>
        <time>2023-06-01T09:40:52.000Z</time>
      </trkpt>
      <trkpt lat="43.57014" lon="2.44957">
        <ele>627.20001220703</ele>
        <time>2023-06-01T09:40:53.000Z</time>
      </trkpt>
      <trkpt lat="43.57016" lon="2.44957">
        <ele>627</ele>
        <time>2023-06-01T09:40:55.000Z</time>
      </trkpt>
      <trkpt lat="43.57019" lon="2.44956">
        <ele>627</ele>
        <time>2023-06-01T09:40:58.000Z</time>
      </trkpt>
      <trkpt lat="43.57023" lon="2.44955">
        <ele>626.79998779297</ele>
        <time>2023-06-01T09:41:03.000Z</time>
      </trkpt>
      <trkpt lat="43.57024" lon="2.44954">
        <ele>626.79998779297</ele>
        <time>2023-06-01T09:41:04.000Z</time>
      </trkpt>
      <trkpt lat="43.57028" lon="2.44952">
        <ele>626.20001220703</ele>
        <time>2023-06-01T09:41:11.000Z</time>
      </trkpt>
      <trkpt lat="43.57031" lon="2.4495">
        <ele>626.40002441406</ele>
        <time>2023-06-01T09:41:19.000Z</time>
      </trkpt>
      <trkpt lat="43.57033" lon="2.4495">
        <ele>626.59997558594</ele>
        <time>2023-06-01T09:41:26.000Z</time>
      </trkpt>
      <trkpt lat="43.57031" lon="2.44953">
        <ele>627.40002441406</ele>
        <time>2023-06-01T09:41:32.000Z</time>
      </trkpt>
      <trkpt lat="43.57029" lon="2.44959">
        <ele>628</ele>
        <time>2023-06-01T09:41:39.000Z</time>
      </trkpt>
      <trkpt lat="43.57028" lon="2.4496">
        <ele>626.59997558594</ele>
        <time>2023-06-01T09:41:44.000Z</time>
      </trkpt>
      <trkpt lat="43.57027" lon="2.44961">
        <ele>626.40002441406</ele>
        <time>2023-06-01T09:41:46.000Z</time>
      </trkpt>
      <trkpt lat="43.57022" lon="2.44963">
        <ele>626.20001220703</ele>
        <time>2023-06-01T09:41:51.000Z</time>
      </trkpt>
      <trkpt lat="43.57017" lon="2.44965">
        <ele>626.59997558594</ele>
        <time>2023-06-01T09:41:55.000Z</time>
      </trkpt>
      <trkpt lat="43.57014" lon="2.44966">
        <ele>626.79998779297</ele>
        <time>2023-06-01T09:41:58.000Z</time>
      </trkpt>
      <trkpt lat="43.57006" lon="2.44968">
        <ele>627.40002441406</ele>
        <time>2023-06-01T09:42:04.000Z</time>
      </trkpt>
      <trkpt lat="43.57006" lon="2.44969">
        <ele>627.20001220703</ele>
        <time>2023-06-01T09:42:05.000Z</time>
      </trkpt>
      <trkpt lat="43.57004" lon="2.44971">
        <ele>627.40002441406</ele>
        <time>2023-06-01T09:42:07.000Z</time>
      </trkpt>
      <trkpt lat="43.57002" lon="2.44976">
        <ele>627.79998779297</ele>
        <time>2023-06-01T09:42:11.000Z</time>
      </trkpt>
      <trkpt lat="43.57" lon="2.44982">
        <ele>628.40002441406</ele>
        <time>2023-06-01T09:42:16.000Z</time>
      </trkpt>
      <trkpt lat="43.57" lon="2.44981">
        <ele>629</ele>
        <time>2023-06-01T09:42:21.000Z</time>
      </trkpt>
      <trkpt lat="43.56999" lon="2.4498">
        <ele>628.79998779297</ele>
        <time>2023-06-01T09:42:30.000Z</time>
      </trkpt>
      <trkpt lat="43.56999" lon="2.44979">
        <ele>628.59997558594</ele>
        <time>2023-06-01T09:42:42.000Z</time>
      </trkpt>
      <trkpt lat="43.56999" lon="2.44979">
        <ele>628.59997558594</ele>
        <time>2023-06-01T09:42:50.000Z</time>
      </trkpt>
      <trkpt lat="43.56997" lon="2.44979">
        <ele>629.40002441406</ele>
        <time>2023-06-01T09:43:00.000Z</time>
      </trkpt>
      <trkpt lat="43.56997" lon="2.44979">
        <ele>629.59997558594</ele>
        <time>2023-06-01T09:43:02.000Z</time>
      </trkpt>
      <trkpt lat="43.56996" lon="2.44978">
        <ele>629.40002441406</ele>
        <time>2023-06-01T09:43:18.000Z</time>
      </trkpt>
      <trkpt lat="43.56995" lon="2.44978">
        <ele>629</ele>
        <time>2023-06-01T09:43:26.000Z</time>
      </trkpt>
      <trkpt lat="43.56995" lon="2.44977">
        <ele>629.20001220703</ele>
        <time>2023-06-01T09:43:34.000Z</time>
      </trkpt>
      <trkpt lat="43.56997" lon="2.44975">
        <ele>628.79998779297</ele>
        <time>2023-06-01T09:43:39.000Z</time>
      </trkpt>
      <trkpt lat="43.56995" lon="2.44975">
        <ele>628.79998779297</ele>
        <time>2023-06-01T09:43:46.000Z</time>
      </trkpt>
      <trkpt lat="43.56998" lon="2.44979">
        <ele>628.79998779297</ele>
        <time>2023-06-01T09:43:52.000Z</time>
      </trkpt>
      <trkpt lat="43.57002" lon="2.44985">
        <ele>629.40002441406</ele>
        <time>2023-06-01T09:43:58.000Z</time>
      </trkpt>
      <trkpt lat="43.57003" lon="2.44986">
        <ele>629.40002441406</ele>
        <time>2023-06-01T09:43:59.000Z</time>
      </trkpt>
      <trkpt lat="43.57006" lon="2.4499">
        <ele>629.79998779297</ele>
        <time>2023-06-01T09:44:03.000Z</time>
      </trkpt>
      <trkpt lat="43.57007" lon="2.44992">
        <ele>629.79998779297</ele>
        <time>2023-06-01T09:44:05.000Z</time>
      </trkpt>
      <trkpt lat="43.5701" lon="2.44994">
        <ele>629.79998779297</ele>
        <time>2023-06-01T09:44:08.000Z</time>
      </trkpt>
      <trkpt lat="43.57011" lon="2.44999">
        <ele>630.20001220703</ele>
        <time>2023-06-01T09:44:12.000Z</time>
      </trkpt>
      <trkpt lat="43.57011" lon="2.45002">
        <ele>630.40002441406</ele>
        <time>2023-06-01T09:44:14.000Z</time>
      </trkpt>
      <trkpt lat="43.57012" lon="2.45006">
        <ele>630.59997558594</ele>
        <time>2023-06-01T09:44:17.000Z</time>
      </trkpt>
      <trkpt lat="43.57013" lon="2.45009">
        <ele>630.79998779297</ele>
        <time>2023-06-01T09:44:20.000Z</time>
      </trkpt>
      <trkpt lat="43.57012" lon="2.45008">
        <ele>631.20001220703</ele>
        <time>2023-06-01T09:44:25.000Z</time>
      </trkpt>
      <trkpt lat="43.57009" lon="2.44999">
        <ele>631</ele>
        <time>2023-06-01T09:44:32.000Z</time>
      </trkpt>
      <trkpt lat="43.57003" lon="2.4499">
        <ele>630.40002441406</ele>
        <time>2023-06-01T09:44:40.000Z</time>
      </trkpt>
      <trkpt lat="43.56999" lon="2.44985">
        <ele>629.59997558594</ele>
        <time>2023-06-01T09:44:46.000Z</time>
      </trkpt>
      <trkpt lat="43.56998" lon="2.44984">
        <ele>629.40002441406</ele>
        <time>2023-06-01T09:44:48.000Z</time>
      </trkpt>
      <trkpt lat="43.56996" lon="2.44979">
        <ele>629</ele>
        <time>2023-06-01T09:44:52.000Z</time>
      </trkpt>
      <trkpt lat="43.56995" lon="2.44979">
        <ele>629</ele>
        <time>2023-06-01T09:44:53.000Z</time>
      </trkpt>
      <trkpt lat="43.56995" lon="2.44978">
        <ele>628.79998779297</ele>
        <time>2023-06-01T09:44:58.000Z</time>
      </trkpt>
      <trkpt lat="43.56995" lon="2.44974">
        <ele>629.59997558594</ele>
        <time>2023-06-01T09:45:05.000Z</time>
      </trkpt>
      <trkpt lat="43.56994" lon="2.44971">
        <ele>630.20001220703</ele>
        <time>2023-06-01T09:45:13.000Z</time>
      </trkpt>
      <trkpt lat="43.56995" lon="2.44967">
        <ele>629.59997558594</ele>
        <time>2023-06-01T09:45:18.000Z</time>
      </trkpt>
      <trkpt lat="43.56997" lon="2.44962">
        <ele>629.20001220703</ele>
        <time>2023-06-01T09:45:24.000Z</time>
      </trkpt>
      <trkpt lat="43.56999" lon="2.44957">
        <ele>628.40002441406</ele>
        <time>2023-06-01T09:45:31.000Z</time>
      </trkpt>
      <trkpt lat="43.56999" lon="2.44956">
        <ele>627.59997558594</ele>
        <time>2023-06-01T09:45:38.000Z</time>
      </trkpt>
      <trkpt lat="43.56999" lon="2.44955">
        <ele>628.20001220703</ele>
        <time>2023-06-01T09:45:46.000Z</time>
      </trkpt>
      <trkpt lat="43.57" lon="2.44961">
        <ele>628</ele>
        <time>2023-06-01T09:45:54.000Z</time>
      </trkpt>
      <trkpt lat="43.56995" lon="2.44963">
        <ele>627.79998779297</ele>
        <time>2023-06-01T09:46:01.000Z</time>
      </trkpt>
      <trkpt lat="43.56993" lon="2.44966">
        <ele>628.40002441406</ele>
        <time>2023-06-01T09:46:06.000Z</time>
      </trkpt>
      <trkpt lat="43.56993" lon="2.44966">
        <ele>628.40002441406</ele>
        <time>2023-06-01T09:46:13.000Z</time>
      </trkpt>
      <trkpt lat="43.56992" lon="2.44965">
        <ele>628.20001220703</ele>
        <time>2023-06-01T09:46:22.000Z</time>
      </trkpt>
      <trkpt lat="43.56992" lon="2.44965">
        <ele>627.79998779297</ele>
        <time>2023-06-01T09:46:33.000Z</time>
      </trkpt>
      <trkpt lat="43.56993" lon="2.44964">
        <ele>627.79998779297</ele>
        <time>2023-06-01T09:46:39.000Z</time>
      </trkpt>
      <trkpt lat="43.56996" lon="2.44968">
        <ele>627.79998779297</ele>
        <time>2023-06-01T09:46:46.000Z</time>
      </trkpt>
      <trkpt lat="43.56998" lon="2.44974">
        <ele>628.20001220703</ele>
        <time>2023-06-01T09:46:52.000Z</time>
      </trkpt>
      <trkpt lat="43.56998" lon="2.44974">
        <ele>629.40002441406</ele>
        <time>2023-06-01T09:46:59.000Z</time>
      </trkpt>
      <trkpt lat="43.56999" lon="2.44974">
        <ele>629.20001220703</ele>
        <time>2023-06-01T09:47:07.000Z</time>
      </trkpt>
      <trkpt lat="43.56997" lon="2.44975">
        <ele>629</ele>
        <time>2023-06-01T09:47:16.000Z</time>
      </trkpt>
      <trkpt lat="43.56998" lon="2.44969">
        <ele>629.40002441406</ele>
        <time>2023-06-01T09:47:24.000Z</time>
      </trkpt>
      <trkpt lat="43.56996" lon="2.44967">
        <ele>628.59997558594</ele>
        <time>2023-06-01T09:47:30.000Z</time>
      </trkpt>
      <trkpt lat="43.56995" lon="2.44967">
        <ele>628.40002441406</ele>
        <time>2023-06-01T09:47:37.000Z</time>
      </trkpt>
      <trkpt lat="43.56995" lon="2.44967">
        <ele>628.40002441406</ele>
        <time>2023-06-01T09:47:38.000Z</time>
      </trkpt>
      <trkpt lat="43.56992" lon="2.44961">
        <ele>628.79998779297</ele>
        <time>2023-06-01T09:47:57.000Z</time>
      </trkpt>
      <trkpt lat="43.56991" lon="2.4496">
        <ele>628.59997558594</ele>
        <time>2023-06-01T09:48:08.000Z</time>
      </trkpt>
      <trkpt lat="43.56991" lon="2.44956">
        <ele>628.59997558594</ele>
        <time>2023-06-01T09:48:25.000Z</time>
      </trkpt>
      <trkpt lat="43.5699" lon="2.44956">
        <ele>628.79998779297</ele>
        <time>2023-06-01T09:48:36.000Z</time>
      </trkpt>
      <trkpt lat="43.56989" lon="2.44958">
        <ele>628.79998779297</ele>
        <time>2023-06-01T09:48:50.000Z</time>
      </trkpt>
      <trkpt lat="43.5699" lon="2.44957">
        <ele>628.20001220703</ele>
        <time>2023-06-01T09:48:59.000Z</time>
      </trkpt>
      <trkpt lat="43.56994" lon="2.44959">
        <ele>628.40002441406</ele>
        <time>2023-06-01T09:49:06.000Z</time>
      </trkpt>
      <trkpt lat="43.56997" lon="2.44966">
        <ele>629.20001220703</ele>
        <time>2023-06-01T09:49:12.000Z</time>
      </trkpt>
      <trkpt lat="43.56997" lon="2.44967">
        <ele>629.59997558594</ele>
        <time>2023-06-01T09:49:16.000Z</time>
      </trkpt>
      <trkpt lat="43.56997" lon="2.44967">
        <ele>629.79998779297</ele>
        <time>2023-06-01T09:49:19.000Z</time>
      </trkpt>
      <trkpt lat="43.57001" lon="2.44969">
        <ele>629.59997558594</ele>
        <time>2023-06-01T09:49:28.000Z</time>
      </trkpt>
      <trkpt lat="43.57001" lon="2.44965">
        <ele>629.40002441406</ele>
        <time>2023-06-01T09:49:35.000Z</time>
      </trkpt>
      <trkpt lat="43.56998" lon="2.4496">
        <ele>629</ele>
        <time>2023-06-01T09:49:41.000Z</time>
      </trkpt>
      <trkpt lat="43.56996" lon="2.44957">
        <ele>628.59997558594</ele>
        <time>2023-06-01T09:49:44.000Z</time>
      </trkpt>
      <trkpt lat="43.56996" lon="2.44957">
        <ele>628.40002441406</ele>
        <time>2023-06-01T09:49:45.000Z</time>
      </trkpt>
      <trkpt lat="43.56993" lon="2.44955">
        <ele>628.20001220703</ele>
        <time>2023-06-01T09:49:48.000Z</time>
      </trkpt>
      <trkpt lat="43.5699" lon="2.44955">
        <ele>628</ele>
        <time>2023-06-01T09:49:54.000Z</time>
      </trkpt>
      <trkpt lat="43.56989" lon="2.44955">
        <ele>627.79998779297</ele>
        <time>2023-06-01T09:50:00.000Z</time>
      </trkpt>
      <trkpt lat="43.56985" lon="2.44953">
        <ele>627.59997558594</ele>
        <time>2023-06-01T09:50:07.000Z</time>
      </trkpt>
      <trkpt lat="43.56982" lon="2.44952">
        <ele>627.40002441406</ele>
        <time>2023-06-01T09:50:09.000Z</time>
      </trkpt>
      <trkpt lat="43.5698" lon="2.44951">
        <ele>627.20001220703</ele>
        <time>2023-06-01T09:50:11.000Z</time>
      </trkpt>
      <trkpt lat="43.56973" lon="2.44947">
        <ele>627.20001220703</ele>
        <time>2023-06-01T09:50:18.000Z</time>
      </trkpt>
      <trkpt lat="43.5697" lon="2.44945">
        <ele>626.40002441406</ele>
        <time>2023-06-01T09:50:24.000Z</time>
      </trkpt>
      <trkpt lat="43.56967" lon="2.44941">
        <ele>626</ele>
        <time>2023-06-01T09:50:29.000Z</time>
      </trkpt>
      <trkpt lat="43.56963" lon="2.44937">
        <ele>625.79998779297</ele>
        <time>2023-06-01T09:50:34.000Z</time>
      </trkpt>
      <trkpt lat="43.56962" lon="2.44935">
        <ele>625.79998779297</ele>
        <time>2023-06-01T09:50:36.000Z</time>
      </trkpt>
      <trkpt lat="43.5696" lon="2.44933">
        <ele>625.79998779297</ele>
        <time>2023-06-01T09:50:39.000Z</time>
      </trkpt>
      <trkpt lat="43.56956" lon="2.44927">
        <ele>626.20001220703</ele>
        <time>2023-06-01T09:50:46.000Z</time>
      </trkpt>
      <trkpt lat="43.56951" lon="2.44922">
        <ele>625.59997558594</ele>
        <time>2023-06-01T09:50:52.000Z</time>
      </trkpt>
      <trkpt lat="43.56951" lon="2.44921">
        <ele>625.40002441406</ele>
        <time>2023-06-01T09:50:54.000Z</time>
      </trkpt>
      <trkpt lat="43.56948" lon="2.44916">
        <ele>624.79998779297</ele>
        <time>2023-06-01T09:50:58.000Z</time>
      </trkpt>
      <trkpt lat="43.56942" lon="2.4491">
        <ele>624.40002441406</ele>
        <time>2023-06-01T09:51:04.000Z</time>
      </trkpt>
      <trkpt lat="43.56939" lon="2.44905">
        <ele>623.79998779297</ele>
        <time>2023-06-01T09:51:07.000Z</time>
      </trkpt>
      <trkpt lat="43.56936" lon="2.44904">
        <ele>623.59997558594</ele>
        <time>2023-06-01T09:51:09.000Z</time>
      </trkpt>
      <trkpt lat="43.56936" lon="2.44903">
        <ele>623.40002441406</ele>
        <time>2023-06-01T09:51:10.000Z</time>
      </trkpt>
      <trkpt lat="43.56933" lon="2.449">
        <ele>623.40002441406</ele>
        <time>2023-06-01T09:51:12.000Z</time>
      </trkpt>
      <trkpt lat="43.56931" lon="2.44898">
        <ele>623.20001220703</ele>
        <time>2023-06-01T09:51:14.000Z</time>
      </trkpt>
      <trkpt lat="43.5693" lon="2.44897">
        <ele>623</ele>
        <time>2023-06-01T09:51:16.000Z</time>
      </trkpt>
      <trkpt lat="43.56928" lon="2.44897">
        <ele>623</ele>
        <time>2023-06-01T09:51:17.000Z</time>
      </trkpt>
      <trkpt lat="43.56927" lon="2.44896">
        <ele>623</ele>
        <time>2023-06-01T09:51:18.000Z</time>
      </trkpt>
      <trkpt lat="43.56922" lon="2.44892">
        <ele>622.59997558594</ele>
        <time>2023-06-01T09:51:23.000Z</time>
      </trkpt>
      <trkpt lat="43.56921" lon="2.44891">
        <ele>622.40002441406</ele>
        <time>2023-06-01T09:51:24.000Z</time>
      </trkpt>
      <trkpt lat="43.56916" lon="2.44888">
        <ele>622.20001220703</ele>
        <time>2023-06-01T09:51:27.000Z</time>
      </trkpt>
      <trkpt lat="43.56913" lon="2.44885">
        <ele>622</ele>
        <time>2023-06-01T09:51:30.000Z</time>
      </trkpt>
      <trkpt lat="43.56912" lon="2.44884">
        <ele>622</ele>
        <time>2023-06-01T09:51:31.000Z</time>
      </trkpt>
      <trkpt lat="43.56907" lon="2.44879">
        <ele>621.59997558594</ele>
        <time>2023-06-01T09:51:35.000Z</time>
      </trkpt>
      <trkpt lat="43.56905" lon="2.44878">
        <ele>621.40002441406</ele>
        <time>2023-06-01T09:51:37.000Z</time>
      </trkpt>
      <trkpt lat="43.56902" lon="2.44875">
        <ele>621.20001220703</ele>
        <time>2023-06-01T09:51:40.000Z</time>
      </trkpt>
      <trkpt lat="43.56901" lon="2.44874">
        <ele>621.20001220703</ele>
        <time>2023-06-01T09:51:41.000Z</time>
      </trkpt>
      <trkpt lat="43.56898" lon="2.44871">
        <ele>621</ele>
        <time>2023-06-01T09:51:44.000Z</time>
      </trkpt>
      <trkpt lat="43.56893" lon="2.44868">
        <ele>620.40002441406</ele>
        <time>2023-06-01T09:51:49.000Z</time>
      </trkpt>
      <trkpt lat="43.56892" lon="2.44868">
        <ele>620.20001220703</ele>
        <time>2023-06-01T09:51:51.000Z</time>
      </trkpt>
      <trkpt lat="43.5689" lon="2.44866">
        <ele>620</ele>
        <time>2023-06-01T09:51:53.000Z</time>
      </trkpt>
      <trkpt lat="43.56888" lon="2.44861">
        <ele>619.79998779297</ele>
        <time>2023-06-01T09:51:58.000Z</time>
      </trkpt>
      <trkpt lat="43.56887" lon="2.4486">
        <ele>619.59997558594</ele>
        <time>2023-06-01T09:51:59.000Z</time>
      </trkpt>
      <trkpt lat="43.56883" lon="2.44854">
        <ele>619.20001220703</ele>
        <time>2023-06-01T09:52:03.000Z</time>
      </trkpt>
      <trkpt lat="43.56883" lon="2.44853">
        <ele>619</ele>
        <time>2023-06-01T09:52:04.000Z</time>
      </trkpt>
      <trkpt lat="43.56883" lon="2.44852">
        <ele>619</ele>
        <time>2023-06-01T09:52:05.000Z</time>
      </trkpt>
      <trkpt lat="43.56882" lon="2.44845">
        <ele>618.79998779297</ele>
        <time>2023-06-01T09:52:10.000Z</time>
      </trkpt>
      <trkpt lat="43.56883" lon="2.44841">
        <ele>618.40002441406</ele>
        <time>2023-06-01T09:52:13.000Z</time>
      </trkpt>
      <trkpt lat="43.56884" lon="2.44838">
        <ele>618.20001220703</ele>
        <time>2023-06-01T09:52:15.000Z</time>
      </trkpt>
      <trkpt lat="43.56884" lon="2.44834">
        <ele>618</ele>
        <time>2023-06-01T09:52:18.000Z</time>
      </trkpt>
      <trkpt lat="43.56885" lon="2.44826">
        <ele>617.79998779297</ele>
        <time>2023-06-01T09:52:22.000Z</time>
      </trkpt>
      <trkpt lat="43.56884" lon="2.44815">
        <ele>617.40002441406</ele>
        <time>2023-06-01T09:52:27.000Z</time>
      </trkpt>
      <trkpt lat="43.56881" lon="2.44809">
        <ele>617</ele>
        <time>2023-06-01T09:52:30.000Z</time>
      </trkpt>
      <trkpt lat="43.56881" lon="2.44807">
        <ele>616.79998779297</ele>
        <time>2023-06-01T09:52:31.000Z</time>
      </trkpt>
      <trkpt lat="43.5688" lon="2.44802">
        <ele>616.79998779297</ele>
        <time>2023-06-01T09:52:33.000Z</time>
      </trkpt>
      <trkpt lat="43.5688" lon="2.44796">
        <ele>616.40002441406</ele>
        <time>2023-06-01T09:52:36.000Z</time>
      </trkpt>
      <trkpt lat="43.5688" lon="2.4479">
        <ele>616</ele>
        <time>2023-06-01T09:52:41.000Z</time>
      </trkpt>
      <trkpt lat="43.56879" lon="2.44787">
        <ele>616</ele>
        <time>2023-06-01T09:52:42.000Z</time>
      </trkpt>
      <trkpt lat="43.56878" lon="2.44782">
        <ele>615.59997558594</ele>
        <time>2023-06-01T09:52:45.000Z</time>
      </trkpt>
      <trkpt lat="43.56878" lon="2.44778">
        <ele>615.59997558594</ele>
        <time>2023-06-01T09:52:48.000Z</time>
      </trkpt>
      <trkpt lat="43.56877" lon="2.44777">
        <ele>615.59997558594</ele>
        <time>2023-06-01T09:52:49.000Z</time>
      </trkpt>
      <trkpt lat="43.56878" lon="2.44776">
        <ele>615.59997558594</ele>
        <time>2023-06-01T09:52:50.000Z</time>
      </trkpt>
      <trkpt lat="43.56879" lon="2.44771">
        <ele>615.40002441406</ele>
        <time>2023-06-01T09:52:54.000Z</time>
      </trkpt>
      <trkpt lat="43.56879" lon="2.44769">
        <ele>615.40002441406</ele>
        <time>2023-06-01T09:52:55.000Z</time>
      </trkpt>
      <trkpt lat="43.56879" lon="2.44763">
        <ele>615</ele>
        <time>2023-06-01T09:52:59.000Z</time>
      </trkpt>
      <trkpt lat="43.56879" lon="2.44761">
        <ele>615</ele>
        <time>2023-06-01T09:53:00.000Z</time>
      </trkpt>
      <trkpt lat="43.56877" lon="2.44759">
        <ele>614.79998779297</ele>
        <time>2023-06-01T09:53:02.000Z</time>
      </trkpt>
      <trkpt lat="43.56877" lon="2.44757">
        <ele>614.59997558594</ele>
        <time>2023-06-01T09:53:04.000Z</time>
      </trkpt>
      <trkpt lat="43.56878" lon="2.44746">
        <ele>614.59997558594</ele>
        <time>2023-06-01T09:53:10.000Z</time>
      </trkpt>
      <trkpt lat="43.56878" lon="2.44737">
        <ele>614.20001220703</ele>
        <time>2023-06-01T09:53:15.000Z</time>
      </trkpt>
      <trkpt lat="43.56879" lon="2.44729">
        <ele>614</ele>
        <time>2023-06-01T09:53:21.000Z</time>
      </trkpt>
      <trkpt lat="43.56879" lon="2.44719">
        <ele>613.79998779297</ele>
        <time>2023-06-01T09:53:27.000Z</time>
      </trkpt>
      <trkpt lat="43.56878" lon="2.44712">
        <ele>613.59997558594</ele>
        <time>2023-06-01T09:53:32.000Z</time>
      </trkpt>
      <trkpt lat="43.5688" lon="2.44706">
        <ele>613.79998779297</ele>
        <time>2023-06-01T09:53:36.000Z</time>
      </trkpt>
      <trkpt lat="43.56882" lon="2.44698">
        <ele>614.40002441406</ele>
        <time>2023-06-01T09:53:41.000Z</time>
      </trkpt>
      <trkpt lat="43.56882" lon="2.44697">
        <ele>614.40002441406</ele>
        <time>2023-06-01T09:53:42.000Z</time>
      </trkpt>
      <trkpt lat="43.56883" lon="2.44694">
        <ele>614.40002441406</ele>
        <time>2023-06-01T09:53:44.000Z</time>
      </trkpt>
      <trkpt lat="43.56885" lon="2.44685">
        <ele>614.59997558594</ele>
        <time>2023-06-01T09:53:50.000Z</time>
      </trkpt>
      <trkpt lat="43.56886" lon="2.44676">
        <ele>614.59997558594</ele>
        <time>2023-06-01T09:53:56.000Z</time>
      </trkpt>
      <trkpt lat="43.56886" lon="2.44668">
        <ele>615</ele>
        <time>2023-06-01T09:54:02.000Z</time>
      </trkpt>
      <trkpt lat="43.56886" lon="2.44661">
        <ele>615.40002441406</ele>
        <time>2023-06-01T09:54:07.000Z</time>
      </trkpt>
      <trkpt lat="43.56887" lon="2.44655">
        <ele>615.59997558594</ele>
        <time>2023-06-01T09:54:11.000Z</time>
      </trkpt>
      <trkpt lat="43.56888" lon="2.44651">
        <ele>616</ele>
        <time>2023-06-01T09:54:14.000Z</time>
      </trkpt>
      <trkpt lat="43.56888" lon="2.44649">
        <ele>616.20001220703</ele>
        <time>2023-06-01T09:54:16.000Z</time>
      </trkpt>
      <trkpt lat="43.56887" lon="2.44647">
        <ele>616.40002441406</ele>
        <time>2023-06-01T09:54:17.000Z</time>
      </trkpt>
      <trkpt lat="43.56889" lon="2.44639">
        <ele>616.40002441406</ele>
        <time>2023-06-01T09:54:23.000Z</time>
      </trkpt>
      <trkpt lat="43.56889" lon="2.44637">
        <ele>616.59997558594</ele>
        <time>2023-06-01T09:54:24.000Z</time>
      </trkpt>
      <trkpt lat="43.56888" lon="2.44635">
        <ele>616.59997558594</ele>
        <time>2023-06-01T09:54:26.000Z</time>
      </trkpt>
      <trkpt lat="43.56888" lon="2.44631">
        <ele>616.59997558594</ele>
        <time>2023-06-01T09:54:29.000Z</time>
      </trkpt>
      <trkpt lat="43.56887" lon="2.44626">
        <ele>616.20001220703</ele>
        <time>2023-06-01T09:54:33.000Z</time>
      </trkpt>
      <trkpt lat="43.56888" lon="2.44625">
        <ele>616.40002441406</ele>
        <time>2023-06-01T09:54:36.000Z</time>
      </trkpt>
      <trkpt lat="43.56887" lon="2.44621">
        <ele>616.59997558594</ele>
        <time>2023-06-01T09:54:42.000Z</time>
      </trkpt>
      <trkpt lat="43.56884" lon="2.44616">
        <ele>617</ele>
        <time>2023-06-01T09:54:47.000Z</time>
      </trkpt>
      <trkpt lat="43.56883" lon="2.44615">
        <ele>617</ele>
        <time>2023-06-01T09:54:48.000Z</time>
      </trkpt>
      <trkpt lat="43.5688" lon="2.44609">
        <ele>617.59997558594</ele>
        <time>2023-06-01T09:54:53.000Z</time>
      </trkpt>
      <trkpt lat="43.56879" lon="2.44607">
        <ele>617.59997558594</ele>
        <time>2023-06-01T09:54:55.000Z</time>
      </trkpt>
      <trkpt lat="43.56876" lon="2.44603">
        <ele>618</ele>
        <time>2023-06-01T09:54:59.000Z</time>
      </trkpt>
      <trkpt lat="43.56875" lon="2.44601">
        <ele>618.20001220703</ele>
        <time>2023-06-01T09:55:01.000Z</time>
      </trkpt>
      <trkpt lat="43.56873" lon="2.44596">
        <ele>618</ele>
        <time>2023-06-01T09:55:05.000Z</time>
      </trkpt>
      <trkpt lat="43.56873" lon="2.44595">
        <ele>618.20001220703</ele>
        <time>2023-06-01T09:55:06.000Z</time>
      </trkpt>
      <trkpt lat="43.56873" lon="2.44594">
        <ele>618.40002441406</ele>
        <time>2023-06-01T09:55:07.000Z</time>
      </trkpt>
      <trkpt lat="43.56872" lon="2.44589">
        <ele>619</ele>
        <time>2023-06-01T09:55:11.000Z</time>
      </trkpt>
      <trkpt lat="43.56872" lon="2.44588">
        <ele>619</ele>
        <time>2023-06-01T09:55:12.000Z</time>
      </trkpt>
      <trkpt lat="43.56871" lon="2.44583">
        <ele>619.40002441406</ele>
        <time>2023-06-01T09:55:18.000Z</time>
      </trkpt>
      <trkpt lat="43.56869" lon="2.44576">
        <ele>619</ele>
        <time>2023-06-01T09:55:24.000Z</time>
      </trkpt>
      <trkpt lat="43.56866" lon="2.44569">
        <ele>619.59997558594</ele>
        <time>2023-06-01T09:55:31.000Z</time>
      </trkpt>
      <trkpt lat="43.56863" lon="2.44563">
        <ele>620.20001220703</ele>
        <time>2023-06-01T09:55:37.000Z</time>
      </trkpt>
      <trkpt lat="43.56861" lon="2.44558">
        <ele>620.59997558594</ele>
        <time>2023-06-01T09:55:41.000Z</time>
      </trkpt>
      <trkpt lat="43.5686" lon="2.44555">
        <ele>620.79998779297</ele>
        <time>2023-06-01T09:55:43.000Z</time>
      </trkpt>
      <trkpt lat="43.56858" lon="2.44548">
        <ele>621</ele>
        <time>2023-06-01T09:55:48.000Z</time>
      </trkpt>
      <trkpt lat="43.56856" lon="2.44545">
        <ele>621.20001220703</ele>
        <time>2023-06-01T09:55:51.000Z</time>
      </trkpt>
      <trkpt lat="43.56854" lon="2.44543">
        <ele>621.20001220703</ele>
        <time>2023-06-01T09:55:53.000Z</time>
      </trkpt>
      <trkpt lat="43.5685" lon="2.44539">
        <ele>621</ele>
        <time>2023-06-01T09:55:57.000Z</time>
      </trkpt>
      <trkpt lat="43.56843" lon="2.44533">
        <ele>621.59997558594</ele>
        <time>2023-06-01T09:56:04.000Z</time>
      </trkpt>
      <trkpt lat="43.56838" lon="2.4453">
        <ele>621.79998779297</ele>
        <time>2023-06-01T09:56:09.000Z</time>
      </trkpt>
      <trkpt lat="43.56836" lon="2.44529">
        <ele>622</ele>
        <time>2023-06-01T09:56:11.000Z</time>
      </trkpt>
      <trkpt lat="43.56833" lon="2.44527">
        <ele>622.20001220703</ele>
        <time>2023-06-01T09:56:14.000Z</time>
      </trkpt>
      <trkpt lat="43.56831" lon="2.44524">
        <ele>622.40002441406</ele>
        <time>2023-06-01T09:56:17.000Z</time>
      </trkpt>
      <trkpt lat="43.56829" lon="2.44519">
        <ele>622.40002441406</ele>
        <time>2023-06-01T09:56:22.000Z</time>
      </trkpt>
      <trkpt lat="43.56823" lon="2.44514">
        <ele>622.20001220703</ele>
        <time>2023-06-01T09:56:28.000Z</time>
      </trkpt>
      <trkpt lat="43.56821" lon="2.44511">
        <ele>622</ele>
        <time>2023-06-01T09:56:33.000Z</time>
      </trkpt>
      <trkpt lat="43.5682" lon="2.4451">
        <ele>622</ele>
        <time>2023-06-01T09:56:34.000Z</time>
      </trkpt>
      <trkpt lat="43.56816" lon="2.44507">
        <ele>622</ele>
        <time>2023-06-01T09:56:38.000Z</time>
      </trkpt>
      <trkpt lat="43.56815" lon="2.44505">
        <ele>622</ele>
        <time>2023-06-01T09:56:43.000Z</time>
      </trkpt>
      <trkpt lat="43.56812" lon="2.44501">
        <ele>622.20001220703</ele>
        <time>2023-06-01T09:56:49.000Z</time>
      </trkpt>
      <trkpt lat="43.56811" lon="2.44497">
        <ele>622.40002441406</ele>
        <time>2023-06-01T09:56:54.000Z</time>
      </trkpt>
      <trkpt lat="43.56809" lon="2.44494">
        <ele>622</ele>
        <time>2023-06-01T09:56:59.000Z</time>
      </trkpt>
      <trkpt lat="43.56806" lon="2.44488">
        <ele>621.79998779297</ele>
        <time>2023-06-01T09:57:04.000Z</time>
      </trkpt>
      <trkpt lat="43.56804" lon="2.44485">
        <ele>621.79998779297</ele>
        <time>2023-06-01T09:57:06.000Z</time>
      </trkpt>
      <trkpt lat="43.56804" lon="2.44481">
        <ele>621.59997558594</ele>
        <time>2023-06-01T09:57:09.000Z</time>
      </trkpt>
      <trkpt lat="43.56801" lon="2.44473">
        <ele>621.40002441406</ele>
        <time>2023-06-01T09:57:15.000Z</time>
      </trkpt>
      <trkpt lat="43.568" lon="2.4447">
        <ele>621.40002441406</ele>
        <time>2023-06-01T09:57:17.000Z</time>
      </trkpt>
      <trkpt lat="43.56799" lon="2.44463">
        <ele>621.20001220703</ele>
        <time>2023-06-01T09:57:21.000Z</time>
      </trkpt>
      <trkpt lat="43.56798" lon="2.44459">
        <ele>621</ele>
        <time>2023-06-01T09:57:23.000Z</time>
      </trkpt>
      <trkpt lat="43.56798" lon="2.44453">
        <ele>620.79998779297</ele>
        <time>2023-06-01T09:57:26.000Z</time>
      </trkpt>
      <trkpt lat="43.56797" lon="2.44448">
        <ele>620.79998779297</ele>
        <time>2023-06-01T09:57:29.000Z</time>
      </trkpt>
      <trkpt lat="43.56799" lon="2.4444">
        <ele>621</ele>
        <time>2023-06-01T09:57:35.000Z</time>
      </trkpt>
      <trkpt lat="43.568" lon="2.44437">
        <ele>621</ele>
        <time>2023-06-01T09:57:38.000Z</time>
      </trkpt>
      <trkpt lat="43.56802" lon="2.44433">
        <ele>621.20001220703</ele>
        <time>2023-06-01T09:57:40.000Z</time>
      </trkpt>
      <trkpt lat="43.56803" lon="2.44432">
        <ele>621.20001220703</ele>
        <time>2023-06-01T09:57:41.000Z</time>
      </trkpt>
      <trkpt lat="43.56805" lon="2.44426">
        <ele>621.40002441406</ele>
        <time>2023-06-01T09:57:45.000Z</time>
      </trkpt>
      <trkpt lat="43.56806" lon="2.44421">
        <ele>621.79998779297</ele>
        <time>2023-06-01T09:57:51.000Z</time>
      </trkpt>
      <trkpt lat="43.56807" lon="2.44419">
        <ele>621.59997558594</ele>
        <time>2023-06-01T09:57:52.000Z</time>
      </trkpt>
      <trkpt lat="43.56807" lon="2.44413">
        <ele>621.79998779297</ele>
        <time>2023-06-01T09:57:56.000Z</time>
      </trkpt>
      <trkpt lat="43.56807" lon="2.44411">
        <ele>621.79998779297</ele>
        <time>2023-06-01T09:57:57.000Z</time>
      </trkpt>
      <trkpt lat="43.56807" lon="2.44405">
        <ele>622</ele>
        <time>2023-06-01T09:58:01.000Z</time>
      </trkpt>
      <trkpt lat="43.56809" lon="2.44402">
        <ele>622</ele>
        <time>2023-06-01T09:58:03.000Z</time>
      </trkpt>
      <trkpt lat="43.56809" lon="2.44402">
        <ele>622</ele>
        <time>2023-06-01T09:58:06.000Z</time>
      </trkpt>
      <trkpt lat="43.56809" lon="2.44401">
        <ele>622.20001220703</ele>
        <time>2023-06-01T09:58:08.000Z</time>
      </trkpt>
      <trkpt lat="43.56809" lon="2.44393">
        <ele>622</ele>
        <time>2023-06-01T09:58:14.000Z</time>
      </trkpt>
      <trkpt lat="43.5681" lon="2.44385">
        <ele>622</ele>
        <time>2023-06-01T09:58:20.000Z</time>
      </trkpt>
      <trkpt lat="43.56811" lon="2.44381">
        <ele>622</ele>
        <time>2023-06-01T09:58:22.000Z</time>
      </trkpt>
      <trkpt lat="43.5681" lon="2.44375">
        <ele>622</ele>
        <time>2023-06-01T09:58:26.000Z</time>
      </trkpt>
      <trkpt lat="43.5681" lon="2.44374">
        <ele>622</ele>
        <time>2023-06-01T09:58:27.000Z</time>
      </trkpt>
      <trkpt lat="43.5681" lon="2.4437">
        <ele>622.20001220703</ele>
        <time>2023-06-01T09:58:30.000Z</time>
      </trkpt>
      <trkpt lat="43.5681" lon="2.44367">
        <ele>622.40002441406</ele>
        <time>2023-06-01T09:58:33.000Z</time>
      </trkpt>
      <trkpt lat="43.56811" lon="2.4436">
        <ele>622.59997558594</ele>
        <time>2023-06-01T09:58:38.000Z</time>
      </trkpt>
      <trkpt lat="43.56811" lon="2.44358">
        <ele>622.59997558594</ele>
        <time>2023-06-01T09:58:39.000Z</time>
      </trkpt>
      <trkpt lat="43.56811" lon="2.44357">
        <ele>622.79998779297</ele>
        <time>2023-06-01T09:58:40.000Z</time>
      </trkpt>
      <trkpt lat="43.5681" lon="2.44353">
        <ele>623</ele>
        <time>2023-06-01T09:58:43.000Z</time>
      </trkpt>
      <trkpt lat="43.5681" lon="2.44349">
        <ele>623.20001220703</ele>
        <time>2023-06-01T09:58:46.000Z</time>
      </trkpt>
      <trkpt lat="43.5681" lon="2.44347">
        <ele>623.20001220703</ele>
        <time>2023-06-01T09:58:48.000Z</time>
      </trkpt>
      <trkpt lat="43.56811" lon="2.44339">
        <ele>623.79998779297</ele>
        <time>2023-06-01T09:58:55.000Z</time>
      </trkpt>
      <trkpt lat="43.56811" lon="2.44338">
        <ele>623.79998779297</ele>
        <time>2023-06-01T09:58:56.000Z</time>
      </trkpt>
      <trkpt lat="43.56811" lon="2.44337">
        <ele>624.20001220703</ele>
        <time>2023-06-01T09:58:59.000Z</time>
      </trkpt>
      <trkpt lat="43.56812" lon="2.44337">
        <ele>624.59997558594</ele>
        <time>2023-06-01T09:59:02.000Z</time>
      </trkpt>
      <trkpt lat="43.56812" lon="2.44331">
        <ele>624.79998779297</ele>
        <time>2023-06-01T09:59:07.000Z</time>
      </trkpt>
      <trkpt lat="43.56812" lon="2.44323">
        <ele>625.20001220703</ele>
        <time>2023-06-01T09:59:14.000Z</time>
      </trkpt>
      <trkpt lat="43.56812" lon="2.44321">
        <ele>625.40002441406</ele>
        <time>2023-06-01T09:59:15.000Z</time>
      </trkpt>
      <trkpt lat="43.56811" lon="2.44318">
        <ele>625.59997558594</ele>
        <time>2023-06-01T09:59:17.000Z</time>
      </trkpt>
      <trkpt lat="43.5681" lon="2.44313">
        <ele>625.59997558594</ele>
        <time>2023-06-01T09:59:21.000Z</time>
      </trkpt>
      <trkpt lat="43.56807" lon="2.44303">
        <ele>626.20001220703</ele>
        <time>2023-06-01T09:59:29.000Z</time>
      </trkpt>
      <trkpt lat="43.56807" lon="2.44301">
        <ele>626.40002441406</ele>
        <time>2023-06-01T09:59:30.000Z</time>
      </trkpt>
      <trkpt lat="43.56808" lon="2.44297">
        <ele>626.40002441406</ele>
        <time>2023-06-01T09:59:34.000Z</time>
      </trkpt>
      <trkpt lat="43.56808" lon="2.44297">
        <ele>625.79998779297</ele>
        <time>2023-06-01T09:59:41.000Z</time>
      </trkpt>
      <trkpt lat="43.56808" lon="2.44296">
        <ele>625.79998779297</ele>
        <time>2023-06-01T09:59:49.000Z</time>
      </trkpt>
      <trkpt lat="43.56809" lon="2.44291">
        <ele>626</ele>
        <time>2023-06-01T10:00:01.000Z</time>
      </trkpt>
      <trkpt lat="43.56815" lon="2.44285">
        <ele>626.20001220703</ele>
        <time>2023-06-01T10:00:09.000Z</time>
      </trkpt>
      <trkpt lat="43.56821" lon="2.44279">
        <ele>626.59997558594</ele>
        <time>2023-06-01T10:00:17.000Z</time>
      </trkpt>
      <trkpt lat="43.56829" lon="2.44271">
        <ele>626</ele>
        <time>2023-06-01T10:00:27.000Z</time>
      </trkpt>
      <trkpt lat="43.56833" lon="2.44267">
        <ele>625.79998779297</ele>
        <time>2023-06-01T10:00:32.000Z</time>
      </trkpt>
      <trkpt lat="43.56834" lon="2.44266">
        <ele>625.79998779297</ele>
        <time>2023-06-01T10:00:33.000Z</time>
      </trkpt>
      <trkpt lat="43.56838" lon="2.4426">
        <ele>625.59997558594</ele>
        <time>2023-06-01T10:00:39.000Z</time>
      </trkpt>
      <trkpt lat="43.56842" lon="2.44257">
        <ele>625.40002441406</ele>
        <time>2023-06-01T10:00:43.000Z</time>
      </trkpt>
      <trkpt lat="43.56845" lon="2.44254">
        <ele>625.20001220703</ele>
        <time>2023-06-01T10:00:46.000Z</time>
      </trkpt>
      <trkpt lat="43.56852" lon="2.44247">
        <ele>625.40002441406</ele>
        <time>2023-06-01T10:00:55.000Z</time>
      </trkpt>
      <trkpt lat="43.56857" lon="2.4424">
        <ele>625.40002441406</ele>
        <time>2023-06-01T10:01:02.000Z</time>
      </trkpt>
      <trkpt lat="43.56862" lon="2.44235">
        <ele>625.20001220703</ele>
        <time>2023-06-01T10:01:08.000Z</time>
      </trkpt>
      <trkpt lat="43.56863" lon="2.44232">
        <ele>625</ele>
        <time>2023-06-01T10:01:10.000Z</time>
      </trkpt>
      <trkpt lat="43.5687" lon="2.44221">
        <ele>625.20001220703</ele>
        <time>2023-06-01T10:01:20.000Z</time>
      </trkpt>
      <trkpt lat="43.56871" lon="2.44219">
        <ele>625.79998779297</ele>
        <time>2023-06-01T10:01:25.000Z</time>
      </trkpt>
      <trkpt lat="43.56872" lon="2.44218">
        <ele>626.40002441406</ele>
        <time>2023-06-01T10:01:35.000Z</time>
      </trkpt>
      <trkpt lat="43.56872" lon="2.44218">
        <ele>626.59997558594</ele>
        <time>2023-06-01T10:01:36.000Z</time>
      </trkpt>
      <trkpt lat="43.56875" lon="2.4421">
        <ele>626.59997558594</ele>
        <time>2023-06-01T10:01:42.000Z</time>
      </trkpt>
      <trkpt lat="43.56879" lon="2.44198">
        <ele>626.40002441406</ele>
        <time>2023-06-01T10:01:51.000Z</time>
      </trkpt>
      <trkpt lat="43.5688" lon="2.4419">
        <ele>626.40002441406</ele>
        <time>2023-06-01T10:01:56.000Z</time>
      </trkpt>
      <trkpt lat="43.56881" lon="2.44187">
        <ele>626.40002441406</ele>
        <time>2023-06-01T10:01:58.000Z</time>
      </trkpt>
      <trkpt lat="43.56882" lon="2.44177">
        <ele>626.79998779297</ele>
        <time>2023-06-01T10:02:05.000Z</time>
      </trkpt>
      <trkpt lat="43.56883" lon="2.44172">
        <ele>626.79998779297</ele>
        <time>2023-06-01T10:02:09.000Z</time>
      </trkpt>
      <trkpt lat="43.56883" lon="2.44167">
        <ele>627.20001220703</ele>
        <time>2023-06-01T10:02:12.000Z</time>
      </trkpt>
      <trkpt lat="43.56883" lon="2.44164">
        <ele>627.59997558594</ele>
        <time>2023-06-01T10:02:15.000Z</time>
      </trkpt>
      <trkpt lat="43.56884" lon="2.4416">
        <ele>627.40002441406</ele>
        <time>2023-06-01T10:02:18.000Z</time>
      </trkpt>
      <trkpt lat="43.56884" lon="2.44159">
        <ele>627.40002441406</ele>
        <time>2023-06-01T10:02:19.000Z</time>
      </trkpt>
      <trkpt lat="43.56884" lon="2.44157">
        <ele>627.20001220703</ele>
        <time>2023-06-01T10:02:20.000Z</time>
      </trkpt>
      <trkpt lat="43.56884" lon="2.44149">
        <ele>627.20001220703</ele>
        <time>2023-06-01T10:02:26.000Z</time>
      </trkpt>
      <trkpt lat="43.56884" lon="2.44137">
        <ele>627.79998779297</ele>
        <time>2023-06-01T10:02:34.000Z</time>
      </trkpt>
      <trkpt lat="43.56883" lon="2.4413">
        <ele>628.59997558594</ele>
        <time>2023-06-01T10:02:40.000Z</time>
      </trkpt>
      <trkpt lat="43.56883" lon="2.44128">
        <ele>629.20001220703</ele>
        <time>2023-06-01T10:02:41.000Z</time>
      </trkpt>
      <trkpt lat="43.56882" lon="2.44121">
        <ele>630.20001220703</ele>
        <time>2023-06-01T10:02:47.000Z</time>
      </trkpt>
      <trkpt lat="43.56882" lon="2.44115">
        <ele>630.59997558594</ele>
        <time>2023-06-01T10:02:53.000Z</time>
      </trkpt>
      <trkpt lat="43.56882" lon="2.44109">
        <ele>631.40002441406</ele>
        <time>2023-06-01T10:02:59.000Z</time>
      </trkpt>
      <trkpt lat="43.56882" lon="2.44108">
        <ele>631.79998779297</ele>
        <time>2023-06-01T10:03:00.000Z</time>
      </trkpt>
      <trkpt lat="43.56883" lon="2.44102">
        <ele>632.20001220703</ele>
        <time>2023-06-01T10:03:07.000Z</time>
      </trkpt>
      <trkpt lat="43.56883" lon="2.44101">
        <ele>632.40002441406</ele>
        <time>2023-06-01T10:03:09.000Z</time>
      </trkpt>
      <trkpt lat="43.56884" lon="2.44097">
        <ele>632.59997558594</ele>
        <time>2023-06-01T10:03:13.000Z</time>
      </trkpt>
      <trkpt lat="43.56884" lon="2.44093">
        <ele>633</ele>
        <time>2023-06-01T10:03:18.000Z</time>
      </trkpt>
      <trkpt lat="43.56886" lon="2.44086">
        <ele>633.40002441406</ele>
        <time>2023-06-01T10:03:25.000Z</time>
      </trkpt>
      <trkpt lat="43.56886" lon="2.44085">
        <ele>633.40002441406</ele>
        <time>2023-06-01T10:03:27.000Z</time>
      </trkpt>
      <trkpt lat="43.56888" lon="2.4408">
        <ele>634</ele>
        <time>2023-06-01T10:03:33.000Z</time>
      </trkpt>
      <trkpt lat="43.5689" lon="2.44074">
        <ele>634.59997558594</ele>
        <time>2023-06-01T10:03:38.000Z</time>
      </trkpt>
      <trkpt lat="43.5689" lon="2.44073">
        <ele>634.59997558594</ele>
        <time>2023-06-01T10:03:39.000Z</time>
      </trkpt>
      <trkpt lat="43.56892" lon="2.44069">
        <ele>635.40002441406</ele>
        <time>2023-06-01T10:03:47.000Z</time>
      </trkpt>
      <trkpt lat="43.56895" lon="2.44065">
        <ele>635.20001220703</ele>
        <time>2023-06-01T10:03:53.000Z</time>
      </trkpt>
      <trkpt lat="43.56898" lon="2.44057">
        <ele>635</ele>
        <time>2023-06-01T10:04:00.000Z</time>
      </trkpt>
      <trkpt lat="43.56899" lon="2.44054">
        <ele>635</ele>
        <time>2023-06-01T10:04:02.000Z</time>
      </trkpt>
      <trkpt lat="43.56899" lon="2.44049">
        <ele>635.20001220703</ele>
        <time>2023-06-01T10:04:06.000Z</time>
      </trkpt>
      <trkpt lat="43.569" lon="2.44041">
        <ele>635.20001220703</ele>
        <time>2023-06-01T10:04:14.000Z</time>
      </trkpt>
      <trkpt lat="43.56901" lon="2.44038">
        <ele>635.20001220703</ele>
        <time>2023-06-01T10:04:23.000Z</time>
      </trkpt>
      <trkpt lat="43.569" lon="2.4403">
        <ele>635.20001220703</ele>
        <time>2023-06-01T10:04:30.000Z</time>
      </trkpt>
      <trkpt lat="43.56903" lon="2.44023">
        <ele>635.20001220703</ele>
        <time>2023-06-01T10:04:35.000Z</time>
      </trkpt>
      <trkpt lat="43.56903" lon="2.44021">
        <ele>635.20001220703</ele>
        <time>2023-06-01T10:04:36.000Z</time>
      </trkpt>
      <trkpt lat="43.56904" lon="2.44016">
        <ele>635.40002441406</ele>
        <time>2023-06-01T10:04:41.000Z</time>
      </trkpt>
      <trkpt lat="43.56902" lon="2.44011">
        <ele>635.20001220703</ele>
        <time>2023-06-01T10:04:45.000Z</time>
      </trkpt>
      <trkpt lat="43.56902" lon="2.44009">
        <ele>635.20001220703</ele>
        <time>2023-06-01T10:04:46.000Z</time>
      </trkpt>
      <trkpt lat="43.56902" lon="2.44008">
        <ele>635.20001220703</ele>
        <time>2023-06-01T10:04:47.000Z</time>
      </trkpt>
      <trkpt lat="43.56903" lon="2.44005">
        <ele>635.40002441406</ele>
        <time>2023-06-01T10:04:50.000Z</time>
      </trkpt>
      <trkpt lat="43.56903" lon="2.44005">
        <ele>635.20001220703</ele>
        <time>2023-06-01T10:04:51.000Z</time>
      </trkpt>
      <trkpt lat="43.56903" lon="2.44005">
        <ele>635.20001220703</ele>
        <time>2023-06-01T10:04:56.000Z</time>
      </trkpt>
      <trkpt lat="43.56904" lon="2.43998">
        <ele>635.40002441406</ele>
        <time>2023-06-01T10:05:02.000Z</time>
      </trkpt>
      <trkpt lat="43.56904" lon="2.4399">
        <ele>634.79998779297</ele>
        <time>2023-06-01T10:05:08.000Z</time>
      </trkpt>
      <trkpt lat="43.56905" lon="2.43988">
        <ele>634.79998779297</ele>
        <time>2023-06-01T10:05:09.000Z</time>
      </trkpt>
      <trkpt lat="43.56906" lon="2.43985">
        <ele>635.20001220703</ele>
        <time>2023-06-01T10:05:12.000Z</time>
      </trkpt>
      <trkpt lat="43.56906" lon="2.43982">
        <ele>635.59997558594</ele>
        <time>2023-06-01T10:05:14.000Z</time>
      </trkpt>
      <trkpt lat="43.56907" lon="2.43981">
        <ele>635.79998779297</ele>
        <time>2023-06-01T10:05:15.000Z</time>
      </trkpt>
      <trkpt lat="43.56907" lon="2.43971">
        <ele>636.20001220703</ele>
        <time>2023-06-01T10:05:22.000Z</time>
      </trkpt>
      <trkpt lat="43.56908" lon="2.43968">
        <ele>636.40002441406</ele>
        <time>2023-06-01T10:05:25.000Z</time>
      </trkpt>
      <trkpt lat="43.56908" lon="2.43967">
        <ele>636.40002441406</ele>
        <time>2023-06-01T10:05:27.000Z</time>
      </trkpt>
      <trkpt lat="43.56908" lon="2.43966">
        <ele>636.40002441406</ele>
        <time>2023-06-01T10:05:28.000Z</time>
      </trkpt>
      <trkpt lat="43.56911" lon="2.4396">
        <ele>636.59997558594</ele>
        <time>2023-06-01T10:05:34.000Z</time>
      </trkpt>
      <trkpt lat="43.56911" lon="2.4396">
        <ele>636.79998779297</ele>
        <time>2023-06-01T10:05:35.000Z</time>
      </trkpt>
      <trkpt lat="43.56911" lon="2.43955">
        <ele>637.20001220703</ele>
        <time>2023-06-01T10:05:40.000Z</time>
      </trkpt>
      <trkpt lat="43.56913" lon="2.43949">
        <ele>637.79998779297</ele>
        <time>2023-06-01T10:05:45.000Z</time>
      </trkpt>
      <trkpt lat="43.56913" lon="2.43947">
        <ele>637.79998779297</ele>
        <time>2023-06-01T10:05:47.000Z</time>
      </trkpt>
      <trkpt lat="43.56913" lon="2.43942">
        <ele>637.59997558594</ele>
        <time>2023-06-01T10:05:50.000Z</time>
      </trkpt>
      <trkpt lat="43.56913" lon="2.43937">
        <ele>637.59997558594</ele>
        <time>2023-06-01T10:05:53.000Z</time>
      </trkpt>
      <trkpt lat="43.56914" lon="2.43936">
        <ele>637.59997558594</ele>
        <time>2023-06-01T10:05:55.000Z</time>
      </trkpt>
      <trkpt lat="43.56914" lon="2.43932">
        <ele>637.79998779297</ele>
        <time>2023-06-01T10:05:57.000Z</time>
      </trkpt>
      <trkpt lat="43.56914" lon="2.4393">
        <ele>638</ele>
        <time>2023-06-01T10:05:59.000Z</time>
      </trkpt>
      <trkpt lat="43.56913" lon="2.43923">
        <ele>638.59997558594</ele>
        <time>2023-06-01T10:06:04.000Z</time>
      </trkpt>
      <trkpt lat="43.56913" lon="2.43923">
        <ele>638.59997558594</ele>
        <time>2023-06-01T10:06:05.000Z</time>
      </trkpt>
      <trkpt lat="43.56912" lon="2.43923">
        <ele>638.20001220703</ele>
        <time>2023-06-01T10:06:13.000Z</time>
      </trkpt>
      <trkpt lat="43.56912" lon="2.43924">
        <ele>638.20001220703</ele>
        <time>2023-06-01T10:06:20.000Z</time>
      </trkpt>
      <trkpt lat="43.56909" lon="2.43912">
        <ele>637.79998779297</ele>
        <time>2023-06-01T10:06:28.000Z</time>
      </trkpt>
      <trkpt lat="43.56908" lon="2.4391">
        <ele>638.40002441406</ele>
        <time>2023-06-01T10:06:36.000Z</time>
      </trkpt>
      <trkpt lat="43.56908" lon="2.43905">
        <ele>638.20001220703</ele>
        <time>2023-06-01T10:06:43.000Z</time>
      </trkpt>
      <trkpt lat="43.56909" lon="2.43906">
        <ele>638.20001220703</ele>
        <time>2023-06-01T10:06:48.000Z</time>
      </trkpt>
      <trkpt lat="43.56912" lon="2.4391">
        <ele>637.79998779297</ele>
        <time>2023-06-01T10:06:55.000Z</time>
      </trkpt>
      <trkpt lat="43.56912" lon="2.43911">
        <ele>637.59997558594</ele>
        <time>2023-06-01T10:07:03.000Z</time>
      </trkpt>
      <trkpt lat="43.56914" lon="2.43912">
        <ele>638.59997558594</ele>
        <time>2023-06-01T10:07:11.000Z</time>
      </trkpt>
      <trkpt lat="43.56917" lon="2.43913">
        <ele>638.20001220703</ele>
        <time>2023-06-01T10:07:21.000Z</time>
      </trkpt>
      <trkpt lat="43.5692" lon="2.43914">
        <ele>638</ele>
        <time>2023-06-01T10:07:29.000Z</time>
      </trkpt>
      <trkpt lat="43.56922" lon="2.43914">
        <ele>638.79998779297</ele>
        <time>2023-06-01T10:07:43.000Z</time>
      </trkpt>
      <trkpt lat="43.56922" lon="2.43914">
        <ele>639</ele>
        <time>2023-06-01T10:07:44.000Z</time>
      </trkpt>
      <trkpt lat="43.56923" lon="2.43912">
        <ele>638.59997558594</ele>
        <time>2023-06-01T10:07:50.000Z</time>
      </trkpt>
      <trkpt lat="43.56922" lon="2.43911">
        <ele>638</ele>
        <time>2023-06-01T10:07:58.000Z</time>
      </trkpt>
      <trkpt lat="43.56922" lon="2.4391">
        <ele>638</ele>
        <time>2023-06-01T10:08:02.000Z</time>
      </trkpt>
      <trkpt lat="43.56922" lon="2.43909">
        <ele>638.40002441406</ele>
        <time>2023-06-01T10:08:08.000Z</time>
      </trkpt>
      <trkpt lat="43.56923" lon="2.43909">
        <ele>638.79998779297</ele>
        <time>2023-06-01T10:08:20.000Z</time>
      </trkpt>
      <trkpt lat="43.5692" lon="2.43904">
        <ele>637.79998779297</ele>
        <time>2023-06-01T10:08:26.000Z</time>
      </trkpt>
      <trkpt lat="43.56921" lon="2.43904">
        <ele>638</ele>
        <time>2023-06-01T10:08:32.000Z</time>
      </trkpt>
      <trkpt lat="43.56919" lon="2.43902">
        <ele>638.40002441406</ele>
        <time>2023-06-01T10:08:39.000Z</time>
      </trkpt>
      <trkpt lat="43.56915" lon="2.43902">
        <ele>638.59997558594</ele>
        <time>2023-06-01T10:08:50.000Z</time>
      </trkpt>
      <trkpt lat="43.56914" lon="2.43901">
        <ele>638.20001220703</ele>
        <time>2023-06-01T10:08:58.000Z</time>
      </trkpt>
      <trkpt lat="43.56914" lon="2.43898">
        <ele>638.40002441406</ele>
        <time>2023-06-01T10:09:03.000Z</time>
      </trkpt>
      <trkpt lat="43.56913" lon="2.43893">
        <ele>637.79998779297</ele>
        <time>2023-06-01T10:09:08.000Z</time>
      </trkpt>
      <trkpt lat="43.56912" lon="2.43886">
        <ele>637.59997558594</ele>
        <time>2023-06-01T10:09:13.000Z</time>
      </trkpt>
      <trkpt lat="43.56912" lon="2.43882">
        <ele>637.59997558594</ele>
        <time>2023-06-01T10:09:16.000Z</time>
      </trkpt>
      <trkpt lat="43.56911" lon="2.43879">
        <ele>637.40002441406</ele>
        <time>2023-06-01T10:09:18.000Z</time>
      </trkpt>
      <trkpt lat="43.56911" lon="2.43874">
        <ele>637.59997558594</ele>
        <time>2023-06-01T10:09:22.000Z</time>
      </trkpt>
      <trkpt lat="43.56909" lon="2.43866">
        <ele>638.59997558594</ele>
        <time>2023-06-01T10:09:29.000Z</time>
      </trkpt>
      <trkpt lat="43.56909" lon="2.43854">
        <ele>638</ele>
        <time>2023-06-01T10:09:39.000Z</time>
      </trkpt>
      <trkpt lat="43.56907" lon="2.4384">
        <ele>637.40002441406</ele>
        <time>2023-06-01T10:09:48.000Z</time>
      </trkpt>
      <trkpt lat="43.56907" lon="2.43836">
        <ele>637</ele>
        <time>2023-06-01T10:09:51.000Z</time>
      </trkpt>
      <trkpt lat="43.56906" lon="2.4383">
        <ele>636</ele>
        <time>2023-06-01T10:09:55.000Z</time>
      </trkpt>
      <trkpt lat="43.56906" lon="2.43829">
        <ele>635.79998779297</ele>
        <time>2023-06-01T10:09:56.000Z</time>
      </trkpt>
      <trkpt lat="43.56904" lon="2.43818">
        <ele>635.59997558594</ele>
        <time>2023-06-01T10:10:03.000Z</time>
      </trkpt>
      <trkpt lat="43.56903" lon="2.43813">
        <ele>635.79998779297</ele>
        <time>2023-06-01T10:10:07.000Z</time>
      </trkpt>
      <trkpt lat="43.56902" lon="2.43808">
        <ele>635.59997558594</ele>
        <time>2023-06-01T10:10:10.000Z</time>
      </trkpt>
      <trkpt lat="43.569" lon="2.43797">
        <ele>634.59997558594</ele>
        <time>2023-06-01T10:10:17.000Z</time>
      </trkpt>
      <trkpt lat="43.56898" lon="2.43791">
        <ele>634.20001220703</ele>
        <time>2023-06-01T10:10:21.000Z</time>
      </trkpt>
      <trkpt lat="43.56898" lon="2.43789">
        <ele>634.20001220703</ele>
        <time>2023-06-01T10:10:23.000Z</time>
      </trkpt>
      <trkpt lat="43.56896" lon="2.43786">
        <ele>634</ele>
        <time>2023-06-01T10:10:26.000Z</time>
      </trkpt>
      <trkpt lat="43.56894" lon="2.43782">
        <ele>633.79998779297</ele>
        <time>2023-06-01T10:10:29.000Z</time>
      </trkpt>
      <trkpt lat="43.56894" lon="2.4378">
        <ele>633.59997558594</ele>
        <time>2023-06-01T10:10:30.000Z</time>
      </trkpt>
      <trkpt lat="43.56893" lon="2.43779">
        <ele>633.59997558594</ele>
        <time>2023-06-01T10:10:31.000Z</time>
      </trkpt>
      <trkpt lat="43.56891" lon="2.43774">
        <ele>633.40002441406</ele>
        <time>2023-06-01T10:10:34.000Z</time>
      </trkpt>
      <trkpt lat="43.5689" lon="2.43771">
        <ele>633.20001220703</ele>
        <time>2023-06-01T10:10:36.000Z</time>
      </trkpt>
      <trkpt lat="43.56886" lon="2.43761">
        <ele>633.40002441406</ele>
        <time>2023-06-01T10:10:43.000Z</time>
      </trkpt>
      <trkpt lat="43.56884" lon="2.43756">
        <ele>633.20001220703</ele>
        <time>2023-06-01T10:10:47.000Z</time>
      </trkpt>
      <trkpt lat="43.56884" lon="2.43754">
        <ele>633</ele>
        <time>2023-06-01T10:10:48.000Z</time>
      </trkpt>
      <trkpt lat="43.56883" lon="2.4375">
        <ele>632.59997558594</ele>
        <time>2023-06-01T10:10:51.000Z</time>
      </trkpt>
      <trkpt lat="43.56882" lon="2.43749">
        <ele>632.40002441406</ele>
        <time>2023-06-01T10:10:52.000Z</time>
      </trkpt>
      <trkpt lat="43.56881" lon="2.43746">
        <ele>632.20001220703</ele>
        <time>2023-06-01T10:10:54.000Z</time>
      </trkpt>
      <trkpt lat="43.56879" lon="2.4374">
        <ele>631.79998779297</ele>
        <time>2023-06-01T10:10:59.000Z</time>
      </trkpt>
      <trkpt lat="43.56877" lon="2.43735">
        <ele>631.79998779297</ele>
        <time>2023-06-01T10:11:02.000Z</time>
      </trkpt>
      <trkpt lat="43.56876" lon="2.43733">
        <ele>631.79998779297</ele>
        <time>2023-06-01T10:11:04.000Z</time>
      </trkpt>
      <trkpt lat="43.56876" lon="2.43731">
        <ele>631.59997558594</ele>
        <time>2023-06-01T10:11:05.000Z</time>
      </trkpt>
      <trkpt lat="43.56875" lon="2.43728">
        <ele>631.59997558594</ele>
        <time>2023-06-01T10:11:07.000Z</time>
      </trkpt>
      <trkpt lat="43.56874" lon="2.43724">
        <ele>631.40002441406</ele>
        <time>2023-06-01T10:11:11.000Z</time>
      </trkpt>
      <trkpt lat="43.56872" lon="2.43716">
        <ele>631.20001220703</ele>
        <time>2023-06-01T10:11:17.000Z</time>
      </trkpt>
      <trkpt lat="43.56872" lon="2.43715">
        <ele>631.20001220703</ele>
        <time>2023-06-01T10:11:18.000Z</time>
      </trkpt>
      <trkpt lat="43.56871" lon="2.43712">
        <ele>631</ele>
        <time>2023-06-01T10:11:20.000Z</time>
      </trkpt>
      <trkpt lat="43.5687" lon="2.4371">
        <ele>631</ele>
        <time>2023-06-01T10:11:22.000Z</time>
      </trkpt>
      <trkpt lat="43.56869" lon="2.43707">
        <ele>631.20001220703</ele>
        <time>2023-06-01T10:11:24.000Z</time>
      </trkpt>
      <trkpt lat="43.56868" lon="2.43702">
        <ele>631.40002441406</ele>
        <time>2023-06-01T10:11:27.000Z</time>
      </trkpt>
      <trkpt lat="43.56868" lon="2.43701">
        <ele>631.40002441406</ele>
        <time>2023-06-01T10:11:28.000Z</time>
      </trkpt>
      <trkpt lat="43.56866" lon="2.43695">
        <ele>631.40002441406</ele>
        <time>2023-06-01T10:11:33.000Z</time>
      </trkpt>
      <trkpt lat="43.56864" lon="2.4369">
        <ele>631.40002441406</ele>
        <time>2023-06-01T10:11:40.000Z</time>
      </trkpt>
      <trkpt lat="43.5686" lon="2.43684">
        <ele>631.40002441406</ele>
        <time>2023-06-01T10:11:46.000Z</time>
      </trkpt>
      <trkpt lat="43.5686" lon="2.43682">
        <ele>631.20001220703</ele>
        <time>2023-06-01T10:11:47.000Z</time>
      </trkpt>
      <trkpt lat="43.5686" lon="2.43676">
        <ele>631.20001220703</ele>
        <time>2023-06-01T10:11:51.000Z</time>
      </trkpt>
      <trkpt lat="43.56859" lon="2.43667">
        <ele>631.20001220703</ele>
        <time>2023-06-01T10:11:58.000Z</time>
      </trkpt>
      <trkpt lat="43.56858" lon="2.43656">
        <ele>631</ele>
        <time>2023-06-01T10:12:04.000Z</time>
      </trkpt>
      <trkpt lat="43.56858" lon="2.4365">
        <ele>631.20001220703</ele>
        <time>2023-06-01T10:12:07.000Z</time>
      </trkpt>
      <trkpt lat="43.56858" lon="2.43644">
        <ele>631.20001220703</ele>
        <time>2023-06-01T10:12:11.000Z</time>
      </trkpt>
      <trkpt lat="43.56858" lon="2.43636">
        <ele>631.40002441406</ele>
        <time>2023-06-01T10:12:16.000Z</time>
      </trkpt>
      <trkpt lat="43.56858" lon="2.43634">
        <ele>631.59997558594</ele>
        <time>2023-06-01T10:12:17.000Z</time>
      </trkpt>
      <trkpt lat="43.56858" lon="2.43631">
        <ele>631.59997558594</ele>
        <time>2023-06-01T10:12:19.000Z</time>
      </trkpt>
      <trkpt lat="43.56857" lon="2.43625">
        <ele>631.59997558594</ele>
        <time>2023-06-01T10:12:23.000Z</time>
      </trkpt>
      <trkpt lat="43.56857" lon="2.43624">
        <ele>631.79998779297</ele>
        <time>2023-06-01T10:12:24.000Z</time>
      </trkpt>
      <trkpt lat="43.56858" lon="2.43613">
        <ele>632.20001220703</ele>
        <time>2023-06-01T10:12:32.000Z</time>
      </trkpt>
      <trkpt lat="43.56858" lon="2.43608">
        <ele>632.20001220703</ele>
        <time>2023-06-01T10:12:35.000Z</time>
      </trkpt>
      <trkpt lat="43.56858" lon="2.43605">
        <ele>632.40002441406</ele>
        <time>2023-06-01T10:12:38.000Z</time>
      </trkpt>
      <trkpt lat="43.56858" lon="2.43599">
        <ele>632.59997558594</ele>
        <time>2023-06-01T10:12:42.000Z</time>
      </trkpt>
      <trkpt lat="43.56858" lon="2.43595">
        <ele>632.59997558594</ele>
        <time>2023-06-01T10:12:45.000Z</time>
      </trkpt>
      <trkpt lat="43.56858" lon="2.43592">
        <ele>632.79998779297</ele>
        <time>2023-06-01T10:12:48.000Z</time>
      </trkpt>
      <trkpt lat="43.56858" lon="2.43589">
        <ele>633.40002441406</ele>
        <time>2023-06-01T10:12:52.000Z</time>
      </trkpt>
      <trkpt lat="43.56858" lon="2.43584">
        <ele>633.79998779297</ele>
        <time>2023-06-01T10:12:56.000Z</time>
      </trkpt>
      <trkpt lat="43.56859" lon="2.43582">
        <ele>634</ele>
        <time>2023-06-01T10:12:58.000Z</time>
      </trkpt>
      <trkpt lat="43.56858" lon="2.43573">
        <ele>634.40002441406</ele>
        <time>2023-06-01T10:13:04.000Z</time>
      </trkpt>
      <trkpt lat="43.56858" lon="2.4357">
        <ele>634.40002441406</ele>
        <time>2023-06-01T10:13:06.000Z</time>
      </trkpt>
      <trkpt lat="43.56859" lon="2.43564">
        <ele>634.79998779297</ele>
        <time>2023-06-01T10:13:11.000Z</time>
      </trkpt>
      <trkpt lat="43.5686" lon="2.43563">
        <ele>634.79998779297</ele>
        <time>2023-06-01T10:13:12.000Z</time>
      </trkpt>
      <trkpt lat="43.5686" lon="2.43559">
        <ele>634.79998779297</ele>
        <time>2023-06-01T10:13:15.000Z</time>
      </trkpt>
      <trkpt lat="43.56862" lon="2.43553">
        <ele>635</ele>
        <time>2023-06-01T10:13:19.000Z</time>
      </trkpt>
      <trkpt lat="43.56862" lon="2.43548">
        <ele>635</ele>
        <time>2023-06-01T10:13:23.000Z</time>
      </trkpt>
      <trkpt lat="43.56863" lon="2.43545">
        <ele>635</ele>
        <time>2023-06-01T10:13:25.000Z</time>
      </trkpt>
      <trkpt lat="43.56863" lon="2.43542">
        <ele>635</ele>
        <time>2023-06-01T10:13:27.000Z</time>
      </trkpt>
      <trkpt lat="43.56865" lon="2.43537">
        <ele>635.20001220703</ele>
        <time>2023-06-01T10:13:31.000Z</time>
      </trkpt>
      <trkpt lat="43.56866" lon="2.43536">
        <ele>635.20001220703</ele>
        <time>2023-06-01T10:13:32.000Z</time>
      </trkpt>
      <trkpt lat="43.56866" lon="2.43535">
        <ele>635.20001220703</ele>
        <time>2023-06-01T10:13:33.000Z</time>
      </trkpt>
      <trkpt lat="43.56868" lon="2.43531">
        <ele>635.79998779297</ele>
        <time>2023-06-01T10:13:37.000Z</time>
      </trkpt>
      <trkpt lat="43.56869" lon="2.4353">
        <ele>636</ele>
        <time>2023-06-01T10:13:38.000Z</time>
      </trkpt>
      <trkpt lat="43.56871" lon="2.43522">
        <ele>635.79998779297</ele>
        <time>2023-06-01T10:13:44.000Z</time>
      </trkpt>
      <trkpt lat="43.56872" lon="2.43511">
        <ele>635.79998779297</ele>
        <time>2023-06-01T10:13:51.000Z</time>
      </trkpt>
      <trkpt lat="43.56874" lon="2.43505">
        <ele>636</ele>
        <time>2023-06-01T10:13:56.000Z</time>
      </trkpt>
      <trkpt lat="43.56874" lon="2.43502">
        <ele>636</ele>
        <time>2023-06-01T10:13:58.000Z</time>
      </trkpt>
      <trkpt lat="43.56874" lon="2.43501">
        <ele>636.20001220703</ele>
        <time>2023-06-01T10:13:59.000Z</time>
      </trkpt>
      <trkpt lat="43.56874" lon="2.43496">
        <ele>636.20001220703</ele>
        <time>2023-06-01T10:14:03.000Z</time>
      </trkpt>
      <trkpt lat="43.56873" lon="2.43495">
        <ele>636.20001220703</ele>
        <time>2023-06-01T10:14:04.000Z</time>
      </trkpt>
      <trkpt lat="43.56873" lon="2.4349">
        <ele>636.20001220703</ele>
        <time>2023-06-01T10:14:07.000Z</time>
      </trkpt>
      <trkpt lat="43.56872" lon="2.43484">
        <ele>636.20001220703</ele>
        <time>2023-06-01T10:14:11.000Z</time>
      </trkpt>
      <trkpt lat="43.56872" lon="2.4348">
        <ele>636</ele>
        <time>2023-06-01T10:14:14.000Z</time>
      </trkpt>
      <trkpt lat="43.56872" lon="2.43478">
        <ele>636</ele>
        <time>2023-06-01T10:14:16.000Z</time>
      </trkpt>
      <trkpt lat="43.56871" lon="2.43476">
        <ele>635.79998779297</ele>
        <time>2023-06-01T10:14:18.000Z</time>
      </trkpt>
      <trkpt lat="43.5687" lon="2.43473">
        <ele>635.59997558594</ele>
        <time>2023-06-01T10:14:21.000Z</time>
      </trkpt>
      <trkpt lat="43.56868" lon="2.43467">
        <ele>635</ele>
        <time>2023-06-01T10:14:25.000Z</time>
      </trkpt>
      <trkpt lat="43.56867" lon="2.43463">
        <ele>634.79998779297</ele>
        <time>2023-06-01T10:14:28.000Z</time>
      </trkpt>
      <trkpt lat="43.56864" lon="2.43455">
        <ele>635</ele>
        <time>2023-06-01T10:14:35.000Z</time>
      </trkpt>
      <trkpt lat="43.56864" lon="2.43453">
        <ele>635.59997558594</ele>
        <time>2023-06-01T10:14:37.000Z</time>
      </trkpt>
      <trkpt lat="43.56863" lon="2.43447">
        <ele>635.20001220703</ele>
        <time>2023-06-01T10:14:42.000Z</time>
      </trkpt>
      <trkpt lat="43.56862" lon="2.43444">
        <ele>635</ele>
        <time>2023-06-01T10:14:45.000Z</time>
      </trkpt>
      <trkpt lat="43.56862" lon="2.43443">
        <ele>635</ele>
        <time>2023-06-01T10:14:46.000Z</time>
      </trkpt>
      <trkpt lat="43.56862" lon="2.4344">
        <ele>634.79998779297</ele>
        <time>2023-06-01T10:14:48.000Z</time>
      </trkpt>
      <trkpt lat="43.56859" lon="2.43432">
        <ele>634.40002441406</ele>
        <time>2023-06-01T10:14:54.000Z</time>
      </trkpt>
      <trkpt lat="43.56859" lon="2.43431">
        <ele>634.59997558594</ele>
        <time>2023-06-01T10:14:55.000Z</time>
      </trkpt>
      <trkpt lat="43.56857" lon="2.43424">
        <ele>635.20001220703</ele>
        <time>2023-06-01T10:15:00.000Z</time>
      </trkpt>
      <trkpt lat="43.56855" lon="2.43418">
        <ele>634.79998779297</ele>
        <time>2023-06-01T10:15:05.000Z</time>
      </trkpt>
      <trkpt lat="43.56854" lon="2.4341">
        <ele>634.59997558594</ele>
        <time>2023-06-01T10:15:11.000Z</time>
      </trkpt>
      <trkpt lat="43.56852" lon="2.434">
        <ele>633.79998779297</ele>
        <time>2023-06-01T10:15:17.000Z</time>
      </trkpt>
      <trkpt lat="43.56852" lon="2.434">
        <ele>633.79998779297</ele>
        <time>2023-06-01T10:15:18.000Z</time>
      </trkpt>
      <trkpt lat="43.5685" lon="2.43392">
        <ele>633.59997558594</ele>
        <time>2023-06-01T10:15:24.000Z</time>
      </trkpt>
      <trkpt lat="43.56849" lon="2.43388">
        <ele>633.79998779297</ele>
        <time>2023-06-01T10:15:27.000Z</time>
      </trkpt>
      <trkpt lat="43.56847" lon="2.43383">
        <ele>633.59997558594</ele>
        <time>2023-06-01T10:15:31.000Z</time>
      </trkpt>
      <trkpt lat="43.56846" lon="2.43378">
        <ele>633.40002441406</ele>
        <time>2023-06-01T10:15:34.000Z</time>
      </trkpt>
      <trkpt lat="43.56845" lon="2.43371">
        <ele>633.20001220703</ele>
        <time>2023-06-01T10:15:39.000Z</time>
      </trkpt>
      <trkpt lat="43.56844" lon="2.4337">
        <ele>633.20001220703</ele>
        <time>2023-06-01T10:15:40.000Z</time>
      </trkpt>
      <trkpt lat="43.56843" lon="2.43365">
        <ele>633</ele>
        <time>2023-06-01T10:15:43.000Z</time>
      </trkpt>
      <trkpt lat="43.56843" lon="2.43362">
        <ele>632.59997558594</ele>
        <time>2023-06-01T10:15:45.000Z</time>
      </trkpt>
      <trkpt lat="43.56843" lon="2.4336">
        <ele>632.20001220703</ele>
        <time>2023-06-01T10:15:46.000Z</time>
      </trkpt>
      <trkpt lat="43.56841" lon="2.43352">
        <ele>631.59997558594</ele>
        <time>2023-06-01T10:15:51.000Z</time>
      </trkpt>
      <trkpt lat="43.56839" lon="2.43342">
        <ele>631.20001220703</ele>
        <time>2023-06-01T10:15:58.000Z</time>
      </trkpt>
      <trkpt lat="43.56839" lon="2.43339">
        <ele>631.20001220703</ele>
        <time>2023-06-01T10:16:00.000Z</time>
      </trkpt>
      <trkpt lat="43.56837" lon="2.43328">
        <ele>631</ele>
        <time>2023-06-01T10:16:07.000Z</time>
      </trkpt>
      <trkpt lat="43.56836" lon="2.43318">
        <ele>630.79998779297</ele>
        <time>2023-06-01T10:16:14.000Z</time>
      </trkpt>
      <trkpt lat="43.56834" lon="2.4331">
        <ele>630.40002441406</ele>
        <time>2023-06-01T10:16:19.000Z</time>
      </trkpt>
      <trkpt lat="43.56834" lon="2.43308">
        <ele>629.79998779297</ele>
        <time>2023-06-01T10:16:21.000Z</time>
      </trkpt>
      <trkpt lat="43.56832" lon="2.43303">
        <ele>630</ele>
        <time>2023-06-01T10:16:25.000Z</time>
      </trkpt>
      <trkpt lat="43.56831" lon="2.43302">
        <ele>630.59997558594</ele>
        <time>2023-06-01T10:16:27.000Z</time>
      </trkpt>
      <trkpt lat="43.56831" lon="2.433">
        <ele>630.59997558594</ele>
        <time>2023-06-01T10:16:28.000Z</time>
      </trkpt>
      <trkpt lat="43.5683" lon="2.43295">
        <ele>629.40002441406</ele>
        <time>2023-06-01T10:16:34.000Z</time>
      </trkpt>
      <trkpt lat="43.5683" lon="2.43294">
        <ele>630.59997558594</ele>
        <time>2023-06-01T10:16:44.000Z</time>
      </trkpt>
      <trkpt lat="43.56831" lon="2.43291">
        <ele>630.20001220703</ele>
        <time>2023-06-01T10:16:52.000Z</time>
      </trkpt>
      <trkpt lat="43.5683" lon="2.43289">
        <ele>629.59997558594</ele>
        <time>2023-06-01T10:16:55.000Z</time>
      </trkpt>
      <trkpt lat="43.56829" lon="2.43284">
        <ele>628.59997558594</ele>
        <time>2023-06-01T10:16:58.000Z</time>
      </trkpt>
      <trkpt lat="43.56823" lon="2.43271">
        <ele>628.59997558594</ele>
        <time>2023-06-01T10:17:07.000Z</time>
      </trkpt>
      <trkpt lat="43.56818" lon="2.43261">
        <ele>628.79998779297</ele>
        <time>2023-06-01T10:17:15.000Z</time>
      </trkpt>
      <trkpt lat="43.56818" lon="2.4326">
        <ele>628.79998779297</ele>
        <time>2023-06-01T10:17:16.000Z</time>
      </trkpt>
      <trkpt lat="43.56815" lon="2.43254">
        <ele>628.40002441406</ele>
        <time>2023-06-01T10:17:21.000Z</time>
      </trkpt>
      <trkpt lat="43.56814" lon="2.43253">
        <ele>628.40002441406</ele>
        <time>2023-06-01T10:17:22.000Z</time>
      </trkpt>
      <trkpt lat="43.56807" lon="2.43245">
        <ele>628.40002441406</ele>
        <time>2023-06-01T10:17:29.000Z</time>
      </trkpt>
      <trkpt lat="43.56801" lon="2.43238">
        <ele>628.40002441406</ele>
        <time>2023-06-01T10:17:36.000Z</time>
      </trkpt>
      <trkpt lat="43.56799" lon="2.43236">
        <ele>628.40002441406</ele>
        <time>2023-06-01T10:17:39.000Z</time>
      </trkpt>
      <trkpt lat="43.56797" lon="2.43233">
        <ele>628.40002441406</ele>
        <time>2023-06-01T10:17:42.000Z</time>
      </trkpt>
      <trkpt lat="43.56795" lon="2.43229">
        <ele>628</ele>
        <time>2023-06-01T10:17:48.000Z</time>
      </trkpt>
      <trkpt lat="43.56794" lon="2.43228">
        <ele>627.79998779297</ele>
        <time>2023-06-01T10:17:49.000Z</time>
      </trkpt>
      <trkpt lat="43.56792" lon="2.43226">
        <ele>627.40002441406</ele>
        <time>2023-06-01T10:17:51.000Z</time>
      </trkpt>
      <trkpt lat="43.56789" lon="2.43224">
        <ele>627</ele>
        <time>2023-06-01T10:17:53.000Z</time>
      </trkpt>
      <trkpt lat="43.56782" lon="2.43216">
        <ele>626.40002441406</ele>
        <time>2023-06-01T10:18:00.000Z</time>
      </trkpt>
      <trkpt lat="43.56782" lon="2.43215">
        <ele>626.20001220703</ele>
        <time>2023-06-01T10:18:01.000Z</time>
      </trkpt>
      <trkpt lat="43.56775" lon="2.43208">
        <ele>625.79998779297</ele>
        <time>2023-06-01T10:18:08.000Z</time>
      </trkpt>
      <trkpt lat="43.56774" lon="2.43207">
        <ele>625.79998779297</ele>
        <time>2023-06-01T10:18:09.000Z</time>
      </trkpt>
      <trkpt lat="43.56771" lon="2.43202">
        <ele>625.20001220703</ele>
        <time>2023-06-01T10:18:13.000Z</time>
      </trkpt>
      <trkpt lat="43.5677" lon="2.43201">
        <ele>625</ele>
        <time>2023-06-01T10:18:14.000Z</time>
      </trkpt>
      <trkpt lat="43.56765" lon="2.43196">
        <ele>624.40002441406</ele>
        <time>2023-06-01T10:18:18.000Z</time>
      </trkpt>
      <trkpt lat="43.56764" lon="2.43194">
        <ele>624.20001220703</ele>
        <time>2023-06-01T10:18:20.000Z</time>
      </trkpt>
      <trkpt lat="43.56757" lon="2.43186">
        <ele>623.40002441406</ele>
        <time>2023-06-01T10:18:27.000Z</time>
      </trkpt>
      <trkpt lat="43.56755" lon="2.43184">
        <ele>623.20001220703</ele>
        <time>2023-06-01T10:18:29.000Z</time>
      </trkpt>
      <trkpt lat="43.56754" lon="2.43182">
        <ele>623</ele>
        <time>2023-06-01T10:18:31.000Z</time>
      </trkpt>
      <trkpt lat="43.56753" lon="2.43179">
        <ele>622.59997558594</ele>
        <time>2023-06-01T10:18:34.000Z</time>
      </trkpt>
      <trkpt lat="43.56751" lon="2.43177">
        <ele>622.40002441406</ele>
        <time>2023-06-01T10:18:36.000Z</time>
      </trkpt>
      <trkpt lat="43.56749" lon="2.43174">
        <ele>622.20001220703</ele>
        <time>2023-06-01T10:18:38.000Z</time>
      </trkpt>
      <trkpt lat="43.56747" lon="2.43173">
        <ele>622</ele>
        <time>2023-06-01T10:18:40.000Z</time>
      </trkpt>
      <trkpt lat="43.56741" lon="2.43168">
        <ele>621.40002441406</ele>
        <time>2023-06-01T10:18:46.000Z</time>
      </trkpt>
      <trkpt lat="43.56736" lon="2.43163">
        <ele>621</ele>
        <time>2023-06-01T10:18:50.000Z</time>
      </trkpt>
      <trkpt lat="43.56734" lon="2.43161">
        <ele>620.79998779297</ele>
        <time>2023-06-01T10:18:52.000Z</time>
      </trkpt>
      <trkpt lat="43.56729" lon="2.43154">
        <ele>620</ele>
        <time>2023-06-01T10:18:58.000Z</time>
      </trkpt>
      <trkpt lat="43.56723" lon="2.43146">
        <ele>619</ele>
        <time>2023-06-01T10:19:04.000Z</time>
      </trkpt>
      <trkpt lat="43.56721" lon="2.43144">
        <ele>618.59997558594</ele>
        <time>2023-06-01T10:19:06.000Z</time>
      </trkpt>
      <trkpt lat="43.56719" lon="2.43143">
        <ele>618.20001220703</ele>
        <time>2023-06-01T10:19:08.000Z</time>
      </trkpt>
      <trkpt lat="43.56717" lon="2.43141">
        <ele>618</ele>
        <time>2023-06-01T10:19:10.000Z</time>
      </trkpt>
      <trkpt lat="43.56716" lon="2.4314">
        <ele>617.79998779297</ele>
        <time>2023-06-01T10:19:11.000Z</time>
      </trkpt>
      <trkpt lat="43.56715" lon="2.43137">
        <ele>617.59997558594</ele>
        <time>2023-06-01T10:19:13.000Z</time>
      </trkpt>
      <trkpt lat="43.56711" lon="2.43131">
        <ele>617.20001220703</ele>
        <time>2023-06-01T10:19:18.000Z</time>
      </trkpt>
      <trkpt lat="43.56707" lon="2.43126">
        <ele>616.79998779297</ele>
        <time>2023-06-01T10:19:23.000Z</time>
      </trkpt>
      <trkpt lat="43.56706" lon="2.43123">
        <ele>616.59997558594</ele>
        <time>2023-06-01T10:19:25.000Z</time>
      </trkpt>
      <trkpt lat="43.567" lon="2.43116">
        <ele>615.79998779297</ele>
        <time>2023-06-01T10:19:32.000Z</time>
      </trkpt>
      <trkpt lat="43.567" lon="2.43115">
        <ele>615.79998779297</ele>
        <time>2023-06-01T10:19:33.000Z</time>
      </trkpt>
      <trkpt lat="43.56698" lon="2.43113">
        <ele>615.59997558594</ele>
        <time>2023-06-01T10:19:35.000Z</time>
      </trkpt>
      <trkpt lat="43.56696" lon="2.43108">
        <ele>614.79998779297</ele>
        <time>2023-06-01T10:19:39.000Z</time>
      </trkpt>
      <trkpt lat="43.56696" lon="2.43106">
        <ele>614.59997558594</ele>
        <time>2023-06-01T10:19:40.000Z</time>
      </trkpt>
      <trkpt lat="43.56693" lon="2.43101">
        <ele>614</ele>
        <time>2023-06-01T10:19:44.000Z</time>
      </trkpt>
      <trkpt lat="43.5669" lon="2.43097">
        <ele>613.79998779297</ele>
        <time>2023-06-01T10:19:47.000Z</time>
      </trkpt>
      <trkpt lat="43.56689" lon="2.43096">
        <ele>613.59997558594</ele>
        <time>2023-06-01T10:19:48.000Z</time>
      </trkpt>
      <trkpt lat="43.56685" lon="2.43088">
        <ele>613</ele>
        <time>2023-06-01T10:19:54.000Z</time>
      </trkpt>
      <trkpt lat="43.56682" lon="2.43084">
        <ele>612.79998779297</ele>
        <time>2023-06-01T10:19:57.000Z</time>
      </trkpt>
      <trkpt lat="43.56679" lon="2.43081">
        <ele>612.40002441406</ele>
        <time>2023-06-01T10:20:00.000Z</time>
      </trkpt>
      <trkpt lat="43.56678" lon="2.4308">
        <ele>612.40002441406</ele>
        <time>2023-06-01T10:20:01.000Z</time>
      </trkpt>
      <trkpt lat="43.56672" lon="2.43071">
        <ele>611.40002441406</ele>
        <time>2023-06-01T10:20:09.000Z</time>
      </trkpt>
      <trkpt lat="43.56671" lon="2.4307">
        <ele>611.40002441406</ele>
        <time>2023-06-01T10:20:10.000Z</time>
      </trkpt>
      <trkpt lat="43.56665" lon="2.4306">
        <ele>610.40002441406</ele>
        <time>2023-06-01T10:20:18.000Z</time>
      </trkpt>
      <trkpt lat="43.56664" lon="2.43059">
        <ele>610.20001220703</ele>
        <time>2023-06-01T10:20:19.000Z</time>
      </trkpt>
      <trkpt lat="43.5666" lon="2.43051">
        <ele>609.40002441406</ele>
        <time>2023-06-01T10:20:25.000Z</time>
      </trkpt>
      <trkpt lat="43.56658" lon="2.43047">
        <ele>609</ele>
        <time>2023-06-01T10:20:28.000Z</time>
      </trkpt>
      <trkpt lat="43.56653" lon="2.43039">
        <ele>608.20001220703</ele>
        <time>2023-06-01T10:20:35.000Z</time>
      </trkpt>
      <trkpt lat="43.56653" lon="2.43038">
        <ele>608.20001220703</ele>
        <time>2023-06-01T10:20:36.000Z</time>
      </trkpt>
      <trkpt lat="43.56646" lon="2.43026">
        <ele>607.40002441406</ele>
        <time>2023-06-01T10:20:45.000Z</time>
      </trkpt>
      <trkpt lat="43.56643" lon="2.43021">
        <ele>607.20001220703</ele>
        <time>2023-06-01T10:20:49.000Z</time>
      </trkpt>
      <trkpt lat="43.56639" lon="2.43014">
        <ele>606.59997558594</ele>
        <time>2023-06-01T10:20:55.000Z</time>
      </trkpt>
      <trkpt lat="43.56638" lon="2.4301">
        <ele>606.20001220703</ele>
        <time>2023-06-01T10:20:59.000Z</time>
      </trkpt>
      <trkpt lat="43.56637" lon="2.43008">
        <ele>606</ele>
        <time>2023-06-01T10:21:02.000Z</time>
      </trkpt>
      <trkpt lat="43.56636" lon="2.43007">
        <ele>605.79998779297</ele>
        <time>2023-06-01T10:21:04.000Z</time>
      </trkpt>
      <trkpt lat="43.56635" lon="2.43003">
        <ele>605.59997558594</ele>
        <time>2023-06-01T10:21:08.000Z</time>
      </trkpt>
      <trkpt lat="43.56634" lon="2.42998">
        <ele>605.40002441406</ele>
        <time>2023-06-01T10:21:16.000Z</time>
      </trkpt>
      <trkpt lat="43.56634" lon="2.42998">
        <ele>605.59997558594</ele>
        <time>2023-06-01T10:21:23.000Z</time>
      </trkpt>
      <trkpt lat="43.56632" lon="2.42989">
        <ele>605.40002441406</ele>
        <time>2023-06-01T10:21:33.000Z</time>
      </trkpt>
      <trkpt lat="43.56631" lon="2.42986">
        <ele>605.40002441406</ele>
        <time>2023-06-01T10:21:40.000Z</time>
      </trkpt>
      <trkpt lat="43.56629" lon="2.42982">
        <ele>605.20001220703</ele>
        <time>2023-06-01T10:21:50.000Z</time>
      </trkpt>
      <trkpt lat="43.56623" lon="2.42975">
        <ele>605.40002441406</ele>
        <time>2023-06-01T10:21:57.000Z</time>
      </trkpt>
      <trkpt lat="43.56617" lon="2.42972">
        <ele>605.40002441406</ele>
        <time>2023-06-01T10:22:04.000Z</time>
      </trkpt>
      <trkpt lat="43.56609" lon="2.4297">
        <ele>605.59997558594</ele>
        <time>2023-06-01T10:22:12.000Z</time>
      </trkpt>
      <trkpt lat="43.56605" lon="2.42971">
        <ele>605.79998779297</ele>
        <time>2023-06-01T10:22:19.000Z</time>
      </trkpt>
      <trkpt lat="43.56607" lon="2.42964">
        <ele>605.59997558594</ele>
        <time>2023-06-01T10:22:25.000Z</time>
      </trkpt>
      <trkpt lat="43.56606" lon="2.42956">
        <ele>605.20001220703</ele>
        <time>2023-06-01T10:22:30.000Z</time>
      </trkpt>
      <trkpt lat="43.56605" lon="2.42955">
        <ele>605</ele>
        <time>2023-06-01T10:22:31.000Z</time>
      </trkpt>
      <trkpt lat="43.56602" lon="2.42943">
        <ele>604.59997558594</ele>
        <time>2023-06-01T10:22:39.000Z</time>
      </trkpt>
      <trkpt lat="43.56601" lon="2.42929">
        <ele>605</ele>
        <time>2023-06-01T10:22:48.000Z</time>
      </trkpt>
      <trkpt lat="43.56601" lon="2.42923">
        <ele>605.20001220703</ele>
        <time>2023-06-01T10:22:53.000Z</time>
      </trkpt>
      <trkpt lat="43.56601" lon="2.42921">
        <ele>605.20001220703</ele>
        <time>2023-06-01T10:22:55.000Z</time>
      </trkpt>
      <trkpt lat="43.566" lon="2.4292">
        <ele>605</ele>
        <time>2023-06-01T10:22:57.000Z</time>
      </trkpt>
      <trkpt lat="43.56599" lon="2.42913">
        <ele>605.20001220703</ele>
        <time>2023-06-01T10:23:03.000Z</time>
      </trkpt>
      <trkpt lat="43.56599" lon="2.42903">
        <ele>605.20001220703</ele>
        <time>2023-06-01T10:23:12.000Z</time>
      </trkpt>
      <trkpt lat="43.56599" lon="2.42893">
        <ele>605.59997558594</ele>
        <time>2023-06-01T10:23:20.000Z</time>
      </trkpt>
      <trkpt lat="43.566" lon="2.4289">
        <ele>605.59997558594</ele>
        <time>2023-06-01T10:23:23.000Z</time>
      </trkpt>
      <trkpt lat="43.566" lon="2.42886">
        <ele>605.79998779297</ele>
        <time>2023-06-01T10:23:27.000Z</time>
      </trkpt>
      <trkpt lat="43.56601" lon="2.42881">
        <ele>605.40002441406</ele>
        <time>2023-06-01T10:23:33.000Z</time>
      </trkpt>
      <trkpt lat="43.56601" lon="2.42871">
        <ele>605.59997558594</ele>
        <time>2023-06-01T10:23:41.000Z</time>
      </trkpt>
      <trkpt lat="43.56602" lon="2.42864">
        <ele>606</ele>
        <time>2023-06-01T10:23:47.000Z</time>
      </trkpt>
      <trkpt lat="43.56602" lon="2.42863">
        <ele>606.20001220703</ele>
        <time>2023-06-01T10:23:48.000Z</time>
      </trkpt>
      <trkpt lat="43.56601" lon="2.42855">
        <ele>607.20001220703</ele>
        <time>2023-06-01T10:23:54.000Z</time>
      </trkpt>
      <trkpt lat="43.56601" lon="2.42851">
        <ele>606.79998779297</ele>
        <time>2023-06-01T10:23:57.000Z</time>
      </trkpt>
      <trkpt lat="43.56601" lon="2.42845">
        <ele>606.40002441406</ele>
        <time>2023-06-01T10:24:01.000Z</time>
      </trkpt>
      <trkpt lat="43.56602" lon="2.42835">
        <ele>606.59997558594</ele>
        <time>2023-06-01T10:24:09.000Z</time>
      </trkpt>
      <trkpt lat="43.56602" lon="2.42828">
        <ele>606.40002441406</ele>
        <time>2023-06-01T10:24:17.000Z</time>
      </trkpt>
      <trkpt lat="43.56602" lon="2.42822">
        <ele>607</ele>
        <time>2023-06-01T10:24:22.000Z</time>
      </trkpt>
      <trkpt lat="43.56602" lon="2.42819">
        <ele>607</ele>
        <time>2023-06-01T10:24:28.000Z</time>
      </trkpt>
      <trkpt lat="43.56601" lon="2.42811">
        <ele>607</ele>
        <time>2023-06-01T10:24:34.000Z</time>
      </trkpt>
      <trkpt lat="43.566" lon="2.42803">
        <ele>606.79998779297</ele>
        <time>2023-06-01T10:24:40.000Z</time>
      </trkpt>
      <trkpt lat="43.566" lon="2.42791">
        <ele>607</ele>
        <time>2023-06-01T10:24:47.000Z</time>
      </trkpt>
      <trkpt lat="43.56599" lon="2.42787">
        <ele>607.20001220703</ele>
        <time>2023-06-01T10:24:49.000Z</time>
      </trkpt>
      <trkpt lat="43.56599" lon="2.42785">
        <ele>607.40002441406</ele>
        <time>2023-06-01T10:24:50.000Z</time>
      </trkpt>
      <trkpt lat="43.566" lon="2.4278">
        <ele>607.40002441406</ele>
        <time>2023-06-01T10:24:54.000Z</time>
      </trkpt>
      <trkpt lat="43.566" lon="2.42777">
        <ele>607</ele>
        <time>2023-06-01T10:24:56.000Z</time>
      </trkpt>
      <trkpt lat="43.566" lon="2.42776">
        <ele>607.59997558594</ele>
        <time>2023-06-01T10:25:00.000Z</time>
      </trkpt>
      <trkpt lat="43.566" lon="2.42768">
        <ele>607.59997558594</ele>
        <time>2023-06-01T10:25:07.000Z</time>
      </trkpt>
      <trkpt lat="43.566" lon="2.42765">
        <ele>607.79998779297</ele>
        <time>2023-06-01T10:25:14.000Z</time>
      </trkpt>
      <trkpt lat="43.566" lon="2.42759">
        <ele>607.79998779297</ele>
        <time>2023-06-01T10:25:22.000Z</time>
      </trkpt>
      <trkpt lat="43.566" lon="2.4275">
        <ele>608.20001220703</ele>
        <time>2023-06-01T10:25:29.000Z</time>
      </trkpt>
      <trkpt lat="43.56599" lon="2.42748">
        <ele>608.20001220703</ele>
        <time>2023-06-01T10:25:35.000Z</time>
      </trkpt>
      <trkpt lat="43.56599" lon="2.42743">
        <ele>608</ele>
        <time>2023-06-01T10:25:42.000Z</time>
      </trkpt>
      <trkpt lat="43.566" lon="2.42736">
        <ele>608.20001220703</ele>
        <time>2023-06-01T10:25:49.000Z</time>
      </trkpt>
      <trkpt lat="43.56599" lon="2.42735">
        <ele>608.40002441406</ele>
        <time>2023-06-01T10:25:56.000Z</time>
      </trkpt>
      <trkpt lat="43.56598" lon="2.42731">
        <ele>608.40002441406</ele>
        <time>2023-06-01T10:26:01.000Z</time>
      </trkpt>
      <trkpt lat="43.56597" lon="2.42729">
        <ele>608.59997558594</ele>
        <time>2023-06-01T10:26:03.000Z</time>
      </trkpt>
      <trkpt lat="43.56596" lon="2.42728">
        <ele>608.59997558594</ele>
        <time>2023-06-01T10:26:11.000Z</time>
      </trkpt>
      <trkpt lat="43.56594" lon="2.42726">
        <ele>608.40002441406</ele>
        <time>2023-06-01T10:26:24.000Z</time>
      </trkpt>
      <trkpt lat="43.56594" lon="2.42725">
        <ele>608.40002441406</ele>
        <time>2023-06-01T10:26:34.000Z</time>
      </trkpt>
      <trkpt lat="43.56594" lon="2.42722">
        <ele>608</ele>
        <time>2023-06-01T10:26:42.000Z</time>
      </trkpt>
      <trkpt lat="43.56594" lon="2.42715">
        <ele>608</ele>
        <time>2023-06-01T10:26:49.000Z</time>
      </trkpt>
      <trkpt lat="43.56594" lon="2.42707">
        <ele>608</ele>
        <time>2023-06-01T10:26:55.000Z</time>
      </trkpt>
      <trkpt lat="43.56592" lon="2.42693">
        <ele>607.79998779297</ele>
        <time>2023-06-01T10:27:04.000Z</time>
      </trkpt>
      <trkpt lat="43.5659" lon="2.42682">
        <ele>608</ele>
        <time>2023-06-01T10:27:11.000Z</time>
      </trkpt>
      <trkpt lat="43.56587" lon="2.4267">
        <ele>607.79998779297</ele>
        <time>2023-06-01T10:27:19.000Z</time>
      </trkpt>
      <trkpt lat="43.56586" lon="2.42659">
        <ele>608</ele>
        <time>2023-06-01T10:27:26.000Z</time>
      </trkpt>
      <trkpt lat="43.56584" lon="2.42649">
        <ele>608.79998779297</ele>
        <time>2023-06-01T10:27:33.000Z</time>
      </trkpt>
      <trkpt lat="43.56583" lon="2.42639">
        <ele>608.79998779297</ele>
        <time>2023-06-01T10:27:40.000Z</time>
      </trkpt>
      <trkpt lat="43.56581" lon="2.42624">
        <ele>608.79998779297</ele>
        <time>2023-06-01T10:27:50.000Z</time>
      </trkpt>
      <trkpt lat="43.56582" lon="2.42615">
        <ele>609.20001220703</ele>
        <time>2023-06-01T10:27:57.000Z</time>
      </trkpt>
      <trkpt lat="43.56582" lon="2.42606">
        <ele>609.40002441406</ele>
        <time>2023-06-01T10:28:03.000Z</time>
      </trkpt>
      <trkpt lat="43.56582" lon="2.42597">
        <ele>609.40002441406</ele>
        <time>2023-06-01T10:28:09.000Z</time>
      </trkpt>
      <trkpt lat="43.56582" lon="2.42591">
        <ele>609.40002441406</ele>
        <time>2023-06-01T10:28:13.000Z</time>
      </trkpt>
      <trkpt lat="43.56581" lon="2.4258">
        <ele>609.40002441406</ele>
        <time>2023-06-01T10:28:21.000Z</time>
      </trkpt>
      <trkpt lat="43.56581" lon="2.42566">
        <ele>609.79998779297</ele>
        <time>2023-06-01T10:28:30.000Z</time>
      </trkpt>
      <trkpt lat="43.56583" lon="2.42552">
        <ele>609.20001220703</ele>
        <time>2023-06-01T10:28:39.000Z</time>
      </trkpt>
      <trkpt lat="43.56584" lon="2.42538">
        <ele>609.20001220703</ele>
        <time>2023-06-01T10:28:48.000Z</time>
      </trkpt>
      <trkpt lat="43.56585" lon="2.42524">
        <ele>609.40002441406</ele>
        <time>2023-06-01T10:28:57.000Z</time>
      </trkpt>
      <trkpt lat="43.56585" lon="2.4251">
        <ele>609.20001220703</ele>
        <time>2023-06-01T10:29:06.000Z</time>
      </trkpt>
      <trkpt lat="43.56587" lon="2.42495">
        <ele>609.59997558594</ele>
        <time>2023-06-01T10:29:16.000Z</time>
      </trkpt>
      <trkpt lat="43.56588" lon="2.42486">
        <ele>609.79998779297</ele>
        <time>2023-06-01T10:29:22.000Z</time>
      </trkpt>
      <trkpt lat="43.56587" lon="2.42476">
        <ele>610.20001220703</ele>
        <time>2023-06-01T10:29:29.000Z</time>
      </trkpt>
      <trkpt lat="43.56586" lon="2.42464">
        <ele>610.20001220703</ele>
        <time>2023-06-01T10:29:37.000Z</time>
      </trkpt>
      <trkpt lat="43.56586" lon="2.42454">
        <ele>610.20001220703</ele>
        <time>2023-06-01T10:29:44.000Z</time>
      </trkpt>
      <trkpt lat="43.56586" lon="2.4244">
        <ele>610.20001220703</ele>
        <time>2023-06-01T10:29:53.000Z</time>
      </trkpt>
      <trkpt lat="43.56585" lon="2.4243">
        <ele>610.20001220703</ele>
        <time>2023-06-01T10:30:01.000Z</time>
      </trkpt>
      <trkpt lat="43.56585" lon="2.4242">
        <ele>610.40002441406</ele>
        <time>2023-06-01T10:30:08.000Z</time>
      </trkpt>
      <trkpt lat="43.56586" lon="2.42408">
        <ele>610.40002441406</ele>
        <time>2023-06-01T10:30:17.000Z</time>
      </trkpt>
      <trkpt lat="43.56586" lon="2.42395">
        <ele>610.59997558594</ele>
        <time>2023-06-01T10:30:26.000Z</time>
      </trkpt>
      <trkpt lat="43.56586" lon="2.42384">
        <ele>610.59997558594</ele>
        <time>2023-06-01T10:30:34.000Z</time>
      </trkpt>
      <trkpt lat="43.56586" lon="2.42381">
        <ele>610.20001220703</ele>
        <time>2023-06-01T10:30:36.000Z</time>
      </trkpt>
      <trkpt lat="43.56586" lon="2.42375">
        <ele>610.40002441406</ele>
        <time>2023-06-01T10:30:40.000Z</time>
      </trkpt>
      <trkpt lat="43.56587" lon="2.42371">
        <ele>610</ele>
        <time>2023-06-01T10:30:43.000Z</time>
      </trkpt>
      <trkpt lat="43.56586" lon="2.42364">
        <ele>609.59997558594</ele>
        <time>2023-06-01T10:30:48.000Z</time>
      </trkpt>
      <trkpt lat="43.56586" lon="2.42358">
        <ele>609.40002441406</ele>
        <time>2023-06-01T10:30:53.000Z</time>
      </trkpt>
      <trkpt lat="43.56586" lon="2.42357">
        <ele>609.40002441406</ele>
        <time>2023-06-01T10:30:54.000Z</time>
      </trkpt>
      <trkpt lat="43.56585" lon="2.42356">
        <ele>609</ele>
        <time>2023-06-01T10:30:55.000Z</time>
      </trkpt>
      <trkpt lat="43.56585" lon="2.4235">
        <ele>608.20001220703</ele>
        <time>2023-06-01T10:30:59.000Z</time>
      </trkpt>
      <trkpt lat="43.56584" lon="2.42349">
        <ele>608</ele>
        <time>2023-06-01T10:31:00.000Z</time>
      </trkpt>
      <trkpt lat="43.56584" lon="2.42346">
        <ele>607.79998779297</ele>
        <time>2023-06-01T10:31:02.000Z</time>
      </trkpt>
      <trkpt lat="43.56582" lon="2.42339">
        <ele>608.20001220703</ele>
        <time>2023-06-01T10:31:09.000Z</time>
      </trkpt>
      <trkpt lat="43.56579" lon="2.42329">
        <ele>607.20001220703</ele>
        <time>2023-06-01T10:31:17.000Z</time>
      </trkpt>
      <trkpt lat="43.56579" lon="2.42328">
        <ele>607</ele>
        <time>2023-06-01T10:31:18.000Z</time>
      </trkpt>
      <trkpt lat="43.56576" lon="2.42319">
        <ele>606.79998779297</ele>
        <time>2023-06-01T10:31:25.000Z</time>
      </trkpt>
      <trkpt lat="43.56574" lon="2.42314">
        <ele>606</ele>
        <time>2023-06-01T10:31:33.000Z</time>
      </trkpt>
      <trkpt lat="43.5657" lon="2.42309">
        <ele>605.79998779297</ele>
        <time>2023-06-01T10:31:45.000Z</time>
      </trkpt>
      <trkpt lat="43.56566" lon="2.42294">
        <ele>605.40002441406</ele>
        <time>2023-06-01T10:31:55.000Z</time>
      </trkpt>
      <trkpt lat="43.56563" lon="2.42284">
        <ele>605.20001220703</ele>
        <time>2023-06-01T10:32:03.000Z</time>
      </trkpt>
      <trkpt lat="43.56563" lon="2.42284">
        <ele>605</ele>
        <time>2023-06-01T10:32:05.000Z</time>
      </trkpt>
      <trkpt lat="43.56562" lon="2.42283">
        <ele>604.79998779297</ele>
        <time>2023-06-01T10:32:10.000Z</time>
      </trkpt>
      <trkpt lat="43.5656" lon="2.42278">
        <ele>604.79998779297</ele>
        <time>2023-06-01T10:32:18.000Z</time>
      </trkpt>
      <trkpt lat="43.56557" lon="2.42269">
        <ele>604</ele>
        <time>2023-06-01T10:32:24.000Z</time>
      </trkpt>
      <trkpt lat="43.56555" lon="2.42267">
        <ele>604</ele>
        <time>2023-06-01T10:32:26.000Z</time>
      </trkpt>
      <trkpt lat="43.56551" lon="2.42254">
        <ele>604.40002441406</ele>
        <time>2023-06-01T10:32:35.000Z</time>
      </trkpt>
      <trkpt lat="43.56547" lon="2.42245">
        <ele>604.20001220703</ele>
        <time>2023-06-01T10:32:42.000Z</time>
      </trkpt>
      <trkpt lat="43.56545" lon="2.42242">
        <ele>603.40002441406</ele>
        <time>2023-06-01T10:32:45.000Z</time>
      </trkpt>
      <trkpt lat="43.56543" lon="2.42238">
        <ele>603</ele>
        <time>2023-06-01T10:32:48.000Z</time>
      </trkpt>
      <trkpt lat="43.56539" lon="2.42232">
        <ele>602.79998779297</ele>
        <time>2023-06-01T10:32:55.000Z</time>
      </trkpt>
      <trkpt lat="43.56536" lon="2.42227">
        <ele>602.79998779297</ele>
        <time>2023-06-01T10:33:01.000Z</time>
      </trkpt>
      <trkpt lat="43.56531" lon="2.42218">
        <ele>602.40002441406</ele>
        <time>2023-06-01T10:33:09.000Z</time>
      </trkpt>
      <trkpt lat="43.56529" lon="2.42214">
        <ele>601.79998779297</ele>
        <time>2023-06-01T10:33:13.000Z</time>
      </trkpt>
      <trkpt lat="43.56527" lon="2.42211">
        <ele>601.20001220703</ele>
        <time>2023-06-01T10:33:17.000Z</time>
      </trkpt>
      <trkpt lat="43.56527" lon="2.42209">
        <ele>601.20001220703</ele>
        <time>2023-06-01T10:33:18.000Z</time>
      </trkpt>
      <trkpt lat="43.56524" lon="2.42204">
        <ele>602</ele>
        <time>2023-06-01T10:33:23.000Z</time>
      </trkpt>
      <trkpt lat="43.5652" lon="2.42197">
        <ele>602</ele>
        <time>2023-06-01T10:33:31.000Z</time>
      </trkpt>
      <trkpt lat="43.56517" lon="2.42191">
        <ele>602</ele>
        <time>2023-06-01T10:33:37.000Z</time>
      </trkpt>
      <trkpt lat="43.56516" lon="2.4219">
        <ele>601.79998779297</ele>
        <time>2023-06-01T10:33:38.000Z</time>
      </trkpt>
      <trkpt lat="43.56513" lon="2.42186">
        <ele>600.79998779297</ele>
        <time>2023-06-01T10:33:42.000Z</time>
      </trkpt>
      <trkpt lat="43.56514" lon="2.42184">
        <ele>600</ele>
        <time>2023-06-01T10:33:44.000Z</time>
      </trkpt>
      <trkpt lat="43.56514" lon="2.42183">
        <ele>599.79998779297</ele>
        <time>2023-06-01T10:33:45.000Z</time>
      </trkpt>
      <trkpt lat="43.56513" lon="2.42179">
        <ele>600.40002441406</ele>
        <time>2023-06-01T10:33:49.000Z</time>
      </trkpt>
      <trkpt lat="43.56513" lon="2.42177">
        <ele>600.79998779297</ele>
        <time>2023-06-01T10:33:50.000Z</time>
      </trkpt>
      <trkpt lat="43.56513" lon="2.42175">
        <ele>601.79998779297</ele>
        <time>2023-06-01T10:33:53.000Z</time>
      </trkpt>
      <trkpt lat="43.56513" lon="2.42173">
        <ele>601.79998779297</ele>
        <time>2023-06-01T10:33:54.000Z</time>
      </trkpt>
      <trkpt lat="43.56515" lon="2.42169">
        <ele>602</ele>
        <time>2023-06-01T10:33:59.000Z</time>
      </trkpt>
      <trkpt lat="43.56516" lon="2.42163">
        <ele>602.40002441406</ele>
        <time>2023-06-01T10:34:05.000Z</time>
      </trkpt>
      <trkpt lat="43.56515" lon="2.42155">
        <ele>602.40002441406</ele>
        <time>2023-06-01T10:34:11.000Z</time>
      </trkpt>
      <trkpt lat="43.56513" lon="2.42151">
        <ele>602.20001220703</ele>
        <time>2023-06-01T10:34:16.000Z</time>
      </trkpt>
      <trkpt lat="43.56513" lon="2.42149">
        <ele>602.20001220703</ele>
        <time>2023-06-01T10:34:17.000Z</time>
      </trkpt>
      <trkpt lat="43.56512" lon="2.42145">
        <ele>602.20001220703</ele>
        <time>2023-06-01T10:34:20.000Z</time>
      </trkpt>
      <trkpt lat="43.56512" lon="2.42144">
        <ele>602.20001220703</ele>
        <time>2023-06-01T10:34:21.000Z</time>
      </trkpt>
      <trkpt lat="43.56512" lon="2.42138">
        <ele>602.20001220703</ele>
        <time>2023-06-01T10:34:26.000Z</time>
      </trkpt>
      <trkpt lat="43.56512" lon="2.42136">
        <ele>602.20001220703</ele>
        <time>2023-06-01T10:34:27.000Z</time>
      </trkpt>
      <trkpt lat="43.56511" lon="2.4213">
        <ele>602.20001220703</ele>
        <time>2023-06-01T10:34:31.000Z</time>
      </trkpt>
      <trkpt lat="43.5651" lon="2.42127">
        <ele>602.20001220703</ele>
        <time>2023-06-01T10:34:33.000Z</time>
      </trkpt>
      <trkpt lat="43.56509" lon="2.42118">
        <ele>602.59997558594</ele>
        <time>2023-06-01T10:34:38.000Z</time>
      </trkpt>
      <trkpt lat="43.5651" lon="2.42114">
        <ele>602.59997558594</ele>
        <time>2023-06-01T10:34:41.000Z</time>
      </trkpt>
      <trkpt lat="43.5651" lon="2.42109">
        <ele>602.79998779297</ele>
        <time>2023-06-01T10:34:47.000Z</time>
      </trkpt>
      <trkpt lat="43.5651" lon="2.42106">
        <ele>603</ele>
        <time>2023-06-01T10:34:49.000Z</time>
      </trkpt>
      <trkpt lat="43.5651" lon="2.42102">
        <ele>603.20001220703</ele>
        <time>2023-06-01T10:34:53.000Z</time>
      </trkpt>
      <trkpt lat="43.5651" lon="2.42096">
        <ele>603.40002441406</ele>
        <time>2023-06-01T10:34:58.000Z</time>
      </trkpt>
      <trkpt lat="43.5651" lon="2.42087">
        <ele>603.20001220703</ele>
        <time>2023-06-01T10:35:04.000Z</time>
      </trkpt>
      <trkpt lat="43.5651" lon="2.42084">
        <ele>603.40002441406</ele>
        <time>2023-06-01T10:35:06.000Z</time>
      </trkpt>
      <trkpt lat="43.5651" lon="2.42077">
        <ele>603.20001220703</ele>
        <time>2023-06-01T10:35:11.000Z</time>
      </trkpt>
      <trkpt lat="43.56511" lon="2.42076">
        <ele>603.20001220703</ele>
        <time>2023-06-01T10:35:12.000Z</time>
      </trkpt>
      <trkpt lat="43.5651" lon="2.42071">
        <ele>603.59997558594</ele>
        <time>2023-06-01T10:35:17.000Z</time>
      </trkpt>
      <trkpt lat="43.56511" lon="2.42064">
        <ele>603.40002441406</ele>
        <time>2023-06-01T10:35:22.000Z</time>
      </trkpt>
      <trkpt lat="43.56514" lon="2.42056">
        <ele>604</ele>
        <time>2023-06-01T10:35:28.000Z</time>
      </trkpt>
      <trkpt lat="43.56518" lon="2.42049">
        <ele>604.20001220703</ele>
        <time>2023-06-01T10:35:34.000Z</time>
      </trkpt>
      <trkpt lat="43.5652" lon="2.42044">
        <ele>604.20001220703</ele>
        <time>2023-06-01T10:35:38.000Z</time>
      </trkpt>
      <trkpt lat="43.56522" lon="2.4204">
        <ele>604.40002441406</ele>
        <time>2023-06-01T10:35:41.000Z</time>
      </trkpt>
      <trkpt lat="43.56524" lon="2.42038">
        <ele>604.79998779297</ele>
        <time>2023-06-01T10:35:44.000Z</time>
      </trkpt>
      <trkpt lat="43.56525" lon="2.42036">
        <ele>605</ele>
        <time>2023-06-01T10:35:45.000Z</time>
      </trkpt>
      <trkpt lat="43.56527" lon="2.42034">
        <ele>605.40002441406</ele>
        <time>2023-06-01T10:35:47.000Z</time>
      </trkpt>
      <trkpt lat="43.56528" lon="2.42033">
        <ele>605.40002441406</ele>
        <time>2023-06-01T10:35:48.000Z</time>
      </trkpt>
      <trkpt lat="43.56531" lon="2.42028">
        <ele>605</ele>
        <time>2023-06-01T10:35:53.000Z</time>
      </trkpt>
      <trkpt lat="43.56534" lon="2.42024">
        <ele>605</ele>
        <time>2023-06-01T10:35:56.000Z</time>
      </trkpt>
      <trkpt lat="43.56534" lon="2.42022">
        <ele>605</ele>
        <time>2023-06-01T10:35:57.000Z</time>
      </trkpt>
      <trkpt lat="43.56536" lon="2.42019">
        <ele>605.20001220703</ele>
        <time>2023-06-01T10:36:00.000Z</time>
      </trkpt>
      <trkpt lat="43.56537" lon="2.42015">
        <ele>605.20001220703</ele>
        <time>2023-06-01T10:36:02.000Z</time>
      </trkpt>
      <trkpt lat="43.56538" lon="2.42013">
        <ele>605.40002441406</ele>
        <time>2023-06-01T10:36:04.000Z</time>
      </trkpt>
      <trkpt lat="43.56539" lon="2.4201">
        <ele>605.59997558594</ele>
        <time>2023-06-01T10:36:06.000Z</time>
      </trkpt>
      <trkpt lat="43.5654" lon="2.42007">
        <ele>605.79998779297</ele>
        <time>2023-06-01T10:36:08.000Z</time>
      </trkpt>
      <trkpt lat="43.5654" lon="2.42005">
        <ele>606.20001220703</ele>
        <time>2023-06-01T10:36:10.000Z</time>
      </trkpt>
      <trkpt lat="43.56542" lon="2.42002">
        <ele>606.79998779297</ele>
        <time>2023-06-01T10:36:13.000Z</time>
      </trkpt>
      <trkpt lat="43.56544" lon="2.41999">
        <ele>607.20001220703</ele>
        <time>2023-06-01T10:36:17.000Z</time>
      </trkpt>
      <trkpt lat="43.56545" lon="2.41997">
        <ele>607.20001220703</ele>
        <time>2023-06-01T10:36:20.000Z</time>
      </trkpt>
      <trkpt lat="43.56549" lon="2.41994">
        <ele>607.59997558594</ele>
        <time>2023-06-01T10:36:24.000Z</time>
      </trkpt>
      <trkpt lat="43.56551" lon="2.41989">
        <ele>607.79998779297</ele>
        <time>2023-06-01T10:36:29.000Z</time>
      </trkpt>
      <trkpt lat="43.56551" lon="2.41988">
        <ele>607.79998779297</ele>
        <time>2023-06-01T10:36:31.000Z</time>
      </trkpt>
      <trkpt lat="43.56553" lon="2.41986">
        <ele>607.79998779297</ele>
        <time>2023-06-01T10:36:32.000Z</time>
      </trkpt>
      <trkpt lat="43.56554" lon="2.41984">
        <ele>608</ele>
        <time>2023-06-01T10:36:38.000Z</time>
      </trkpt>
      <trkpt lat="43.56553" lon="2.41986">
        <ele>608.20001220703</ele>
        <time>2023-06-01T10:36:41.000Z</time>
      </trkpt>
      <trkpt lat="43.56554" lon="2.41986">
        <ele>608.20001220703</ele>
        <time>2023-06-01T10:36:47.000Z</time>
      </trkpt>
      <trkpt lat="43.56555" lon="2.41975">
        <ele>607.40002441406</ele>
        <time>2023-06-01T10:36:54.000Z</time>
      </trkpt>
      <trkpt lat="43.56555" lon="2.41973">
        <ele>607.79998779297</ele>
        <time>2023-06-01T10:37:02.000Z</time>
      </trkpt>
      <trkpt lat="43.56555" lon="2.41971">
        <ele>608</ele>
        <time>2023-06-01T10:37:11.000Z</time>
      </trkpt>
      <trkpt lat="43.56554" lon="2.41971">
        <ele>608.20001220703</ele>
        <time>2023-06-01T10:37:17.000Z</time>
      </trkpt>
      <trkpt lat="43.56554" lon="2.41968">
        <ele>608.40002441406</ele>
        <time>2023-06-01T10:37:28.000Z</time>
      </trkpt>
      <trkpt lat="43.56553" lon="2.41968">
        <ele>608.20001220703</ele>
        <time>2023-06-01T10:37:37.000Z</time>
      </trkpt>
      <trkpt lat="43.56552" lon="2.41962">
        <ele>608.40002441406</ele>
        <time>2023-06-01T10:37:46.000Z</time>
      </trkpt>
      <trkpt lat="43.56555" lon="2.41956">
        <ele>607.59997558594</ele>
        <time>2023-06-01T10:37:53.000Z</time>
      </trkpt>
      <trkpt lat="43.56556" lon="2.4195">
        <ele>608.40002441406</ele>
        <time>2023-06-01T10:37:59.000Z</time>
      </trkpt>
      <trkpt lat="43.56558" lon="2.41945">
        <ele>608.79998779297</ele>
        <time>2023-06-01T10:38:05.000Z</time>
      </trkpt>
      <trkpt lat="43.5656" lon="2.4194">
        <ele>608.79998779297</ele>
        <time>2023-06-01T10:38:09.000Z</time>
      </trkpt>
      <trkpt lat="43.56561" lon="2.41938">
        <ele>609</ele>
        <time>2023-06-01T10:38:11.000Z</time>
      </trkpt>
      <trkpt lat="43.56567" lon="2.41928">
        <ele>609</ele>
        <time>2023-06-01T10:38:19.000Z</time>
      </trkpt>
      <trkpt lat="43.56567" lon="2.41926">
        <ele>608.79998779297</ele>
        <time>2023-06-01T10:38:20.000Z</time>
      </trkpt>
      <trkpt lat="43.56568" lon="2.41926">
        <ele>608.79998779297</ele>
        <time>2023-06-01T10:38:21.000Z</time>
      </trkpt>
      <trkpt lat="43.56571" lon="2.41919">
        <ele>608.20001220703</ele>
        <time>2023-06-01T10:38:26.000Z</time>
      </trkpt>
      <trkpt lat="43.56575" lon="2.41911">
        <ele>608.59997558594</ele>
        <time>2023-06-01T10:38:33.000Z</time>
      </trkpt>
      <trkpt lat="43.56577" lon="2.41907">
        <ele>609.20001220703</ele>
        <time>2023-06-01T10:38:37.000Z</time>
      </trkpt>
      <trkpt lat="43.56577" lon="2.41905">
        <ele>609.40002441406</ele>
        <time>2023-06-01T10:38:38.000Z</time>
      </trkpt>
      <trkpt lat="43.56586" lon="2.41892">
        <ele>609.20001220703</ele>
        <time>2023-06-01T10:38:50.000Z</time>
      </trkpt>
      <trkpt lat="43.56589" lon="2.41888">
        <ele>608.40002441406</ele>
        <time>2023-06-01T10:38:54.000Z</time>
      </trkpt>
      <trkpt lat="43.56593" lon="2.41883">
        <ele>607.40002441406</ele>
        <time>2023-06-01T10:38:59.000Z</time>
      </trkpt>
      <trkpt lat="43.56594" lon="2.41882">
        <ele>607.40002441406</ele>
        <time>2023-06-01T10:39:00.000Z</time>
      </trkpt>
      <trkpt lat="43.56598" lon="2.41877">
        <ele>607.59997558594</ele>
        <time>2023-06-01T10:39:05.000Z</time>
      </trkpt>
      <trkpt lat="43.566" lon="2.41875">
        <ele>607.79998779297</ele>
        <time>2023-06-01T10:39:07.000Z</time>
      </trkpt>
      <trkpt lat="43.56601" lon="2.41873">
        <ele>607.40002441406</ele>
        <time>2023-06-01T10:39:09.000Z</time>
      </trkpt>
      <trkpt lat="43.56606" lon="2.41868">
        <ele>606.79998779297</ele>
        <time>2023-06-01T10:39:15.000Z</time>
      </trkpt>
      <trkpt lat="43.56613" lon="2.4186">
        <ele>606.20001220703</ele>
        <time>2023-06-01T10:39:22.000Z</time>
      </trkpt>
      <trkpt lat="43.56614" lon="2.41859">
        <ele>606.20001220703</ele>
        <time>2023-06-01T10:39:23.000Z</time>
      </trkpt>
      <trkpt lat="43.56619" lon="2.41852">
        <ele>605.59997558594</ele>
        <time>2023-06-01T10:39:30.000Z</time>
      </trkpt>
      <trkpt lat="43.56626" lon="2.41845">
        <ele>605.59997558594</ele>
        <time>2023-06-01T10:39:38.000Z</time>
      </trkpt>
      <trkpt lat="43.5663" lon="2.41839">
        <ele>605.20001220703</ele>
        <time>2023-06-01T10:39:43.000Z</time>
      </trkpt>
      <trkpt lat="43.56633" lon="2.41835">
        <ele>604.79998779297</ele>
        <time>2023-06-01T10:39:48.000Z</time>
      </trkpt>
      <trkpt lat="43.56637" lon="2.4183">
        <ele>604.20001220703</ele>
        <time>2023-06-01T10:39:53.000Z</time>
      </trkpt>
      <trkpt lat="43.56641" lon="2.41827">
        <ele>603.59997558594</ele>
        <time>2023-06-01T10:39:57.000Z</time>
      </trkpt>
      <trkpt lat="43.56642" lon="2.41825">
        <ele>603.20001220703</ele>
        <time>2023-06-01T10:39:59.000Z</time>
      </trkpt>
      <trkpt lat="43.56644" lon="2.41823">
        <ele>602.79998779297</ele>
        <time>2023-06-01T10:40:05.000Z</time>
      </trkpt>
      <trkpt lat="43.56648" lon="2.4182">
        <ele>602.59997558594</ele>
        <time>2023-06-01T10:40:10.000Z</time>
      </trkpt>
      <trkpt lat="43.56653" lon="2.41814">
        <ele>602.20001220703</ele>
        <time>2023-06-01T10:40:18.000Z</time>
      </trkpt>
      <trkpt lat="43.56659" lon="2.41807">
        <ele>601.20001220703</ele>
        <time>2023-06-01T10:40:26.000Z</time>
      </trkpt>
      <trkpt lat="43.5666" lon="2.41806">
        <ele>601.20001220703</ele>
        <time>2023-06-01T10:40:27.000Z</time>
      </trkpt>
      <trkpt lat="43.56664" lon="2.41802">
        <ele>600</ele>
        <time>2023-06-01T10:40:32.000Z</time>
      </trkpt>
      <trkpt lat="43.56668" lon="2.41798">
        <ele>599.79998779297</ele>
        <time>2023-06-01T10:40:37.000Z</time>
      </trkpt>
      <trkpt lat="43.56672" lon="2.41792">
        <ele>599</ele>
        <time>2023-06-01T10:40:44.000Z</time>
      </trkpt>
      <trkpt lat="43.56673" lon="2.41791">
        <ele>598.79998779297</ele>
        <time>2023-06-01T10:40:45.000Z</time>
      </trkpt>
      <trkpt lat="43.56678" lon="2.41786">
        <ele>598.20001220703</ele>
        <time>2023-06-01T10:40:51.000Z</time>
      </trkpt>
      <trkpt lat="43.5668" lon="2.41783">
        <ele>597.79998779297</ele>
        <time>2023-06-01T10:40:54.000Z</time>
      </trkpt>
      <trkpt lat="43.56684" lon="2.41779">
        <ele>596.79998779297</ele>
        <time>2023-06-01T10:40:59.000Z</time>
      </trkpt>
      <trkpt lat="43.56685" lon="2.41778">
        <ele>596.79998779297</ele>
        <time>2023-06-01T10:41:00.000Z</time>
      </trkpt>
      <trkpt lat="43.5669" lon="2.41773">
        <ele>595.59997558594</ele>
        <time>2023-06-01T10:41:07.000Z</time>
      </trkpt>
      <trkpt lat="43.56698" lon="2.41765">
        <ele>595.20001220703</ele>
        <time>2023-06-01T10:41:17.000Z</time>
      </trkpt>
      <trkpt lat="43.567" lon="2.41762">
        <ele>594.59997558594</ele>
        <time>2023-06-01T10:41:21.000Z</time>
      </trkpt>
      <trkpt lat="43.56703" lon="2.4176">
        <ele>594.40002441406</ele>
        <time>2023-06-01T10:41:25.000Z</time>
      </trkpt>
      <trkpt lat="43.56708" lon="2.41755">
        <ele>594</ele>
        <time>2023-06-01T10:41:32.000Z</time>
      </trkpt>
      <trkpt lat="43.5671" lon="2.41753">
        <ele>593.59997558594</ele>
        <time>2023-06-01T10:41:34.000Z</time>
      </trkpt>
      <trkpt lat="43.56716" lon="2.41748">
        <ele>592.59997558594</ele>
        <time>2023-06-01T10:41:41.000Z</time>
      </trkpt>
      <trkpt lat="43.56716" lon="2.41747">
        <ele>592.59997558594</ele>
        <time>2023-06-01T10:41:42.000Z</time>
      </trkpt>
      <trkpt lat="43.56722" lon="2.41743">
        <ele>592</ele>
        <time>2023-06-01T10:41:49.000Z</time>
      </trkpt>
      <trkpt lat="43.56728" lon="2.41739">
        <ele>591.59997558594</ele>
        <time>2023-06-01T10:41:55.000Z</time>
      </trkpt>
      <trkpt lat="43.56729" lon="2.41738">
        <ele>591.40002441406</ele>
        <time>2023-06-01T10:41:56.000Z</time>
      </trkpt>
      <trkpt lat="43.56736" lon="2.41732">
        <ele>590.79998779297</ele>
        <time>2023-06-01T10:42:05.000Z</time>
      </trkpt>
      <trkpt lat="43.5674" lon="2.41727">
        <ele>590.40002441406</ele>
        <time>2023-06-01T10:42:10.000Z</time>
      </trkpt>
      <trkpt lat="43.56742" lon="2.41724">
        <ele>590.20001220703</ele>
        <time>2023-06-01T10:42:13.000Z</time>
      </trkpt>
      <trkpt lat="43.56748" lon="2.41717">
        <ele>590</ele>
        <time>2023-06-01T10:42:20.000Z</time>
      </trkpt>
      <trkpt lat="43.56753" lon="2.4171">
        <ele>589.59997558594</ele>
        <time>2023-06-01T10:42:27.000Z</time>
      </trkpt>
      <trkpt lat="43.56756" lon="2.41706">
        <ele>589.20001220703</ele>
        <time>2023-06-01T10:42:30.000Z</time>
      </trkpt>
      <trkpt lat="43.5676" lon="2.417">
        <ele>588.79998779297</ele>
        <time>2023-06-01T10:42:36.000Z</time>
      </trkpt>
      <trkpt lat="43.56764" lon="2.41695">
        <ele>588.59997558594</ele>
        <time>2023-06-01T10:42:42.000Z</time>
      </trkpt>
      <trkpt lat="43.56768" lon="2.41689">
        <ele>588.59997558594</ele>
        <time>2023-06-01T10:42:49.000Z</time>
      </trkpt>
      <trkpt lat="43.56771" lon="2.41684">
        <ele>588.40002441406</ele>
        <time>2023-06-01T10:42:56.000Z</time>
      </trkpt>
      <trkpt lat="43.56774" lon="2.41681">
        <ele>588.20001220703</ele>
        <time>2023-06-01T10:43:03.000Z</time>
      </trkpt>
      <trkpt lat="43.56774" lon="2.41676">
        <ele>588.20001220703</ele>
        <time>2023-06-01T10:43:08.000Z</time>
      </trkpt>
      <trkpt lat="43.56775" lon="2.41674">
        <ele>588.20001220703</ele>
        <time>2023-06-01T10:43:10.000Z</time>
      </trkpt>
      <trkpt lat="43.56779" lon="2.41669">
        <ele>587.79998779297</ele>
        <time>2023-06-01T10:43:17.000Z</time>
      </trkpt>
      <trkpt lat="43.56782" lon="2.41662">
        <ele>587.59997558594</ele>
        <time>2023-06-01T10:43:24.000Z</time>
      </trkpt>
      <trkpt lat="43.56782" lon="2.41661">
        <ele>587.59997558594</ele>
        <time>2023-06-01T10:43:25.000Z</time>
      </trkpt>
      <trkpt lat="43.56785" lon="2.41655">
        <ele>587.40002441406</ele>
        <time>2023-06-01T10:43:30.000Z</time>
      </trkpt>
      <trkpt lat="43.56787" lon="2.41651">
        <ele>587.40002441406</ele>
        <time>2023-06-01T10:43:33.000Z</time>
      </trkpt>
      <trkpt lat="43.56791" lon="2.41641">
        <ele>587.20001220703</ele>
        <time>2023-06-01T10:43:41.000Z</time>
      </trkpt>
      <trkpt lat="43.56791" lon="2.41639">
        <ele>587.20001220703</ele>
        <time>2023-06-01T10:43:42.000Z</time>
      </trkpt>
      <trkpt lat="43.56794" lon="2.4163">
        <ele>587</ele>
        <time>2023-06-01T10:43:49.000Z</time>
      </trkpt>
      <trkpt lat="43.56801" lon="2.41619">
        <ele>586.79998779297</ele>
        <time>2023-06-01T10:43:58.000Z</time>
      </trkpt>
      <trkpt lat="43.5681" lon="2.41603">
        <ele>586.59997558594</ele>
        <time>2023-06-01T10:44:10.000Z</time>
      </trkpt>
      <trkpt lat="43.56815" lon="2.41595">
        <ele>586.40002441406</ele>
        <time>2023-06-01T10:44:17.000Z</time>
      </trkpt>
      <trkpt lat="43.56819" lon="2.41586">
        <ele>586.20001220703</ele>
        <time>2023-06-01T10:44:24.000Z</time>
      </trkpt>
      <trkpt lat="43.56823" lon="2.41577">
        <ele>586.20001220703</ele>
        <time>2023-06-01T10:44:31.000Z</time>
      </trkpt>
      <trkpt lat="43.56825" lon="2.41574">
        <ele>586</ele>
        <time>2023-06-01T10:44:33.000Z</time>
      </trkpt>
      <trkpt lat="43.56826" lon="2.41572">
        <ele>586</ele>
        <time>2023-06-01T10:44:35.000Z</time>
      </trkpt>
      <trkpt lat="43.56829" lon="2.41568">
        <ele>585.79998779297</ele>
        <time>2023-06-01T10:44:39.000Z</time>
      </trkpt>
      <trkpt lat="43.56832" lon="2.41559">
        <ele>585.40002441406</ele>
        <time>2023-06-01T10:44:46.000Z</time>
      </trkpt>
      <trkpt lat="43.56835" lon="2.41552">
        <ele>585</ele>
        <time>2023-06-01T10:44:51.000Z</time>
      </trkpt>
      <trkpt lat="43.56836" lon="2.41549">
        <ele>585</ele>
        <time>2023-06-01T10:44:53.000Z</time>
      </trkpt>
      <trkpt lat="43.56838" lon="2.41542">
        <ele>584.59997558594</ele>
        <time>2023-06-01T10:44:58.000Z</time>
      </trkpt>
      <trkpt lat="43.56839" lon="2.41539">
        <ele>584.40002441406</ele>
        <time>2023-06-01T10:45:00.000Z</time>
      </trkpt>
      <trkpt lat="43.56839" lon="2.41538">
        <ele>584.20001220703</ele>
        <time>2023-06-01T10:45:01.000Z</time>
      </trkpt>
      <trkpt lat="43.56841" lon="2.41536">
        <ele>584</ele>
        <time>2023-06-01T10:45:03.000Z</time>
      </trkpt>
      <trkpt lat="43.56842" lon="2.41531">
        <ele>583.79998779297</ele>
        <time>2023-06-01T10:45:06.000Z</time>
      </trkpt>
      <trkpt lat="43.56846" lon="2.41523">
        <ele>583.20001220703</ele>
        <time>2023-06-01T10:45:13.000Z</time>
      </trkpt>
      <trkpt lat="43.56849" lon="2.41518">
        <ele>583</ele>
        <time>2023-06-01T10:45:17.000Z</time>
      </trkpt>
      <trkpt lat="43.56851" lon="2.41512">
        <ele>582.79998779297</ele>
        <time>2023-06-01T10:45:21.000Z</time>
      </trkpt>
      <trkpt lat="43.56851" lon="2.41505">
        <ele>582.40002441406</ele>
        <time>2023-06-01T10:45:25.000Z</time>
      </trkpt>
      <trkpt lat="43.56853" lon="2.41502">
        <ele>582.20001220703</ele>
        <time>2023-06-01T10:45:27.000Z</time>
      </trkpt>
      <trkpt lat="43.56854" lon="2.415">
        <ele>582</ele>
        <time>2023-06-01T10:45:29.000Z</time>
      </trkpt>
      <trkpt lat="43.56854" lon="2.41499">
        <ele>581.79998779297</ele>
        <time>2023-06-01T10:45:30.000Z</time>
      </trkpt>
      <trkpt lat="43.56857" lon="2.41496">
        <ele>581.40002441406</ele>
        <time>2023-06-01T10:45:34.000Z</time>
      </trkpt>
      <trkpt lat="43.56857" lon="2.41494">
        <ele>581.20001220703</ele>
        <time>2023-06-01T10:45:35.000Z</time>
      </trkpt>
      <trkpt lat="43.56859" lon="2.41491">
        <ele>580.79998779297</ele>
        <time>2023-06-01T10:45:38.000Z</time>
      </trkpt>
      <trkpt lat="43.56861" lon="2.41489">
        <ele>580.59997558594</ele>
        <time>2023-06-01T10:45:40.000Z</time>
      </trkpt>
      <trkpt lat="43.56861" lon="2.41488">
        <ele>580.59997558594</ele>
        <time>2023-06-01T10:45:41.000Z</time>
      </trkpt>
      <trkpt lat="43.56864" lon="2.41483">
        <ele>579.79998779297</ele>
        <time>2023-06-01T10:45:45.000Z</time>
      </trkpt>
      <trkpt lat="43.56867" lon="2.41479">
        <ele>579.20001220703</ele>
        <time>2023-06-01T10:45:48.000Z</time>
      </trkpt>
      <trkpt lat="43.56869" lon="2.41474">
        <ele>578.59997558594</ele>
        <time>2023-06-01T10:45:52.000Z</time>
      </trkpt>
      <trkpt lat="43.5687" lon="2.4147">
        <ele>578</ele>
        <time>2023-06-01T10:45:56.000Z</time>
      </trkpt>
      <trkpt lat="43.56871" lon="2.41468">
        <ele>577.59997558594</ele>
        <time>2023-06-01T10:45:59.000Z</time>
      </trkpt>
      <trkpt lat="43.56872" lon="2.41465">
        <ele>576.79998779297</ele>
        <time>2023-06-01T10:46:03.000Z</time>
      </trkpt>
      <trkpt lat="43.56872" lon="2.41466">
        <ele>576.59997558594</ele>
        <time>2023-06-01T10:46:06.000Z</time>
      </trkpt>
      <trkpt lat="43.56872" lon="2.41464">
        <ele>576.20001220703</ele>
        <time>2023-06-01T10:46:12.000Z</time>
      </trkpt>
      <trkpt lat="43.56873" lon="2.41464">
        <ele>576.20001220703</ele>
        <time>2023-06-01T10:46:20.000Z</time>
      </trkpt>
      <trkpt lat="43.56873" lon="2.41464">
        <ele>576.20001220703</ele>
        <time>2023-06-01T10:46:29.000Z</time>
      </trkpt>
      <trkpt lat="43.56875" lon="2.41464">
        <ele>576.40002441406</ele>
        <time>2023-06-01T10:46:37.000Z</time>
      </trkpt>
      <trkpt lat="43.56876" lon="2.41464">
        <ele>576.40002441406</ele>
        <time>2023-06-01T10:46:50.000Z</time>
      </trkpt>
      <trkpt lat="43.56877" lon="2.41464">
        <ele>576.20001220703</ele>
        <time>2023-06-01T10:47:09.000Z</time>
      </trkpt>
      <trkpt lat="43.56878" lon="2.41464">
        <ele>576.20001220703</ele>
        <time>2023-06-01T10:47:17.000Z</time>
      </trkpt>
      <trkpt lat="43.56878" lon="2.41464">
        <ele>576.79998779297</ele>
        <time>2023-06-01T10:47:26.000Z</time>
      </trkpt>
      <trkpt lat="43.56878" lon="2.41464">
        <ele>576.79998779297</ele>
        <time>2023-06-01T10:47:33.000Z</time>
      </trkpt>
      <trkpt lat="43.56878" lon="2.41464">
        <ele>575.79998779297</ele>
        <time>2023-06-01T10:47:43.000Z</time>
      </trkpt>
      <trkpt lat="43.56878" lon="2.41463">
        <ele>576</ele>
        <time>2023-06-01T10:47:49.000Z</time>
      </trkpt>
      <trkpt lat="43.56877" lon="2.41463">
        <ele>575.79998779297</ele>
        <time>2023-06-01T10:47:58.000Z</time>
      </trkpt>
      <trkpt lat="43.56878" lon="2.41463">
        <ele>575.79998779297</ele>
        <time>2023-06-01T10:48:05.000Z</time>
      </trkpt>
      <trkpt lat="43.56878" lon="2.41462">
        <ele>575.59997558594</ele>
        <time>2023-06-01T10:48:10.000Z</time>
      </trkpt>
      <trkpt lat="43.56878" lon="2.41463">
        <ele>576</ele>
        <time>2023-06-01T10:48:19.000Z</time>
      </trkpt>
      <trkpt lat="43.56879" lon="2.41461">
        <ele>576.40002441406</ele>
        <time>2023-06-01T10:48:29.000Z</time>
      </trkpt>
      <trkpt lat="43.5688" lon="2.41461">
        <ele>576.79998779297</ele>
        <time>2023-06-01T10:48:34.000Z</time>
      </trkpt>
      <trkpt lat="43.5688" lon="2.41461">
        <ele>576.79998779297</ele>
        <time>2023-06-01T10:48:39.000Z</time>
      </trkpt>
      <trkpt lat="43.56881" lon="2.41461">
        <ele>576.40002441406</ele>
        <time>2023-06-01T10:48:45.000Z</time>
      </trkpt>
      <trkpt lat="43.56881" lon="2.41461">
        <ele>576.40002441406</ele>
        <time>2023-06-01T10:48:53.000Z</time>
      </trkpt>
      <trkpt lat="43.56881" lon="2.41461">
        <ele>576</ele>
        <time>2023-06-01T10:49:06.000Z</time>
      </trkpt>
      <trkpt lat="43.56883" lon="2.4146">
        <ele>575.79998779297</ele>
        <time>2023-06-01T10:49:15.000Z</time>
      </trkpt>
      <trkpt lat="43.56883" lon="2.4146">
        <ele>576.20001220703</ele>
        <time>2023-06-01T10:49:21.000Z</time>
      </trkpt>
      <trkpt lat="43.56884" lon="2.41459">
        <ele>576</ele>
        <time>2023-06-01T10:49:29.000Z</time>
      </trkpt>
      <trkpt lat="43.56882" lon="2.4146">
        <ele>575.79998779297</ele>
        <time>2023-06-01T10:49:37.000Z</time>
      </trkpt>
      <trkpt lat="43.56882" lon="2.4146">
        <ele>575.40002441406</ele>
        <time>2023-06-01T10:49:46.000Z</time>
      </trkpt>
      <trkpt lat="43.56882" lon="2.4146">
        <ele>575.40002441406</ele>
        <time>2023-06-01T10:49:56.000Z</time>
      </trkpt>
      <trkpt lat="43.56882" lon="2.4146">
        <ele>575.79998779297</ele>
        <time>2023-06-01T10:49:59.000Z</time>
      </trkpt>
      <trkpt lat="43.56881" lon="2.4146">
        <ele>577.59997558594</ele>
        <time>2023-06-01T11:19:23.000Z</time>
      </trkpt>
      <trkpt lat="43.56881" lon="2.4146">
        <ele>577.59997558594</ele>
        <time>2023-06-01T11:19:24.000Z</time>
      </trkpt>
      <trkpt lat="43.56879" lon="2.41463">
        <ele>578</ele>
        <time>2023-06-01T11:28:29.000Z</time>
      </trkpt>
      <trkpt lat="43.5688" lon="2.41462">
        <ele>578</ele>
        <time>2023-06-01T11:28:32.000Z</time>
      </trkpt>
      <trkpt lat="43.56884" lon="2.41457">
        <ele>577.40002441406</ele>
        <time>2023-06-01T11:28:39.000Z</time>
      </trkpt>
      <trkpt lat="43.56885" lon="2.41452">
        <ele>577.20001220703</ele>
        <time>2023-06-01T11:28:46.000Z</time>
      </trkpt>
      <trkpt lat="43.56886" lon="2.41445">
        <ele>576.59997558594</ele>
        <time>2023-06-01T11:28:52.000Z</time>
      </trkpt>
      <trkpt lat="43.56887" lon="2.41444">
        <ele>576.40002441406</ele>
        <time>2023-06-01T11:28:53.000Z</time>
      </trkpt>
      <trkpt lat="43.56888" lon="2.41434">
        <ele>575.79998779297</ele>
        <time>2023-06-01T11:29:00.000Z</time>
      </trkpt>
      <trkpt lat="43.56889" lon="2.41429">
        <ele>575.20001220703</ele>
        <time>2023-06-01T11:29:04.000Z</time>
      </trkpt>
      <trkpt lat="43.56889" lon="2.41428">
        <ele>575</ele>
        <time>2023-06-01T11:29:05.000Z</time>
      </trkpt>
      <trkpt lat="43.56888" lon="2.41425">
        <ele>574.40002441406</ele>
        <time>2023-06-01T11:29:07.000Z</time>
      </trkpt>
      <trkpt lat="43.56888" lon="2.41424">
        <ele>574.20001220703</ele>
        <time>2023-06-01T11:29:08.000Z</time>
      </trkpt>
      <trkpt lat="43.56889" lon="2.4142">
        <ele>573.40002441406</ele>
        <time>2023-06-01T11:29:12.000Z</time>
      </trkpt>
      <trkpt lat="43.56889" lon="2.41418">
        <ele>573.20001220703</ele>
        <time>2023-06-01T11:29:14.000Z</time>
      </trkpt>
      <trkpt lat="43.5689" lon="2.41411">
        <ele>572.20001220703</ele>
        <time>2023-06-01T11:29:21.000Z</time>
      </trkpt>
      <trkpt lat="43.5689" lon="2.41411">
        <ele>572</ele>
        <time>2023-06-01T11:29:22.000Z</time>
      </trkpt>
      <trkpt lat="43.56891" lon="2.41406">
        <ele>571.20001220703</ele>
        <time>2023-06-01T11:29:26.000Z</time>
      </trkpt>
      <trkpt lat="43.56891" lon="2.41405">
        <ele>570.79998779297</ele>
        <time>2023-06-01T11:29:27.000Z</time>
      </trkpt>
      <trkpt lat="43.56892" lon="2.41397">
        <ele>570.20001220703</ele>
        <time>2023-06-01T11:29:34.000Z</time>
      </trkpt>
      <trkpt lat="43.56893" lon="2.41392">
        <ele>569.79998779297</ele>
        <time>2023-06-01T11:29:39.000Z</time>
      </trkpt>
      <trkpt lat="43.56893" lon="2.4139">
        <ele>569.40002441406</ele>
        <time>2023-06-01T11:29:40.000Z</time>
      </trkpt>
      <trkpt lat="43.56894" lon="2.41388">
        <ele>568.79998779297</ele>
        <time>2023-06-01T11:29:42.000Z</time>
      </trkpt>
      <trkpt lat="43.56895" lon="2.41385">
        <ele>567.79998779297</ele>
        <time>2023-06-01T11:29:45.000Z</time>
      </trkpt>
      <trkpt lat="43.56895" lon="2.41384">
        <ele>567.59997558594</ele>
        <time>2023-06-01T11:29:46.000Z</time>
      </trkpt>
      <trkpt lat="43.56896" lon="2.41382">
        <ele>567.20001220703</ele>
        <time>2023-06-01T11:29:48.000Z</time>
      </trkpt>
      <trkpt lat="43.56898" lon="2.41377">
        <ele>566.59997558594</ele>
        <time>2023-06-01T11:29:52.000Z</time>
      </trkpt>
      <trkpt lat="43.569" lon="2.41374">
        <ele>566.20001220703</ele>
        <time>2023-06-01T11:29:55.000Z</time>
      </trkpt>
      <trkpt lat="43.56902" lon="2.41367">
        <ele>565.59997558594</ele>
        <time>2023-06-01T11:30:01.000Z</time>
      </trkpt>
      <trkpt lat="43.56903" lon="2.41365">
        <ele>565.40002441406</ele>
        <time>2023-06-01T11:30:02.000Z</time>
      </trkpt>
      <trkpt lat="43.56906" lon="2.41356">
        <ele>564.40002441406</ele>
        <time>2023-06-01T11:30:09.000Z</time>
      </trkpt>
      <trkpt lat="43.56908" lon="2.41346">
        <ele>563.20001220703</ele>
        <time>2023-06-01T11:30:16.000Z</time>
      </trkpt>
      <trkpt lat="43.56907" lon="2.41339">
        <ele>562</ele>
        <time>2023-06-01T11:30:21.000Z</time>
      </trkpt>
      <trkpt lat="43.56908" lon="2.41337">
        <ele>561.59997558594</ele>
        <time>2023-06-01T11:30:23.000Z</time>
      </trkpt>
      <trkpt lat="43.56909" lon="2.41336">
        <ele>561.40002441406</ele>
        <time>2023-06-01T11:30:24.000Z</time>
      </trkpt>
      <trkpt lat="43.5691" lon="2.41333">
        <ele>561</ele>
        <time>2023-06-01T11:30:27.000Z</time>
      </trkpt>
      <trkpt lat="43.5691" lon="2.4133">
        <ele>560.79998779297</ele>
        <time>2023-06-01T11:30:30.000Z</time>
      </trkpt>
      <trkpt lat="43.56911" lon="2.41328">
        <ele>560.59997558594</ele>
        <time>2023-06-01T11:30:32.000Z</time>
      </trkpt>
      <trkpt lat="43.56912" lon="2.41324">
        <ele>560</ele>
        <time>2023-06-01T11:30:35.000Z</time>
      </trkpt>
      <trkpt lat="43.56914" lon="2.41319">
        <ele>559</ele>
        <time>2023-06-01T11:30:40.000Z</time>
      </trkpt>
      <trkpt lat="43.56914" lon="2.41317">
        <ele>558.59997558594</ele>
        <time>2023-06-01T11:30:42.000Z</time>
      </trkpt>
      <trkpt lat="43.56915" lon="2.41314">
        <ele>557.79998779297</ele>
        <time>2023-06-01T11:30:47.000Z</time>
      </trkpt>
      <trkpt lat="43.56916" lon="2.41312">
        <ele>557</ele>
        <time>2023-06-01T11:30:58.000Z</time>
      </trkpt>
      <trkpt lat="43.56916" lon="2.41312">
        <ele>557.40002441406</ele>
        <time>2023-06-01T11:31:10.000Z</time>
      </trkpt>
      <trkpt lat="43.56917" lon="2.41311">
        <ele>557.40002441406</ele>
        <time>2023-06-01T11:31:19.000Z</time>
      </trkpt>
      <trkpt lat="43.56917" lon="2.41308">
        <ele>556.79998779297</ele>
        <time>2023-06-01T11:31:25.000Z</time>
      </trkpt>
      <trkpt lat="43.56917" lon="2.41309">
        <ele>556.79998779297</ele>
        <time>2023-06-01T11:31:26.000Z</time>
      </trkpt>
      <trkpt lat="43.56918" lon="2.41302">
        <ele>556.40002441406</ele>
        <time>2023-06-01T11:31:34.000Z</time>
      </trkpt>
      <trkpt lat="43.56918" lon="2.41302">
        <ele>555.79998779297</ele>
        <time>2023-06-01T11:31:37.000Z</time>
      </trkpt>
      <trkpt lat="43.5692" lon="2.413">
        <ele>555.20001220703</ele>
        <time>2023-06-01T11:31:40.000Z</time>
      </trkpt>
      <trkpt lat="43.56921" lon="2.41296">
        <ele>554.79998779297</ele>
        <time>2023-06-01T11:31:45.000Z</time>
      </trkpt>
      <trkpt lat="43.56921" lon="2.41294">
        <ele>554.40002441406</ele>
        <time>2023-06-01T11:31:47.000Z</time>
      </trkpt>
      <trkpt lat="43.56922" lon="2.41289">
        <ele>553.59997558594</ele>
        <time>2023-06-01T11:31:53.000Z</time>
      </trkpt>
      <trkpt lat="43.56924" lon="2.41283">
        <ele>553.20001220703</ele>
        <time>2023-06-01T11:31:59.000Z</time>
      </trkpt>
      <trkpt lat="43.56926" lon="2.41279">
        <ele>552.79998779297</ele>
        <time>2023-06-01T11:32:04.000Z</time>
      </trkpt>
      <trkpt lat="43.56928" lon="2.41278">
        <ele>552.59997558594</ele>
        <time>2023-06-01T11:32:07.000Z</time>
      </trkpt>
      <trkpt lat="43.56929" lon="2.41274">
        <ele>552.40002441406</ele>
        <time>2023-06-01T11:32:10.000Z</time>
      </trkpt>
      <trkpt lat="43.56932" lon="2.41267">
        <ele>551.59997558594</ele>
        <time>2023-06-01T11:32:18.000Z</time>
      </trkpt>
      <trkpt lat="43.56933" lon="2.41264">
        <ele>551.59997558594</ele>
        <time>2023-06-01T11:32:20.000Z</time>
      </trkpt>
      <trkpt lat="43.56935" lon="2.4126">
        <ele>551.20001220703</ele>
        <time>2023-06-01T11:32:23.000Z</time>
      </trkpt>
      <trkpt lat="43.56937" lon="2.41256">
        <ele>550.79998779297</ele>
        <time>2023-06-01T11:32:26.000Z</time>
      </trkpt>
      <trkpt lat="43.56939" lon="2.41252">
        <ele>550.40002441406</ele>
        <time>2023-06-01T11:32:28.000Z</time>
      </trkpt>
      <trkpt lat="43.56941" lon="2.41247">
        <ele>549.59997558594</ele>
        <time>2023-06-01T11:32:32.000Z</time>
      </trkpt>
      <trkpt lat="43.56942" lon="2.41246">
        <ele>549.40002441406</ele>
        <time>2023-06-01T11:32:33.000Z</time>
      </trkpt>
      <trkpt lat="43.56945" lon="2.4124">
        <ele>548.59997558594</ele>
        <time>2023-06-01T11:32:38.000Z</time>
      </trkpt>
      <trkpt lat="43.56946" lon="2.41238">
        <ele>548.20001220703</ele>
        <time>2023-06-01T11:32:39.000Z</time>
      </trkpt>
      <trkpt lat="43.56947" lon="2.41238">
        <ele>548.20001220703</ele>
        <time>2023-06-01T11:32:40.000Z</time>
      </trkpt>
      <trkpt lat="43.56949" lon="2.41233">
        <ele>547.59997558594</ele>
        <time>2023-06-01T11:32:43.000Z</time>
      </trkpt>
      <trkpt lat="43.56951" lon="2.41231">
        <ele>547.20001220703</ele>
        <time>2023-06-01T11:32:45.000Z</time>
      </trkpt>
      <trkpt lat="43.56953" lon="2.41226">
        <ele>546.40002441406</ele>
        <time>2023-06-01T11:32:49.000Z</time>
      </trkpt>
      <trkpt lat="43.56953" lon="2.41225">
        <ele>546.20001220703</ele>
        <time>2023-06-01T11:32:50.000Z</time>
      </trkpt>
      <trkpt lat="43.56955" lon="2.41221">
        <ele>545.59997558594</ele>
        <time>2023-06-01T11:32:53.000Z</time>
      </trkpt>
      <trkpt lat="43.56957" lon="2.41218">
        <ele>545</ele>
        <time>2023-06-01T11:32:56.000Z</time>
      </trkpt>
      <trkpt lat="43.56957" lon="2.41218">
        <ele>544.20001220703</ele>
        <time>2023-06-01T11:32:59.000Z</time>
      </trkpt>
      <trkpt lat="43.56957" lon="2.41218">
        <ele>544</ele>
        <time>2023-06-01T11:33:00.000Z</time>
      </trkpt>
      <trkpt lat="43.56958" lon="2.41217">
        <ele>544</ele>
        <time>2023-06-01T11:33:06.000Z</time>
      </trkpt>
      <trkpt lat="43.56959" lon="2.4121">
        <ele>544</ele>
        <time>2023-06-01T11:33:12.000Z</time>
      </trkpt>
      <trkpt lat="43.56962" lon="2.41204">
        <ele>543.59997558594</ele>
        <time>2023-06-01T11:33:18.000Z</time>
      </trkpt>
      <trkpt lat="43.56962" lon="2.41203">
        <ele>543.40002441406</ele>
        <time>2023-06-01T11:33:19.000Z</time>
      </trkpt>
      <trkpt lat="43.56964" lon="2.41201">
        <ele>543</ele>
        <time>2023-06-01T11:33:22.000Z</time>
      </trkpt>
      <trkpt lat="43.56964" lon="2.412">
        <ele>543</ele>
        <time>2023-06-01T11:33:23.000Z</time>
      </trkpt>
      <trkpt lat="43.56968" lon="2.41192">
        <ele>542.20001220703</ele>
        <time>2023-06-01T11:33:29.000Z</time>
      </trkpt>
      <trkpt lat="43.5697" lon="2.41188">
        <ele>542</ele>
        <time>2023-06-01T11:33:31.000Z</time>
      </trkpt>
      <trkpt lat="43.56974" lon="2.41184">
        <ele>541</ele>
        <time>2023-06-01T11:33:35.000Z</time>
      </trkpt>
      <trkpt lat="43.56973" lon="2.41184">
        <ele>540.79998779297</ele>
        <time>2023-06-01T11:33:36.000Z</time>
      </trkpt>
      <trkpt lat="43.56975" lon="2.41181">
        <ele>540.59997558594</ele>
        <time>2023-06-01T11:33:37.000Z</time>
      </trkpt>
      <trkpt lat="43.56978" lon="2.41177">
        <ele>540.20001220703</ele>
        <time>2023-06-01T11:33:40.000Z</time>
      </trkpt>
      <trkpt lat="43.5698" lon="2.41175">
        <ele>540</ele>
        <time>2023-06-01T11:33:42.000Z</time>
      </trkpt>
      <trkpt lat="43.56981" lon="2.41174">
        <ele>539.79998779297</ele>
        <time>2023-06-01T11:33:43.000Z</time>
      </trkpt>
      <trkpt lat="43.56982" lon="2.41172">
        <ele>539.79998779297</ele>
        <time>2023-06-01T11:33:44.000Z</time>
      </trkpt>
      <trkpt lat="43.56985" lon="2.41168">
        <ele>539.40002441406</ele>
        <time>2023-06-01T11:33:47.000Z</time>
      </trkpt>
      <trkpt lat="43.56985" lon="2.41167">
        <ele>539.40002441406</ele>
        <time>2023-06-01T11:33:48.000Z</time>
      </trkpt>
      <trkpt lat="43.5699" lon="2.41162">
        <ele>538.79998779297</ele>
        <time>2023-06-01T11:33:53.000Z</time>
      </trkpt>
      <trkpt lat="43.56993" lon="2.41159">
        <ele>538.59997558594</ele>
        <time>2023-06-01T11:33:56.000Z</time>
      </trkpt>
      <trkpt lat="43.56997" lon="2.41153">
        <ele>538.20001220703</ele>
        <time>2023-06-01T11:34:00.000Z</time>
      </trkpt>
      <trkpt lat="43.56999" lon="2.4115">
        <ele>538</ele>
        <time>2023-06-01T11:34:04.000Z</time>
      </trkpt>
      <trkpt lat="43.56999" lon="2.4115">
        <ele>538</ele>
        <time>2023-06-01T11:34:06.000Z</time>
      </trkpt>
      <trkpt lat="43.56999" lon="2.4115">
        <ele>537.79998779297</ele>
        <time>2023-06-01T11:34:08.000Z</time>
      </trkpt>
      <trkpt lat="43.57003" lon="2.4114">
        <ele>537.20001220703</ele>
        <time>2023-06-01T11:34:13.000Z</time>
      </trkpt>
      <trkpt lat="43.57006" lon="2.41136">
        <ele>536.59997558594</ele>
        <time>2023-06-01T11:34:16.000Z</time>
      </trkpt>
      <trkpt lat="43.57007" lon="2.41133">
        <ele>536.20001220703</ele>
        <time>2023-06-01T11:34:18.000Z</time>
      </trkpt>
      <trkpt lat="43.57007" lon="2.41131">
        <ele>536</ele>
        <time>2023-06-01T11:34:19.000Z</time>
      </trkpt>
      <trkpt lat="43.57008" lon="2.4113">
        <ele>535.79998779297</ele>
        <time>2023-06-01T11:34:20.000Z</time>
      </trkpt>
      <trkpt lat="43.5701" lon="2.41129">
        <ele>535.59997558594</ele>
        <time>2023-06-01T11:34:22.000Z</time>
      </trkpt>
      <trkpt lat="43.57012" lon="2.41126">
        <ele>535.20001220703</ele>
        <time>2023-06-01T11:34:25.000Z</time>
      </trkpt>
      <trkpt lat="43.57016" lon="2.41122">
        <ele>534.40002441406</ele>
        <time>2023-06-01T11:34:29.000Z</time>
      </trkpt>
      <trkpt lat="43.57017" lon="2.41121">
        <ele>534.20001220703</ele>
        <time>2023-06-01T11:34:30.000Z</time>
      </trkpt>
      <trkpt lat="43.57019" lon="2.41117">
        <ele>533.40002441406</ele>
        <time>2023-06-01T11:34:33.000Z</time>
      </trkpt>
      <trkpt lat="43.5702" lon="2.41115">
        <ele>533.20001220703</ele>
        <time>2023-06-01T11:34:34.000Z</time>
      </trkpt>
      <trkpt lat="43.57021" lon="2.41115">
        <ele>533</ele>
        <time>2023-06-01T11:34:35.000Z</time>
      </trkpt>
      <trkpt lat="43.57025" lon="2.4111">
        <ele>532.20001220703</ele>
        <time>2023-06-01T11:34:40.000Z</time>
      </trkpt>
      <trkpt lat="43.57026" lon="2.41109">
        <ele>532</ele>
        <time>2023-06-01T11:34:41.000Z</time>
      </trkpt>
      <trkpt lat="43.57027" lon="2.41107">
        <ele>531.59997558594</ele>
        <time>2023-06-01T11:34:43.000Z</time>
      </trkpt>
      <trkpt lat="43.57028" lon="2.41105">
        <ele>531</ele>
        <time>2023-06-01T11:34:45.000Z</time>
      </trkpt>
      <trkpt lat="43.57031" lon="2.41103">
        <ele>530.20001220703</ele>
        <time>2023-06-01T11:34:48.000Z</time>
      </trkpt>
      <trkpt lat="43.57031" lon="2.41102">
        <ele>530</ele>
        <time>2023-06-01T11:34:49.000Z</time>
      </trkpt>
      <trkpt lat="43.57033" lon="2.41096">
        <ele>529.40002441406</ele>
        <time>2023-06-01T11:34:53.000Z</time>
      </trkpt>
      <trkpt lat="43.57034" lon="2.41095">
        <ele>529</ele>
        <time>2023-06-01T11:34:55.000Z</time>
      </trkpt>
      <trkpt lat="43.57035" lon="2.41091">
        <ele>528.79998779297</ele>
        <time>2023-06-01T11:34:57.000Z</time>
      </trkpt>
      <trkpt lat="43.57035" lon="2.41089">
        <ele>528.59997558594</ele>
        <time>2023-06-01T11:34:59.000Z</time>
      </trkpt>
      <trkpt lat="43.57035" lon="2.41082">
        <ele>528</ele>
        <time>2023-06-01T11:35:03.000Z</time>
      </trkpt>
      <trkpt lat="43.57035" lon="2.41079">
        <ele>527.40002441406</ele>
        <time>2023-06-01T11:35:05.000Z</time>
      </trkpt>
      <trkpt lat="43.57036" lon="2.41076">
        <ele>526.79998779297</ele>
        <time>2023-06-01T11:35:07.000Z</time>
      </trkpt>
      <trkpt lat="43.57037" lon="2.41072">
        <ele>526.40002441406</ele>
        <time>2023-06-01T11:35:10.000Z</time>
      </trkpt>
      <trkpt lat="43.57037" lon="2.41069">
        <ele>526.20001220703</ele>
        <time>2023-06-01T11:35:12.000Z</time>
      </trkpt>
      <trkpt lat="43.57038" lon="2.41064">
        <ele>525.79998779297</ele>
        <time>2023-06-01T11:35:15.000Z</time>
      </trkpt>
      <trkpt lat="43.57038" lon="2.41061">
        <ele>525.40002441406</ele>
        <time>2023-06-01T11:35:17.000Z</time>
      </trkpt>
      <trkpt lat="43.57038" lon="2.41058">
        <ele>525</ele>
        <time>2023-06-01T11:35:19.000Z</time>
      </trkpt>
      <trkpt lat="43.57038" lon="2.41055">
        <ele>524.59997558594</ele>
        <time>2023-06-01T11:35:21.000Z</time>
      </trkpt>
      <trkpt lat="43.57038" lon="2.41049">
        <ele>524</ele>
        <time>2023-06-01T11:35:25.000Z</time>
      </trkpt>
      <trkpt lat="43.57038" lon="2.41047">
        <ele>523.79998779297</ele>
        <time>2023-06-01T11:35:26.000Z</time>
      </trkpt>
      <trkpt lat="43.57038" lon="2.41045">
        <ele>523.40002441406</ele>
        <time>2023-06-01T11:35:28.000Z</time>
      </trkpt>
      <trkpt lat="43.57037" lon="2.4104">
        <ele>522.59997558594</ele>
        <time>2023-06-01T11:35:34.000Z</time>
      </trkpt>
      <trkpt lat="43.57037" lon="2.41038">
        <ele>522.40002441406</ele>
        <time>2023-06-01T11:35:36.000Z</time>
      </trkpt>
      <trkpt lat="43.57037" lon="2.41038">
        <ele>521.79998779297</ele>
        <time>2023-06-01T11:35:40.000Z</time>
      </trkpt>
      <trkpt lat="43.57037" lon="2.41038">
        <ele>521.79998779297</ele>
        <time>2023-06-01T11:35:49.000Z</time>
      </trkpt>
      <trkpt lat="43.57036" lon="2.41035">
        <ele>521.59997558594</ele>
        <time>2023-06-01T11:36:02.000Z</time>
      </trkpt>
      <trkpt lat="43.57034" lon="2.41031">
        <ele>521.40002441406</ele>
        <time>2023-06-01T11:36:06.000Z</time>
      </trkpt>
      <trkpt lat="43.57032" lon="2.41028">
        <ele>521</ele>
        <time>2023-06-01T11:36:10.000Z</time>
      </trkpt>
      <trkpt lat="43.57027" lon="2.41024">
        <ele>520.40002441406</ele>
        <time>2023-06-01T11:36:17.000Z</time>
      </trkpt>
      <trkpt lat="43.57025" lon="2.41024">
        <ele>520.20001220703</ele>
        <time>2023-06-01T11:36:19.000Z</time>
      </trkpt>
      <trkpt lat="43.57022" lon="2.41022">
        <ele>519.79998779297</ele>
        <time>2023-06-01T11:36:23.000Z</time>
      </trkpt>
      <trkpt lat="43.57017" lon="2.41022">
        <ele>519.40002441406</ele>
        <time>2023-06-01T11:36:27.000Z</time>
      </trkpt>
      <trkpt lat="43.57016" lon="2.41022">
        <ele>519.20001220703</ele>
        <time>2023-06-01T11:36:29.000Z</time>
      </trkpt>
      <trkpt lat="43.57015" lon="2.41023">
        <ele>519</ele>
        <time>2023-06-01T11:36:30.000Z</time>
      </trkpt>
      <trkpt lat="43.57009" lon="2.41022">
        <ele>518.40002441406</ele>
        <time>2023-06-01T11:36:36.000Z</time>
      </trkpt>
      <trkpt lat="43.57008" lon="2.41022">
        <ele>518.40002441406</ele>
        <time>2023-06-01T11:36:37.000Z</time>
      </trkpt>
      <trkpt lat="43.57004" lon="2.41017">
        <ele>517.59997558594</ele>
        <time>2023-06-01T11:36:43.000Z</time>
      </trkpt>
      <trkpt lat="43.57004" lon="2.41015">
        <ele>517.40002441406</ele>
        <time>2023-06-01T11:36:44.000Z</time>
      </trkpt>
      <trkpt lat="43.57004" lon="2.41012">
        <ele>517.20001220703</ele>
        <time>2023-06-01T11:36:46.000Z</time>
      </trkpt>
      <trkpt lat="43.57005" lon="2.41006">
        <ele>516.40002441406</ele>
        <time>2023-06-01T11:36:50.000Z</time>
      </trkpt>
      <trkpt lat="43.57005" lon="2.41005">
        <ele>516.20001220703</ele>
        <time>2023-06-01T11:36:51.000Z</time>
      </trkpt>
      <trkpt lat="43.57005" lon="2.41004">
        <ele>516</ele>
        <time>2023-06-01T11:36:52.000Z</time>
      </trkpt>
      <trkpt lat="43.57008" lon="2.41001">
        <ele>515.59997558594</ele>
        <time>2023-06-01T11:36:56.000Z</time>
      </trkpt>
      <trkpt lat="43.5701" lon="2.41">
        <ele>515.20001220703</ele>
        <time>2023-06-01T11:36:59.000Z</time>
      </trkpt>
      <trkpt lat="43.57013" lon="2.40998">
        <ele>514.79998779297</ele>
        <time>2023-06-01T11:37:02.000Z</time>
      </trkpt>
      <trkpt lat="43.57013" lon="2.40998">
        <ele>514.59997558594</ele>
        <time>2023-06-01T11:37:03.000Z</time>
      </trkpt>
      <trkpt lat="43.57015" lon="2.40996">
        <ele>514</ele>
        <time>2023-06-01T11:37:06.000Z</time>
      </trkpt>
      <trkpt lat="43.57019" lon="2.40995">
        <ele>513</ele>
        <time>2023-06-01T11:37:10.000Z</time>
      </trkpt>
      <trkpt lat="43.57021" lon="2.40994">
        <ele>512.40002441406</ele>
        <time>2023-06-01T11:37:13.000Z</time>
      </trkpt>
      <trkpt lat="43.57022" lon="2.40994">
        <ele>511.79998779297</ele>
        <time>2023-06-01T11:37:16.000Z</time>
      </trkpt>
      <trkpt lat="43.57024" lon="2.40995">
        <ele>511.39999389648</ele>
        <time>2023-06-01T11:37:25.000Z</time>
      </trkpt>
      <trkpt lat="43.57028" lon="2.40994">
        <ele>510.79998779297</ele>
        <time>2023-06-01T11:37:29.000Z</time>
      </trkpt>
      <trkpt lat="43.57029" lon="2.40992">
        <ele>510.60000610352</ele>
        <time>2023-06-01T11:37:31.000Z</time>
      </trkpt>
      <trkpt lat="43.57033" lon="2.40991">
        <ele>510</ele>
        <time>2023-06-01T11:37:35.000Z</time>
      </trkpt>
      <trkpt lat="43.57034" lon="2.4099">
        <ele>509.79998779297</ele>
        <time>2023-06-01T11:37:36.000Z</time>
      </trkpt>
      <trkpt lat="43.57035" lon="2.4099">
        <ele>509.60000610352</ele>
        <time>2023-06-01T11:37:37.000Z</time>
      </trkpt>
      <trkpt lat="43.5704" lon="2.40987">
        <ele>508.79998779297</ele>
        <time>2023-06-01T11:37:42.000Z</time>
      </trkpt>
      <trkpt lat="43.5704" lon="2.40987">
        <ele>508.39999389648</ele>
        <time>2023-06-01T11:37:43.000Z</time>
      </trkpt>
      <trkpt lat="43.57041" lon="2.40987">
        <ele>508.20001220703</ele>
        <time>2023-06-01T11:37:44.000Z</time>
      </trkpt>
      <trkpt lat="43.57044" lon="2.40984">
        <ele>507.60000610352</ele>
        <time>2023-06-01T11:37:47.000Z</time>
      </trkpt>
      <trkpt lat="43.57048" lon="2.40983">
        <ele>507</ele>
        <time>2023-06-01T11:37:50.000Z</time>
      </trkpt>
      <trkpt lat="43.57049" lon="2.40981">
        <ele>506.60000610352</ele>
        <time>2023-06-01T11:37:53.000Z</time>
      </trkpt>
      <trkpt lat="43.57049" lon="2.4098">
        <ele>506.39999389648</ele>
        <time>2023-06-01T11:37:54.000Z</time>
      </trkpt>
      <trkpt lat="43.5705" lon="2.40979">
        <ele>506.39999389648</ele>
        <time>2023-06-01T11:37:55.000Z</time>
      </trkpt>
      <trkpt lat="43.57052" lon="2.40978">
        <ele>506</ele>
        <time>2023-06-01T11:37:58.000Z</time>
      </trkpt>
      <trkpt lat="43.57054" lon="2.40977">
        <ele>505.39999389648</ele>
        <time>2023-06-01T11:38:01.000Z</time>
      </trkpt>
      <trkpt lat="43.57055" lon="2.40977">
        <ele>505.20001220703</ele>
        <time>2023-06-01T11:38:02.000Z</time>
      </trkpt>
      <trkpt lat="43.57059" lon="2.40975">
        <ele>504.60000610352</ele>
        <time>2023-06-01T11:38:07.000Z</time>
      </trkpt>
      <trkpt lat="43.5706" lon="2.40974">
        <ele>504.39999389648</ele>
        <time>2023-06-01T11:38:09.000Z</time>
      </trkpt>
      <trkpt lat="43.57065" lon="2.40973">
        <ele>503.79998779297</ele>
        <time>2023-06-01T11:38:16.000Z</time>
      </trkpt>
      <trkpt lat="43.57069" lon="2.40971">
        <ele>503.20001220703</ele>
        <time>2023-06-01T11:38:21.000Z</time>
      </trkpt>
      <trkpt lat="43.5707" lon="2.4097">
        <ele>503</ele>
        <time>2023-06-01T11:38:23.000Z</time>
      </trkpt>
      <trkpt lat="43.57071" lon="2.40969">
        <ele>502.79998779297</ele>
        <time>2023-06-01T11:38:24.000Z</time>
      </trkpt>
      <trkpt lat="43.57074" lon="2.40967">
        <ele>502.20001220703</ele>
        <time>2023-06-01T11:38:28.000Z</time>
      </trkpt>
      <trkpt lat="43.57077" lon="2.40966">
        <ele>501.60000610352</ele>
        <time>2023-06-01T11:38:33.000Z</time>
      </trkpt>
      <trkpt lat="43.57079" lon="2.40964">
        <ele>501.20001220703</ele>
        <time>2023-06-01T11:38:35.000Z</time>
      </trkpt>
      <trkpt lat="43.5708" lon="2.40964">
        <ele>501</ele>
        <time>2023-06-01T11:38:36.000Z</time>
      </trkpt>
      <trkpt lat="43.57081" lon="2.40962">
        <ele>500.39999389648</ele>
        <time>2023-06-01T11:38:38.000Z</time>
      </trkpt>
      <trkpt lat="43.57083" lon="2.4096">
        <ele>500</ele>
        <time>2023-06-01T11:38:41.000Z</time>
      </trkpt>
      <trkpt lat="43.57083" lon="2.4096">
        <ele>499.79998779297</ele>
        <time>2023-06-01T11:38:42.000Z</time>
      </trkpt>
      <trkpt lat="43.57087" lon="2.40959">
        <ele>499.20001220703</ele>
        <time>2023-06-01T11:38:46.000Z</time>
      </trkpt>
      <trkpt lat="43.57087" lon="2.4096">
        <ele>499.20001220703</ele>
        <time>2023-06-01T11:38:47.000Z</time>
      </trkpt>
      <trkpt lat="43.57091" lon="2.4096">
        <ele>498.79998779297</ele>
        <time>2023-06-01T11:38:50.000Z</time>
      </trkpt>
      <trkpt lat="43.57092" lon="2.4096">
        <ele>498.60000610352</ele>
        <time>2023-06-01T11:38:51.000Z</time>
      </trkpt>
      <trkpt lat="43.57094" lon="2.4096">
        <ele>497.60000610352</ele>
        <time>2023-06-01T11:38:54.000Z</time>
      </trkpt>
      <trkpt lat="43.57095" lon="2.40961">
        <ele>497</ele>
        <time>2023-06-01T11:38:57.000Z</time>
      </trkpt>
      <trkpt lat="43.57096" lon="2.40962">
        <ele>496.60000610352</ele>
        <time>2023-06-01T11:38:59.000Z</time>
      </trkpt>
      <trkpt lat="43.57101" lon="2.40962">
        <ele>496</ele>
        <time>2023-06-01T11:39:03.000Z</time>
      </trkpt>
      <trkpt lat="43.57102" lon="2.40963">
        <ele>495.79998779297</ele>
        <time>2023-06-01T11:39:04.000Z</time>
      </trkpt>
      <trkpt lat="43.57103" lon="2.40964">
        <ele>495.39999389648</ele>
        <time>2023-06-01T11:39:06.000Z</time>
      </trkpt>
      <trkpt lat="43.57105" lon="2.40965">
        <ele>495.20001220703</ele>
        <time>2023-06-01T11:39:08.000Z</time>
      </trkpt>
      <trkpt lat="43.57107" lon="2.40965">
        <ele>494.39999389648</ele>
        <time>2023-06-01T11:39:11.000Z</time>
      </trkpt>
      <trkpt lat="43.57109" lon="2.40966">
        <ele>493.79998779297</ele>
        <time>2023-06-01T11:39:13.000Z</time>
      </trkpt>
      <trkpt lat="43.57111" lon="2.40967">
        <ele>493.20001220703</ele>
        <time>2023-06-01T11:39:15.000Z</time>
      </trkpt>
      <trkpt lat="43.57113" lon="2.40968">
        <ele>492.79998779297</ele>
        <time>2023-06-01T11:39:18.000Z</time>
      </trkpt>
      <trkpt lat="43.57115" lon="2.40969">
        <ele>492.60000610352</ele>
        <time>2023-06-01T11:39:20.000Z</time>
      </trkpt>
      <trkpt lat="43.57114" lon="2.40969">
        <ele>492.20001220703</ele>
        <time>2023-06-01T11:39:22.000Z</time>
      </trkpt>
      <trkpt lat="43.57113" lon="2.4097">
        <ele>491.79998779297</ele>
        <time>2023-06-01T11:39:26.000Z</time>
      </trkpt>
      <trkpt lat="43.57115" lon="2.40969">
        <ele>492</ele>
        <time>2023-06-01T11:39:36.000Z</time>
      </trkpt>
      <trkpt lat="43.57126" lon="2.4097">
        <ele>491.79998779297</ele>
        <time>2023-06-01T11:39:45.000Z</time>
      </trkpt>
      <trkpt lat="43.57133" lon="2.4097">
        <ele>491.39999389648</ele>
        <time>2023-06-01T11:39:52.000Z</time>
      </trkpt>
      <trkpt lat="43.57134" lon="2.4097">
        <ele>491.20001220703</ele>
        <time>2023-06-01T11:39:53.000Z</time>
      </trkpt>
      <trkpt lat="43.57135" lon="2.40971">
        <ele>491</ele>
        <time>2023-06-01T11:39:54.000Z</time>
      </trkpt>
      <trkpt lat="43.57142" lon="2.40969">
        <ele>490.20001220703</ele>
        <time>2023-06-01T11:39:59.000Z</time>
      </trkpt>
      <trkpt lat="43.57143" lon="2.40969">
        <ele>490.20001220703</ele>
        <time>2023-06-01T11:40:00.000Z</time>
      </trkpt>
      <trkpt lat="43.57144" lon="2.40969">
        <ele>490</ele>
        <time>2023-06-01T11:40:01.000Z</time>
      </trkpt>
      <trkpt lat="43.57149" lon="2.40969">
        <ele>489.60000610352</ele>
        <time>2023-06-01T11:40:05.000Z</time>
      </trkpt>
      <trkpt lat="43.57153" lon="2.40969">
        <ele>489</ele>
        <time>2023-06-01T11:40:09.000Z</time>
      </trkpt>
      <trkpt lat="43.57155" lon="2.4097">
        <ele>488.60000610352</ele>
        <time>2023-06-01T11:40:11.000Z</time>
      </trkpt>
      <trkpt lat="43.57163" lon="2.40969">
        <ele>488</ele>
        <time>2023-06-01T11:40:17.000Z</time>
      </trkpt>
      <trkpt lat="43.57165" lon="2.40967">
        <ele>487.79998779297</ele>
        <time>2023-06-01T11:40:20.000Z</time>
      </trkpt>
      <trkpt lat="43.57166" lon="2.40967">
        <ele>487.60000610352</ele>
        <time>2023-06-01T11:40:21.000Z</time>
      </trkpt>
      <trkpt lat="43.57171" lon="2.40964">
        <ele>486.79998779297</ele>
        <time>2023-06-01T11:40:25.000Z</time>
      </trkpt>
      <trkpt lat="43.57172" lon="2.40963">
        <ele>486.60000610352</ele>
        <time>2023-06-01T11:40:26.000Z</time>
      </trkpt>
      <trkpt lat="43.57173" lon="2.40962">
        <ele>486.39999389648</ele>
        <time>2023-06-01T11:40:27.000Z</time>
      </trkpt>
      <trkpt lat="43.57181" lon="2.40957">
        <ele>486.20001220703</ele>
        <time>2023-06-01T11:40:34.000Z</time>
      </trkpt>
      <trkpt lat="43.57184" lon="2.40955">
        <ele>486.20001220703</ele>
        <time>2023-06-01T11:40:37.000Z</time>
      </trkpt>
      <trkpt lat="43.57188" lon="2.40952">
        <ele>486</ele>
        <time>2023-06-01T11:40:40.000Z</time>
      </trkpt>
      <trkpt lat="43.57189" lon="2.40952">
        <ele>486</ele>
        <time>2023-06-01T11:40:41.000Z</time>
      </trkpt>
      <trkpt lat="43.57192" lon="2.4095">
        <ele>485.79998779297</ele>
        <time>2023-06-01T11:40:44.000Z</time>
      </trkpt>
      <trkpt lat="43.57196" lon="2.40946">
        <ele>485.60000610352</ele>
        <time>2023-06-01T11:40:48.000Z</time>
      </trkpt>
      <trkpt lat="43.57197" lon="2.40946">
        <ele>485.60000610352</ele>
        <time>2023-06-01T11:40:49.000Z</time>
      </trkpt>
      <trkpt lat="43.57201" lon="2.40943">
        <ele>485.60000610352</ele>
        <time>2023-06-01T11:40:52.000Z</time>
      </trkpt>
      <trkpt lat="43.57202" lon="2.40942">
        <ele>485.39999389648</ele>
        <time>2023-06-01T11:40:53.000Z</time>
      </trkpt>
      <trkpt lat="43.57205" lon="2.40938">
        <ele>485.20001220703</ele>
        <time>2023-06-01T11:40:56.000Z</time>
      </trkpt>
      <trkpt lat="43.57205" lon="2.40934">
        <ele>484.79998779297</ele>
        <time>2023-06-01T11:40:58.000Z</time>
      </trkpt>
      <trkpt lat="43.57206" lon="2.40933">
        <ele>484.60000610352</ele>
        <time>2023-06-01T11:40:59.000Z</time>
      </trkpt>
      <trkpt lat="43.57212" lon="2.40926">
        <ele>484</ele>
        <time>2023-06-01T11:41:05.000Z</time>
      </trkpt>
      <trkpt lat="43.57216" lon="2.4092">
        <ele>483.79998779297</ele>
        <time>2023-06-01T11:41:09.000Z</time>
      </trkpt>
      <trkpt lat="43.57218" lon="2.40917">
        <ele>483.60000610352</ele>
        <time>2023-06-01T11:41:11.000Z</time>
      </trkpt>
      <trkpt lat="43.57221" lon="2.40913">
        <ele>483.79998779297</ele>
        <time>2023-06-01T11:41:14.000Z</time>
      </trkpt>
      <trkpt lat="43.57223" lon="2.40911">
        <ele>483.79998779297</ele>
        <time>2023-06-01T11:41:16.000Z</time>
      </trkpt>
      <trkpt lat="43.57229" lon="2.40899">
        <ele>483.20001220703</ele>
        <time>2023-06-01T11:41:24.000Z</time>
      </trkpt>
      <trkpt lat="43.57235" lon="2.40887">
        <ele>482.60000610352</ele>
        <time>2023-06-01T11:41:32.000Z</time>
      </trkpt>
      <trkpt lat="43.5724" lon="2.40876">
        <ele>482</ele>
        <time>2023-06-01T11:41:40.000Z</time>
      </trkpt>
      <trkpt lat="43.57242" lon="2.40869">
        <ele>481.79998779297</ele>
        <time>2023-06-01T11:41:44.000Z</time>
      </trkpt>
      <trkpt lat="43.57243" lon="2.40866">
        <ele>481.79998779297</ele>
        <time>2023-06-01T11:41:46.000Z</time>
      </trkpt>
      <trkpt lat="43.57246" lon="2.40854">
        <ele>481.79998779297</ele>
        <time>2023-06-01T11:41:53.000Z</time>
      </trkpt>
      <trkpt lat="43.57247" lon="2.40849">
        <ele>481.79998779297</ele>
        <time>2023-06-01T11:41:56.000Z</time>
      </trkpt>
      <trkpt lat="43.57248" lon="2.40844">
        <ele>481.79998779297</ele>
        <time>2023-06-01T11:41:59.000Z</time>
      </trkpt>
      <trkpt lat="43.57248" lon="2.40842">
        <ele>481.79998779297</ele>
        <time>2023-06-01T11:42:00.000Z</time>
      </trkpt>
      <trkpt lat="43.57251" lon="2.40832">
        <ele>482</ele>
        <time>2023-06-01T11:42:07.000Z</time>
      </trkpt>
      <trkpt lat="43.57253" lon="2.40822">
        <ele>483</ele>
        <time>2023-06-01T11:42:14.000Z</time>
      </trkpt>
      <trkpt lat="43.57259" lon="2.40812">
        <ele>483.60000610352</ele>
        <time>2023-06-01T11:42:23.000Z</time>
      </trkpt>
      <trkpt lat="43.57261" lon="2.40809">
        <ele>483.60000610352</ele>
        <time>2023-06-01T11:42:26.000Z</time>
      </trkpt>
      <trkpt lat="43.57262" lon="2.40807">
        <ele>483.60000610352</ele>
        <time>2023-06-01T11:42:27.000Z</time>
      </trkpt>
      <trkpt lat="43.57263" lon="2.40807">
        <ele>483.60000610352</ele>
        <time>2023-06-01T11:42:28.000Z</time>
      </trkpt>
      <trkpt lat="43.57266" lon="2.40802">
        <ele>483.79998779297</ele>
        <time>2023-06-01T11:42:32.000Z</time>
      </trkpt>
      <trkpt lat="43.5727" lon="2.40794">
        <ele>483.79998779297</ele>
        <time>2023-06-01T11:42:39.000Z</time>
      </trkpt>
      <trkpt lat="43.5727" lon="2.40793">
        <ele>483.79998779297</ele>
        <time>2023-06-01T11:42:40.000Z</time>
      </trkpt>
      <trkpt lat="43.57272" lon="2.40789">
        <ele>483.60000610352</ele>
        <time>2023-06-01T11:42:43.000Z</time>
      </trkpt>
      <trkpt lat="43.57274" lon="2.40785">
        <ele>483.39999389648</ele>
        <time>2023-06-01T11:42:47.000Z</time>
      </trkpt>
      <trkpt lat="43.57278" lon="2.40779">
        <ele>483.39999389648</ele>
        <time>2023-06-01T11:42:52.000Z</time>
      </trkpt>
      <trkpt lat="43.57279" lon="2.40776">
        <ele>483.39999389648</ele>
        <time>2023-06-01T11:42:55.000Z</time>
      </trkpt>
      <trkpt lat="43.57283" lon="2.4077">
        <ele>483.20001220703</ele>
        <time>2023-06-01T11:43:01.000Z</time>
      </trkpt>
      <trkpt lat="43.5729" lon="2.40764">
        <ele>483</ele>
        <time>2023-06-01T11:43:09.000Z</time>
      </trkpt>
      <trkpt lat="43.57298" lon="2.40758">
        <ele>482.79998779297</ele>
        <time>2023-06-01T11:43:16.000Z</time>
      </trkpt>
      <trkpt lat="43.57303" lon="2.40753">
        <ele>482.60000610352</ele>
        <time>2023-06-01T11:43:21.000Z</time>
      </trkpt>
      <trkpt lat="43.57306" lon="2.4075">
        <ele>482.20001220703</ele>
        <time>2023-06-01T11:43:24.000Z</time>
      </trkpt>
      <trkpt lat="43.57309" lon="2.40746">
        <ele>481.60000610352</ele>
        <time>2023-06-01T11:43:28.000Z</time>
      </trkpt>
      <trkpt lat="43.57309" lon="2.40746">
        <ele>481.60000610352</ele>
        <time>2023-06-01T11:43:29.000Z</time>
      </trkpt>
      <trkpt lat="43.57309" lon="2.40746">
        <ele>481.20001220703</ele>
        <time>2023-06-01T11:43:31.000Z</time>
      </trkpt>
      <trkpt lat="43.57311" lon="2.40742">
        <ele>480.79998779297</ele>
        <time>2023-06-01T11:43:44.000Z</time>
      </trkpt>
      <trkpt lat="43.57312" lon="2.40742">
        <ele>480.60000610352</ele>
        <time>2023-06-01T11:43:46.000Z</time>
      </trkpt>
      <trkpt lat="43.57318" lon="2.40737">
        <ele>480.60000610352</ele>
        <time>2023-06-01T11:43:52.000Z</time>
      </trkpt>
      <trkpt lat="43.57325" lon="2.40732">
        <ele>480.20001220703</ele>
        <time>2023-06-01T11:43:59.000Z</time>
      </trkpt>
      <trkpt lat="43.57331" lon="2.40726">
        <ele>479.39999389648</ele>
        <time>2023-06-01T11:44:06.000Z</time>
      </trkpt>
      <trkpt lat="43.57334" lon="2.40725">
        <ele>479.20001220703</ele>
        <time>2023-06-01T11:44:12.000Z</time>
      </trkpt>
      <trkpt lat="43.57337" lon="2.40719">
        <ele>479.39999389648</ele>
        <time>2023-06-01T11:44:25.000Z</time>
      </trkpt>
      <trkpt lat="43.57336" lon="2.40719">
        <ele>479.39999389648</ele>
        <time>2023-06-01T11:44:33.000Z</time>
      </trkpt>
      <trkpt lat="43.57342" lon="2.40712">
        <ele>479.20001220703</ele>
        <time>2023-06-01T11:44:40.000Z</time>
      </trkpt>
      <trkpt lat="43.57349" lon="2.40708">
        <ele>478.79998779297</ele>
        <time>2023-06-01T11:44:47.000Z</time>
      </trkpt>
      <trkpt lat="43.57356" lon="2.40702">
        <ele>478.39999389648</ele>
        <time>2023-06-01T11:44:54.000Z</time>
      </trkpt>
      <trkpt lat="43.57357" lon="2.40702">
        <ele>478.39999389648</ele>
        <time>2023-06-01T11:44:55.000Z</time>
      </trkpt>
      <trkpt lat="43.57357" lon="2.40701">
        <ele>478.39999389648</ele>
        <time>2023-06-01T11:44:56.000Z</time>
      </trkpt>
      <trkpt lat="43.57361" lon="2.40697">
        <ele>478.39999389648</ele>
        <time>2023-06-01T11:45:01.000Z</time>
      </trkpt>
      <trkpt lat="43.57369" lon="2.40692">
        <ele>478</ele>
        <time>2023-06-01T11:45:09.000Z</time>
      </trkpt>
      <trkpt lat="43.57374" lon="2.40689">
        <ele>478.20001220703</ele>
        <time>2023-06-01T11:45:14.000Z</time>
      </trkpt>
      <trkpt lat="43.57382" lon="2.40685">
        <ele>478</ele>
        <time>2023-06-01T11:45:21.000Z</time>
      </trkpt>
      <trkpt lat="43.57387" lon="2.40683">
        <ele>477.79998779297</ele>
        <time>2023-06-01T11:45:26.000Z</time>
      </trkpt>
      <trkpt lat="43.57388" lon="2.40683">
        <ele>477.79998779297</ele>
        <time>2023-06-01T11:45:27.000Z</time>
      </trkpt>
      <trkpt lat="43.574" lon="2.40677">
        <ele>477.60000610352</ele>
        <time>2023-06-01T11:45:36.000Z</time>
      </trkpt>
      <trkpt lat="43.57406" lon="2.40673">
        <ele>477.39999389648</ele>
        <time>2023-06-01T11:45:42.000Z</time>
      </trkpt>
      <trkpt lat="43.57408" lon="2.40671">
        <ele>477.20001220703</ele>
        <time>2023-06-01T11:45:44.000Z</time>
      </trkpt>
      <trkpt lat="43.57419" lon="2.40664">
        <ele>476.60000610352</ele>
        <time>2023-06-01T11:45:53.000Z</time>
      </trkpt>
      <trkpt lat="43.57425" lon="2.40659">
        <ele>476.20001220703</ele>
        <time>2023-06-01T11:45:58.000Z</time>
      </trkpt>
      <trkpt lat="43.5743" lon="2.40654">
        <ele>475.79998779297</ele>
        <time>2023-06-01T11:46:02.000Z</time>
      </trkpt>
      <trkpt lat="43.57436" lon="2.40644">
        <ele>475.20001220703</ele>
        <time>2023-06-01T11:46:09.000Z</time>
      </trkpt>
      <trkpt lat="43.57437" lon="2.40642">
        <ele>475</ele>
        <time>2023-06-01T11:46:11.000Z</time>
      </trkpt>
      <trkpt lat="43.57439" lon="2.40633">
        <ele>474.60000610352</ele>
        <time>2023-06-01T11:46:16.000Z</time>
      </trkpt>
      <trkpt lat="43.5744" lon="2.40632">
        <ele>474.39999389648</ele>
        <time>2023-06-01T11:46:17.000Z</time>
      </trkpt>
      <trkpt lat="43.57441" lon="2.40627">
        <ele>474.20001220703</ele>
        <time>2023-06-01T11:46:20.000Z</time>
      </trkpt>
      <trkpt lat="43.57442" lon="2.40622">
        <ele>473.79998779297</ele>
        <time>2023-06-01T11:46:23.000Z</time>
      </trkpt>
      <trkpt lat="43.57444" lon="2.40614">
        <ele>473</ele>
        <time>2023-06-01T11:46:28.000Z</time>
      </trkpt>
      <trkpt lat="43.57445" lon="2.40609">
        <ele>472.79998779297</ele>
        <time>2023-06-01T11:46:31.000Z</time>
      </trkpt>
      <trkpt lat="43.57447" lon="2.40595">
        <ele>472.20001220703</ele>
        <time>2023-06-01T11:46:39.000Z</time>
      </trkpt>
      <trkpt lat="43.57448" lon="2.40592">
        <ele>472</ele>
        <time>2023-06-01T11:46:41.000Z</time>
      </trkpt>
      <trkpt lat="43.5745" lon="2.40582">
        <ele>471.39999389648</ele>
        <time>2023-06-01T11:46:47.000Z</time>
      </trkpt>
      <trkpt lat="43.57452" lon="2.40569">
        <ele>471.20001220703</ele>
        <time>2023-06-01T11:46:55.000Z</time>
      </trkpt>
      <trkpt lat="43.57453" lon="2.40564">
        <ele>470.79998779297</ele>
        <time>2023-06-01T11:46:58.000Z</time>
      </trkpt>
      <trkpt lat="43.57454" lon="2.40561">
        <ele>470.60000610352</ele>
        <time>2023-06-01T11:47:00.000Z</time>
      </trkpt>
      <trkpt lat="43.57455" lon="2.40558">
        <ele>470.20001220703</ele>
        <time>2023-06-01T11:47:02.000Z</time>
      </trkpt>
      <trkpt lat="43.57457" lon="2.40556">
        <ele>470</ele>
        <time>2023-06-01T11:47:04.000Z</time>
      </trkpt>
      <trkpt lat="43.57459" lon="2.40553">
        <ele>469.79998779297</ele>
        <time>2023-06-01T11:47:06.000Z</time>
      </trkpt>
      <trkpt lat="43.57461" lon="2.40546">
        <ele>469.20001220703</ele>
        <time>2023-06-01T11:47:11.000Z</time>
      </trkpt>
      <trkpt lat="43.57463" lon="2.4054">
        <ele>468.60000610352</ele>
        <time>2023-06-01T11:47:15.000Z</time>
      </trkpt>
      <trkpt lat="43.57465" lon="2.40534">
        <ele>468</ele>
        <time>2023-06-01T11:47:19.000Z</time>
      </trkpt>
      <trkpt lat="43.57466" lon="2.40528">
        <ele>467.60000610352</ele>
        <time>2023-06-01T11:47:23.000Z</time>
      </trkpt>
      <trkpt lat="43.57467" lon="2.40525">
        <ele>467.20001220703</ele>
        <time>2023-06-01T11:47:25.000Z</time>
      </trkpt>
      <trkpt lat="43.57468" lon="2.40519">
        <ele>466.60000610352</ele>
        <time>2023-06-01T11:47:29.000Z</time>
      </trkpt>
      <trkpt lat="43.57469" lon="2.40518">
        <ele>466.39999389648</ele>
        <time>2023-06-01T11:47:30.000Z</time>
      </trkpt>
      <trkpt lat="43.57469" lon="2.40516">
        <ele>466.20001220703</ele>
        <time>2023-06-01T11:47:31.000Z</time>
      </trkpt>
      <trkpt lat="43.5747" lon="2.40509">
        <ele>465.20001220703</ele>
        <time>2023-06-01T11:47:36.000Z</time>
      </trkpt>
      <trkpt lat="43.57471" lon="2.40504">
        <ele>464.79998779297</ele>
        <time>2023-06-01T11:47:39.000Z</time>
      </trkpt>
      <trkpt lat="43.57473" lon="2.40496">
        <ele>464.20001220703</ele>
        <time>2023-06-01T11:47:44.000Z</time>
      </trkpt>
      <trkpt lat="43.57473" lon="2.40493">
        <ele>463.79998779297</ele>
        <time>2023-06-01T11:47:46.000Z</time>
      </trkpt>
      <trkpt lat="43.57474" lon="2.40482">
        <ele>463</ele>
        <time>2023-06-01T11:47:53.000Z</time>
      </trkpt>
      <trkpt lat="43.57474" lon="2.4048">
        <ele>463</ele>
        <time>2023-06-01T11:47:54.000Z</time>
      </trkpt>
      <trkpt lat="43.57476" lon="2.40466">
        <ele>462</ele>
        <time>2023-06-01T11:48:02.000Z</time>
      </trkpt>
      <trkpt lat="43.57476" lon="2.40464">
        <ele>462</ele>
        <time>2023-06-01T11:48:03.000Z</time>
      </trkpt>
      <trkpt lat="43.57478" lon="2.40446">
        <ele>461</ele>
        <time>2023-06-01T11:48:14.000Z</time>
      </trkpt>
      <trkpt lat="43.57478" lon="2.40444">
        <ele>461</ele>
        <time>2023-06-01T11:48:15.000Z</time>
      </trkpt>
      <trkpt lat="43.57479" lon="2.40431">
        <ele>460.60000610352</ele>
        <time>2023-06-01T11:48:23.000Z</time>
      </trkpt>
      <trkpt lat="43.57479" lon="2.40428">
        <ele>460.39999389648</ele>
        <time>2023-06-01T11:48:25.000Z</time>
      </trkpt>
      <trkpt lat="43.57479" lon="2.4042">
        <ele>460</ele>
        <time>2023-06-01T11:48:30.000Z</time>
      </trkpt>
      <trkpt lat="43.57478" lon="2.40407">
        <ele>460.20001220703</ele>
        <time>2023-06-01T11:48:38.000Z</time>
      </trkpt>
      <trkpt lat="43.57478" lon="2.40404">
        <ele>460</ele>
        <time>2023-06-01T11:48:40.000Z</time>
      </trkpt>
      <trkpt lat="43.57478" lon="2.40401">
        <ele>459.79998779297</ele>
        <time>2023-06-01T11:48:42.000Z</time>
      </trkpt>
      <trkpt lat="43.57478" lon="2.40396">
        <ele>459.79998779297</ele>
        <time>2023-06-01T11:48:46.000Z</time>
      </trkpt>
      <trkpt lat="43.57477" lon="2.40394">
        <ele>459.60000610352</ele>
        <time>2023-06-01T11:48:53.000Z</time>
      </trkpt>
      <trkpt lat="43.57478" lon="2.40394">
        <ele>459.39999389648</ele>
        <time>2023-06-01T11:49:02.000Z</time>
      </trkpt>
      <trkpt lat="43.57478" lon="2.40394">
        <ele>459.60000610352</ele>
        <time>2023-06-01T11:49:10.000Z</time>
      </trkpt>
      <trkpt lat="43.57479" lon="2.40391">
        <ele>459.60000610352</ele>
        <time>2023-06-01T11:49:17.000Z</time>
      </trkpt>
      <trkpt lat="43.57479" lon="2.40386">
        <ele>459.79998779297</ele>
        <time>2023-06-01T11:49:22.000Z</time>
      </trkpt>
      <trkpt lat="43.57478" lon="2.40382">
        <ele>459.79998779297</ele>
        <time>2023-06-01T11:49:29.000Z</time>
      </trkpt>
      <trkpt lat="43.57476" lon="2.40376">
        <ele>459.79998779297</ele>
        <time>2023-06-01T11:49:35.000Z</time>
      </trkpt>
      <trkpt lat="43.57476" lon="2.40369">
        <ele>460.20001220703</ele>
        <time>2023-06-01T11:49:42.000Z</time>
      </trkpt>
      <trkpt lat="43.57477" lon="2.40361">
        <ele>460.60000610352</ele>
        <time>2023-06-01T11:49:49.000Z</time>
      </trkpt>
      <trkpt lat="43.57477" lon="2.40353">
        <ele>461</ele>
        <time>2023-06-01T11:49:55.000Z</time>
      </trkpt>
      <trkpt lat="43.57477" lon="2.4035">
        <ele>461</ele>
        <time>2023-06-01T11:49:57.000Z</time>
      </trkpt>
      <trkpt lat="43.57477" lon="2.40347">
        <ele>461</ele>
        <time>2023-06-01T11:49:59.000Z</time>
      </trkpt>
      <trkpt lat="43.57478" lon="2.40341">
        <ele>461</ele>
        <time>2023-06-01T11:50:03.000Z</time>
      </trkpt>
      <trkpt lat="43.57478" lon="2.40339">
        <ele>461.20001220703</ele>
        <time>2023-06-01T11:50:04.000Z</time>
      </trkpt>
      <trkpt lat="43.57477" lon="2.4033">
        <ele>461.39999389648</ele>
        <time>2023-06-01T11:50:10.000Z</time>
      </trkpt>
      <trkpt lat="43.57476" lon="2.40325">
        <ele>461.39999389648</ele>
        <time>2023-06-01T11:50:14.000Z</time>
      </trkpt>
      <trkpt lat="43.57477" lon="2.40319">
        <ele>461.60000610352</ele>
        <time>2023-06-01T11:50:19.000Z</time>
      </trkpt>
      <trkpt lat="43.57476" lon="2.40316">
        <ele>462</ele>
        <time>2023-06-01T11:50:21.000Z</time>
      </trkpt>
      <trkpt lat="43.57477" lon="2.40311">
        <ele>462</ele>
        <time>2023-06-01T11:50:25.000Z</time>
      </trkpt>
      <trkpt lat="43.57476" lon="2.40308">
        <ele>461.79998779297</ele>
        <time>2023-06-01T11:50:27.000Z</time>
      </trkpt>
      <trkpt lat="43.57477" lon="2.40305">
        <ele>461.60000610352</ele>
        <time>2023-06-01T11:50:30.000Z</time>
      </trkpt>
      <trkpt lat="43.57477" lon="2.40302">
        <ele>461.60000610352</ele>
        <time>2023-06-01T11:50:32.000Z</time>
      </trkpt>
      <trkpt lat="43.57478" lon="2.40299">
        <ele>461.60000610352</ele>
        <time>2023-06-01T11:50:36.000Z</time>
      </trkpt>
      <trkpt lat="43.57478" lon="2.40297">
        <ele>461.60000610352</ele>
        <time>2023-06-01T11:50:38.000Z</time>
      </trkpt>
      <trkpt lat="43.57477" lon="2.40295">
        <ele>461.79998779297</ele>
        <time>2023-06-01T11:50:43.000Z</time>
      </trkpt>
      <trkpt lat="43.57476" lon="2.40292">
        <ele>461.79998779297</ele>
        <time>2023-06-01T11:50:50.000Z</time>
      </trkpt>
      <trkpt lat="43.57474" lon="2.40291">
        <ele>461.39999389648</ele>
        <time>2023-06-01T11:50:56.000Z</time>
      </trkpt>
      <trkpt lat="43.57471" lon="2.40285">
        <ele>461.60000610352</ele>
        <time>2023-06-01T11:51:03.000Z</time>
      </trkpt>
      <trkpt lat="43.57471" lon="2.4028">
        <ele>461.60000610352</ele>
        <time>2023-06-01T11:51:07.000Z</time>
      </trkpt>
      <trkpt lat="43.5747" lon="2.40274">
        <ele>461.60000610352</ele>
        <time>2023-06-01T11:51:11.000Z</time>
      </trkpt>
      <trkpt lat="43.57469" lon="2.40272">
        <ele>461.60000610352</ele>
        <time>2023-06-01T11:51:13.000Z</time>
      </trkpt>
      <trkpt lat="43.57467" lon="2.40268">
        <ele>461.60000610352</ele>
        <time>2023-06-01T11:51:16.000Z</time>
      </trkpt>
      <trkpt lat="43.57465" lon="2.40259">
        <ele>461</ele>
        <time>2023-06-01T11:51:25.000Z</time>
      </trkpt>
      <trkpt lat="43.57465" lon="2.40259">
        <ele>461</ele>
        <time>2023-06-01T11:51:26.000Z</time>
      </trkpt>
      <trkpt lat="43.57462" lon="2.40249">
        <ele>461</ele>
        <time>2023-06-01T11:51:32.000Z</time>
      </trkpt>
      <trkpt lat="43.57459" lon="2.40241">
        <ele>460.79998779297</ele>
        <time>2023-06-01T11:51:38.000Z</time>
      </trkpt>
      <trkpt lat="43.57456" lon="2.40227">
        <ele>460.60000610352</ele>
        <time>2023-06-01T11:51:47.000Z</time>
      </trkpt>
      <trkpt lat="43.57456" lon="2.40215">
        <ele>460.60000610352</ele>
        <time>2023-06-01T11:51:55.000Z</time>
      </trkpt>
      <trkpt lat="43.57454" lon="2.40206">
        <ele>461</ele>
        <time>2023-06-01T11:52:01.000Z</time>
      </trkpt>
      <trkpt lat="43.57454" lon="2.40201">
        <ele>461.20001220703</ele>
        <time>2023-06-01T11:52:04.000Z</time>
      </trkpt>
      <trkpt lat="43.57453" lon="2.40198">
        <ele>461</ele>
        <time>2023-06-01T11:52:06.000Z</time>
      </trkpt>
      <trkpt lat="43.57454" lon="2.4019">
        <ele>460.79998779297</ele>
        <time>2023-06-01T11:52:11.000Z</time>
      </trkpt>
      <trkpt lat="43.57454" lon="2.40184">
        <ele>460.79998779297</ele>
        <time>2023-06-01T11:52:15.000Z</time>
      </trkpt>
      <trkpt lat="43.57454" lon="2.40179">
        <ele>460.79998779297</ele>
        <time>2023-06-01T11:52:18.000Z</time>
      </trkpt>
      <trkpt lat="43.57456" lon="2.40171">
        <ele>461.20001220703</ele>
        <time>2023-06-01T11:52:24.000Z</time>
      </trkpt>
      <trkpt lat="43.57458" lon="2.40162">
        <ele>462</ele>
        <time>2023-06-01T11:52:30.000Z</time>
      </trkpt>
      <trkpt lat="43.57458" lon="2.4016">
        <ele>462</ele>
        <time>2023-06-01T11:52:31.000Z</time>
      </trkpt>
      <trkpt lat="43.57458" lon="2.40157">
        <ele>462.20001220703</ele>
        <time>2023-06-01T11:52:33.000Z</time>
      </trkpt>
      <trkpt lat="43.57459" lon="2.4015">
        <ele>462.60000610352</ele>
        <time>2023-06-01T11:52:37.000Z</time>
      </trkpt>
      <trkpt lat="43.5746" lon="2.40147">
        <ele>463</ele>
        <time>2023-06-01T11:52:39.000Z</time>
      </trkpt>
      <trkpt lat="43.57461" lon="2.4014">
        <ele>463.20001220703</ele>
        <time>2023-06-01T11:52:44.000Z</time>
      </trkpt>
      <trkpt lat="43.57464" lon="2.40129">
        <ele>463.39999389648</ele>
        <time>2023-06-01T11:52:51.000Z</time>
      </trkpt>
      <trkpt lat="43.57467" lon="2.40117">
        <ele>463.20001220703</ele>
        <time>2023-06-01T11:52:58.000Z</time>
      </trkpt>
      <trkpt lat="43.57467" lon="2.40116">
        <ele>463.20001220703</ele>
        <time>2023-06-01T11:52:59.000Z</time>
      </trkpt>
      <trkpt lat="43.57471" lon="2.40105">
        <ele>463.20001220703</ele>
        <time>2023-06-01T11:53:07.000Z</time>
      </trkpt>
      <trkpt lat="43.57473" lon="2.40097">
        <ele>463.20001220703</ele>
        <time>2023-06-01T11:53:14.000Z</time>
      </trkpt>
      <trkpt lat="43.57474" lon="2.40095">
        <ele>463.20001220703</ele>
        <time>2023-06-01T11:53:16.000Z</time>
      </trkpt>
      <trkpt lat="43.57474" lon="2.40094">
        <ele>463.20001220703</ele>
        <time>2023-06-01T11:53:17.000Z</time>
      </trkpt>
      <trkpt lat="43.57475" lon="2.4009">
        <ele>463.39999389648</ele>
        <time>2023-06-01T11:53:20.000Z</time>
      </trkpt>
      <trkpt lat="43.57477" lon="2.40082">
        <ele>463.60000610352</ele>
        <time>2023-06-01T11:53:27.000Z</time>
      </trkpt>
      <trkpt lat="43.57477" lon="2.4008">
        <ele>463.79998779297</ele>
        <time>2023-06-01T11:53:28.000Z</time>
      </trkpt>
      <trkpt lat="43.57478" lon="2.40079">
        <ele>463.79998779297</ele>
        <time>2023-06-01T11:53:29.000Z</time>
      </trkpt>
      <trkpt lat="43.57478" lon="2.40074">
        <ele>463.79998779297</ele>
        <time>2023-06-01T11:53:33.000Z</time>
      </trkpt>
      <trkpt lat="43.57478" lon="2.40074">
        <ele>463.79998779297</ele>
        <time>2023-06-01T11:53:34.000Z</time>
      </trkpt>
      <trkpt lat="43.57478" lon="2.40067">
        <ele>463.60000610352</ele>
        <time>2023-06-01T11:53:40.000Z</time>
      </trkpt>
      <trkpt lat="43.57478" lon="2.40066">
        <ele>463.79998779297</ele>
        <time>2023-06-01T11:53:41.000Z</time>
      </trkpt>
      <trkpt lat="43.57477" lon="2.40062">
        <ele>464.20001220703</ele>
        <time>2023-06-01T11:53:44.000Z</time>
      </trkpt>
      <trkpt lat="43.57476" lon="2.40059">
        <ele>464.39999389648</ele>
        <time>2023-06-01T11:53:46.000Z</time>
      </trkpt>
      <trkpt lat="43.57476" lon="2.40057">
        <ele>464.60000610352</ele>
        <time>2023-06-01T11:53:48.000Z</time>
      </trkpt>
      <trkpt lat="43.57475" lon="2.40053">
        <ele>465.20001220703</ele>
        <time>2023-06-01T11:53:51.000Z</time>
      </trkpt>
      <trkpt lat="43.57475" lon="2.40052">
        <ele>465.39999389648</ele>
        <time>2023-06-01T11:53:53.000Z</time>
      </trkpt>
      <trkpt lat="43.57474" lon="2.40048">
        <ele>465.60000610352</ele>
        <time>2023-06-01T11:53:56.000Z</time>
      </trkpt>
      <trkpt lat="43.57474" lon="2.40047">
        <ele>465.39999389648</ele>
        <time>2023-06-01T11:53:57.000Z</time>
      </trkpt>
      <trkpt lat="43.57473" lon="2.40046">
        <ele>465.39999389648</ele>
        <time>2023-06-01T11:53:58.000Z</time>
      </trkpt>
      <trkpt lat="43.57473" lon="2.40045">
        <ele>466</ele>
        <time>2023-06-01T11:54:03.000Z</time>
      </trkpt>
      <trkpt lat="43.57473" lon="2.40045">
        <ele>466.20001220703</ele>
        <time>2023-06-01T11:54:08.000Z</time>
      </trkpt>
      <trkpt lat="43.57471" lon="2.40039">
        <ele>466.20001220703</ele>
        <time>2023-06-01T11:54:13.000Z</time>
      </trkpt>
      <trkpt lat="43.5747" lon="2.40028">
        <ele>466.20001220703</ele>
        <time>2023-06-01T11:54:21.000Z</time>
      </trkpt>
      <trkpt lat="43.5747" lon="2.40015">
        <ele>466.60000610352</ele>
        <time>2023-06-01T11:54:28.000Z</time>
      </trkpt>
      <trkpt lat="43.57469" lon="2.40004">
        <ele>466.39999389648</ele>
        <time>2023-06-01T11:54:35.000Z</time>
      </trkpt>
      <trkpt lat="43.57468" lon="2.39994">
        <ele>467.39999389648</ele>
        <time>2023-06-01T11:54:41.000Z</time>
      </trkpt>
      <trkpt lat="43.57468" lon="2.39995">
        <ele>467.60000610352</ele>
        <time>2023-06-01T11:54:43.000Z</time>
      </trkpt>
      <trkpt lat="43.57468" lon="2.39988">
        <ele>468</ele>
        <time>2023-06-01T11:54:52.000Z</time>
      </trkpt>
      <trkpt lat="43.57466" lon="2.39973">
        <ele>467.39999389648</ele>
        <time>2023-06-01T11:55:01.000Z</time>
      </trkpt>
      <trkpt lat="43.57466" lon="2.3996">
        <ele>467.39999389648</ele>
        <time>2023-06-01T11:55:09.000Z</time>
      </trkpt>
      <trkpt lat="43.57466" lon="2.39958">
        <ele>467.79998779297</ele>
        <time>2023-06-01T11:55:10.000Z</time>
      </trkpt>
      <trkpt lat="43.57465" lon="2.39947">
        <ele>467.60000610352</ele>
        <time>2023-06-01T11:55:17.000Z</time>
      </trkpt>
      <trkpt lat="43.57465" lon="2.39946">
        <ele>467.39999389648</ele>
        <time>2023-06-01T11:55:18.000Z</time>
      </trkpt>
      <trkpt lat="43.57465" lon="2.39938">
        <ele>467</ele>
        <time>2023-06-01T11:55:23.000Z</time>
      </trkpt>
      <trkpt lat="43.57463" lon="2.39933">
        <ele>467</ele>
        <time>2023-06-01T11:55:26.000Z</time>
      </trkpt>
      <trkpt lat="43.57463" lon="2.3993">
        <ele>467</ele>
        <time>2023-06-01T11:55:28.000Z</time>
      </trkpt>
      <trkpt lat="43.57462" lon="2.39924">
        <ele>467</ele>
        <time>2023-06-01T11:55:32.000Z</time>
      </trkpt>
      <trkpt lat="43.57462" lon="2.39913">
        <ele>466.60000610352</ele>
        <time>2023-06-01T11:55:39.000Z</time>
      </trkpt>
      <trkpt lat="43.57461" lon="2.39911">
        <ele>466.60000610352</ele>
        <time>2023-06-01T11:55:40.000Z</time>
      </trkpt>
      <trkpt lat="43.57461" lon="2.39908">
        <ele>466.39999389648</ele>
        <time>2023-06-01T11:55:42.000Z</time>
      </trkpt>
      <trkpt lat="43.57461" lon="2.39899">
        <ele>466.39999389648</ele>
        <time>2023-06-01T11:55:48.000Z</time>
      </trkpt>
      <trkpt lat="43.57461" lon="2.39897">
        <ele>466.79998779297</ele>
        <time>2023-06-01T11:55:50.000Z</time>
      </trkpt>
      <trkpt lat="43.5746" lon="2.39894">
        <ele>466.79998779297</ele>
        <time>2023-06-01T11:55:53.000Z</time>
      </trkpt>
      <trkpt lat="43.5746" lon="2.39892">
        <ele>466.60000610352</ele>
        <time>2023-06-01T11:55:54.000Z</time>
      </trkpt>
      <trkpt lat="43.57461" lon="2.39887">
        <ele>466.60000610352</ele>
        <time>2023-06-01T11:55:57.000Z</time>
      </trkpt>
      <trkpt lat="43.57461" lon="2.39882">
        <ele>466.60000610352</ele>
        <time>2023-06-01T11:56:00.000Z</time>
      </trkpt>
      <trkpt lat="43.57462" lon="2.39873">
        <ele>467.20001220703</ele>
        <time>2023-06-01T11:56:06.000Z</time>
      </trkpt>
      <trkpt lat="43.57462" lon="2.39871">
        <ele>467.39999389648</ele>
        <time>2023-06-01T11:56:07.000Z</time>
      </trkpt>
      <trkpt lat="43.57462" lon="2.39863">
        <ele>467.60000610352</ele>
        <time>2023-06-01T11:56:13.000Z</time>
      </trkpt>
      <trkpt lat="43.57462" lon="2.39862">
        <ele>467.60000610352</ele>
        <time>2023-06-01T11:56:14.000Z</time>
      </trkpt>
      <trkpt lat="43.57464" lon="2.39856">
        <ele>466.79998779297</ele>
        <time>2023-06-01T11:56:18.000Z</time>
      </trkpt>
      <trkpt lat="43.57464" lon="2.39853">
        <ele>466.60000610352</ele>
        <time>2023-06-01T11:56:20.000Z</time>
      </trkpt>
      <trkpt lat="43.57466" lon="2.39844">
        <ele>466.79998779297</ele>
        <time>2023-06-01T11:56:26.000Z</time>
      </trkpt>
      <trkpt lat="43.57467" lon="2.39839">
        <ele>466.60000610352</ele>
        <time>2023-06-01T11:56:29.000Z</time>
      </trkpt>
      <trkpt lat="43.57468" lon="2.39834">
        <ele>466.79998779297</ele>
        <time>2023-06-01T11:56:32.000Z</time>
      </trkpt>
      <trkpt lat="43.5747" lon="2.39824">
        <ele>467</ele>
        <time>2023-06-01T11:56:39.000Z</time>
      </trkpt>
      <trkpt lat="43.5747" lon="2.39811">
        <ele>467</ele>
        <time>2023-06-01T11:56:47.000Z</time>
      </trkpt>
      <trkpt lat="43.57471" lon="2.39803">
        <ele>467</ele>
        <time>2023-06-01T11:56:52.000Z</time>
      </trkpt>
      <trkpt lat="43.57471" lon="2.39799">
        <ele>467</ele>
        <time>2023-06-01T11:56:55.000Z</time>
      </trkpt>
      <trkpt lat="43.57471" lon="2.39797">
        <ele>467</ele>
        <time>2023-06-01T11:56:56.000Z</time>
      </trkpt>
      <trkpt lat="43.57471" lon="2.39792">
        <ele>467.20001220703</ele>
        <time>2023-06-01T11:57:00.000Z</time>
      </trkpt>
      <trkpt lat="43.57472" lon="2.39787">
        <ele>467.39999389648</ele>
        <time>2023-06-01T11:57:03.000Z</time>
      </trkpt>
      <trkpt lat="43.57473" lon="2.39782">
        <ele>467.60000610352</ele>
        <time>2023-06-01T11:57:07.000Z</time>
      </trkpt>
      <trkpt lat="43.57473" lon="2.3978">
        <ele>467.79998779297</ele>
        <time>2023-06-01T11:57:09.000Z</time>
      </trkpt>
      <trkpt lat="43.57473" lon="2.3977">
        <ele>468</ele>
        <time>2023-06-01T11:57:17.000Z</time>
      </trkpt>
      <trkpt lat="43.57473" lon="2.39765">
        <ele>468.39999389648</ele>
        <time>2023-06-01T11:57:21.000Z</time>
      </trkpt>
      <trkpt lat="43.57473" lon="2.39762">
        <ele>468.60000610352</ele>
        <time>2023-06-01T11:57:23.000Z</time>
      </trkpt>
      <trkpt lat="43.57473" lon="2.39758">
        <ele>468.79998779297</ele>
        <time>2023-06-01T11:57:26.000Z</time>
      </trkpt>
      <trkpt lat="43.57474" lon="2.39751">
        <ele>468.79998779297</ele>
        <time>2023-06-01T11:57:32.000Z</time>
      </trkpt>
      <trkpt lat="43.57474" lon="2.39747">
        <ele>468.79998779297</ele>
        <time>2023-06-01T11:57:35.000Z</time>
      </trkpt>
      <trkpt lat="43.57476" lon="2.39738">
        <ele>469.20001220703</ele>
        <time>2023-06-01T11:57:43.000Z</time>
      </trkpt>
      <trkpt lat="43.57477" lon="2.39728">
        <ele>469.20001220703</ele>
        <time>2023-06-01T11:57:51.000Z</time>
      </trkpt>
      <trkpt lat="43.57475" lon="2.39723">
        <ele>469</ele>
        <time>2023-06-01T11:57:58.000Z</time>
      </trkpt>
      <trkpt lat="43.57474" lon="2.39707">
        <ele>468</ele>
        <time>2023-06-01T11:58:07.000Z</time>
      </trkpt>
      <trkpt lat="43.57474" lon="2.39704">
        <ele>468</ele>
        <time>2023-06-01T11:58:09.000Z</time>
      </trkpt>
      <trkpt lat="43.57474" lon="2.39698">
        <ele>467.79998779297</ele>
        <time>2023-06-01T11:58:13.000Z</time>
      </trkpt>
      <trkpt lat="43.57473" lon="2.39694">
        <ele>467.79998779297</ele>
        <time>2023-06-01T11:58:15.000Z</time>
      </trkpt>
      <trkpt lat="43.57472" lon="2.39689">
        <ele>467.39999389648</ele>
        <time>2023-06-01T11:58:18.000Z</time>
      </trkpt>
      <trkpt lat="43.57472" lon="2.39684">
        <ele>467.20001220703</ele>
        <time>2023-06-01T11:58:21.000Z</time>
      </trkpt>
      <trkpt lat="43.57471" lon="2.39678">
        <ele>467</ele>
        <time>2023-06-01T11:58:25.000Z</time>
      </trkpt>
      <trkpt lat="43.5747" lon="2.39673">
        <ele>467</ele>
        <time>2023-06-01T11:58:28.000Z</time>
      </trkpt>
      <trkpt lat="43.57469" lon="2.39663">
        <ele>466.39999389648</ele>
        <time>2023-06-01T11:58:35.000Z</time>
      </trkpt>
      <trkpt lat="43.57469" lon="2.39661">
        <ele>466.20001220703</ele>
        <time>2023-06-01T11:58:36.000Z</time>
      </trkpt>
      <trkpt lat="43.57468" lon="2.39658">
        <ele>465.60000610352</ele>
        <time>2023-06-01T11:58:39.000Z</time>
      </trkpt>
      <trkpt lat="43.57468" lon="2.39656">
        <ele>465.39999389648</ele>
        <time>2023-06-01T11:58:41.000Z</time>
      </trkpt>
      <trkpt lat="43.57468" lon="2.39654">
        <ele>465.20001220703</ele>
        <time>2023-06-01T11:58:42.000Z</time>
      </trkpt>
      <trkpt lat="43.57467" lon="2.39655">
        <ele>465.39999389648</ele>
        <time>2023-06-01T11:58:49.000Z</time>
      </trkpt>
      <trkpt lat="43.57468" lon="2.39644">
        <ele>465.39999389648</ele>
        <time>2023-06-01T11:58:57.000Z</time>
      </trkpt>
      <trkpt lat="43.57468" lon="2.39632">
        <ele>464.60000610352</ele>
        <time>2023-06-01T11:59:04.000Z</time>
      </trkpt>
      <trkpt lat="43.57467" lon="2.39629">
        <ele>464.20001220703</ele>
        <time>2023-06-01T11:59:06.000Z</time>
      </trkpt>
      <trkpt lat="43.57467" lon="2.39622">
        <ele>463.39999389648</ele>
        <time>2023-06-01T11:59:10.000Z</time>
      </trkpt>
      <trkpt lat="43.57467" lon="2.39615">
        <ele>463.20001220703</ele>
        <time>2023-06-01T11:59:15.000Z</time>
      </trkpt>
      <trkpt lat="43.57467" lon="2.39613">
        <ele>463.20001220703</ele>
        <time>2023-06-01T11:59:16.000Z</time>
      </trkpt>
      <trkpt lat="43.57467" lon="2.39612">
        <ele>463</ele>
        <time>2023-06-01T11:59:17.000Z</time>
      </trkpt>
      <trkpt lat="43.57466" lon="2.39602">
        <ele>462.39999389648</ele>
        <time>2023-06-01T11:59:24.000Z</time>
      </trkpt>
      <trkpt lat="43.57466" lon="2.39599">
        <ele>462.20001220703</ele>
        <time>2023-06-01T11:59:26.000Z</time>
      </trkpt>
      <trkpt lat="43.57465" lon="2.39588">
        <ele>461.79998779297</ele>
        <time>2023-06-01T11:59:33.000Z</time>
      </trkpt>
      <trkpt lat="43.57464" lon="2.39578">
        <ele>461.20001220703</ele>
        <time>2023-06-01T11:59:39.000Z</time>
      </trkpt>
      <trkpt lat="43.57464" lon="2.39576">
        <ele>460.79998779297</ele>
        <time>2023-06-01T11:59:41.000Z</time>
      </trkpt>
      <trkpt lat="43.57464" lon="2.39571">
        <ele>460</ele>
        <time>2023-06-01T11:59:44.000Z</time>
      </trkpt>
      <trkpt lat="43.57464" lon="2.3957">
        <ele>459.79998779297</ele>
        <time>2023-06-01T11:59:45.000Z</time>
      </trkpt>
      <trkpt lat="43.57463" lon="2.39563">
        <ele>459.39999389648</ele>
        <time>2023-06-01T11:59:49.000Z</time>
      </trkpt>
      <trkpt lat="43.57463" lon="2.39558">
        <ele>459</ele>
        <time>2023-06-01T11:59:52.000Z</time>
      </trkpt>
      <trkpt lat="43.57462" lon="2.39549">
        <ele>458.20001220703</ele>
        <time>2023-06-01T11:59:57.000Z</time>
      </trkpt>
      <trkpt lat="43.57461" lon="2.39548">
        <ele>458</ele>
        <time>2023-06-01T11:59:58.000Z</time>
      </trkpt>
      <trkpt lat="43.57461" lon="2.39543">
        <ele>457.39999389648</ele>
        <time>2023-06-01T12:00:01.000Z</time>
      </trkpt>
      <trkpt lat="43.57461" lon="2.39542">
        <ele>457.20001220703</ele>
        <time>2023-06-01T12:00:02.000Z</time>
      </trkpt>
      <trkpt lat="43.57461" lon="2.39539">
        <ele>456.79998779297</ele>
        <time>2023-06-01T12:00:04.000Z</time>
      </trkpt>
      <trkpt lat="43.57461" lon="2.39535">
        <ele>456.60000610352</ele>
        <time>2023-06-01T12:00:07.000Z</time>
      </trkpt>
      <trkpt lat="43.57461" lon="2.39534">
        <ele>456.39999389648</ele>
        <time>2023-06-01T12:00:08.000Z</time>
      </trkpt>
      <trkpt lat="43.5746" lon="2.39525">
        <ele>455.79998779297</ele>
        <time>2023-06-01T12:00:14.000Z</time>
      </trkpt>
      <trkpt lat="43.5746" lon="2.39524">
        <ele>455.60000610352</ele>
        <time>2023-06-01T12:00:15.000Z</time>
      </trkpt>
      <trkpt lat="43.5746" lon="2.39521">
        <ele>455.39999389648</ele>
        <time>2023-06-01T12:00:17.000Z</time>
      </trkpt>
      <trkpt lat="43.57459" lon="2.39515">
        <ele>455</ele>
        <time>2023-06-01T12:00:21.000Z</time>
      </trkpt>
      <trkpt lat="43.57458" lon="2.39509">
        <ele>454.79998779297</ele>
        <time>2023-06-01T12:00:24.000Z</time>
      </trkpt>
      <trkpt lat="43.57457" lon="2.39504">
        <ele>454.39999389648</ele>
        <time>2023-06-01T12:00:27.000Z</time>
      </trkpt>
      <trkpt lat="43.57455" lon="2.395">
        <ele>453.79998779297</ele>
        <time>2023-06-01T12:00:30.000Z</time>
      </trkpt>
      <trkpt lat="43.57455" lon="2.39498">
        <ele>453.60000610352</ele>
        <time>2023-06-01T12:00:31.000Z</time>
      </trkpt>
      <trkpt lat="43.57455" lon="2.39497">
        <ele>453.39999389648</ele>
        <time>2023-06-01T12:00:32.000Z</time>
      </trkpt>
      <trkpt lat="43.57454" lon="2.39491">
        <ele>452.60000610352</ele>
        <time>2023-06-01T12:00:35.000Z</time>
      </trkpt>
      <trkpt lat="43.57453" lon="2.3949">
        <ele>452.39999389648</ele>
        <time>2023-06-01T12:00:36.000Z</time>
      </trkpt>
      <trkpt lat="43.57452" lon="2.39486">
        <ele>451.79998779297</ele>
        <time>2023-06-01T12:00:38.000Z</time>
      </trkpt>
      <trkpt lat="43.57452" lon="2.39483">
        <ele>451.39999389648</ele>
        <time>2023-06-01T12:00:40.000Z</time>
      </trkpt>
      <trkpt lat="43.57452" lon="2.3948">
        <ele>451.20001220703</ele>
        <time>2023-06-01T12:00:42.000Z</time>
      </trkpt>
      <trkpt lat="43.5745" lon="2.39473">
        <ele>450.60000610352</ele>
        <time>2023-06-01T12:00:47.000Z</time>
      </trkpt>
      <trkpt lat="43.5745" lon="2.39469">
        <ele>450.39999389648</ele>
        <time>2023-06-01T12:00:49.000Z</time>
      </trkpt>
      <trkpt lat="43.57449" lon="2.39461">
        <ele>449.39999389648</ele>
        <time>2023-06-01T12:00:54.000Z</time>
      </trkpt>
      <trkpt lat="43.57449" lon="2.39459">
        <ele>449.20001220703</ele>
        <time>2023-06-01T12:00:55.000Z</time>
      </trkpt>
      <trkpt lat="43.57448" lon="2.39451">
        <ele>448.20001220703</ele>
        <time>2023-06-01T12:01:00.000Z</time>
      </trkpt>
      <trkpt lat="43.57449" lon="2.3945">
        <ele>448.20001220703</ele>
        <time>2023-06-01T12:01:01.000Z</time>
      </trkpt>
      <trkpt lat="43.57449" lon="2.39449">
        <ele>448</ele>
        <time>2023-06-01T12:01:02.000Z</time>
      </trkpt>
      <trkpt lat="43.57449" lon="2.39441">
        <ele>447.39999389648</ele>
        <time>2023-06-01T12:01:07.000Z</time>
      </trkpt>
      <trkpt lat="43.57449" lon="2.39439">
        <ele>447.20001220703</ele>
        <time>2023-06-01T12:01:08.000Z</time>
      </trkpt>
      <trkpt lat="43.57449" lon="2.39436">
        <ele>447</ele>
        <time>2023-06-01T12:01:10.000Z</time>
      </trkpt>
      <trkpt lat="43.57447" lon="2.39426">
        <ele>446.20001220703</ele>
        <time>2023-06-01T12:01:17.000Z</time>
      </trkpt>
      <trkpt lat="43.57447" lon="2.39424">
        <ele>446.20001220703</ele>
        <time>2023-06-01T12:01:18.000Z</time>
      </trkpt>
      <trkpt lat="43.57447" lon="2.39413">
        <ele>445.39999389648</ele>
        <time>2023-06-01T12:01:25.000Z</time>
      </trkpt>
      <trkpt lat="43.57447" lon="2.39411">
        <ele>445.20001220703</ele>
        <time>2023-06-01T12:01:26.000Z</time>
      </trkpt>
      <trkpt lat="43.57446" lon="2.39404">
        <ele>444</ele>
        <time>2023-06-01T12:01:30.000Z</time>
      </trkpt>
      <trkpt lat="43.57446" lon="2.39403">
        <ele>443.79998779297</ele>
        <time>2023-06-01T12:01:31.000Z</time>
      </trkpt>
      <trkpt lat="43.57443" lon="2.39392">
        <ele>443</ele>
        <time>2023-06-01T12:01:38.000Z</time>
      </trkpt>
      <trkpt lat="43.57443" lon="2.3939">
        <ele>443</ele>
        <time>2023-06-01T12:01:39.000Z</time>
      </trkpt>
      <trkpt lat="43.57442" lon="2.39389">
        <ele>443</ele>
        <time>2023-06-01T12:01:40.000Z</time>
      </trkpt>
      <trkpt lat="43.57441" lon="2.39384">
        <ele>442.39999389648</ele>
        <time>2023-06-01T12:01:43.000Z</time>
      </trkpt>
      <trkpt lat="43.57441" lon="2.39381">
        <ele>441.60000610352</ele>
        <time>2023-06-01T12:01:45.000Z</time>
      </trkpt>
      <trkpt lat="43.5744" lon="2.39374">
        <ele>440.60000610352</ele>
        <time>2023-06-01T12:01:50.000Z</time>
      </trkpt>
      <trkpt lat="43.57439" lon="2.39361">
        <ele>439.79998779297</ele>
        <time>2023-06-01T12:01:58.000Z</time>
      </trkpt>
      <trkpt lat="43.57438" lon="2.39357">
        <ele>439.60000610352</ele>
        <time>2023-06-01T12:02:01.000Z</time>
      </trkpt>
      <trkpt lat="43.57438" lon="2.3935">
        <ele>438.79998779297</ele>
        <time>2023-06-01T12:02:07.000Z</time>
      </trkpt>
      <trkpt lat="43.57437" lon="2.39345">
        <ele>438.60000610352</ele>
        <time>2023-06-01T12:02:10.000Z</time>
      </trkpt>
      <trkpt lat="43.57436" lon="2.39339">
        <ele>438.20001220703</ele>
        <time>2023-06-01T12:02:13.000Z</time>
      </trkpt>
      <trkpt lat="43.57435" lon="2.39332">
        <ele>437.39999389648</ele>
        <time>2023-06-01T12:02:17.000Z</time>
      </trkpt>
      <trkpt lat="43.57435" lon="2.39327">
        <ele>436.60000610352</ele>
        <time>2023-06-01T12:02:20.000Z</time>
      </trkpt>
      <trkpt lat="43.57435" lon="2.39325">
        <ele>436.39999389648</ele>
        <time>2023-06-01T12:02:21.000Z</time>
      </trkpt>
      <trkpt lat="43.57434" lon="2.39313">
        <ele>435.20001220703</ele>
        <time>2023-06-01T12:02:28.000Z</time>
      </trkpt>
      <trkpt lat="43.57433" lon="2.393">
        <ele>434.39999389648</ele>
        <time>2023-06-01T12:02:36.000Z</time>
      </trkpt>
      <trkpt lat="43.57432" lon="2.39298">
        <ele>434.20001220703</ele>
        <time>2023-06-01T12:02:37.000Z</time>
      </trkpt>
      <trkpt lat="43.57431" lon="2.39287">
        <ele>433.39999389648</ele>
        <time>2023-06-01T12:02:44.000Z</time>
      </trkpt>
      <trkpt lat="43.57431" lon="2.39284">
        <ele>433</ele>
        <time>2023-06-01T12:02:46.000Z</time>
      </trkpt>
      <trkpt lat="43.57431" lon="2.39274">
        <ele>432.60000610352</ele>
        <time>2023-06-01T12:02:52.000Z</time>
      </trkpt>
      <trkpt lat="43.57431" lon="2.39268">
        <ele>432</ele>
        <time>2023-06-01T12:02:56.000Z</time>
      </trkpt>
      <trkpt lat="43.57431" lon="2.39265">
        <ele>431.79998779297</ele>
        <time>2023-06-01T12:02:58.000Z</time>
      </trkpt>
      <trkpt lat="43.57431" lon="2.39256">
        <ele>431</ele>
        <time>2023-06-01T12:03:04.000Z</time>
      </trkpt>
      <trkpt lat="43.57431" lon="2.39254">
        <ele>430.79998779297</ele>
        <time>2023-06-01T12:03:06.000Z</time>
      </trkpt>
      <trkpt lat="43.57431" lon="2.39249">
        <ele>429.79998779297</ele>
        <time>2023-06-01T12:03:14.000Z</time>
      </trkpt>
      <trkpt lat="43.57432" lon="2.39243">
        <ele>429.60000610352</ele>
        <time>2023-06-01T12:03:24.000Z</time>
      </trkpt>
      <trkpt lat="43.57434" lon="2.39236">
        <ele>429</ele>
        <time>2023-06-01T12:03:30.000Z</time>
      </trkpt>
      <trkpt lat="43.57435" lon="2.39235">
        <ele>428.79998779297</ele>
        <time>2023-06-01T12:03:31.000Z</time>
      </trkpt>
      <trkpt lat="43.57438" lon="2.3923">
        <ele>428</ele>
        <time>2023-06-01T12:03:37.000Z</time>
      </trkpt>
      <trkpt lat="43.57441" lon="2.39227">
        <ele>427.79998779297</ele>
        <time>2023-06-01T12:03:41.000Z</time>
      </trkpt>
      <trkpt lat="43.57441" lon="2.39225">
        <ele>427.60000610352</ele>
        <time>2023-06-01T12:03:42.000Z</time>
      </trkpt>
      <trkpt lat="43.57442" lon="2.39223">
        <ele>427.60000610352</ele>
        <time>2023-06-01T12:03:44.000Z</time>
      </trkpt>
      <trkpt lat="43.57445" lon="2.39217">
        <ele>427</ele>
        <time>2023-06-01T12:03:49.000Z</time>
      </trkpt>
      <trkpt lat="43.57446" lon="2.39215">
        <ele>426.60000610352</ele>
        <time>2023-06-01T12:03:51.000Z</time>
      </trkpt>
      <trkpt lat="43.57447" lon="2.39209">
        <ele>426</ele>
        <time>2023-06-01T12:03:55.000Z</time>
      </trkpt>
      <trkpt lat="43.57449" lon="2.39202">
        <ele>425.60000610352</ele>
        <time>2023-06-01T12:04:01.000Z</time>
      </trkpt>
      <trkpt lat="43.57452" lon="2.3919">
        <ele>424.39999389648</ele>
        <time>2023-06-01T12:04:09.000Z</time>
      </trkpt>
      <trkpt lat="43.57453" lon="2.39187">
        <ele>423.79998779297</ele>
        <time>2023-06-01T12:04:12.000Z</time>
      </trkpt>
      <trkpt lat="43.57455" lon="2.39183">
        <ele>423.39999389648</ele>
        <time>2023-06-01T12:04:15.000Z</time>
      </trkpt>
      <trkpt lat="43.57455" lon="2.39182">
        <ele>423.39999389648</ele>
        <time>2023-06-01T12:04:16.000Z</time>
      </trkpt>
      <trkpt lat="43.57456" lon="2.3918">
        <ele>423</ele>
        <time>2023-06-01T12:04:18.000Z</time>
      </trkpt>
      <trkpt lat="43.57457" lon="2.39176">
        <ele>422.79998779297</ele>
        <time>2023-06-01T12:04:21.000Z</time>
      </trkpt>
      <trkpt lat="43.57458" lon="2.39175">
        <ele>422.60000610352</ele>
        <time>2023-06-01T12:04:22.000Z</time>
      </trkpt>
      <trkpt lat="43.57459" lon="2.39172">
        <ele>422.39999389648</ele>
        <time>2023-06-01T12:04:24.000Z</time>
      </trkpt>
      <trkpt lat="43.57459" lon="2.39169">
        <ele>422</ele>
        <time>2023-06-01T12:04:26.000Z</time>
      </trkpt>
      <trkpt lat="43.57461" lon="2.39166">
        <ele>421.39999389648</ele>
        <time>2023-06-01T12:04:29.000Z</time>
      </trkpt>
      <trkpt lat="43.57461" lon="2.39165">
        <ele>421.39999389648</ele>
        <time>2023-06-01T12:04:30.000Z</time>
      </trkpt>
      <trkpt lat="43.57462" lon="2.39163">
        <ele>421.20001220703</ele>
        <time>2023-06-01T12:04:31.000Z</time>
      </trkpt>
      <trkpt lat="43.57463" lon="2.3916">
        <ele>420.79998779297</ele>
        <time>2023-06-01T12:04:34.000Z</time>
      </trkpt>
      <trkpt lat="43.57466" lon="2.39154">
        <ele>420</ele>
        <time>2023-06-01T12:04:40.000Z</time>
      </trkpt>
      <trkpt lat="43.57466" lon="2.39152">
        <ele>419.79998779297</ele>
        <time>2023-06-01T12:04:41.000Z</time>
      </trkpt>
      <trkpt lat="43.57468" lon="2.39148">
        <ele>419.20001220703</ele>
        <time>2023-06-01T12:04:45.000Z</time>
      </trkpt>
      <trkpt lat="43.5747" lon="2.39145">
        <ele>419</ele>
        <time>2023-06-01T12:04:48.000Z</time>
      </trkpt>
      <trkpt lat="43.57471" lon="2.3914">
        <ele>418.60000610352</ele>
        <time>2023-06-01T12:04:51.000Z</time>
      </trkpt>
      <trkpt lat="43.57473" lon="2.39136">
        <ele>418.39999389648</ele>
        <time>2023-06-01T12:04:54.000Z</time>
      </trkpt>
      <trkpt lat="43.57474" lon="2.39135">
        <ele>418.39999389648</ele>
        <time>2023-06-01T12:04:55.000Z</time>
      </trkpt>
      <trkpt lat="43.57477" lon="2.39131">
        <ele>418</ele>
        <time>2023-06-01T12:04:58.000Z</time>
      </trkpt>
      <trkpt lat="43.57478" lon="2.3913">
        <ele>417.79998779297</ele>
        <time>2023-06-01T12:04:59.000Z</time>
      </trkpt>
      <trkpt lat="43.57482" lon="2.39127">
        <ele>416.79998779297</ele>
        <time>2023-06-01T12:05:04.000Z</time>
      </trkpt>
      <trkpt lat="43.57483" lon="2.39128">
        <ele>416.39999389648</ele>
        <time>2023-06-01T12:05:06.000Z</time>
      </trkpt>
      <trkpt lat="43.57485" lon="2.39127">
        <ele>416.20001220703</ele>
        <time>2023-06-01T12:05:08.000Z</time>
      </trkpt>
      <trkpt lat="43.57488" lon="2.39128">
        <ele>415.79998779297</ele>
        <time>2023-06-01T12:05:11.000Z</time>
      </trkpt>
      <trkpt lat="43.57491" lon="2.39129">
        <ele>415.60000610352</ele>
        <time>2023-06-01T12:05:14.000Z</time>
      </trkpt>
      <trkpt lat="43.57495" lon="2.39131">
        <ele>415</ele>
        <time>2023-06-01T12:05:18.000Z</time>
      </trkpt>
      <trkpt lat="43.57495" lon="2.39131">
        <ele>414.79998779297</ele>
        <time>2023-06-01T12:05:20.000Z</time>
      </trkpt>
      <trkpt lat="43.57495" lon="2.39131">
        <ele>414.79998779297</ele>
        <time>2023-06-01T12:05:30.000Z</time>
      </trkpt>
      <trkpt lat="43.57496" lon="2.39128">
        <ele>414.60000610352</ele>
        <time>2023-06-01T12:05:31.000Z</time>
      </trkpt>
      <trkpt lat="43.57496" lon="2.3913">
        <ele>414.60000610352</ele>
        <time>2023-06-01T12:05:37.000Z</time>
      </trkpt>
      <trkpt lat="43.57497" lon="2.39129">
        <ele>414.60000610352</ele>
        <time>2023-06-01T12:05:47.000Z</time>
      </trkpt>
      <trkpt lat="43.57501" lon="2.39126">
        <ele>414</ele>
        <time>2023-06-01T12:05:55.000Z</time>
      </trkpt>
      <trkpt lat="43.575" lon="2.39128">
        <ele>414.20001220703</ele>
        <time>2023-06-01T12:06:02.000Z</time>
      </trkpt>
      <trkpt lat="43.57503" lon="2.39126">
        <ele>415.20001220703</ele>
        <time>2023-06-01T12:06:11.000Z</time>
      </trkpt>
      <trkpt lat="43.57503" lon="2.39126">
        <ele>415.60000610352</ele>
        <time>2023-06-01T12:06:19.000Z</time>
      </trkpt>
      <trkpt lat="43.57503" lon="2.39126">
        <ele>415.79998779297</ele>
        <time>2023-06-01T12:06:21.000Z</time>
      </trkpt>
      <trkpt lat="43.57502" lon="2.39126">
        <ele>415.79998779297</ele>
        <time>2023-06-01T12:06:30.000Z</time>
      </trkpt>
      <trkpt lat="43.57504" lon="2.39122">
        <ele>415.60000610352</ele>
        <time>2023-06-01T12:06:40.000Z</time>
      </trkpt>
      <trkpt lat="43.57503" lon="2.39123">
        <ele>415</ele>
        <time>2023-06-01T12:06:49.000Z</time>
      </trkpt>
      <trkpt lat="43.57503" lon="2.39124">
        <ele>414.79998779297</ele>
        <time>2023-06-01T12:06:57.000Z</time>
      </trkpt>
      <trkpt lat="43.57502" lon="2.39126">
        <ele>415</ele>
        <time>2023-06-01T12:07:12.000Z</time>
      </trkpt>
      <trkpt lat="43.57503" lon="2.39126">
        <ele>415.20001220703</ele>
        <time>2023-06-01T12:07:23.000Z</time>
      </trkpt>
      <trkpt lat="43.57503" lon="2.39126">
        <ele>414.60000610352</ele>
        <time>2023-06-01T12:07:32.000Z</time>
      </trkpt>
      <trkpt lat="43.57501" lon="2.39125">
        <ele>414.60000610352</ele>
        <time>2023-06-01T12:07:39.000Z</time>
      </trkpt>
      <trkpt lat="43.57501" lon="2.39126">
        <ele>414.39999389648</ele>
        <time>2023-06-01T12:07:41.000Z</time>
      </trkpt>
      <trkpt lat="43.57502" lon="2.39126">
        <ele>414.39999389648</ele>
        <time>2023-06-01T12:07:48.000Z</time>
      </trkpt>
      <trkpt lat="43.57504" lon="2.39126">
        <ele>414.79998779297</ele>
        <time>2023-06-01T12:07:56.000Z</time>
      </trkpt>
      <trkpt lat="43.57502" lon="2.39125">
        <ele>414.39999389648</ele>
        <time>2023-06-01T12:08:02.000Z</time>
      </trkpt>
      <trkpt lat="43.57503" lon="2.39125">
        <ele>414.39999389648</ele>
        <time>2023-06-01T12:08:11.000Z</time>
      </trkpt>
      <trkpt lat="43.57504" lon="2.39125">
        <ele>414.39999389648</ele>
        <time>2023-06-01T12:08:13.000Z</time>
      </trkpt>
      <trkpt lat="43.57504" lon="2.39125">
        <ele>414.39999389648</ele>
        <time>2023-06-01T12:08:14.000Z</time>
      </trkpt>
      <trkpt lat="43.57506" lon="2.39125">
        <ele>414.79998779297</ele>
        <time>2023-06-01T12:08:19.000Z</time>
      </trkpt>
      <trkpt lat="43.5751" lon="2.39127">
        <ele>414.60000610352</ele>
        <time>2023-06-01T12:08:25.000Z</time>
      </trkpt>
      <trkpt lat="43.57517" lon="2.3913">
        <ele>414.60000610352</ele>
        <time>2023-06-01T12:08:31.000Z</time>
      </trkpt>
      <trkpt lat="43.57527" lon="2.39136">
        <ele>414.20001220703</ele>
        <time>2023-06-01T12:08:42.000Z</time>
      </trkpt>
      <trkpt lat="43.5753" lon="2.39136">
        <ele>414</ele>
        <time>2023-06-01T12:08:45.000Z</time>
      </trkpt>
      <trkpt lat="43.57531" lon="2.39136">
        <ele>413.79998779297</ele>
        <time>2023-06-01T12:08:47.000Z</time>
      </trkpt>
      <trkpt lat="43.57533" lon="2.39137">
        <ele>413.79998779297</ele>
        <time>2023-06-01T12:08:49.000Z</time>
      </trkpt>
      <trkpt lat="43.57538" lon="2.39136">
        <ele>413.79998779297</ele>
        <time>2023-06-01T12:08:55.000Z</time>
      </trkpt>
      <trkpt lat="43.57539" lon="2.39135">
        <ele>413.60000610352</ele>
        <time>2023-06-01T12:08:57.000Z</time>
      </trkpt>
      <trkpt lat="43.57542" lon="2.39134">
        <ele>413.39999389648</ele>
        <time>2023-06-01T12:09:02.000Z</time>
      </trkpt>
      <trkpt lat="43.57539" lon="2.39131">
        <ele>413.20001220703</ele>
        <time>2023-06-01T12:09:07.000Z</time>
      </trkpt>
      <trkpt lat="43.57537" lon="2.39132">
        <ele>413</ele>
        <time>2023-06-01T12:09:09.000Z</time>
      </trkpt>
      <trkpt lat="43.57534" lon="2.39131">
        <ele>412.60000610352</ele>
        <time>2023-06-01T12:09:11.000Z</time>
      </trkpt>
      <trkpt lat="43.57531" lon="2.3913">
        <ele>412</ele>
        <time>2023-06-01T12:09:14.000Z</time>
      </trkpt>
      <trkpt lat="43.57528" lon="2.39129">
        <ele>411.39999389648</ele>
        <time>2023-06-01T12:09:17.000Z</time>
      </trkpt>
      <trkpt lat="43.57525" lon="2.39126">
        <ele>410.79998779297</ele>
        <time>2023-06-01T12:09:20.000Z</time>
      </trkpt>
      <trkpt lat="43.57523" lon="2.39125">
        <ele>410.39999389648</ele>
        <time>2023-06-01T12:09:22.000Z</time>
      </trkpt>
      <trkpt lat="43.57521" lon="2.39123">
        <ele>410.20001220703</ele>
        <time>2023-06-01T12:09:27.000Z</time>
      </trkpt>
      <trkpt lat="43.5752" lon="2.39119">
        <ele>410.20001220703</ele>
        <time>2023-06-01T12:09:39.000Z</time>
      </trkpt>
      <trkpt lat="43.57519" lon="2.39112">
        <ele>409.60000610352</ele>
        <time>2023-06-01T12:09:46.000Z</time>
      </trkpt>
      <trkpt lat="43.57519" lon="2.39111">
        <ele>409.39999389648</ele>
        <time>2023-06-01T12:09:47.000Z</time>
      </trkpt>
      <trkpt lat="43.5752" lon="2.39104">
        <ele>408.79998779297</ele>
        <time>2023-06-01T12:09:53.000Z</time>
      </trkpt>
      <trkpt lat="43.5752" lon="2.39102">
        <ele>408.39999389648</ele>
        <time>2023-06-01T12:09:55.000Z</time>
      </trkpt>
      <trkpt lat="43.57522" lon="2.39098">
        <ele>407.79998779297</ele>
        <time>2023-06-01T12:09:59.000Z</time>
      </trkpt>
      <trkpt lat="43.57522" lon="2.39091">
        <ele>407.39999389648</ele>
        <time>2023-06-01T12:10:06.000Z</time>
      </trkpt>
      <trkpt lat="43.57522" lon="2.3909">
        <ele>407.20001220703</ele>
        <time>2023-06-01T12:10:08.000Z</time>
      </trkpt>
      <trkpt lat="43.57522" lon="2.39085">
        <ele>407</ele>
        <time>2023-06-01T12:10:13.000Z</time>
      </trkpt>
      <trkpt lat="43.57524" lon="2.39073">
        <ele>406.20001220703</ele>
        <time>2023-06-01T12:10:21.000Z</time>
      </trkpt>
      <trkpt lat="43.57524" lon="2.39072">
        <ele>406.20001220703</ele>
        <time>2023-06-01T12:10:22.000Z</time>
      </trkpt>
      <trkpt lat="43.57524" lon="2.3906">
        <ele>405.39999389648</ele>
        <time>2023-06-01T12:10:31.000Z</time>
      </trkpt>
      <trkpt lat="43.57524" lon="2.39056">
        <ele>405.20001220703</ele>
        <time>2023-06-01T12:10:34.000Z</time>
      </trkpt>
      <trkpt lat="43.57524" lon="2.39049">
        <ele>405</ele>
        <time>2023-06-01T12:10:40.000Z</time>
      </trkpt>
      <trkpt lat="43.57522" lon="2.39042">
        <ele>405</ele>
        <time>2023-06-01T12:10:45.000Z</time>
      </trkpt>
      <trkpt lat="43.57521" lon="2.39036">
        <ele>405.20001220703</ele>
        <time>2023-06-01T12:10:49.000Z</time>
      </trkpt>
      <trkpt lat="43.57519" lon="2.39026">
        <ele>406</ele>
        <time>2023-06-01T12:10:57.000Z</time>
      </trkpt>
      <trkpt lat="43.57519" lon="2.39025">
        <ele>406</ele>
        <time>2023-06-01T12:10:58.000Z</time>
      </trkpt>
      <trkpt lat="43.57519" lon="2.39021">
        <ele>406.39999389648</ele>
        <time>2023-06-01T12:11:03.000Z</time>
      </trkpt>
      <trkpt lat="43.57519" lon="2.39018">
        <ele>406.20001220703</ele>
        <time>2023-06-01T12:11:09.000Z</time>
      </trkpt>
      <trkpt lat="43.57518" lon="2.39017">
        <ele>406.39999389648</ele>
        <time>2023-06-01T12:11:17.000Z</time>
      </trkpt>
      <trkpt lat="43.57518" lon="2.39018">
        <ele>405.60000610352</ele>
        <time>2023-06-01T12:11:30.000Z</time>
      </trkpt>
      <trkpt lat="43.57514" lon="2.39004">
        <ele>406.60000610352</ele>
        <time>2023-06-01T12:11:41.000Z</time>
      </trkpt>
      <trkpt lat="43.57514" lon="2.38999">
        <ele>406.39999389648</ele>
        <time>2023-06-01T12:11:49.000Z</time>
      </trkpt>
      <trkpt lat="43.57515" lon="2.38995">
        <ele>406.20001220703</ele>
        <time>2023-06-01T12:11:55.000Z</time>
      </trkpt>
      <trkpt lat="43.57516" lon="2.38991">
        <ele>405.79998779297</ele>
        <time>2023-06-01T12:12:01.000Z</time>
      </trkpt>
      <trkpt lat="43.57516" lon="2.38985">
        <ele>405.60000610352</ele>
        <time>2023-06-01T12:12:07.000Z</time>
      </trkpt>
      <trkpt lat="43.57515" lon="2.38982">
        <ele>405.39999389648</ele>
        <time>2023-06-01T12:12:12.000Z</time>
      </trkpt>
      <trkpt lat="43.57514" lon="2.3898">
        <ele>405.20001220703</ele>
        <time>2023-06-01T12:12:14.000Z</time>
      </trkpt>
      <trkpt lat="43.57509" lon="2.38976">
        <ele>404.20001220703</ele>
        <time>2023-06-01T12:12:20.000Z</time>
      </trkpt>
      <trkpt lat="43.57508" lon="2.38975">
        <ele>403.79998779297</ele>
        <time>2023-06-01T12:12:21.000Z</time>
      </trkpt>
      <trkpt lat="43.57505" lon="2.38974">
        <ele>403</ele>
        <time>2023-06-01T12:12:24.000Z</time>
      </trkpt>
      <trkpt lat="43.57503" lon="2.38975">
        <ele>402.60000610352</ele>
        <time>2023-06-01T12:12:25.000Z</time>
      </trkpt>
      <trkpt lat="43.57502" lon="2.38976">
        <ele>402.20001220703</ele>
        <time>2023-06-01T12:12:27.000Z</time>
      </trkpt>
      <trkpt lat="43.575" lon="2.38977">
        <ele>401.79998779297</ele>
        <time>2023-06-01T12:12:29.000Z</time>
      </trkpt>
      <trkpt lat="43.57497" lon="2.38979">
        <ele>401.39999389648</ele>
        <time>2023-06-01T12:12:33.000Z</time>
      </trkpt>
      <trkpt lat="43.57494" lon="2.38981">
        <ele>401</ele>
        <time>2023-06-01T12:12:36.000Z</time>
      </trkpt>
      <trkpt lat="43.57493" lon="2.38981">
        <ele>401</ele>
        <time>2023-06-01T12:12:37.000Z</time>
      </trkpt>
      <trkpt lat="43.57492" lon="2.38982">
        <ele>400.79998779297</ele>
        <time>2023-06-01T12:12:38.000Z</time>
      </trkpt>
      <trkpt lat="43.5749" lon="2.38984">
        <ele>400.39999389648</ele>
        <time>2023-06-01T12:12:40.000Z</time>
      </trkpt>
      <trkpt lat="43.57483" lon="2.38988">
        <ele>399.60000610352</ele>
        <time>2023-06-01T12:12:47.000Z</time>
      </trkpt>
      <trkpt lat="43.57478" lon="2.38992">
        <ele>398.79998779297</ele>
        <time>2023-06-01T12:12:53.000Z</time>
      </trkpt>
      <trkpt lat="43.57478" lon="2.38992">
        <ele>398.60000610352</ele>
        <time>2023-06-01T12:12:54.000Z</time>
      </trkpt>
      <trkpt lat="43.57477" lon="2.38992">
        <ele>398.39999389648</ele>
        <time>2023-06-01T12:12:55.000Z</time>
      </trkpt>
      <trkpt lat="43.57476" lon="2.38993">
        <ele>398.20001220703</ele>
        <time>2023-06-01T12:13:00.000Z</time>
      </trkpt>
      <trkpt lat="43.5747" lon="2.39">
        <ele>398.39999389648</ele>
        <time>2023-06-01T12:13:12.000Z</time>
      </trkpt>
      <trkpt lat="43.57466" lon="2.39004">
        <ele>397.79998779297</ele>
        <time>2023-06-01T12:13:18.000Z</time>
      </trkpt>
      <trkpt lat="43.57463" lon="2.39007">
        <ele>397.60000610352</ele>
        <time>2023-06-01T12:13:22.000Z</time>
      </trkpt>
      <trkpt lat="43.57462" lon="2.39008">
        <ele>397.60000610352</ele>
        <time>2023-06-01T12:13:23.000Z</time>
      </trkpt>
      <trkpt lat="43.5746" lon="2.3901">
        <ele>397.20001220703</ele>
        <time>2023-06-01T12:13:26.000Z</time>
      </trkpt>
      <trkpt lat="43.57457" lon="2.39015">
        <ele>396.79998779297</ele>
        <time>2023-06-01T12:13:30.000Z</time>
      </trkpt>
      <trkpt lat="43.57456" lon="2.39017">
        <ele>396.60000610352</ele>
        <time>2023-06-01T12:13:33.000Z</time>
      </trkpt>
      <trkpt lat="43.57455" lon="2.39019">
        <ele>396.60000610352</ele>
        <time>2023-06-01T12:13:35.000Z</time>
      </trkpt>
      <trkpt lat="43.57453" lon="2.39022">
        <ele>396.60000610352</ele>
        <time>2023-06-01T12:13:38.000Z</time>
      </trkpt>
      <trkpt lat="43.57453" lon="2.39023">
        <ele>396.60000610352</ele>
        <time>2023-06-01T12:13:39.000Z</time>
      </trkpt>
      <trkpt lat="43.57452" lon="2.39025">
        <ele>396.60000610352</ele>
        <time>2023-06-01T12:13:40.000Z</time>
      </trkpt>
      <trkpt lat="43.57451" lon="2.39026">
        <ele>396.60000610352</ele>
        <time>2023-06-01T12:13:42.000Z</time>
      </trkpt>
      <trkpt lat="43.57451" lon="2.39026">
        <ele>396.60000610352</ele>
        <time>2023-06-01T12:13:43.000Z</time>
      </trkpt>
      <trkpt lat="43.5745" lon="2.39027">
        <ele>396.39999389648</ele>
        <time>2023-06-01T12:13:44.000Z</time>
      </trkpt>
      <trkpt lat="43.57447" lon="2.39031">
        <ele>396.39999389648</ele>
        <time>2023-06-01T12:13:48.000Z</time>
      </trkpt>
      <trkpt lat="43.57444" lon="2.39034">
        <ele>396.39999389648</ele>
        <time>2023-06-01T12:13:53.000Z</time>
      </trkpt>
      <trkpt lat="43.57444" lon="2.39035">
        <ele>396.20001220703</ele>
        <time>2023-06-01T12:14:01.000Z</time>
      </trkpt>
      <trkpt lat="43.57441" lon="2.39039">
        <ele>395.79998779297</ele>
        <time>2023-06-01T12:14:07.000Z</time>
      </trkpt>
      <trkpt lat="43.57439" lon="2.39042">
        <ele>395.39999389648</ele>
        <time>2023-06-01T12:14:12.000Z</time>
      </trkpt>
      <trkpt lat="43.57438" lon="2.39043">
        <ele>395.39999389648</ele>
        <time>2023-06-01T12:14:13.000Z</time>
      </trkpt>
      <trkpt lat="43.57432" lon="2.39049">
        <ele>394.20001220703</ele>
        <time>2023-06-01T12:14:20.000Z</time>
      </trkpt>
      <trkpt lat="43.57429" lon="2.39053">
        <ele>393.60000610352</ele>
        <time>2023-06-01T12:14:24.000Z</time>
      </trkpt>
      <trkpt lat="43.57428" lon="2.39056">
        <ele>393.20001220703</ele>
        <time>2023-06-01T12:14:26.000Z</time>
      </trkpt>
      <trkpt lat="43.57427" lon="2.39057">
        <ele>393</ele>
        <time>2023-06-01T12:14:27.000Z</time>
      </trkpt>
      <trkpt lat="43.57423" lon="2.3906">
        <ele>392.39999389648</ele>
        <time>2023-06-01T12:14:32.000Z</time>
      </trkpt>
      <trkpt lat="43.57422" lon="2.39061">
        <ele>392.20001220703</ele>
        <time>2023-06-01T12:14:33.000Z</time>
      </trkpt>
      <trkpt lat="43.57422" lon="2.39062">
        <ele>392.20001220703</ele>
        <time>2023-06-01T12:14:34.000Z</time>
      </trkpt>
      <trkpt lat="43.57419" lon="2.39066">
        <ele>391.60000610352</ele>
        <time>2023-06-01T12:14:38.000Z</time>
      </trkpt>
      <trkpt lat="43.57412" lon="2.39069">
        <ele>391</ele>
        <time>2023-06-01T12:14:44.000Z</time>
      </trkpt>
      <trkpt lat="43.57412" lon="2.3907">
        <ele>391</ele>
        <time>2023-06-01T12:14:45.000Z</time>
      </trkpt>
      <trkpt lat="43.57406" lon="2.39075">
        <ele>390.20001220703</ele>
        <time>2023-06-01T12:14:51.000Z</time>
      </trkpt>
      <trkpt lat="43.57405" lon="2.39076">
        <ele>390.20001220703</ele>
        <time>2023-06-01T12:14:52.000Z</time>
      </trkpt>
      <trkpt lat="43.57404" lon="2.39076">
        <ele>390</ele>
        <time>2023-06-01T12:14:53.000Z</time>
      </trkpt>
      <trkpt lat="43.57401" lon="2.39078">
        <ele>389.39999389648</ele>
        <time>2023-06-01T12:14:57.000Z</time>
      </trkpt>
      <trkpt lat="43.57401" lon="2.39079">
        <ele>389.39999389648</ele>
        <time>2023-06-01T12:14:58.000Z</time>
      </trkpt>
      <trkpt lat="43.57397" lon="2.39082">
        <ele>389</ele>
        <time>2023-06-01T12:15:02.000Z</time>
      </trkpt>
      <trkpt lat="43.57394" lon="2.39084">
        <ele>388.79998779297</ele>
        <time>2023-06-01T12:15:05.000Z</time>
      </trkpt>
      <trkpt lat="43.5739" lon="2.39086">
        <ele>388.39999389648</ele>
        <time>2023-06-01T12:15:09.000Z</time>
      </trkpt>
      <trkpt lat="43.57387" lon="2.39088">
        <ele>388</ele>
        <time>2023-06-01T12:15:12.000Z</time>
      </trkpt>
      <trkpt lat="43.57385" lon="2.39089">
        <ele>388</ele>
        <time>2023-06-01T12:15:13.000Z</time>
      </trkpt>
      <trkpt lat="43.57381" lon="2.39091">
        <ele>387.39999389648</ele>
        <time>2023-06-01T12:15:17.000Z</time>
      </trkpt>
      <trkpt lat="43.5738" lon="2.39091">
        <ele>387.39999389648</ele>
        <time>2023-06-01T12:15:18.000Z</time>
      </trkpt>
      <trkpt lat="43.57379" lon="2.39092">
        <ele>387.20001220703</ele>
        <time>2023-06-01T12:15:19.000Z</time>
      </trkpt>
      <trkpt lat="43.57375" lon="2.39092">
        <ele>386.79998779297</ele>
        <time>2023-06-01T12:15:23.000Z</time>
      </trkpt>
      <trkpt lat="43.57374" lon="2.39092">
        <ele>386.79998779297</ele>
        <time>2023-06-01T12:15:24.000Z</time>
      </trkpt>
      <trkpt lat="43.57369" lon="2.39095">
        <ele>386.39999389648</ele>
        <time>2023-06-01T12:15:30.000Z</time>
      </trkpt>
      <trkpt lat="43.57363" lon="2.39097">
        <ele>386</ele>
        <time>2023-06-01T12:15:37.000Z</time>
      </trkpt>
      <trkpt lat="43.57362" lon="2.39098">
        <ele>385.79998779297</ele>
        <time>2023-06-01T12:15:39.000Z</time>
      </trkpt>
      <trkpt lat="43.5736" lon="2.39101">
        <ele>385.39999389648</ele>
        <time>2023-06-01T12:15:43.000Z</time>
      </trkpt>
      <trkpt lat="43.57354" lon="2.39106">
        <ele>384.60000610352</ele>
        <time>2023-06-01T12:15:51.000Z</time>
      </trkpt>
      <trkpt lat="43.57354" lon="2.39106">
        <ele>384.39999389648</ele>
        <time>2023-06-01T12:15:52.000Z</time>
      </trkpt>
      <trkpt lat="43.57349" lon="2.39108">
        <ele>384</ele>
        <time>2023-06-01T12:15:57.000Z</time>
      </trkpt>
      <trkpt lat="43.57345" lon="2.39112">
        <ele>383.79998779297</ele>
        <time>2023-06-01T12:16:03.000Z</time>
      </trkpt>
      <trkpt lat="43.57345" lon="2.39113">
        <ele>383.60000610352</ele>
        <time>2023-06-01T12:16:04.000Z</time>
      </trkpt>
      <trkpt lat="43.57342" lon="2.39114">
        <ele>382.60000610352</ele>
        <time>2023-06-01T12:16:08.000Z</time>
      </trkpt>
      <trkpt lat="43.57337" lon="2.39118">
        <ele>381.79998779297</ele>
        <time>2023-06-01T12:16:14.000Z</time>
      </trkpt>
      <trkpt lat="43.57333" lon="2.39118">
        <ele>381.60000610352</ele>
        <time>2023-06-01T12:16:18.000Z</time>
      </trkpt>
      <trkpt lat="43.57332" lon="2.39117">
        <ele>381.39999389648</ele>
        <time>2023-06-01T12:16:20.000Z</time>
      </trkpt>
      <trkpt lat="43.57332" lon="2.39116">
        <ele>381.39999389648</ele>
        <time>2023-06-01T12:16:21.000Z</time>
      </trkpt>
      <trkpt lat="43.5733" lon="2.3911">
        <ele>380.60000610352</ele>
        <time>2023-06-01T12:16:27.000Z</time>
      </trkpt>
      <trkpt lat="43.5733" lon="2.39109">
        <ele>380.39999389648</ele>
        <time>2023-06-01T12:16:28.000Z</time>
      </trkpt>
      <trkpt lat="43.5733" lon="2.39106">
        <ele>379.39999389648</ele>
        <time>2023-06-01T12:16:33.000Z</time>
      </trkpt>
      <trkpt lat="43.57331" lon="2.39105">
        <ele>379.20001220703</ele>
        <time>2023-06-01T12:16:34.000Z</time>
      </trkpt>
      <trkpt lat="43.57331" lon="2.391">
        <ele>378.79998779297</ele>
        <time>2023-06-01T12:16:40.000Z</time>
      </trkpt>
      <trkpt lat="43.57331" lon="2.39097">
        <ele>378.39999389648</ele>
        <time>2023-06-01T12:16:43.000Z</time>
      </trkpt>
      <trkpt lat="43.57332" lon="2.39096">
        <ele>378</ele>
        <time>2023-06-01T12:16:45.000Z</time>
      </trkpt>
      <trkpt lat="43.57332" lon="2.39092">
        <ele>377.39999389648</ele>
        <time>2023-06-01T12:16:50.000Z</time>
      </trkpt>
      <trkpt lat="43.57333" lon="2.39091">
        <ele>377</ele>
        <time>2023-06-01T12:16:53.000Z</time>
      </trkpt>
      <trkpt lat="43.57332" lon="2.39084">
        <ele>376.39999389648</ele>
        <time>2023-06-01T12:16:58.000Z</time>
      </trkpt>
      <trkpt lat="43.57332" lon="2.39083">
        <ele>376.20001220703</ele>
        <time>2023-06-01T12:16:59.000Z</time>
      </trkpt>
      <trkpt lat="43.57333" lon="2.39079">
        <ele>375.60000610352</ele>
        <time>2023-06-01T12:17:04.000Z</time>
      </trkpt>
      <trkpt lat="43.57334" lon="2.39076">
        <ele>375.20001220703</ele>
        <time>2023-06-01T12:17:07.000Z</time>
      </trkpt>
      <trkpt lat="43.57334" lon="2.39071">
        <ele>374.60000610352</ele>
        <time>2023-06-01T12:17:11.000Z</time>
      </trkpt>
      <trkpt lat="43.57335" lon="2.39067">
        <ele>374.20001220703</ele>
        <time>2023-06-01T12:17:14.000Z</time>
      </trkpt>
      <trkpt lat="43.57335" lon="2.39066">
        <ele>374.20001220703</ele>
        <time>2023-06-01T12:17:15.000Z</time>
      </trkpt>
      <trkpt lat="43.57334" lon="2.39064">
        <ele>373.79998779297</ele>
        <time>2023-06-01T12:17:17.000Z</time>
      </trkpt>
      <trkpt lat="43.57336" lon="2.3906">
        <ele>373.39999389648</ele>
        <time>2023-06-01T12:17:21.000Z</time>
      </trkpt>
      <trkpt lat="43.57336" lon="2.39059">
        <ele>373.39999389648</ele>
        <time>2023-06-01T12:17:22.000Z</time>
      </trkpt>
      <trkpt lat="43.57336" lon="2.39058">
        <ele>373.39999389648</ele>
        <time>2023-06-01T12:17:23.000Z</time>
      </trkpt>
      <trkpt lat="43.57337" lon="2.39055">
        <ele>373.20001220703</ele>
        <time>2023-06-01T12:17:25.000Z</time>
      </trkpt>
      <trkpt lat="43.57338" lon="2.39054">
        <ele>373</ele>
        <time>2023-06-01T12:17:26.000Z</time>
      </trkpt>
      <trkpt lat="43.57339" lon="2.3905">
        <ele>372.79998779297</ele>
        <time>2023-06-01T12:17:30.000Z</time>
      </trkpt>
      <trkpt lat="43.57341" lon="2.39041">
        <ele>372</ele>
        <time>2023-06-01T12:17:36.000Z</time>
      </trkpt>
      <trkpt lat="43.57343" lon="2.39032">
        <ele>371.39999389648</ele>
        <time>2023-06-01T12:17:43.000Z</time>
      </trkpt>
      <trkpt lat="43.57343" lon="2.39028">
        <ele>371</ele>
        <time>2023-06-01T12:17:46.000Z</time>
      </trkpt>
      <trkpt lat="43.57345" lon="2.39024">
        <ele>370.79998779297</ele>
        <time>2023-06-01T12:17:50.000Z</time>
      </trkpt>
      <trkpt lat="43.57348" lon="2.39018">
        <ele>370.39999389648</ele>
        <time>2023-06-01T12:17:56.000Z</time>
      </trkpt>
      <trkpt lat="43.57349" lon="2.39017">
        <ele>370.20001220703</ele>
        <time>2023-06-01T12:17:57.000Z</time>
      </trkpt>
      <trkpt lat="43.57349" lon="2.39015">
        <ele>370.20001220703</ele>
        <time>2023-06-01T12:17:58.000Z</time>
      </trkpt>
      <trkpt lat="43.57349" lon="2.39014">
        <ele>370</ele>
        <time>2023-06-01T12:17:59.000Z</time>
      </trkpt>
      <trkpt lat="43.5735" lon="2.39011">
        <ele>369.79998779297</ele>
        <time>2023-06-01T12:18:02.000Z</time>
      </trkpt>
      <trkpt lat="43.57352" lon="2.39006">
        <ele>369.39999389648</ele>
        <time>2023-06-01T12:18:06.000Z</time>
      </trkpt>
      <trkpt lat="43.57353" lon="2.38999">
        <ele>369</ele>
        <time>2023-06-01T12:18:11.000Z</time>
      </trkpt>
      <trkpt lat="43.57354" lon="2.38992">
        <ele>368.39999389648</ele>
        <time>2023-06-01T12:18:16.000Z</time>
      </trkpt>
      <trkpt lat="43.57354" lon="2.38987">
        <ele>368</ele>
        <time>2023-06-01T12:18:20.000Z</time>
      </trkpt>
      <trkpt lat="43.57353" lon="2.38985">
        <ele>367.79998779297</ele>
        <time>2023-06-01T12:18:21.000Z</time>
      </trkpt>
      <trkpt lat="43.57353" lon="2.38983">
        <ele>367.79998779297</ele>
        <time>2023-06-01T12:18:22.000Z</time>
      </trkpt>
      <trkpt lat="43.57353" lon="2.38982">
        <ele>367.60000610352</ele>
        <time>2023-06-01T12:18:23.000Z</time>
      </trkpt>
      <trkpt lat="43.57353" lon="2.38978">
        <ele>367.39999389648</ele>
        <time>2023-06-01T12:18:26.000Z</time>
      </trkpt>
      <trkpt lat="43.57352" lon="2.38975">
        <ele>367</ele>
        <time>2023-06-01T12:18:29.000Z</time>
      </trkpt>
      <trkpt lat="43.57352" lon="2.38974">
        <ele>366.79998779297</ele>
        <time>2023-06-01T12:18:30.000Z</time>
      </trkpt>
      <trkpt lat="43.57352" lon="2.38973">
        <ele>366.60000610352</ele>
        <time>2023-06-01T12:18:31.000Z</time>
      </trkpt>
      <trkpt lat="43.57352" lon="2.3897">
        <ele>366.39999389648</ele>
        <time>2023-06-01T12:18:33.000Z</time>
      </trkpt>
      <trkpt lat="43.57352" lon="2.38967">
        <ele>366</ele>
        <time>2023-06-01T12:18:36.000Z</time>
      </trkpt>
      <trkpt lat="43.57352" lon="2.38964">
        <ele>365.79998779297</ele>
        <time>2023-06-01T12:18:38.000Z</time>
      </trkpt>
      <trkpt lat="43.57351" lon="2.38958">
        <ele>364.79998779297</ele>
        <time>2023-06-01T12:18:43.000Z</time>
      </trkpt>
      <trkpt lat="43.57351" lon="2.38956">
        <ele>364.79998779297</ele>
        <time>2023-06-01T12:18:44.000Z</time>
      </trkpt>
      <trkpt lat="43.57353" lon="2.38951">
        <ele>364</ele>
        <time>2023-06-01T12:18:50.000Z</time>
      </trkpt>
      <trkpt lat="43.57353" lon="2.3895">
        <ele>363.79998779297</ele>
        <time>2023-06-01T12:18:51.000Z</time>
      </trkpt>
      <trkpt lat="43.57354" lon="2.38948">
        <ele>363.60000610352</ele>
        <time>2023-06-01T12:18:53.000Z</time>
      </trkpt>
      <trkpt lat="43.57354" lon="2.38948">
        <ele>363.20001220703</ele>
        <time>2023-06-01T12:18:55.000Z</time>
      </trkpt>
      <trkpt lat="43.57357" lon="2.38942">
        <ele>362.39999389648</ele>
        <time>2023-06-01T12:19:00.000Z</time>
      </trkpt>
      <trkpt lat="43.57357" lon="2.38941">
        <ele>362.39999389648</ele>
        <time>2023-06-01T12:19:01.000Z</time>
      </trkpt>
      <trkpt lat="43.57359" lon="2.38936">
        <ele>361.39999389648</ele>
        <time>2023-06-01T12:19:07.000Z</time>
      </trkpt>
      <trkpt lat="43.57359" lon="2.38935">
        <ele>361.20001220703</ele>
        <time>2023-06-01T12:19:08.000Z</time>
      </trkpt>
      <trkpt lat="43.57361" lon="2.38932">
        <ele>360.20001220703</ele>
        <time>2023-06-01T12:19:13.000Z</time>
      </trkpt>
      <trkpt lat="43.57366" lon="2.38927">
        <ele>359.39999389648</ele>
        <time>2023-06-01T12:19:20.000Z</time>
      </trkpt>
      <trkpt lat="43.57367" lon="2.38926">
        <ele>359.20001220703</ele>
        <time>2023-06-01T12:19:21.000Z</time>
      </trkpt>
      <trkpt lat="43.5737" lon="2.38923">
        <ele>358</ele>
        <time>2023-06-01T12:19:25.000Z</time>
      </trkpt>
      <trkpt lat="43.57371" lon="2.38922">
        <ele>357.79998779297</ele>
        <time>2023-06-01T12:19:26.000Z</time>
      </trkpt>
      <trkpt lat="43.57373" lon="2.3892">
        <ele>357</ele>
        <time>2023-06-01T12:19:30.000Z</time>
      </trkpt>
      <trkpt lat="43.57375" lon="2.38918">
        <ele>356.39999389648</ele>
        <time>2023-06-01T12:19:33.000Z</time>
      </trkpt>
      <trkpt lat="43.57376" lon="2.38916">
        <ele>356</ele>
        <time>2023-06-01T12:19:35.000Z</time>
      </trkpt>
      <trkpt lat="43.57377" lon="2.38915">
        <ele>355.79998779297</ele>
        <time>2023-06-01T12:19:36.000Z</time>
      </trkpt>
      <trkpt lat="43.57379" lon="2.38913">
        <ele>355.20001220703</ele>
        <time>2023-06-01T12:19:39.000Z</time>
      </trkpt>
      <trkpt lat="43.5738" lon="2.38912">
        <ele>354.79998779297</ele>
        <time>2023-06-01T12:19:41.000Z</time>
      </trkpt>
      <trkpt lat="43.57382" lon="2.38908">
        <ele>353.79998779297</ele>
        <time>2023-06-01T12:19:45.000Z</time>
      </trkpt>
      <trkpt lat="43.57383" lon="2.38906">
        <ele>353.60000610352</ele>
        <time>2023-06-01T12:19:46.000Z</time>
      </trkpt>
      <trkpt lat="43.57385" lon="2.38902">
        <ele>353</ele>
        <time>2023-06-01T12:19:49.000Z</time>
      </trkpt>
      <trkpt lat="43.57386" lon="2.38901">
        <ele>352.79998779297</ele>
        <time>2023-06-01T12:19:50.000Z</time>
      </trkpt>
      <trkpt lat="43.57387" lon="2.38899">
        <ele>352.39999389648</ele>
        <time>2023-06-01T12:19:52.000Z</time>
      </trkpt>
      <trkpt lat="43.57391" lon="2.38892">
        <ele>351.39999389648</ele>
        <time>2023-06-01T12:19:57.000Z</time>
      </trkpt>
      <trkpt lat="43.57392" lon="2.38891">
        <ele>351.20001220703</ele>
        <time>2023-06-01T12:19:58.000Z</time>
      </trkpt>
      <trkpt lat="43.57396" lon="2.38886">
        <ele>350.20001220703</ele>
        <time>2023-06-01T12:20:04.000Z</time>
      </trkpt>
      <trkpt lat="43.57395" lon="2.38887">
        <ele>350.20001220703</ele>
        <time>2023-06-01T12:20:05.000Z</time>
      </trkpt>
      <trkpt lat="43.57394" lon="2.38882">
        <ele>349.39999389648</ele>
        <time>2023-06-01T12:20:17.000Z</time>
      </trkpt>
      <trkpt lat="43.57394" lon="2.38882">
        <ele>349.79998779297</ele>
        <time>2023-06-01T12:20:24.000Z</time>
      </trkpt>
      <trkpt lat="43.57393" lon="2.38882">
        <ele>350</ele>
        <time>2023-06-01T12:20:38.000Z</time>
      </trkpt>
      <trkpt lat="43.57395" lon="2.38879">
        <ele>349.79998779297</ele>
        <time>2023-06-01T12:20:49.000Z</time>
      </trkpt>
      <trkpt lat="43.57399" lon="2.38874">
        <ele>349.20001220703</ele>
        <time>2023-06-01T12:20:53.000Z</time>
      </trkpt>
      <trkpt lat="43.57402" lon="2.38871">
        <ele>348.79998779297</ele>
        <time>2023-06-01T12:20:57.000Z</time>
      </trkpt>
      <trkpt lat="43.57402" lon="2.3887">
        <ele>348.60000610352</ele>
        <time>2023-06-01T12:20:58.000Z</time>
      </trkpt>
      <trkpt lat="43.57403" lon="2.38867">
        <ele>348.20001220703</ele>
        <time>2023-06-01T12:21:00.000Z</time>
      </trkpt>
      <trkpt lat="43.57405" lon="2.38866">
        <ele>347.79998779297</ele>
        <time>2023-06-01T12:21:02.000Z</time>
      </trkpt>
      <trkpt lat="43.57406" lon="2.38863">
        <ele>347.60000610352</ele>
        <time>2023-06-01T12:21:04.000Z</time>
      </trkpt>
      <trkpt lat="43.57407" lon="2.38862">
        <ele>347.60000610352</ele>
        <time>2023-06-01T12:21:05.000Z</time>
      </trkpt>
      <trkpt lat="43.57407" lon="2.3886">
        <ele>347.39999389648</ele>
        <time>2023-06-01T12:21:07.000Z</time>
      </trkpt>
      <trkpt lat="43.57408" lon="2.38859">
        <ele>347.20001220703</ele>
        <time>2023-06-01T12:21:08.000Z</time>
      </trkpt>
      <trkpt lat="43.57409" lon="2.38857">
        <ele>346.60000610352</ele>
        <time>2023-06-01T12:21:10.000Z</time>
      </trkpt>
      <trkpt lat="43.57411" lon="2.38855">
        <ele>346</ele>
        <time>2023-06-01T12:21:12.000Z</time>
      </trkpt>
      <trkpt lat="43.57412" lon="2.38854">
        <ele>345.79998779297</ele>
        <time>2023-06-01T12:21:13.000Z</time>
      </trkpt>
      <trkpt lat="43.57412" lon="2.38853">
        <ele>345.39999389648</ele>
        <time>2023-06-01T12:21:14.000Z</time>
      </trkpt>
      <trkpt lat="43.57413" lon="2.38851">
        <ele>344.79998779297</ele>
        <time>2023-06-01T12:21:16.000Z</time>
      </trkpt>
      <trkpt lat="43.57413" lon="2.3885">
        <ele>344.60000610352</ele>
        <time>2023-06-01T12:21:17.000Z</time>
      </trkpt>
      <trkpt lat="43.57414" lon="2.38849">
        <ele>344</ele>
        <time>2023-06-01T12:21:19.000Z</time>
      </trkpt>
      <trkpt lat="43.57414" lon="2.38848">
        <ele>343.79998779297</ele>
        <time>2023-06-01T12:21:21.000Z</time>
      </trkpt>
      <trkpt lat="43.57416" lon="2.38845">
        <ele>343.20001220703</ele>
        <time>2023-06-01T12:21:25.000Z</time>
      </trkpt>
      <trkpt lat="43.57419" lon="2.38839">
        <ele>342.60000610352</ele>
        <time>2023-06-01T12:21:30.000Z</time>
      </trkpt>
      <trkpt lat="43.57419" lon="2.38837">
        <ele>342.39999389648</ele>
        <time>2023-06-01T12:21:32.000Z</time>
      </trkpt>
      <trkpt lat="43.57419" lon="2.38836">
        <ele>342.20001220703</ele>
        <time>2023-06-01T12:21:33.000Z</time>
      </trkpt>
      <trkpt lat="43.5742" lon="2.38833">
        <ele>341.79998779297</ele>
        <time>2023-06-01T12:21:36.000Z</time>
      </trkpt>
      <trkpt lat="43.5742" lon="2.38832">
        <ele>341.79998779297</ele>
        <time>2023-06-01T12:21:37.000Z</time>
      </trkpt>
      <trkpt lat="43.57421" lon="2.38831">
        <ele>341.60000610352</ele>
        <time>2023-06-01T12:21:38.000Z</time>
      </trkpt>
      <trkpt lat="43.57421" lon="2.38828">
        <ele>340.60000610352</ele>
        <time>2023-06-01T12:21:42.000Z</time>
      </trkpt>
      <trkpt lat="43.57423" lon="2.38823">
        <ele>339.39999389648</ele>
        <time>2023-06-01T12:21:46.000Z</time>
      </trkpt>
      <trkpt lat="43.57423" lon="2.38821">
        <ele>339.20001220703</ele>
        <time>2023-06-01T12:21:47.000Z</time>
      </trkpt>
      <trkpt lat="43.57425" lon="2.38818">
        <ele>338.39999389648</ele>
        <time>2023-06-01T12:21:50.000Z</time>
      </trkpt>
      <trkpt lat="43.57426" lon="2.38815">
        <ele>337.39999389648</ele>
        <time>2023-06-01T12:21:53.000Z</time>
      </trkpt>
      <trkpt lat="43.57426" lon="2.38814">
        <ele>337.20001220703</ele>
        <time>2023-06-01T12:21:54.000Z</time>
      </trkpt>
      <trkpt lat="43.57427" lon="2.3881">
        <ele>336.60000610352</ele>
        <time>2023-06-01T12:21:57.000Z</time>
      </trkpt>
      <trkpt lat="43.57428" lon="2.38809">
        <ele>336.39999389648</ele>
        <time>2023-06-01T12:21:58.000Z</time>
      </trkpt>
      <trkpt lat="43.57428" lon="2.38808">
        <ele>336.20001220703</ele>
        <time>2023-06-01T12:21:59.000Z</time>
      </trkpt>
      <trkpt lat="43.57429" lon="2.38806">
        <ele>336</ele>
        <time>2023-06-01T12:22:00.000Z</time>
      </trkpt>
      <trkpt lat="43.57431" lon="2.38801">
        <ele>335.20001220703</ele>
        <time>2023-06-01T12:22:05.000Z</time>
      </trkpt>
      <trkpt lat="43.57433" lon="2.38798">
        <ele>335</ele>
        <time>2023-06-01T12:22:08.000Z</time>
      </trkpt>
      <trkpt lat="43.57433" lon="2.38796">
        <ele>334.60000610352</ele>
        <time>2023-06-01T12:22:10.000Z</time>
      </trkpt>
      <trkpt lat="43.57435" lon="2.38794">
        <ele>334.20001220703</ele>
        <time>2023-06-01T12:22:12.000Z</time>
      </trkpt>
      <trkpt lat="43.57436" lon="2.38791">
        <ele>333.79998779297</ele>
        <time>2023-06-01T12:22:15.000Z</time>
      </trkpt>
      <trkpt lat="43.57438" lon="2.38788">
        <ele>333.39999389648</ele>
        <time>2023-06-01T12:22:18.000Z</time>
      </trkpt>
      <trkpt lat="43.5744" lon="2.38782">
        <ele>332.79998779297</ele>
        <time>2023-06-01T12:22:22.000Z</time>
      </trkpt>
      <trkpt lat="43.57441" lon="2.38781">
        <ele>332.60000610352</ele>
        <time>2023-06-01T12:22:23.000Z</time>
      </trkpt>
      <trkpt lat="43.57444" lon="2.38776">
        <ele>332.20001220703</ele>
        <time>2023-06-01T12:22:28.000Z</time>
      </trkpt>
      <trkpt lat="43.57445" lon="2.38774">
        <ele>332</ele>
        <time>2023-06-01T12:22:30.000Z</time>
      </trkpt>
      <trkpt lat="43.57447" lon="2.38772">
        <ele>331.79998779297</ele>
        <time>2023-06-01T12:22:32.000Z</time>
      </trkpt>
      <trkpt lat="43.57449" lon="2.38769">
        <ele>331.20001220703</ele>
        <time>2023-06-01T12:22:35.000Z</time>
      </trkpt>
      <trkpt lat="43.5745" lon="2.38767">
        <ele>331</ele>
        <time>2023-06-01T12:22:37.000Z</time>
      </trkpt>
      <trkpt lat="43.5745" lon="2.38766">
        <ele>330.79998779297</ele>
        <time>2023-06-01T12:22:39.000Z</time>
      </trkpt>
      <trkpt lat="43.57452" lon="2.38763">
        <ele>330.20001220703</ele>
        <time>2023-06-01T12:22:42.000Z</time>
      </trkpt>
      <trkpt lat="43.57452" lon="2.38759">
        <ele>329.60000610352</ele>
        <time>2023-06-01T12:22:45.000Z</time>
      </trkpt>
      <trkpt lat="43.57454" lon="2.38752">
        <ele>328.60000610352</ele>
        <time>2023-06-01T12:22:51.000Z</time>
      </trkpt>
      <trkpt lat="43.57455" lon="2.38751">
        <ele>328.60000610352</ele>
        <time>2023-06-01T12:22:52.000Z</time>
      </trkpt>
      <trkpt lat="43.57456" lon="2.38747">
        <ele>327.79998779297</ele>
        <time>2023-06-01T12:22:56.000Z</time>
      </trkpt>
      <trkpt lat="43.57456" lon="2.38746">
        <ele>327.60000610352</ele>
        <time>2023-06-01T12:22:57.000Z</time>
      </trkpt>
      <trkpt lat="43.57457" lon="2.38745">
        <ele>327.39999389648</ele>
        <time>2023-06-01T12:22:58.000Z</time>
      </trkpt>
      <trkpt lat="43.57459" lon="2.38741">
        <ele>326.39999389648</ele>
        <time>2023-06-01T12:23:03.000Z</time>
      </trkpt>
      <trkpt lat="43.57463" lon="2.38735">
        <ele>325.20001220703</ele>
        <time>2023-06-01T12:23:08.000Z</time>
      </trkpt>
      <trkpt lat="43.57464" lon="2.38734">
        <ele>324.60000610352</ele>
        <time>2023-06-01T12:23:10.000Z</time>
      </trkpt>
      <trkpt lat="43.57466" lon="2.38729">
        <ele>324.20001220703</ele>
        <time>2023-06-01T12:23:13.000Z</time>
      </trkpt>
      <trkpt lat="43.57467" lon="2.38726">
        <ele>323.60000610352</ele>
        <time>2023-06-01T12:23:16.000Z</time>
      </trkpt>
      <trkpt lat="43.57468" lon="2.38724">
        <ele>323.20001220703</ele>
        <time>2023-06-01T12:23:18.000Z</time>
      </trkpt>
      <trkpt lat="43.57468" lon="2.38722">
        <ele>323</ele>
        <time>2023-06-01T12:23:19.000Z</time>
      </trkpt>
      <trkpt lat="43.57469" lon="2.3872">
        <ele>322.79998779297</ele>
        <time>2023-06-01T12:23:20.000Z</time>
      </trkpt>
      <trkpt lat="43.57469" lon="2.38717">
        <ele>322.39999389648</ele>
        <time>2023-06-01T12:23:22.000Z</time>
      </trkpt>
      <trkpt lat="43.5747" lon="2.38715">
        <ele>322</ele>
        <time>2023-06-01T12:23:24.000Z</time>
      </trkpt>
      <trkpt lat="43.5747" lon="2.38711">
        <ele>321.39999389648</ele>
        <time>2023-06-01T12:23:27.000Z</time>
      </trkpt>
      <trkpt lat="43.57474" lon="2.38704">
        <ele>321</ele>
        <time>2023-06-01T12:23:32.000Z</time>
      </trkpt>
      <trkpt lat="43.57474" lon="2.38703">
        <ele>320.79998779297</ele>
        <time>2023-06-01T12:23:33.000Z</time>
      </trkpt>
      <trkpt lat="43.57477" lon="2.38695">
        <ele>320.20001220703</ele>
        <time>2023-06-01T12:23:40.000Z</time>
      </trkpt>
      <trkpt lat="43.57476" lon="2.38692">
        <ele>320.20001220703</ele>
        <time>2023-06-01T12:23:42.000Z</time>
      </trkpt>
      <trkpt lat="43.57476" lon="2.38691">
        <ele>320.20001220703</ele>
        <time>2023-06-01T12:23:43.000Z</time>
      </trkpt>
      <trkpt lat="43.57476" lon="2.38688">
        <ele>320</ele>
        <time>2023-06-01T12:23:45.000Z</time>
      </trkpt>
      <trkpt lat="43.57477" lon="2.38687">
        <ele>319.79998779297</ele>
        <time>2023-06-01T12:23:47.000Z</time>
      </trkpt>
      <trkpt lat="43.57477" lon="2.38684">
        <ele>319.39999389648</ele>
        <time>2023-06-01T12:23:54.000Z</time>
      </trkpt>
      <trkpt lat="43.57477" lon="2.38684">
        <ele>319.20001220703</ele>
        <time>2023-06-01T12:24:04.000Z</time>
      </trkpt>
      <trkpt lat="43.57479" lon="2.38684">
        <ele>319.79998779297</ele>
        <time>2023-06-01T12:24:11.000Z</time>
      </trkpt>
      <trkpt lat="43.57483" lon="2.38683">
        <ele>320</ele>
        <time>2023-06-01T12:24:20.000Z</time>
      </trkpt>
      <trkpt lat="43.57484" lon="2.38682">
        <ele>319</ele>
        <time>2023-06-01T12:24:30.000Z</time>
      </trkpt>
      <trkpt lat="43.57486" lon="2.38681">
        <ele>319.20001220703</ele>
        <time>2023-06-01T12:24:39.000Z</time>
      </trkpt>
      <trkpt lat="43.57487" lon="2.3868">
        <ele>319.20001220703</ele>
        <time>2023-06-01T12:24:44.000Z</time>
      </trkpt>
      <trkpt lat="43.57487" lon="2.38673">
        <ele>319.20001220703</ele>
        <time>2023-06-01T12:24:51.000Z</time>
      </trkpt>
      <trkpt lat="43.57487" lon="2.38669">
        <ele>318.79998779297</ele>
        <time>2023-06-01T12:24:55.000Z</time>
      </trkpt>
      <trkpt lat="43.57487" lon="2.38665">
        <ele>318.39999389648</ele>
        <time>2023-06-01T12:24:58.000Z</time>
      </trkpt>
      <trkpt lat="43.57487" lon="2.3866">
        <ele>318</ele>
        <time>2023-06-01T12:25:02.000Z</time>
      </trkpt>
      <trkpt lat="43.57487" lon="2.38659">
        <ele>317.79998779297</ele>
        <time>2023-06-01T12:25:03.000Z</time>
      </trkpt>
      <trkpt lat="43.57489" lon="2.38655">
        <ele>317</ele>
        <time>2023-06-01T12:25:08.000Z</time>
      </trkpt>
      <trkpt lat="43.57489" lon="2.38653">
        <ele>316.79998779297</ele>
        <time>2023-06-01T12:25:09.000Z</time>
      </trkpt>
      <trkpt lat="43.57489" lon="2.3865">
        <ele>316.20001220703</ele>
        <time>2023-06-01T12:25:12.000Z</time>
      </trkpt>
      <trkpt lat="43.5749" lon="2.38647">
        <ele>315.60000610352</ele>
        <time>2023-06-01T12:25:15.000Z</time>
      </trkpt>
      <trkpt lat="43.57491" lon="2.38643">
        <ele>315.39999389648</ele>
        <time>2023-06-01T12:25:18.000Z</time>
      </trkpt>
      <trkpt lat="43.57494" lon="2.38638">
        <ele>314.60000610352</ele>
        <time>2023-06-01T12:25:23.000Z</time>
      </trkpt>
      <trkpt lat="43.57494" lon="2.38637">
        <ele>314.39999389648</ele>
        <time>2023-06-01T12:25:24.000Z</time>
      </trkpt>
      <trkpt lat="43.57496" lon="2.38634">
        <ele>313.79998779297</ele>
        <time>2023-06-01T12:25:28.000Z</time>
      </trkpt>
      <trkpt lat="43.57497" lon="2.38632">
        <ele>313.60000610352</ele>
        <time>2023-06-01T12:25:30.000Z</time>
      </trkpt>
      <trkpt lat="43.57497" lon="2.38631">
        <ele>313.39999389648</ele>
        <time>2023-06-01T12:25:31.000Z</time>
      </trkpt>
      <trkpt lat="43.57497" lon="2.3863">
        <ele>313.39999389648</ele>
        <time>2023-06-01T12:25:32.000Z</time>
      </trkpt>
      <trkpt lat="43.57499" lon="2.38627">
        <ele>312.79998779297</ele>
        <time>2023-06-01T12:25:36.000Z</time>
      </trkpt>
      <trkpt lat="43.575" lon="2.38624">
        <ele>312.39999389648</ele>
        <time>2023-06-01T12:25:39.000Z</time>
      </trkpt>
      <trkpt lat="43.57501" lon="2.38622">
        <ele>312</ele>
        <time>2023-06-01T12:25:41.000Z</time>
      </trkpt>
      <trkpt lat="43.57503" lon="2.38619">
        <ele>311.20001220703</ele>
        <time>2023-06-01T12:25:45.000Z</time>
      </trkpt>
      <trkpt lat="43.57503" lon="2.38618">
        <ele>310.79998779297</ele>
        <time>2023-06-01T12:25:47.000Z</time>
      </trkpt>
      <trkpt lat="43.57505" lon="2.38614">
        <ele>310.20001220703</ele>
        <time>2023-06-01T12:25:50.000Z</time>
      </trkpt>
      <trkpt lat="43.57506" lon="2.38612">
        <ele>309.79998779297</ele>
        <time>2023-06-01T12:25:52.000Z</time>
      </trkpt>
      <trkpt lat="43.57508" lon="2.38609">
        <ele>309.39999389648</ele>
        <time>2023-06-01T12:25:55.000Z</time>
      </trkpt>
      <trkpt lat="43.57509" lon="2.38607">
        <ele>309.20001220703</ele>
        <time>2023-06-01T12:25:57.000Z</time>
      </trkpt>
      <trkpt lat="43.57511" lon="2.38603">
        <ele>308.20001220703</ele>
        <time>2023-06-01T12:26:01.000Z</time>
      </trkpt>
      <trkpt lat="43.57514" lon="2.38599">
        <ele>307.20001220703</ele>
        <time>2023-06-01T12:26:05.000Z</time>
      </trkpt>
      <trkpt lat="43.57515" lon="2.38598">
        <ele>306.79998779297</ele>
        <time>2023-06-01T12:26:06.000Z</time>
      </trkpt>
      <trkpt lat="43.57515" lon="2.38598">
        <ele>306.79998779297</ele>
        <time>2023-06-01T12:26:07.000Z</time>
      </trkpt>
      <trkpt lat="43.57516" lon="2.38597">
        <ele>306.39999389648</ele>
        <time>2023-06-01T12:26:08.000Z</time>
      </trkpt>
      <trkpt lat="43.57516" lon="2.38594">
        <ele>306</ele>
        <time>2023-06-01T12:26:11.000Z</time>
      </trkpt>
      <trkpt lat="43.57516" lon="2.38592">
        <ele>305.60000610352</ele>
        <time>2023-06-01T12:26:13.000Z</time>
      </trkpt>
      <trkpt lat="43.57518" lon="2.38588">
        <ele>304.79998779297</ele>
        <time>2023-06-01T12:26:16.000Z</time>
      </trkpt>
      <trkpt lat="43.57518" lon="2.38584">
        <ele>304.20001220703</ele>
        <time>2023-06-01T12:26:20.000Z</time>
      </trkpt>
      <trkpt lat="43.57519" lon="2.38582">
        <ele>304</ele>
        <time>2023-06-01T12:26:22.000Z</time>
      </trkpt>
      <trkpt lat="43.57519" lon="2.38582">
        <ele>303.79998779297</ele>
        <time>2023-06-01T12:26:23.000Z</time>
      </trkpt>
      <trkpt lat="43.57524" lon="2.38573">
        <ele>303.39999389648</ele>
        <time>2023-06-01T12:26:29.000Z</time>
      </trkpt>
      <trkpt lat="43.57527" lon="2.38567">
        <ele>303.20001220703</ele>
        <time>2023-06-01T12:26:34.000Z</time>
      </trkpt>
      <trkpt lat="43.57528" lon="2.38566">
        <ele>303.20001220703</ele>
        <time>2023-06-01T12:26:35.000Z</time>
      </trkpt>
      <trkpt lat="43.57528" lon="2.38564">
        <ele>303</ele>
        <time>2023-06-01T12:26:37.000Z</time>
      </trkpt>
      <trkpt lat="43.5753" lon="2.38561">
        <ele>303</ele>
        <time>2023-06-01T12:26:40.000Z</time>
      </trkpt>
      <trkpt lat="43.5753" lon="2.38562">
        <ele>302.79998779297</ele>
        <time>2023-06-01T12:26:41.000Z</time>
      </trkpt>
      <trkpt lat="43.57531" lon="2.3856">
        <ele>302.79998779297</ele>
        <time>2023-06-01T12:26:46.000Z</time>
      </trkpt>
      <trkpt lat="43.57537" lon="2.38556">
        <ele>302.79998779297</ele>
        <time>2023-06-01T12:26:50.000Z</time>
      </trkpt>
      <trkpt lat="43.57538" lon="2.38555">
        <ele>302.60000610352</ele>
        <time>2023-06-01T12:26:52.000Z</time>
      </trkpt>
      <trkpt lat="43.57539" lon="2.38554">
        <ele>302.20001220703</ele>
        <time>2023-06-01T12:26:55.000Z</time>
      </trkpt>
      <trkpt lat="43.57544" lon="2.38553">
        <ele>302</ele>
        <time>2023-06-01T12:27:01.000Z</time>
      </trkpt>
      <trkpt lat="43.57548" lon="2.38554">
        <ele>302</ele>
        <time>2023-06-01T12:27:06.000Z</time>
      </trkpt>
      <trkpt lat="43.57551" lon="2.38553">
        <ele>302.20001220703</ele>
        <time>2023-06-01T12:27:17.000Z</time>
      </trkpt>
      <trkpt lat="43.5755" lon="2.38553">
        <ele>302.39999389648</ele>
        <time>2023-06-01T12:27:25.000Z</time>
      </trkpt>
      <trkpt lat="43.57553" lon="2.38552">
        <ele>302.20001220703</ele>
        <time>2023-06-01T12:27:31.000Z</time>
      </trkpt>
      <trkpt lat="43.57551" lon="2.38549">
        <ele>302.20001220703</ele>
        <time>2023-06-01T12:27:38.000Z</time>
      </trkpt>
      <trkpt lat="43.57551" lon="2.38546">
        <ele>302.20001220703</ele>
        <time>2023-06-01T12:27:43.000Z</time>
      </trkpt>
      <trkpt lat="43.57552" lon="2.38539">
        <ele>302.39999389648</ele>
        <time>2023-06-01T12:27:48.000Z</time>
      </trkpt>
      <trkpt lat="43.57551" lon="2.38533">
        <ele>302.20001220703</ele>
        <time>2023-06-01T12:27:53.000Z</time>
      </trkpt>
      <trkpt lat="43.57551" lon="2.3853">
        <ele>302.20001220703</ele>
        <time>2023-06-01T12:27:55.000Z</time>
      </trkpt>
      <trkpt lat="43.57551" lon="2.38526">
        <ele>302.20001220703</ele>
        <time>2023-06-01T12:27:58.000Z</time>
      </trkpt>
      <trkpt lat="43.57551" lon="2.38524">
        <ele>302.20001220703</ele>
        <time>2023-06-01T12:28:00.000Z</time>
      </trkpt>
      <trkpt lat="43.57551" lon="2.38523">
        <ele>302.20001220703</ele>
        <time>2023-06-01T12:28:02.000Z</time>
      </trkpt>
      <trkpt lat="43.57551" lon="2.38521">
        <ele>302.20001220703</ele>
        <time>2023-06-01T12:28:03.000Z</time>
      </trkpt>
      <trkpt lat="43.57554" lon="2.38517">
        <ele>302.39999389648</ele>
        <time>2023-06-01T12:28:06.000Z</time>
      </trkpt>
      <trkpt lat="43.57555" lon="2.38513">
        <ele>302.60000610352</ele>
        <time>2023-06-01T12:28:11.000Z</time>
      </trkpt>
      <trkpt lat="43.57556" lon="2.38508">
        <ele>303</ele>
        <time>2023-06-01T12:28:15.000Z</time>
      </trkpt>
      <trkpt lat="43.57557" lon="2.38507">
        <ele>303.20001220703</ele>
        <time>2023-06-01T12:28:17.000Z</time>
      </trkpt>
      <trkpt lat="43.57558" lon="2.38503">
        <ele>303.60000610352</ele>
        <time>2023-06-01T12:28:21.000Z</time>
      </trkpt>
      <trkpt lat="43.57559" lon="2.38502">
        <ele>303.60000610352</ele>
        <time>2023-06-01T12:28:22.000Z</time>
      </trkpt>
      <trkpt lat="43.5756" lon="2.38501">
        <ele>303.79998779297</ele>
        <time>2023-06-01T12:28:24.000Z</time>
      </trkpt>
      <trkpt lat="43.57561" lon="2.38499">
        <ele>304</ele>
        <time>2023-06-01T12:28:27.000Z</time>
      </trkpt>
      <trkpt lat="43.57563" lon="2.38497">
        <ele>304.60000610352</ele>
        <time>2023-06-01T12:28:32.000Z</time>
      </trkpt>
      <trkpt lat="43.57565" lon="2.38495">
        <ele>305</ele>
        <time>2023-06-01T12:28:35.000Z</time>
      </trkpt>
      <trkpt lat="43.57567" lon="2.38493">
        <ele>305.20001220703</ele>
        <time>2023-06-01T12:28:37.000Z</time>
      </trkpt>
      <trkpt lat="43.5757" lon="2.38491">
        <ele>305.79998779297</ele>
        <time>2023-06-01T12:28:42.000Z</time>
      </trkpt>
      <trkpt lat="43.57571" lon="2.38491">
        <ele>306</ele>
        <time>2023-06-01T12:28:43.000Z</time>
      </trkpt>
      <trkpt lat="43.57572" lon="2.3849">
        <ele>306.20001220703</ele>
        <time>2023-06-01T12:28:44.000Z</time>
      </trkpt>
      <trkpt lat="43.57575" lon="2.38488">
        <ele>306.39999389648</ele>
        <time>2023-06-01T12:28:46.000Z</time>
      </trkpt>
      <trkpt lat="43.57575" lon="2.38487">
        <ele>306.39999389648</ele>
        <time>2023-06-01T12:28:47.000Z</time>
      </trkpt>
      <trkpt lat="43.57575" lon="2.38486">
        <ele>306.39999389648</ele>
        <time>2023-06-01T12:28:49.000Z</time>
      </trkpt>
      <trkpt lat="43.57575" lon="2.38483">
        <ele>306.60000610352</ele>
        <time>2023-06-01T12:28:52.000Z</time>
      </trkpt>
      <trkpt lat="43.57576" lon="2.38478">
        <ele>306.79998779297</ele>
        <time>2023-06-01T12:28:57.000Z</time>
      </trkpt>
      <trkpt lat="43.57576" lon="2.38476">
        <ele>306.79998779297</ele>
        <time>2023-06-01T12:28:58.000Z</time>
      </trkpt>
      <trkpt lat="43.57577" lon="2.38472">
        <ele>306.60000610352</ele>
        <time>2023-06-01T12:29:01.000Z</time>
      </trkpt>
      <trkpt lat="43.57577" lon="2.38468">
        <ele>306.60000610352</ele>
        <time>2023-06-01T12:29:04.000Z</time>
      </trkpt>
      <trkpt lat="43.57578" lon="2.38467">
        <ele>306.79998779297</ele>
        <time>2023-06-01T12:29:05.000Z</time>
      </trkpt>
      <trkpt lat="43.57578" lon="2.38465">
        <ele>306.79998779297</ele>
        <time>2023-06-01T12:29:07.000Z</time>
      </trkpt>
      <trkpt lat="43.57578" lon="2.38458">
        <ele>306.79998779297</ele>
        <time>2023-06-01T12:29:12.000Z</time>
      </trkpt>
      <trkpt lat="43.57578" lon="2.38454">
        <ele>306.79998779297</ele>
        <time>2023-06-01T12:29:18.000Z</time>
      </trkpt>
      <trkpt lat="43.57578" lon="2.3845">
        <ele>307</ele>
        <time>2023-06-01T12:29:24.000Z</time>
      </trkpt>
      <trkpt lat="43.57578" lon="2.38449">
        <ele>307</ele>
        <time>2023-06-01T12:29:25.000Z</time>
      </trkpt>
      <trkpt lat="43.57577" lon="2.38444">
        <ele>307.20001220703</ele>
        <time>2023-06-01T12:29:29.000Z</time>
      </trkpt>
      <trkpt lat="43.57577" lon="2.38439">
        <ele>307</ele>
        <time>2023-06-01T12:29:34.000Z</time>
      </trkpt>
      <trkpt lat="43.57576" lon="2.38433">
        <ele>307.39999389648</ele>
        <time>2023-06-01T12:29:40.000Z</time>
      </trkpt>
      <trkpt lat="43.57574" lon="2.38428">
        <ele>307.79998779297</ele>
        <time>2023-06-01T12:29:46.000Z</time>
      </trkpt>
      <trkpt lat="43.57572" lon="2.38423">
        <ele>307.60000610352</ele>
        <time>2023-06-01T12:29:51.000Z</time>
      </trkpt>
      <trkpt lat="43.5757" lon="2.38416">
        <ele>307.79998779297</ele>
        <time>2023-06-01T12:29:56.000Z</time>
      </trkpt>
      <trkpt lat="43.5757" lon="2.38416">
        <ele>307.79998779297</ele>
        <time>2023-06-01T12:29:57.000Z</time>
      </trkpt>
      <trkpt lat="43.57569" lon="2.3841">
        <ele>307.79998779297</ele>
        <time>2023-06-01T12:30:02.000Z</time>
      </trkpt>
      <trkpt lat="43.57568" lon="2.38408">
        <ele>308</ele>
        <time>2023-06-01T12:30:05.000Z</time>
      </trkpt>
      <trkpt lat="43.57567" lon="2.38407">
        <ele>308.20001220703</ele>
        <time>2023-06-01T12:30:06.000Z</time>
      </trkpt>
      <trkpt lat="43.57567" lon="2.38405">
        <ele>308.20001220703</ele>
        <time>2023-06-01T12:30:08.000Z</time>
      </trkpt>
      <trkpt lat="43.57566" lon="2.38403">
        <ele>308.39999389648</ele>
        <time>2023-06-01T12:30:10.000Z</time>
      </trkpt>
      <trkpt lat="43.57566" lon="2.38403">
        <ele>308.39999389648</ele>
        <time>2023-06-01T12:30:11.000Z</time>
      </trkpt>
      <trkpt lat="43.57564" lon="2.38398">
        <ele>308.60000610352</ele>
        <time>2023-06-01T12:30:16.000Z</time>
      </trkpt>
      <trkpt lat="43.57565" lon="2.38395">
        <ele>309.20001220703</ele>
        <time>2023-06-01T12:30:22.000Z</time>
      </trkpt>
      <trkpt lat="43.57564" lon="2.38392">
        <ele>309.20001220703</ele>
        <time>2023-06-01T12:30:23.000Z</time>
      </trkpt>
      <trkpt lat="43.57563" lon="2.38388">
        <ele>309.79998779297</ele>
        <time>2023-06-01T12:30:28.000Z</time>
      </trkpt>
      <trkpt lat="43.57561" lon="2.38381">
        <ele>310</ele>
        <time>2023-06-01T12:30:35.000Z</time>
      </trkpt>
      <trkpt lat="43.57558" lon="2.38379">
        <ele>310.20001220703</ele>
        <time>2023-06-01T12:30:39.000Z</time>
      </trkpt>
      <trkpt lat="43.57558" lon="2.38379">
        <ele>310.20001220703</ele>
        <time>2023-06-01T12:30:40.000Z</time>
      </trkpt>
      <trkpt lat="43.57558" lon="2.38377">
        <ele>310.39999389648</ele>
        <time>2023-06-01T12:30:44.000Z</time>
      </trkpt>
      <trkpt lat="43.57552" lon="2.38373">
        <ele>310.60000610352</ele>
        <time>2023-06-01T12:30:49.000Z</time>
      </trkpt>
      <trkpt lat="43.5755" lon="2.38372">
        <ele>310.60000610352</ele>
        <time>2023-06-01T12:30:52.000Z</time>
      </trkpt>
      <trkpt lat="43.5755" lon="2.38372">
        <ele>310.79998779297</ele>
        <time>2023-06-01T12:30:53.000Z</time>
      </trkpt>
      <trkpt lat="43.57547" lon="2.38369">
        <ele>311</ele>
        <time>2023-06-01T12:30:57.000Z</time>
      </trkpt>
      <trkpt lat="43.57547" lon="2.38369">
        <ele>311.20001220703</ele>
        <time>2023-06-01T12:30:59.000Z</time>
      </trkpt>
      <trkpt lat="43.57547" lon="2.38369">
        <ele>311.20001220703</ele>
        <time>2023-06-01T12:31:00.000Z</time>
      </trkpt>
      <trkpt lat="43.57547" lon="2.3837">
        <ele>311</ele>
        <time>2023-06-01T12:31:07.000Z</time>
      </trkpt>
      <trkpt lat="43.57546" lon="2.38369">
        <ele>311.20001220703</ele>
        <time>2023-06-01T12:31:14.000Z</time>
      </trkpt>
      <trkpt lat="43.57546" lon="2.38354">
        <ele>310.79998779297</ele>
        <time>2023-06-01T12:31:20.000Z</time>
      </trkpt>
      <trkpt lat="43.57544" lon="2.38352">
        <ele>310.60000610352</ele>
        <time>2023-06-01T12:31:22.000Z</time>
      </trkpt>
      <trkpt lat="43.57542" lon="2.38346">
        <ele>310.60000610352</ele>
        <time>2023-06-01T12:31:26.000Z</time>
      </trkpt>
      <trkpt lat="43.57541" lon="2.38343">
        <ele>310.60000610352</ele>
        <time>2023-06-01T12:31:28.000Z</time>
      </trkpt>
      <trkpt lat="43.5754" lon="2.38339">
        <ele>310.39999389648</ele>
        <time>2023-06-01T12:31:31.000Z</time>
      </trkpt>
      <trkpt lat="43.57536" lon="2.38332">
        <ele>310.20001220703</ele>
        <time>2023-06-01T12:31:37.000Z</time>
      </trkpt>
      <trkpt lat="43.5753" lon="2.38325">
        <ele>309.60000610352</ele>
        <time>2023-06-01T12:31:44.000Z</time>
      </trkpt>
      <trkpt lat="43.57527" lon="2.38322">
        <ele>309.20001220703</ele>
        <time>2023-06-01T12:31:48.000Z</time>
      </trkpt>
      <trkpt lat="43.57527" lon="2.38321">
        <ele>309</ele>
        <time>2023-06-01T12:31:49.000Z</time>
      </trkpt>
      <trkpt lat="43.57525" lon="2.38317">
        <ele>308.79998779297</ele>
        <time>2023-06-01T12:31:53.000Z</time>
      </trkpt>
      <trkpt lat="43.57525" lon="2.38316">
        <ele>308.60000610352</ele>
        <time>2023-06-01T12:31:54.000Z</time>
      </trkpt>
      <trkpt lat="43.57523" lon="2.38312">
        <ele>308.60000610352</ele>
        <time>2023-06-01T12:31:58.000Z</time>
      </trkpt>
      <trkpt lat="43.57519" lon="2.38307">
        <ele>308.20001220703</ele>
        <time>2023-06-01T12:32:05.000Z</time>
      </trkpt>
      <trkpt lat="43.57519" lon="2.38306">
        <ele>308</ele>
        <time>2023-06-01T12:32:06.000Z</time>
      </trkpt>
      <trkpt lat="43.57518" lon="2.38301">
        <ele>307.60000610352</ele>
        <time>2023-06-01T12:32:12.000Z</time>
      </trkpt>
      <trkpt lat="43.57517" lon="2.383">
        <ele>307.39999389648</ele>
        <time>2023-06-01T12:32:19.000Z</time>
      </trkpt>
      <trkpt lat="43.57515" lon="2.38295">
        <ele>307.20001220703</ele>
        <time>2023-06-01T12:32:26.000Z</time>
      </trkpt>
      <trkpt lat="43.57515" lon="2.38294">
        <ele>307</ele>
        <time>2023-06-01T12:32:29.000Z</time>
      </trkpt>
      <trkpt lat="43.57515" lon="2.38294">
        <ele>307</ele>
        <time>2023-06-01T12:32:34.000Z</time>
      </trkpt>
      <trkpt lat="43.57508" lon="2.3829">
        <ele>306.79998779297</ele>
        <time>2023-06-01T12:32:44.000Z</time>
      </trkpt>
      <trkpt lat="43.57505" lon="2.38287">
        <ele>306.79998779297</ele>
        <time>2023-06-01T12:32:49.000Z</time>
      </trkpt>
      <trkpt lat="43.57503" lon="2.38286">
        <ele>305.79998779297</ele>
        <time>2023-06-01T12:32:55.000Z</time>
      </trkpt>
      <trkpt lat="43.57502" lon="2.38283">
        <ele>306</ele>
        <time>2023-06-01T12:33:02.000Z</time>
      </trkpt>
      <trkpt lat="43.575" lon="2.3828">
        <ele>306</ele>
        <time>2023-06-01T12:33:08.000Z</time>
      </trkpt>
      <trkpt lat="43.575" lon="2.3828">
        <ele>304.60000610352</ele>
        <time>2023-06-01T12:33:11.000Z</time>
      </trkpt>
      <trkpt lat="43.575" lon="2.3828">
        <ele>303.39999389648</ele>
        <time>2023-06-01T12:33:12.000Z</time>
      </trkpt>
      <trkpt lat="43.57502" lon="2.3828">
        <ele>304.39999389648</ele>
        <time>2023-06-01T12:33:15.000Z</time>
      </trkpt>
      <trkpt lat="43.575" lon="2.38281">
        <ele>305.79998779297</ele>
        <time>2023-06-01T12:33:17.000Z</time>
      </trkpt>
      <trkpt lat="43.57504" lon="2.3828">
        <ele>305.79998779297</ele>
        <time>2023-06-01T12:33:23.000Z</time>
      </trkpt>
      <trkpt lat="43.575" lon="2.38268">
        <ele>306.20001220703</ele>
        <time>2023-06-01T12:33:30.000Z</time>
      </trkpt>
      <trkpt lat="43.57501" lon="2.38267">
        <ele>304.20001220703</ele>
        <time>2023-06-01T12:33:33.000Z</time>
      </trkpt>
      <trkpt lat="43.57501" lon="2.38267">
        <ele>302.79998779297</ele>
        <time>2023-06-01T12:33:35.000Z</time>
      </trkpt>
      <trkpt lat="43.57501" lon="2.38267">
        <ele>301</ele>
        <time>2023-06-01T12:33:36.000Z</time>
      </trkpt>
      <trkpt lat="43.57501" lon="2.38267">
        <ele>299.60000610352</ele>
        <time>2023-06-01T12:33:39.000Z</time>
      </trkpt>
      <trkpt lat="43.57501" lon="2.38267">
        <ele>298.60000610352</ele>
        <time>2023-06-01T12:33:41.000Z</time>
      </trkpt>
      <trkpt lat="43.57502" lon="2.38264">
        <ele>298</ele>
        <time>2023-06-01T12:33:42.000Z</time>
      </trkpt>
      <trkpt lat="43.57499" lon="2.38262">
        <ele>300.60000610352</ele>
        <time>2023-06-01T12:33:46.000Z</time>
      </trkpt>
      <trkpt lat="43.57499" lon="2.38262">
        <ele>301.79998779297</ele>
        <time>2023-06-01T12:33:47.000Z</time>
      </trkpt>
      <trkpt lat="43.57497" lon="2.38262">
        <ele>303</ele>
        <time>2023-06-01T12:33:49.000Z</time>
      </trkpt>
      <trkpt lat="43.57496" lon="2.38261">
        <ele>304.39999389648</ele>
        <time>2023-06-01T12:33:50.000Z</time>
      </trkpt>
      <trkpt lat="43.57491" lon="2.38259">
        <ele>304.60000610352</ele>
        <time>2023-06-01T12:33:54.000Z</time>
      </trkpt>
      <trkpt lat="43.57483" lon="2.38256">
        <ele>304.20001220703</ele>
        <time>2023-06-01T12:34:02.000Z</time>
      </trkpt>
      <trkpt lat="43.57482" lon="2.38256">
        <ele>304</ele>
        <time>2023-06-01T12:34:03.000Z</time>
      </trkpt>
      <trkpt lat="43.57479" lon="2.38255">
        <ele>304.20001220703</ele>
        <time>2023-06-01T12:34:07.000Z</time>
      </trkpt>
      <trkpt lat="43.57476" lon="2.38251">
        <ele>304</ele>
        <time>2023-06-01T12:34:13.000Z</time>
      </trkpt>
      <trkpt lat="43.57475" lon="2.3825">
        <ele>303.79998779297</ele>
        <time>2023-06-01T12:34:15.000Z</time>
      </trkpt>
      <trkpt lat="43.57475" lon="2.38248">
        <ele>303.60000610352</ele>
        <time>2023-06-01T12:34:17.000Z</time>
      </trkpt>
      <trkpt lat="43.57474" lon="2.38246">
        <ele>303.60000610352</ele>
        <time>2023-06-01T12:34:18.000Z</time>
      </trkpt>
      <trkpt lat="43.57473" lon="2.38244">
        <ele>303.20001220703</ele>
        <time>2023-06-01T12:34:20.000Z</time>
      </trkpt>
      <trkpt lat="43.57473" lon="2.38239">
        <ele>303.20001220703</ele>
        <time>2023-06-01T12:34:23.000Z</time>
      </trkpt>
      <trkpt lat="43.57471" lon="2.38234">
        <ele>303.20001220703</ele>
        <time>2023-06-01T12:34:26.000Z</time>
      </trkpt>
      <trkpt lat="43.57471" lon="2.38231">
        <ele>303</ele>
        <time>2023-06-01T12:34:28.000Z</time>
      </trkpt>
      <trkpt lat="43.5747" lon="2.38229">
        <ele>303</ele>
        <time>2023-06-01T12:34:29.000Z</time>
      </trkpt>
      <trkpt lat="43.57468" lon="2.38224">
        <ele>302.79998779297</ele>
        <time>2023-06-01T12:34:33.000Z</time>
      </trkpt>
      <trkpt lat="43.57465" lon="2.38219">
        <ele>302.60000610352</ele>
        <time>2023-06-01T12:34:36.000Z</time>
      </trkpt>
      <trkpt lat="43.57465" lon="2.38218">
        <ele>302.60000610352</ele>
        <time>2023-06-01T12:34:37.000Z</time>
      </trkpt>
      <trkpt lat="43.57464" lon="2.38216">
        <ele>302.60000610352</ele>
        <time>2023-06-01T12:34:38.000Z</time>
      </trkpt>
      <trkpt lat="43.5746" lon="2.38207">
        <ele>302.39999389648</ele>
        <time>2023-06-01T12:34:44.000Z</time>
      </trkpt>
      <trkpt lat="43.5746" lon="2.38204">
        <ele>302.20001220703</ele>
        <time>2023-06-01T12:34:46.000Z</time>
      </trkpt>
      <trkpt lat="43.57461" lon="2.38201">
        <ele>302.20001220703</ele>
        <time>2023-06-01T12:34:48.000Z</time>
      </trkpt>
      <trkpt lat="43.57461" lon="2.382">
        <ele>302.20001220703</ele>
        <time>2023-06-01T12:34:49.000Z</time>
      </trkpt>
      <trkpt lat="43.5746" lon="2.38199">
        <ele>302</ele>
        <time>2023-06-01T12:34:50.000Z</time>
      </trkpt>
      <trkpt lat="43.57458" lon="2.38192">
        <ele>301.60000610352</ele>
        <time>2023-06-01T12:34:55.000Z</time>
      </trkpt>
      <trkpt lat="43.57457" lon="2.38189">
        <ele>301.20001220703</ele>
        <time>2023-06-01T12:34:58.000Z</time>
      </trkpt>
      <trkpt lat="43.57457" lon="2.38187">
        <ele>301</ele>
        <time>2023-06-01T12:35:00.000Z</time>
      </trkpt>
      <trkpt lat="43.57456" lon="2.38186">
        <ele>300.79998779297</ele>
        <time>2023-06-01T12:35:01.000Z</time>
      </trkpt>
      <trkpt lat="43.57456" lon="2.38184">
        <ele>300.39999389648</ele>
        <time>2023-06-01T12:35:04.000Z</time>
      </trkpt>
      <trkpt lat="43.57455" lon="2.38183">
        <ele>300.20001220703</ele>
        <time>2023-06-01T12:35:05.000Z</time>
      </trkpt>
      <trkpt lat="43.57453" lon="2.38181">
        <ele>299.79998779297</ele>
        <time>2023-06-01T12:35:07.000Z</time>
      </trkpt>
      <trkpt lat="43.57451" lon="2.38179">
        <ele>299.39999389648</ele>
        <time>2023-06-01T12:35:09.000Z</time>
      </trkpt>
      <trkpt lat="43.57449" lon="2.38178">
        <ele>299</ele>
        <time>2023-06-01T12:35:11.000Z</time>
      </trkpt>
      <trkpt lat="43.57449" lon="2.38177">
        <ele>298.79998779297</ele>
        <time>2023-06-01T12:35:12.000Z</time>
      </trkpt>
      <trkpt lat="43.57446" lon="2.38174">
        <ele>298.20001220703</ele>
        <time>2023-06-01T12:35:16.000Z</time>
      </trkpt>
      <trkpt lat="43.57446" lon="2.38171">
        <ele>298.20001220703</ele>
        <time>2023-06-01T12:35:18.000Z</time>
      </trkpt>
      <trkpt lat="43.57447" lon="2.38168">
        <ele>297.79998779297</ele>
        <time>2023-06-01T12:35:20.000Z</time>
      </trkpt>
      <trkpt lat="43.57446" lon="2.38166">
        <ele>297.39999389648</ele>
        <time>2023-06-01T12:35:22.000Z</time>
      </trkpt>
      <trkpt lat="43.57444" lon="2.38159">
        <ele>296.79998779297</ele>
        <time>2023-06-01T12:35:27.000Z</time>
      </trkpt>
      <trkpt lat="43.57441" lon="2.38152">
        <ele>296.60000610352</ele>
        <time>2023-06-01T12:35:33.000Z</time>
      </trkpt>
      <trkpt lat="43.57439" lon="2.3815">
        <ele>296.39999389648</ele>
        <time>2023-06-01T12:35:35.000Z</time>
      </trkpt>
      <trkpt lat="43.57438" lon="2.38148">
        <ele>296.39999389648</ele>
        <time>2023-06-01T12:35:37.000Z</time>
      </trkpt>
      <trkpt lat="43.57437" lon="2.38146">
        <ele>296.20001220703</ele>
        <time>2023-06-01T12:35:39.000Z</time>
      </trkpt>
      <trkpt lat="43.57436" lon="2.38145">
        <ele>296.39999389648</ele>
        <time>2023-06-01T12:35:40.000Z</time>
      </trkpt>
      <trkpt lat="43.57435" lon="2.38142">
        <ele>296.60000610352</ele>
        <time>2023-06-01T12:35:43.000Z</time>
      </trkpt>
      <trkpt lat="43.57434" lon="2.38137">
        <ele>296.20001220703</ele>
        <time>2023-06-01T12:35:47.000Z</time>
      </trkpt>
      <trkpt lat="43.57431" lon="2.38133">
        <ele>295.79998779297</ele>
        <time>2023-06-01T12:35:51.000Z</time>
      </trkpt>
      <trkpt lat="43.57429" lon="2.38131">
        <ele>295.79998779297</ele>
        <time>2023-06-01T12:35:53.000Z</time>
      </trkpt>
      <trkpt lat="43.57428" lon="2.3813">
        <ele>295.79998779297</ele>
        <time>2023-06-01T12:35:55.000Z</time>
      </trkpt>
      <trkpt lat="43.57428" lon="2.38129">
        <ele>295.79998779297</ele>
        <time>2023-06-01T12:35:57.000Z</time>
      </trkpt>
      <trkpt lat="43.57427" lon="2.38126">
        <ele>295.79998779297</ele>
        <time>2023-06-01T12:36:01.000Z</time>
      </trkpt>
      <trkpt lat="43.57426" lon="2.38125">
        <ele>295.79998779297</ele>
        <time>2023-06-01T12:36:03.000Z</time>
      </trkpt>
      <trkpt lat="43.57422" lon="2.38121">
        <ele>295.60000610352</ele>
        <time>2023-06-01T12:36:09.000Z</time>
      </trkpt>
      <trkpt lat="43.5742" lon="2.38117">
        <ele>295.39999389648</ele>
        <time>2023-06-01T12:36:13.000Z</time>
      </trkpt>
      <trkpt lat="43.5742" lon="2.38116">
        <ele>295.20001220703</ele>
        <time>2023-06-01T12:36:14.000Z</time>
      </trkpt>
      <trkpt lat="43.57419" lon="2.38112">
        <ele>294.60000610352</ele>
        <time>2023-06-01T12:36:19.000Z</time>
      </trkpt>
      <trkpt lat="43.57419" lon="2.38112">
        <ele>294.60000610352</ele>
        <time>2023-06-01T12:36:20.000Z</time>
      </trkpt>
      <trkpt lat="43.57417" lon="2.38108">
        <ele>294.20001220703</ele>
        <time>2023-06-01T12:36:25.000Z</time>
      </trkpt>
      <trkpt lat="43.57419" lon="2.38103">
        <ele>293.79998779297</ele>
        <time>2023-06-01T12:36:29.000Z</time>
      </trkpt>
      <trkpt lat="43.5742" lon="2.38101">
        <ele>293.60000610352</ele>
        <time>2023-06-01T12:36:31.000Z</time>
      </trkpt>
      <trkpt lat="43.5742" lon="2.38098">
        <ele>293</ele>
        <time>2023-06-01T12:36:34.000Z</time>
      </trkpt>
      <trkpt lat="43.57423" lon="2.38094">
        <ele>292.79998779297</ele>
        <time>2023-06-01T12:36:39.000Z</time>
      </trkpt>
      <trkpt lat="43.57425" lon="2.38091">
        <ele>292.39999389648</ele>
        <time>2023-06-01T12:36:42.000Z</time>
      </trkpt>
      <trkpt lat="43.57425" lon="2.3809">
        <ele>292.39999389648</ele>
        <time>2023-06-01T12:36:43.000Z</time>
      </trkpt>
      <trkpt lat="43.57425" lon="2.38084">
        <ele>292.20001220703</ele>
        <time>2023-06-01T12:36:47.000Z</time>
      </trkpt>
      <trkpt lat="43.57425" lon="2.38081">
        <ele>292</ele>
        <time>2023-06-01T12:36:49.000Z</time>
      </trkpt>
      <trkpt lat="43.57425" lon="2.38079">
        <ele>292</ele>
        <time>2023-06-01T12:36:51.000Z</time>
      </trkpt>
      <trkpt lat="43.57425" lon="2.38078">
        <ele>291.79998779297</ele>
        <time>2023-06-01T12:36:52.000Z</time>
      </trkpt>
      <trkpt lat="43.57428" lon="2.38074">
        <ele>291.39999389648</ele>
        <time>2023-06-01T12:36:55.000Z</time>
      </trkpt>
      <trkpt lat="43.57429" lon="2.38073">
        <ele>291.39999389648</ele>
        <time>2023-06-01T12:36:56.000Z</time>
      </trkpt>
      <trkpt lat="43.57429" lon="2.3807">
        <ele>291.20001220703</ele>
        <time>2023-06-01T12:36:58.000Z</time>
      </trkpt>
      <trkpt lat="43.57431" lon="2.38066">
        <ele>290.79998779297</ele>
        <time>2023-06-01T12:37:01.000Z</time>
      </trkpt>
      <trkpt lat="43.57431" lon="2.38065">
        <ele>290.60000610352</ele>
        <time>2023-06-01T12:37:02.000Z</time>
      </trkpt>
      <trkpt lat="43.57431" lon="2.38062">
        <ele>290.39999389648</ele>
        <time>2023-06-01T12:37:04.000Z</time>
      </trkpt>
      <trkpt lat="43.57431" lon="2.3806">
        <ele>289.60000610352</ele>
        <time>2023-06-01T12:37:07.000Z</time>
      </trkpt>
      <trkpt lat="43.57433" lon="2.38057">
        <ele>289.20001220703</ele>
        <time>2023-06-01T12:37:09.000Z</time>
      </trkpt>
      <trkpt lat="43.57433" lon="2.38055">
        <ele>288.79998779297</ele>
        <time>2023-06-01T12:37:12.000Z</time>
      </trkpt>
      <trkpt lat="43.57433" lon="2.38051">
        <ele>288.20001220703</ele>
        <time>2023-06-01T12:37:16.000Z</time>
      </trkpt>
      <trkpt lat="43.57434" lon="2.38048">
        <ele>287.79998779297</ele>
        <time>2023-06-01T12:37:18.000Z</time>
      </trkpt>
      <trkpt lat="43.57436" lon="2.38046">
        <ele>287.39999389648</ele>
        <time>2023-06-01T12:37:20.000Z</time>
      </trkpt>
      <trkpt lat="43.57437" lon="2.38045">
        <ele>287.20001220703</ele>
        <time>2023-06-01T12:37:22.000Z</time>
      </trkpt>
      <trkpt lat="43.57438" lon="2.38043">
        <ele>286.79998779297</ele>
        <time>2023-06-01T12:37:24.000Z</time>
      </trkpt>
      <trkpt lat="43.57442" lon="2.38039">
        <ele>286.20001220703</ele>
        <time>2023-06-01T12:37:27.000Z</time>
      </trkpt>
      <trkpt lat="43.57442" lon="2.38038">
        <ele>286</ele>
        <time>2023-06-01T12:37:28.000Z</time>
      </trkpt>
      <trkpt lat="43.57443" lon="2.38037">
        <ele>285.79998779297</ele>
        <time>2023-06-01T12:37:29.000Z</time>
      </trkpt>
      <trkpt lat="43.57445" lon="2.38033">
        <ele>285.39999389648</ele>
        <time>2023-06-01T12:37:33.000Z</time>
      </trkpt>
      <trkpt lat="43.57446" lon="2.38031">
        <ele>285.20001220703</ele>
        <time>2023-06-01T12:37:34.000Z</time>
      </trkpt>
      <trkpt lat="43.57448" lon="2.3803">
        <ele>285</ele>
        <time>2023-06-01T12:37:37.000Z</time>
      </trkpt>
      <trkpt lat="43.57448" lon="2.38028">
        <ele>284.79998779297</ele>
        <time>2023-06-01T12:37:38.000Z</time>
      </trkpt>
      <trkpt lat="43.57449" lon="2.38027">
        <ele>284.60000610352</ele>
        <time>2023-06-01T12:37:39.000Z</time>
      </trkpt>
      <trkpt lat="43.57451" lon="2.38021">
        <ele>284</ele>
        <time>2023-06-01T12:37:43.000Z</time>
      </trkpt>
      <trkpt lat="43.57452" lon="2.38019">
        <ele>283.79998779297</ele>
        <time>2023-06-01T12:37:44.000Z</time>
      </trkpt>
      <trkpt lat="43.57452" lon="2.38018">
        <ele>283.60000610352</ele>
        <time>2023-06-01T12:37:45.000Z</time>
      </trkpt>
      <trkpt lat="43.57453" lon="2.38016">
        <ele>283.20001220703</ele>
        <time>2023-06-01T12:37:49.000Z</time>
      </trkpt>
      <trkpt lat="43.57455" lon="2.38011">
        <ele>283.20001220703</ele>
        <time>2023-06-01T12:37:58.000Z</time>
      </trkpt>
      <trkpt lat="43.57459" lon="2.38">
        <ele>282.79998779297</ele>
        <time>2023-06-01T12:38:07.000Z</time>
      </trkpt>
      <trkpt lat="43.5746" lon="2.37999">
        <ele>282.79998779297</ele>
        <time>2023-06-01T12:38:08.000Z</time>
      </trkpt>
      <trkpt lat="43.57464" lon="2.37989">
        <ele>282.20001220703</ele>
        <time>2023-06-01T12:38:16.000Z</time>
      </trkpt>
      <trkpt lat="43.57465" lon="2.37986">
        <ele>281.60000610352</ele>
        <time>2023-06-01T12:38:18.000Z</time>
      </trkpt>
      <trkpt lat="43.57468" lon="2.37983">
        <ele>280.60000610352</ele>
        <time>2023-06-01T12:38:22.000Z</time>
      </trkpt>
      <trkpt lat="43.57467" lon="2.37984">
        <ele>280.20001220703</ele>
        <time>2023-06-01T12:38:23.000Z</time>
      </trkpt>
      <trkpt lat="43.5747" lon="2.37982">
        <ele>279.60000610352</ele>
        <time>2023-06-01T12:38:29.000Z</time>
      </trkpt>
      <trkpt lat="43.57471" lon="2.37982">
        <ele>279.39999389648</ele>
        <time>2023-06-01T12:38:31.000Z</time>
      </trkpt>
      <trkpt lat="43.57471" lon="2.37981">
        <ele>279.20001220703</ele>
        <time>2023-06-01T12:38:35.000Z</time>
      </trkpt>
      <trkpt lat="43.57473" lon="2.37983">
        <ele>279.39999389648</ele>
        <time>2023-06-01T12:38:47.000Z</time>
      </trkpt>
      <trkpt lat="43.57475" lon="2.37984">
        <ele>280.60000610352</ele>
        <time>2023-06-01T12:38:55.000Z</time>
      </trkpt>
      <trkpt lat="43.57479" lon="2.37985">
        <ele>280.60000610352</ele>
        <time>2023-06-01T12:39:00.000Z</time>
      </trkpt>
      <trkpt lat="43.5748" lon="2.37986">
        <ele>280.60000610352</ele>
        <time>2023-06-01T12:39:03.000Z</time>
      </trkpt>
      <trkpt lat="43.5748" lon="2.37988">
        <ele>280.60000610352</ele>
        <time>2023-06-01T12:39:08.000Z</time>
      </trkpt>
      <trkpt lat="43.57479" lon="2.3799">
        <ele>280.60000610352</ele>
        <time>2023-06-01T12:39:17.000Z</time>
      </trkpt>
      <trkpt lat="43.57479" lon="2.37989">
        <ele>280.60000610352</ele>
        <time>2023-06-01T12:39:26.000Z</time>
      </trkpt>
      <trkpt lat="43.57477" lon="2.37995">
        <ele>280.39999389648</ele>
        <time>2023-06-01T12:39:31.000Z</time>
      </trkpt>
      <trkpt lat="43.5747" lon="2.37999">
        <ele>281.20001220703</ele>
        <time>2023-06-01T12:39:37.000Z</time>
      </trkpt>
      <trkpt lat="43.57466" lon="2.38001">
        <ele>281.60000610352</ele>
        <time>2023-06-01T12:39:40.000Z</time>
      </trkpt>
      <trkpt lat="43.57464" lon="2.38002">
        <ele>281.79998779297</ele>
        <time>2023-06-01T12:39:42.000Z</time>
      </trkpt>
      <trkpt lat="43.57464" lon="2.38">
        <ele>282.39999389648</ele>
        <time>2023-06-01T12:39:44.000Z</time>
      </trkpt>
      <trkpt lat="43.57465" lon="2.37997">
        <ele>282.79998779297</ele>
        <time>2023-06-01T12:39:46.000Z</time>
      </trkpt>
      <trkpt lat="43.57468" lon="2.37988">
        <ele>283.20001220703</ele>
        <time>2023-06-01T12:39:51.000Z</time>
      </trkpt>
      <trkpt lat="43.57469" lon="2.37987">
        <ele>282.79998779297</ele>
        <time>2023-06-01T12:39:56.000Z</time>
      </trkpt>
      <trkpt lat="43.57469" lon="2.37988">
        <ele>282.60000610352</ele>
        <time>2023-06-01T12:40:02.000Z</time>
      </trkpt>
      <trkpt lat="43.57462" lon="2.37982">
        <ele>282.60000610352</ele>
        <time>2023-06-01T12:40:06.000Z</time>
      </trkpt>
      <trkpt lat="43.57471" lon="2.37953">
        <ele>282.60000610352</ele>
        <time>2023-06-01T12:40:46.000Z</time>
      </trkpt>
      <trkpt lat="43.57469" lon="2.37958">
        <ele>282.60000610352</ele>
        <time>2023-06-01T12:40:47.000Z</time>
      </trkpt>
      <trkpt lat="43.57464" lon="2.37962">
        <ele>282.60000610352</ele>
        <time>2023-06-01T12:40:50.000Z</time>
      </trkpt>
      <trkpt lat="43.57464" lon="2.37962">
        <ele>282.79998779297</ele>
        <time>2023-06-01T12:40:51.000Z</time>
      </trkpt>
      <trkpt lat="43.57462" lon="2.37965">
        <ele>284</ele>
        <time>2023-06-01T12:40:57.000Z</time>
      </trkpt>
      <trkpt lat="43.57462" lon="2.37964">
        <ele>285</ele>
        <time>2023-06-01T12:41:02.000Z</time>
      </trkpt>
      <trkpt lat="43.57464" lon="2.37963">
        <ele>285.20001220703</ele>
        <time>2023-06-01T12:41:09.000Z</time>
      </trkpt>
      <trkpt lat="43.57464" lon="2.37963">
        <ele>285.20001220703</ele>
        <time>2023-06-01T12:41:16.000Z</time>
      </trkpt>
      <trkpt lat="43.57472" lon="2.3797">
        <ele>285.20001220703</ele>
        <time>2023-06-01T12:41:21.000Z</time>
      </trkpt>
      <trkpt lat="43.57476" lon="2.3797">
        <ele>285.20001220703</ele>
        <time>2023-06-01T12:41:22.000Z</time>
      </trkpt>
      <trkpt lat="43.57474" lon="2.37971">
        <ele>285.20001220703</ele>
        <time>2023-06-01T12:41:24.000Z</time>
      </trkpt>
      <trkpt lat="43.57472" lon="2.37971">
        <ele>285.20001220703</ele>
        <time>2023-06-01T12:41:27.000Z</time>
      </trkpt>
      <trkpt lat="43.57471" lon="2.37971">
        <ele>285.39999389648</ele>
        <time>2023-06-01T12:41:30.000Z</time>
      </trkpt>
      <trkpt lat="43.57469" lon="2.37974">
        <ele>285.39999389648</ele>
        <time>2023-06-01T12:41:35.000Z</time>
      </trkpt>
      <trkpt lat="43.57467" lon="2.37977">
        <ele>285.20001220703</ele>
        <time>2023-06-01T12:41:38.000Z</time>
      </trkpt>
      <trkpt lat="43.57467" lon="2.37978">
        <ele>285.20001220703</ele>
        <time>2023-06-01T12:41:39.000Z</time>
      </trkpt>
      <trkpt lat="43.5747" lon="2.37977">
        <ele>285.39999389648</ele>
        <time>2023-06-01T12:41:41.000Z</time>
      </trkpt>
      <trkpt lat="43.57475" lon="2.37974">
        <ele>285.39999389648</ele>
        <time>2023-06-01T12:41:44.000Z</time>
      </trkpt>
      <trkpt lat="43.57473" lon="2.37972">
        <ele>285.60000610352</ele>
        <time>2023-06-01T12:41:49.000Z</time>
      </trkpt>
      <trkpt lat="43.5747" lon="2.37969">
        <ele>285.60000610352</ele>
        <time>2023-06-01T12:41:54.000Z</time>
      </trkpt>
      <trkpt lat="43.57468" lon="2.37969">
        <ele>285.60000610352</ele>
        <time>2023-06-01T12:41:57.000Z</time>
      </trkpt>
      <trkpt lat="43.57467" lon="2.3797">
        <ele>285.60000610352</ele>
        <time>2023-06-01T12:41:59.000Z</time>
      </trkpt>
      <trkpt lat="43.57468" lon="2.3797">
        <ele>285.60000610352</ele>
        <time>2023-06-01T12:42:04.000Z</time>
      </trkpt>
      <trkpt lat="43.57472" lon="2.37968">
        <ele>285.79998779297</ele>
        <time>2023-06-01T12:42:10.000Z</time>
      </trkpt>
      <trkpt lat="43.5747" lon="2.37966">
        <ele>285.60000610352</ele>
        <time>2023-06-01T12:42:13.000Z</time>
      </trkpt>
      <trkpt lat="43.57468" lon="2.37966">
        <ele>285.60000610352</ele>
        <time>2023-06-01T12:42:14.000Z</time>
      </trkpt>
      <trkpt lat="43.57467" lon="2.37965">
        <ele>285.60000610352</ele>
        <time>2023-06-01T12:42:19.000Z</time>
      </trkpt>
      <trkpt lat="43.57465" lon="2.37965">
        <ele>285.60000610352</ele>
        <time>2023-06-01T12:42:24.000Z</time>
      </trkpt>
      <trkpt lat="43.57461" lon="2.37967">
        <ele>285.39999389648</ele>
        <time>2023-06-01T12:42:30.000Z</time>
      </trkpt>
      <trkpt lat="43.57458" lon="2.37966">
        <ele>285.39999389648</ele>
        <time>2023-06-01T12:42:35.000Z</time>
      </trkpt>
      <trkpt lat="43.57459" lon="2.37967">
        <ele>285.20001220703</ele>
        <time>2023-06-01T12:42:39.000Z</time>
      </trkpt>
      <trkpt lat="43.5746" lon="2.37967">
        <ele>285</ele>
        <time>2023-06-01T12:42:44.000Z</time>
      </trkpt>
      <trkpt lat="43.57463" lon="2.37968">
        <ele>284.79998779297</ele>
        <time>2023-06-01T12:42:51.000Z</time>
      </trkpt>
      <trkpt lat="43.57474" lon="2.37968">
        <ele>285.20001220703</ele>
        <time>2023-06-01T12:42:56.000Z</time>
      </trkpt>
      <trkpt lat="43.57473" lon="2.37967">
        <ele>285.39999389648</ele>
        <time>2023-06-01T12:43:02.000Z</time>
      </trkpt>
      <trkpt lat="43.57468" lon="2.37968">
        <ele>285.39999389648</ele>
        <time>2023-06-01T12:43:08.000Z</time>
      </trkpt>
      <trkpt lat="43.57463" lon="2.3797">
        <ele>284.79998779297</ele>
        <time>2023-06-01T12:43:15.000Z</time>
      </trkpt>
      <trkpt lat="43.5746" lon="2.3797">
        <ele>284.60000610352</ele>
        <time>2023-06-01T12:43:20.000Z</time>
      </trkpt>
      <trkpt lat="43.57452" lon="2.37976">
        <ele>284.39999389648</ele>
        <time>2023-06-01T12:43:23.000Z</time>
      </trkpt>
      <trkpt lat="43.57449" lon="2.37977">
        <ele>284.20001220703</ele>
        <time>2023-06-01T12:43:24.000Z</time>
      </trkpt>
      <trkpt lat="43.57451" lon="2.37977">
        <ele>284.20001220703</ele>
        <time>2023-06-01T12:43:27.000Z</time>
      </trkpt>
      <trkpt lat="43.57452" lon="2.37976">
        <ele>284.20001220703</ele>
        <time>2023-06-01T12:43:28.000Z</time>
      </trkpt>
      <trkpt lat="43.57454" lon="2.37972">
        <ele>284.20001220703</ele>
        <time>2023-06-01T12:43:33.000Z</time>
      </trkpt>
      <trkpt lat="43.57457" lon="2.37972">
        <ele>284.20001220703</ele>
        <time>2023-06-01T12:43:37.000Z</time>
      </trkpt>
      <trkpt lat="43.57458" lon="2.37971">
        <ele>284</ele>
        <time>2023-06-01T12:43:39.000Z</time>
      </trkpt>
      <trkpt lat="43.57461" lon="2.37971">
        <ele>284</ele>
        <time>2023-06-01T12:43:42.000Z</time>
      </trkpt>
      <trkpt lat="43.5746" lon="2.3797">
        <ele>284.39999389648</ele>
        <time>2023-06-01T12:43:48.000Z</time>
      </trkpt>
      <trkpt lat="43.57462" lon="2.37971">
        <ele>284</ele>
        <time>2023-06-01T12:43:53.000Z</time>
      </trkpt>
      <trkpt lat="43.57462" lon="2.37971">
        <ele>284.20001220703</ele>
        <time>2023-06-01T12:43:59.000Z</time>
      </trkpt>
      <trkpt lat="43.57462" lon="2.37971">
        <ele>284.20001220703</ele>
        <time>2023-06-01T12:44:05.000Z</time>
      </trkpt>
      <trkpt lat="43.5746" lon="2.3797">
        <ele>284.39999389648</ele>
        <time>2023-06-01T12:44:12.000Z</time>
      </trkpt>
      <trkpt lat="43.57466" lon="2.37965">
        <ele>284.39999389648</ele>
        <time>2023-06-01T12:44:16.000Z</time>
      </trkpt>
      <trkpt lat="43.57461" lon="2.37965">
        <ele>284.39999389648</ele>
        <time>2023-06-01T12:44:19.000Z</time>
      </trkpt>
      <trkpt lat="43.57461" lon="2.37964">
        <ele>284.39999389648</ele>
        <time>2023-06-01T12:44:20.000Z</time>
      </trkpt>
      <trkpt lat="43.57459" lon="2.37963">
        <ele>284.79998779297</ele>
        <time>2023-06-01T12:44:24.000Z</time>
      </trkpt>
      <trkpt lat="43.57458" lon="2.37963">
        <ele>285</ele>
        <time>2023-06-01T12:44:26.000Z</time>
      </trkpt>
      <trkpt lat="43.5746" lon="2.37965">
        <ele>285</ele>
        <time>2023-06-01T12:44:29.000Z</time>
      </trkpt>
      <trkpt lat="43.57457" lon="2.37968">
        <ele>285</ele>
        <time>2023-06-01T12:44:34.000Z</time>
      </trkpt>
      <trkpt lat="43.57454" lon="2.37967">
        <ele>284.60000610352</ele>
        <time>2023-06-01T12:44:39.000Z</time>
      </trkpt>
      <trkpt lat="43.57451" lon="2.37966">
        <ele>284.39999389648</ele>
        <time>2023-06-01T12:44:44.000Z</time>
      </trkpt>
      <trkpt lat="43.57452" lon="2.37967">
        <ele>284.20001220703</ele>
        <time>2023-06-01T12:44:49.000Z</time>
      </trkpt>
      <trkpt lat="43.57458" lon="2.37966">
        <ele>284.39999389648</ele>
        <time>2023-06-01T12:44:51.000Z</time>
      </trkpt>
      <trkpt lat="43.57458" lon="2.37966">
        <ele>284.60000610352</ele>
        <time>2023-06-01T12:44:54.000Z</time>
      </trkpt>
      <trkpt lat="43.57461" lon="2.37965">
        <ele>284.79998779297</ele>
        <time>2023-06-01T12:45:00.000Z</time>
      </trkpt>
      <trkpt lat="43.57461" lon="2.37965">
        <ele>284.60000610352</ele>
        <time>2023-06-01T12:45:06.000Z</time>
      </trkpt>
      <trkpt lat="43.57461" lon="2.37966">
        <ele>284.60000610352</ele>
        <time>2023-06-01T12:45:12.000Z</time>
      </trkpt>
      <trkpt lat="43.57458" lon="2.37965">
        <ele>284.60000610352</ele>
        <time>2023-06-01T12:45:18.000Z</time>
      </trkpt>
      <trkpt lat="43.57457" lon="2.37964">
        <ele>284.79998779297</ele>
        <time>2023-06-01T12:45:24.000Z</time>
      </trkpt>
      <trkpt lat="43.57456" lon="2.37963">
        <ele>284.20001220703</ele>
        <time>2023-06-01T12:45:29.000Z</time>
      </trkpt>
      <trkpt lat="43.57456" lon="2.37964">
        <ele>284.79998779297</ele>
        <time>2023-06-01T12:45:36.000Z</time>
      </trkpt>
      <trkpt lat="43.57457" lon="2.37965">
        <ele>284.79998779297</ele>
        <time>2023-06-01T12:45:40.000Z</time>
      </trkpt>
      <trkpt lat="43.57462" lon="2.37964">
        <ele>285</ele>
        <time>2023-06-01T12:45:44.000Z</time>
      </trkpt>
      <trkpt lat="43.57465" lon="2.37965">
        <ele>284.39999389648</ele>
        <time>2023-06-01T12:45:47.000Z</time>
      </trkpt>
      <trkpt lat="43.57466" lon="2.37964">
        <ele>284.60000610352</ele>
        <time>2023-06-01T12:45:49.000Z</time>
      </trkpt>
      <trkpt lat="43.57462" lon="2.37965">
        <ele>284.79998779297</ele>
        <time>2023-06-01T12:45:53.000Z</time>
      </trkpt>
      <trkpt lat="43.57461" lon="2.37964">
        <ele>284.79998779297</ele>
        <time>2023-06-01T12:45:54.000Z</time>
      </trkpt>
      <trkpt lat="43.57464" lon="2.37964">
        <ele>284.79998779297</ele>
        <time>2023-06-01T12:45:58.000Z</time>
      </trkpt>
      <trkpt lat="43.57473" lon="2.37963">
        <ele>285.20001220703</ele>
        <time>2023-06-01T12:46:03.000Z</time>
      </trkpt>
      <trkpt lat="43.57475" lon="2.37963">
        <ele>285.20001220703</ele>
        <time>2023-06-01T12:46:06.000Z</time>
      </trkpt>
      <trkpt lat="43.57474" lon="2.37964">
        <ele>285.60000610352</ele>
        <time>2023-06-01T12:46:08.000Z</time>
      </trkpt>
      <trkpt lat="43.5747" lon="2.37967">
        <ele>285.39999389648</ele>
        <time>2023-06-01T12:46:15.000Z</time>
      </trkpt>
      <trkpt lat="43.57473" lon="2.37968">
        <ele>285.60000610352</ele>
        <time>2023-06-01T12:46:20.000Z</time>
      </trkpt>
      <trkpt lat="43.57474" lon="2.37964">
        <ele>285</ele>
        <time>2023-06-01T12:46:25.000Z</time>
      </trkpt>
      <trkpt lat="43.57472" lon="2.37964">
        <ele>285.60000610352</ele>
        <time>2023-06-01T12:46:30.000Z</time>
      </trkpt>
      <trkpt lat="43.57471" lon="2.37964">
        <ele>285.20001220703</ele>
        <time>2023-06-01T12:46:34.000Z</time>
      </trkpt>
      <trkpt lat="43.57469" lon="2.37964">
        <ele>284.60000610352</ele>
        <time>2023-06-01T12:46:39.000Z</time>
      </trkpt>
    </trkseg>
  </trk>
</gpx>